<?xml version="1.0" encoding="UTF-8" standalone="no" ?>
<gpx xmlns="http://www.topografix.com/GPX/1/1" xmlns:xsi="http://www.w3.org/2001/XMLSchema-instance" xsi:schemaLocation="http://www.topografix.com/GPX/1/1 http://www.topografix.com/GPX/1/1/gpx.xsd" version="1.1" creator="VisuGPX - https://www.visugpx.com">
  <metadata>
    <name>Rando Dordogne - Etape 6 Brantôme/St Sulpice de Mareuil</name>
    <desc><![CDATA[Départ de l\'hotel Aliénor de Brantôme
Arrivée au centre equestre de St Sulpice ]]></desc>
  </metadata>
  <trk>
    <name><![CDATA[Rando Dordogne - Etape 6 Brantôme/St Sulpice de Mareuil_1]]></name>
    <trkseg>
      <trkpt lat="45.35347" lon="0.6497">
        <ele>93.4</ele>
        <time>2015-08-08T09:32:39Z</time>
      </trkpt>
      <trkpt lat="45.35347" lon="0.64968">
        <ele>93.4</ele>
        <time>2015-08-08T09:32:44Z</time>
      </trkpt>
      <trkpt lat="45.35347" lon="0.6497">
        <ele>93.4</ele>
        <time>2015-08-08T09:32:49Z</time>
      </trkpt>
      <trkpt lat="45.35346" lon="0.64974">
        <ele>93.4</ele>
        <time>2015-08-08T09:32:54Z</time>
      </trkpt>
      <trkpt lat="45.35351" lon="0.64978">
        <ele>96.843643726982</ele>
        <time>2015-08-08T09:32:59Z</time>
      </trkpt>
      <trkpt lat="45.35351" lon="0.64976">
        <ele>96.843643726982</ele>
        <time>2015-08-08T09:33:04Z</time>
      </trkpt>
      <trkpt lat="45.35356" lon="0.64974">
        <ele>96.843643726982</ele>
        <time>2015-08-08T09:33:09Z</time>
      </trkpt>
      <trkpt lat="45.35362" lon="0.64974">
        <ele>97.102046429295</ele>
        <time>2015-08-08T09:33:14Z</time>
      </trkpt>
      <trkpt lat="45.35364" lon="0.64975">
        <ele>97.102046429295</ele>
        <time>2015-08-08T09:33:19Z</time>
      </trkpt>
      <trkpt lat="45.35364" lon="0.64975">
        <ele>97.102046429295</ele>
        <time>2015-08-08T09:33:24Z</time>
      </trkpt>
      <trkpt lat="45.35373" lon="0.64976">
        <ele>97.903365054534</ele>
        <time>2015-08-08T09:33:29Z</time>
      </trkpt>
      <trkpt lat="45.35379" lon="0.64981">
        <ele>97.903365054534</ele>
        <time>2015-08-08T09:33:34Z</time>
      </trkpt>
      <trkpt lat="45.35385" lon="0.64987">
        <ele>98.20180762263</ele>
        <time>2015-08-08T09:33:39Z</time>
      </trkpt>
      <trkpt lat="45.35389" lon="0.64993">
        <ele>98.20180762263</ele>
        <time>2015-08-08T09:33:44Z</time>
      </trkpt>
      <trkpt lat="45.35391" lon="0.65002">
        <ele>98.321596287478</ele>
        <time>2015-08-08T09:33:49Z</time>
      </trkpt>
      <trkpt lat="45.35392" lon="0.65009">
        <ele>98.321596287478</ele>
        <time>2015-08-08T09:33:54Z</time>
      </trkpt>
      <trkpt lat="45.35394" lon="0.65019">
        <ele>98.396512245555</ele>
        <time>2015-08-08T09:33:59Z</time>
      </trkpt>
      <trkpt lat="45.35395" lon="0.65028">
        <ele>98.396512245555</ele>
        <time>2015-08-08T09:34:04Z</time>
      </trkpt>
      <trkpt lat="45.35394" lon="0.65036">
        <ele>98.827798476158</ele>
        <time>2015-08-08T09:34:09Z</time>
      </trkpt>
      <trkpt lat="45.3539" lon="0.65033">
        <ele>98.827798476158</ele>
        <time>2015-08-08T09:34:14Z</time>
      </trkpt>
      <trkpt lat="45.3539" lon="0.65037">
        <ele>98.827798476158</ele>
        <time>2015-08-08T09:34:19Z</time>
      </trkpt>
      <trkpt lat="45.3539" lon="0.65041">
        <ele>98.570386033573</ele>
        <time>2015-08-08T09:34:24Z</time>
      </trkpt>
      <trkpt lat="45.3539" lon="0.65041">
        <ele>98.570386033573</ele>
        <time>2015-08-08T09:34:29Z</time>
      </trkpt>
      <trkpt lat="45.3539" lon="0.65048">
        <ele>98.570386033573</ele>
        <time>2015-08-08T09:34:34Z</time>
      </trkpt>
      <trkpt lat="45.3539" lon="0.65046">
        <ele>98.570386033573</ele>
        <time>2015-08-08T09:34:39Z</time>
      </trkpt>
      <trkpt lat="45.35388" lon="0.65047">
        <ele>98.464252823101</ele>
        <time>2015-08-08T09:34:44Z</time>
      </trkpt>
      <trkpt lat="45.35387" lon="0.65045">
        <ele>98.464252823101</ele>
        <time>2015-08-08T09:34:49Z</time>
      </trkpt>
      <trkpt lat="45.35388" lon="0.65051">
        <ele>98.464252823101</ele>
        <time>2015-08-08T09:34:54Z</time>
      </trkpt>
      <trkpt lat="45.35388" lon="0.65055">
        <ele>98.464252823101</ele>
        <time>2015-08-08T09:34:59Z</time>
      </trkpt>
      <trkpt lat="45.35389" lon="0.6506">
        <ele>97.426788259622</ele>
        <time>2015-08-08T09:35:04Z</time>
      </trkpt>
      <trkpt lat="45.35393" lon="0.65069">
        <ele>97.426788259622</ele>
        <time>2015-08-08T09:35:15Z</time>
      </trkpt>
      <trkpt lat="45.35393" lon="0.65071">
        <ele>97.426788259622</ele>
        <time>2015-08-08T09:35:20Z</time>
      </trkpt>
      <trkpt lat="45.35391" lon="0.65076">
        <ele>97.220679454417</ele>
        <time>2015-08-08T09:35:30Z</time>
      </trkpt>
      <trkpt lat="45.35392" lon="0.65083">
        <ele>97.220679454417</ele>
        <time>2015-08-08T09:35:36Z</time>
      </trkpt>
      <trkpt lat="45.3539" lon="0.65095">
        <ele>97.344973176369</ele>
        <time>2015-08-08T09:35:45Z</time>
      </trkpt>
      <trkpt lat="45.35391" lon="0.651">
        <ele>97.344973176369</ele>
        <time>2015-08-08T09:35:50Z</time>
      </trkpt>
      <trkpt lat="45.35395" lon="0.65112">
        <ele>98.026055815441</ele>
        <time>2015-08-08T09:36:00Z</time>
      </trkpt>
      <trkpt lat="45.35396" lon="0.65116">
        <ele>98.026055815441</ele>
        <time>2015-08-08T09:36:05Z</time>
      </trkpt>
      <trkpt lat="45.35403" lon="0.65136">
        <ele>97.664848729775</ele>
        <time>2015-08-08T09:36:21Z</time>
      </trkpt>
      <trkpt lat="45.35406" lon="0.65144">
        <ele>97.664848729775</ele>
        <time>2015-08-08T09:36:24Z</time>
      </trkpt>
      <trkpt lat="45.35409" lon="0.65158">
        <ele>97.159217082758</ele>
        <time>2015-08-08T09:36:36Z</time>
      </trkpt>
      <trkpt lat="45.35408" lon="0.65164">
        <ele>97.159217082758</ele>
        <time>2015-08-08T09:36:40Z</time>
      </trkpt>
      <trkpt lat="45.35419" lon="0.65175">
        <ele>96.845542023951</ele>
        <time>2015-08-08T09:36:51Z</time>
      </trkpt>
      <trkpt lat="45.35423" lon="0.65176">
        <ele>96.845542023951</ele>
        <time>2015-08-08T09:36:56Z</time>
      </trkpt>
      <trkpt lat="45.35436" lon="0.6518">
        <ele>97.069662345706</ele>
        <time>2015-08-08T09:37:05Z</time>
      </trkpt>
      <trkpt lat="45.3544" lon="0.65179">
        <ele>97.069662345706</ele>
        <time>2015-08-08T09:37:09Z</time>
      </trkpt>
      <trkpt lat="45.35452" lon="0.65175">
        <ele>97.371216032675</ele>
        <time>2015-08-08T09:37:21Z</time>
      </trkpt>
      <trkpt lat="45.35459" lon="0.65174">
        <ele>97.371216032675</ele>
        <time>2015-08-08T09:37:24Z</time>
      </trkpt>
      <trkpt lat="45.35472" lon="0.65175">
        <ele>98.075707711396</ele>
        <time>2015-08-08T09:37:36Z</time>
      </trkpt>
      <trkpt lat="45.35476" lon="0.65177">
        <ele>98.075707711396</ele>
        <time>2015-08-08T09:37:40Z</time>
      </trkpt>
      <trkpt lat="45.35484" lon="0.65184">
        <ele>99.040802684669</ele>
        <time>2015-08-08T09:37:49Z</time>
      </trkpt>
      <trkpt lat="45.35489" lon="0.65182">
        <ele>99.040802684669</ele>
        <time>2015-08-08T09:37:56Z</time>
      </trkpt>
      <trkpt lat="45.35503" lon="0.65181">
        <ele>99.121044767885</ele>
        <time>2015-08-08T09:38:05Z</time>
      </trkpt>
      <trkpt lat="45.35512" lon="0.65183">
        <ele>98.814319841676</ele>
        <time>2015-08-08T09:38:11Z</time>
      </trkpt>
      <trkpt lat="45.35522" lon="0.65186">
        <ele>98.915564428912</ele>
        <time>2015-08-08T09:38:25Z</time>
      </trkpt>
      <trkpt lat="45.35526" lon="0.65187">
        <ele>98.915564428912</ele>
        <time>2015-08-08T09:38:29Z</time>
      </trkpt>
      <trkpt lat="45.35531" lon="0.65186">
        <ele>98.404787713751</ele>
        <time>2015-08-08T09:38:36Z</time>
      </trkpt>
      <trkpt lat="45.35532" lon="0.65187">
        <ele>98.404787713751</ele>
        <time>2015-08-08T09:38:41Z</time>
      </trkpt>
      <trkpt lat="45.35533" lon="0.65188">
        <ele>98.404787713751</ele>
        <time>2015-08-08T09:38:45Z</time>
      </trkpt>
      <trkpt lat="45.35538" lon="0.6519">
        <ele>98.404787713751</ele>
        <time>2015-08-08T09:38:55Z</time>
      </trkpt>
      <trkpt lat="45.3554" lon="0.65189">
        <ele>97.46608852296</ele>
        <time>2015-08-08T09:39:01Z</time>
      </trkpt>
      <trkpt lat="45.35547" lon="0.65186">
        <ele>97.46608852296</ele>
        <time>2015-08-08T09:39:09Z</time>
      </trkpt>
      <trkpt lat="45.35552" lon="0.65183">
        <ele>96.821970945458</ele>
        <time>2015-08-08T09:39:16Z</time>
      </trkpt>
      <trkpt lat="45.35563" lon="0.65177">
        <ele>96.44285454677</ele>
        <time>2015-08-08T09:39:25Z</time>
      </trkpt>
      <trkpt lat="45.35567" lon="0.65176">
        <ele>96.44285454677</ele>
        <time>2015-08-08T09:39:29Z</time>
      </trkpt>
      <trkpt lat="45.35581" lon="0.65186">
        <ele>96.415992879668</ele>
        <time>2015-08-08T09:39:40Z</time>
      </trkpt>
      <trkpt lat="45.35585" lon="0.65194">
        <ele>96.415992879668</ele>
        <time>2015-08-08T09:39:45Z</time>
      </trkpt>
      <trkpt lat="45.35594" lon="0.6521">
        <ele>96.022100019253</ele>
        <time>2015-08-08T09:39:55Z</time>
      </trkpt>
      <trkpt lat="45.35597" lon="0.65216">
        <ele>96.022100019253</ele>
        <time>2015-08-08T09:40:01Z</time>
      </trkpt>
      <trkpt lat="45.35607" lon="0.65226">
        <ele>95.655513905373</ele>
        <time>2015-08-08T09:40:11Z</time>
      </trkpt>
      <trkpt lat="45.35612" lon="0.65224">
        <ele>95.655513905373</ele>
        <time>2015-08-08T09:40:15Z</time>
      </trkpt>
      <trkpt lat="45.35624" lon="0.65216">
        <ele>96.078226831127</ele>
        <time>2015-08-08T09:40:25Z</time>
      </trkpt>
      <trkpt lat="45.3563" lon="0.65211">
        <ele>96.078226831127</ele>
        <time>2015-08-08T09:40:29Z</time>
      </trkpt>
      <trkpt lat="45.35644" lon="0.65199">
        <ele>97.132036973612</ele>
        <time>2015-08-08T09:40:46Z</time>
      </trkpt>
      <trkpt lat="45.35651" lon="0.65196">
        <ele>97.132036973612</ele>
        <time>2015-08-08T09:40:51Z</time>
      </trkpt>
      <trkpt lat="45.35661" lon="0.65188">
        <ele>98.604169611201</ele>
        <time>2015-08-08T09:41:01Z</time>
      </trkpt>
      <trkpt lat="45.35666" lon="0.65188">
        <ele>98.604169611201</ele>
        <time>2015-08-08T09:41:05Z</time>
      </trkpt>
      <trkpt lat="45.35677" lon="0.65178">
        <ele>99.519362055792</ele>
        <time>2015-08-08T09:41:15Z</time>
      </trkpt>
      <trkpt lat="45.35683" lon="0.65173">
        <ele>99.519362055792</ele>
        <time>2015-08-08T09:41:21Z</time>
      </trkpt>
      <trkpt lat="45.35697" lon="0.65166">
        <ele>101.14066866253</ele>
        <time>2015-08-08T09:41:31Z</time>
      </trkpt>
      <trkpt lat="45.35705" lon="0.65169">
        <ele>101.14066866253</ele>
        <time>2015-08-08T09:41:35Z</time>
      </trkpt>
      <trkpt lat="45.35718" lon="0.65171">
        <ele>102.17444517379</ele>
        <time>2015-08-08T09:41:46Z</time>
      </trkpt>
      <trkpt lat="45.35724" lon="0.65172">
        <ele>102.17444517379</ele>
        <time>2015-08-08T09:41:49Z</time>
      </trkpt>
      <trkpt lat="45.35736" lon="0.65171">
        <ele>102.85090385596</ele>
        <time>2015-08-08T09:42:00Z</time>
      </trkpt>
      <trkpt lat="45.35742" lon="0.65171">
        <ele>102.85090385596</ele>
        <time>2015-08-08T09:42:05Z</time>
      </trkpt>
      <trkpt lat="45.35752" lon="0.65171">
        <ele>103.37341841448</ele>
        <time>2015-08-08T09:42:15Z</time>
      </trkpt>
      <trkpt lat="45.3576" lon="0.65174">
        <ele>103.37341841448</ele>
        <time>2015-08-08T09:42:21Z</time>
      </trkpt>
      <trkpt lat="45.35772" lon="0.65174">
        <ele>104.23476294437</ele>
        <time>2015-08-08T09:42:29Z</time>
      </trkpt>
      <trkpt lat="45.35777" lon="0.65176">
        <ele>104.23476294437</ele>
        <time>2015-08-08T09:42:35Z</time>
      </trkpt>
      <trkpt lat="45.35787" lon="0.65174">
        <ele>105.02545365718</ele>
        <time>2015-08-08T09:42:45Z</time>
      </trkpt>
      <trkpt lat="45.35793" lon="0.6517">
        <ele>105.02545365718</ele>
        <time>2015-08-08T09:42:50Z</time>
      </trkpt>
      <trkpt lat="45.35803" lon="0.65163">
        <ele>106.16695888184</ele>
        <time>2015-08-08T09:43:00Z</time>
      </trkpt>
      <trkpt lat="45.35808" lon="0.65158">
        <ele>106.16695888184</ele>
        <time>2015-08-08T09:43:06Z</time>
      </trkpt>
      <trkpt lat="45.35816" lon="0.65153">
        <ele>107.19858528146</ele>
        <time>2015-08-08T09:43:09Z</time>
      </trkpt>
      <trkpt lat="45.35829" lon="0.65146">
        <ele>108.79801439667</ele>
        <time>2015-08-08T09:43:21Z</time>
      </trkpt>
      <trkpt lat="45.35834" lon="0.65144">
        <ele>108.79801439667</ele>
        <time>2015-08-08T09:43:25Z</time>
      </trkpt>
      <trkpt lat="45.35849" lon="0.65138">
        <ele>109.81956061652</ele>
        <time>2015-08-08T09:43:36Z</time>
      </trkpt>
      <trkpt lat="45.35853" lon="0.65131">
        <ele>109.81956061652</ele>
        <time>2015-08-08T09:43:40Z</time>
      </trkpt>
      <trkpt lat="45.35864" lon="0.65122">
        <ele>110.65143654862</ele>
        <time>2015-08-08T09:43:49Z</time>
      </trkpt>
      <trkpt lat="45.35869" lon="0.65116">
        <ele>110.65143654862</ele>
        <time>2015-08-08T09:43:55Z</time>
      </trkpt>
      <trkpt lat="45.35881" lon="0.65103">
        <ele>110.61833149366</ele>
        <time>2015-08-08T09:44:06Z</time>
      </trkpt>
      <trkpt lat="45.35884" lon="0.65097">
        <ele>110.61833149366</ele>
        <time>2015-08-08T09:44:11Z</time>
      </trkpt>
      <trkpt lat="45.35893" lon="0.65081">
        <ele>110.54154892907</ele>
        <time>2015-08-08T09:44:20Z</time>
      </trkpt>
      <trkpt lat="45.35898" lon="0.65074">
        <ele>110.54154892907</ele>
        <time>2015-08-08T09:44:25Z</time>
      </trkpt>
      <trkpt lat="45.35905" lon="0.65056">
        <ele>110.80167309655</ele>
        <time>2015-08-08T09:44:36Z</time>
      </trkpt>
      <trkpt lat="45.35907" lon="0.65048">
        <ele>110.80167309655</ele>
        <time>2015-08-08T09:44:40Z</time>
      </trkpt>
      <trkpt lat="45.35914" lon="0.6502">
        <ele>111.16574448384</ele>
        <time>2015-08-08T09:44:55Z</time>
      </trkpt>
      <trkpt lat="45.35915" lon="0.6501">
        <ele>111.16574448384</ele>
        <time>2015-08-08T09:45:01Z</time>
      </trkpt>
      <trkpt lat="45.35916" lon="0.64991">
        <ele>110.87325072813</ele>
        <time>2015-08-08T09:45:09Z</time>
      </trkpt>
      <trkpt lat="45.35918" lon="0.6498">
        <ele>110.87325072813</ele>
        <time>2015-08-08T09:45:16Z</time>
      </trkpt>
      <trkpt lat="45.35924" lon="0.64965">
        <ele>110.7146601846</ele>
        <time>2015-08-08T09:45:26Z</time>
      </trkpt>
      <trkpt lat="45.35928" lon="0.64955">
        <ele>110.7146601846</ele>
        <time>2015-08-08T09:45:31Z</time>
      </trkpt>
      <trkpt lat="45.35932" lon="0.6494">
        <ele>110.27496123227</ele>
        <time>2015-08-08T09:45:41Z</time>
      </trkpt>
      <trkpt lat="45.35935" lon="0.64934">
        <ele>110.27496123227</ele>
        <time>2015-08-08T09:45:45Z</time>
      </trkpt>
      <trkpt lat="45.3594" lon="0.64928">
        <ele>110.2282610924</ele>
        <time>2015-08-08T09:45:49Z</time>
      </trkpt>
      <trkpt lat="45.35952" lon="0.64919">
        <ele>109.88210272024</ele>
        <time>2015-08-08T09:46:01Z</time>
      </trkpt>
      <trkpt lat="45.35957" lon="0.64913">
        <ele>109.88210272024</ele>
        <time>2015-08-08T09:46:05Z</time>
      </trkpt>
      <trkpt lat="45.35966" lon="0.64908">
        <ele>109.56432599461</ele>
        <time>2015-08-08T09:46:16Z</time>
      </trkpt>
      <trkpt lat="45.35973" lon="0.64902">
        <ele>109.56432599461</ele>
        <time>2015-08-08T09:46:20Z</time>
      </trkpt>
      <trkpt lat="45.3599" lon="0.64901">
        <ele>109.01936205836</ele>
        <time>2015-08-08T09:46:29Z</time>
      </trkpt>
      <trkpt lat="45.35995" lon="0.64891">
        <ele>109.01936205836</ele>
        <time>2015-08-08T09:46:35Z</time>
      </trkpt>
      <trkpt lat="45.36005" lon="0.64877">
        <ele>108.58424219738</ele>
        <time>2015-08-08T09:46:45Z</time>
      </trkpt>
      <trkpt lat="45.36008" lon="0.64876">
        <ele>108.58424219738</ele>
        <time>2015-08-08T09:46:51Z</time>
      </trkpt>
      <trkpt lat="45.36019" lon="0.64865">
        <ele>108.23774929214</ele>
        <time>2015-08-08T09:47:01Z</time>
      </trkpt>
      <trkpt lat="45.36026" lon="0.64864">
        <ele>108.23774929214</ele>
        <time>2015-08-08T09:47:05Z</time>
      </trkpt>
      <trkpt lat="45.36045" lon="0.64853">
        <ele>107.90008621438</ele>
        <time>2015-08-08T09:47:21Z</time>
      </trkpt>
      <trkpt lat="45.36062" lon="0.64848">
        <ele>108.03546190607</ele>
        <time>2015-08-08T09:47:36Z</time>
      </trkpt>
      <trkpt lat="45.36067" lon="0.64844">
        <ele>108.03546190607</ele>
        <time>2015-08-08T09:47:41Z</time>
      </trkpt>
      <trkpt lat="45.3608" lon="0.64839">
        <ele>108.51638294781</ele>
        <time>2015-08-08T09:47:49Z</time>
      </trkpt>
      <trkpt lat="45.36084" lon="0.64838">
        <ele>108.51638294781</ele>
        <time>2015-08-08T09:47:55Z</time>
      </trkpt>
      <trkpt lat="45.36098" lon="0.64829">
        <ele>108.98726895307</ele>
        <time>2015-08-08T09:48:06Z</time>
      </trkpt>
      <trkpt lat="45.36104" lon="0.64828">
        <ele>108.98726895307</ele>
        <time>2015-08-08T09:48:09Z</time>
      </trkpt>
      <trkpt lat="45.36114" lon="0.64826">
        <ele>108.50009589861</ele>
        <time>2015-08-08T09:48:21Z</time>
      </trkpt>
      <trkpt lat="45.36121" lon="0.64826">
        <ele>108.50009589861</ele>
        <time>2015-08-08T09:48:25Z</time>
      </trkpt>
      <trkpt lat="45.36135" lon="0.64829">
        <ele>108.09617169548</ele>
        <time>2015-08-08T09:48:34Z</time>
      </trkpt>
      <trkpt lat="45.36136" lon="0.64827">
        <ele>108.09617169548</ele>
        <time>2015-08-08T09:48:40Z</time>
      </trkpt>
      <trkpt lat="45.36136" lon="0.64814">
        <ele>107.62317623216</ele>
        <time>2015-08-08T09:48:50Z</time>
      </trkpt>
      <trkpt lat="45.36138" lon="0.64805">
        <ele>107.62317623216</ele>
        <time>2015-08-08T09:48:56Z</time>
      </trkpt>
      <trkpt lat="45.3614" lon="0.64786">
        <ele>106.97106048793</ele>
        <time>2015-08-08T09:49:06Z</time>
      </trkpt>
      <trkpt lat="45.36144" lon="0.64778">
        <ele>106.97106048793</ele>
        <time>2015-08-08T09:49:10Z</time>
      </trkpt>
      <trkpt lat="45.36151" lon="0.64761">
        <ele>106.61176384463</ele>
        <time>2015-08-08T09:49:21Z</time>
      </trkpt>
      <trkpt lat="45.36155" lon="0.64755">
        <ele>106.61176384463</ele>
        <time>2015-08-08T09:49:25Z</time>
      </trkpt>
      <trkpt lat="45.36171" lon="0.64758">
        <ele>105.7032049422</ele>
        <time>2015-08-08T09:49:36Z</time>
      </trkpt>
      <trkpt lat="45.36178" lon="0.6476">
        <ele>105.7032049422</ele>
        <time>2015-08-08T09:49:39Z</time>
      </trkpt>
      <trkpt lat="45.3619" lon="0.64763">
        <ele>104.75997395832</ele>
        <time>2015-08-08T09:49:50Z</time>
      </trkpt>
      <trkpt lat="45.36196" lon="0.64762">
        <ele>104.75997395832</ele>
        <time>2015-08-08T09:49:54Z</time>
      </trkpt>
      <trkpt lat="45.36209" lon="0.64765">
        <ele>103.87539202312</ele>
        <time>2015-08-08T09:50:10Z</time>
      </trkpt>
      <trkpt lat="45.36216" lon="0.64767">
        <ele>103.87539202312</ele>
        <time>2015-08-08T09:50:16Z</time>
      </trkpt>
      <trkpt lat="45.36233" lon="0.6477">
        <ele>103.47006833959</ele>
        <time>2015-08-08T09:50:25Z</time>
      </trkpt>
      <trkpt lat="45.36238" lon="0.64772">
        <ele>103.47006833959</ele>
        <time>2015-08-08T09:50:29Z</time>
      </trkpt>
      <trkpt lat="45.36255" lon="0.64776">
        <ele>102.99908700076</ele>
        <time>2015-08-08T09:50:41Z</time>
      </trkpt>
      <trkpt lat="45.3626" lon="0.64775">
        <ele>102.99908700076</ele>
        <time>2015-08-08T09:50:45Z</time>
      </trkpt>
      <trkpt lat="45.36277" lon="0.64775">
        <ele>101.93198122706</ele>
        <time>2015-08-08T09:50:56Z</time>
      </trkpt>
      <trkpt lat="45.36282" lon="0.64769">
        <ele>101.93198122706</ele>
        <time>2015-08-08T09:51:00Z</time>
      </trkpt>
      <trkpt lat="45.36288" lon="0.64749">
        <ele>100.92719068199</ele>
        <time>2015-08-08T09:51:10Z</time>
      </trkpt>
      <trkpt lat="45.36289" lon="0.64737">
        <ele>100.92719068199</ele>
        <time>2015-08-08T09:51:14Z</time>
      </trkpt>
      <trkpt lat="45.36293" lon="0.64723">
        <ele>99.953918107643</ele>
        <time>2015-08-08T09:51:26Z</time>
      </trkpt>
      <trkpt lat="45.36289" lon="0.64716">
        <ele>99.953918107643</ele>
        <time>2015-08-08T09:51:30Z</time>
      </trkpt>
      <trkpt lat="45.36295" lon="0.647">
        <ele>98.96918309293</ele>
        <time>2015-08-08T09:51:40Z</time>
      </trkpt>
      <trkpt lat="45.36303" lon="0.64692">
        <ele>98.179149949758</ele>
        <time>2015-08-08T09:51:45Z</time>
      </trkpt>
      <trkpt lat="45.36315" lon="0.64699">
        <ele>97.470212929303</ele>
        <time>2015-08-08T09:51:54Z</time>
      </trkpt>
      <trkpt lat="45.36317" lon="0.64694">
        <ele>97.470212929303</ele>
        <time>2015-08-08T09:52:01Z</time>
      </trkpt>
      <trkpt lat="45.36319" lon="0.64684">
        <ele>96.867166197427</ele>
        <time>2015-08-08T09:52:11Z</time>
      </trkpt>
      <trkpt lat="45.36319" lon="0.64683">
        <ele>96.867166197427</ele>
        <time>2015-08-08T09:52:15Z</time>
      </trkpt>
      <trkpt lat="45.36319" lon="0.64682">
        <ele>96.867166197427</ele>
        <time>2015-08-08T09:52:20Z</time>
      </trkpt>
      <trkpt lat="45.36319" lon="0.6468">
        <ele>96.867166197427</ele>
        <time>2015-08-08T09:52:26Z</time>
      </trkpt>
      <trkpt lat="45.36319" lon="0.64679">
        <ele>96.867166197427</ele>
        <time>2015-08-08T09:52:30Z</time>
      </trkpt>
      <trkpt lat="45.36319" lon="0.64679">
        <ele>96.867166197427</ele>
        <time>2015-08-08T09:52:34Z</time>
      </trkpt>
      <trkpt lat="45.36319" lon="0.64679">
        <ele>96.867166197427</ele>
        <time>2015-08-08T09:52:46Z</time>
      </trkpt>
      <trkpt lat="45.36317" lon="0.64682">
        <ele>96.867166197427</ele>
        <time>2015-08-08T09:52:50Z</time>
      </trkpt>
      <trkpt lat="45.36311" lon="0.64692">
        <ele>96.450358760359</ele>
        <time>2015-08-08T09:53:01Z</time>
      </trkpt>
      <trkpt lat="45.36311" lon="0.64691">
        <ele>96.450358760359</ele>
        <time>2015-08-08T09:53:05Z</time>
      </trkpt>
      <trkpt lat="45.36312" lon="0.64694">
        <ele>96.450358760359</ele>
        <time>2015-08-08T09:53:14Z</time>
      </trkpt>
      <trkpt lat="45.36314" lon="0.64691">
        <ele>96.450358760359</ele>
        <time>2015-08-08T09:53:21Z</time>
      </trkpt>
      <trkpt lat="45.36315" lon="0.64685">
        <ele>96.74091126409</ele>
        <time>2015-08-08T09:53:31Z</time>
      </trkpt>
      <trkpt lat="45.36316" lon="0.64684">
        <ele>96.74091126409</ele>
        <time>2015-08-08T09:53:36Z</time>
      </trkpt>
      <trkpt lat="45.36317" lon="0.64685">
        <ele>96.74091126409</ele>
        <time>2015-08-08T09:53:46Z</time>
      </trkpt>
      <trkpt lat="45.36318" lon="0.64683">
        <ele>96.74091126409</ele>
        <time>2015-08-08T09:53:50Z</time>
      </trkpt>
      <trkpt lat="45.36318" lon="0.64684">
        <ele>96.74091126409</ele>
        <time>2015-08-08T09:54:01Z</time>
      </trkpt>
      <trkpt lat="45.36318" lon="0.64684">
        <ele>96.74091126409</ele>
        <time>2015-08-08T09:54:05Z</time>
      </trkpt>
      <trkpt lat="45.36317" lon="0.64683">
        <ele>96.74091126409</ele>
        <time>2015-08-08T09:54:15Z</time>
      </trkpt>
      <trkpt lat="45.36321" lon="0.64674">
        <ele>97.209286704783</ele>
        <time>2015-08-08T09:54:21Z</time>
      </trkpt>
      <trkpt lat="45.36327" lon="0.6466">
        <ele>97.581290527344</ele>
        <time>2015-08-08T09:54:30Z</time>
      </trkpt>
      <trkpt lat="45.36331" lon="0.64653">
        <ele>97.581290527344</ele>
        <time>2015-08-08T09:54:35Z</time>
      </trkpt>
      <trkpt lat="45.3634" lon="0.64647">
        <ele>97.675375781913</ele>
        <time>2015-08-08T09:54:46Z</time>
      </trkpt>
      <trkpt lat="45.36346" lon="0.64651">
        <ele>97.675375781913</ele>
        <time>2015-08-08T09:54:50Z</time>
      </trkpt>
      <trkpt lat="45.36356" lon="0.64662">
        <ele>97.670138198016</ele>
        <time>2015-08-08T09:55:00Z</time>
      </trkpt>
      <trkpt lat="45.3636" lon="0.64659">
        <ele>97.670138198016</ele>
        <time>2015-08-08T09:55:05Z</time>
      </trkpt>
      <trkpt lat="45.36357" lon="0.64645">
        <ele>97.572575304454</ele>
        <time>2015-08-08T09:55:14Z</time>
      </trkpt>
      <trkpt lat="45.36354" lon="0.64642">
        <ele>97.572575304454</ele>
        <time>2015-08-08T09:55:20Z</time>
      </trkpt>
      <trkpt lat="45.36333" lon="0.64632">
        <ele>98.095823865981</ele>
        <time>2015-08-08T09:55:35Z</time>
      </trkpt>
      <trkpt lat="45.36316" lon="0.64621">
        <ele>98.543566658924</ele>
        <time>2015-08-08T09:55:49Z</time>
      </trkpt>
      <trkpt lat="45.3631" lon="0.64619">
        <ele>98.543566658924</ele>
        <time>2015-08-08T09:55:54Z</time>
      </trkpt>
      <trkpt lat="45.36303" lon="0.64615">
        <ele>99.510782722339</ele>
        <time>2015-08-08T09:55:59Z</time>
      </trkpt>
      <trkpt lat="45.36296" lon="0.64612">
        <ele>99.510782722339</ele>
        <time>2015-08-08T09:56:04Z</time>
      </trkpt>
      <trkpt lat="45.3629" lon="0.64608">
        <ele>100.40823792193</ele>
        <time>2015-08-08T09:56:09Z</time>
      </trkpt>
      <trkpt lat="45.36287" lon="0.64606">
        <ele>100.40823792193</ele>
        <time>2015-08-08T09:56:14Z</time>
      </trkpt>
      <trkpt lat="45.3628" lon="0.64604">
        <ele>100.7766144527</ele>
        <time>2015-08-08T09:56:19Z</time>
      </trkpt>
      <trkpt lat="45.36273" lon="0.64602">
        <ele>100.7766144527</ele>
        <time>2015-08-08T09:56:24Z</time>
      </trkpt>
      <trkpt lat="45.36265" lon="0.64599">
        <ele>101.10021583176</ele>
        <time>2015-08-08T09:56:29Z</time>
      </trkpt>
      <trkpt lat="45.36261" lon="0.64596">
        <ele>101.10021583176</ele>
        <time>2015-08-08T09:56:34Z</time>
      </trkpt>
      <trkpt lat="45.36256" lon="0.64593">
        <ele>100.76080345918</ele>
        <time>2015-08-08T09:56:39Z</time>
      </trkpt>
      <trkpt lat="45.3625" lon="0.64593">
        <ele>100.76080345918</ele>
        <time>2015-08-08T09:56:44Z</time>
      </trkpt>
      <trkpt lat="45.36242" lon="0.64593">
        <ele>100.06707301677</ele>
        <time>2015-08-08T09:56:49Z</time>
      </trkpt>
      <trkpt lat="45.36235" lon="0.64591">
        <ele>100.06707301677</ele>
        <time>2015-08-08T09:56:54Z</time>
      </trkpt>
      <trkpt lat="45.36228" lon="0.6459">
        <ele>99.248404416476</ele>
        <time>2015-08-08T09:56:59Z</time>
      </trkpt>
      <trkpt lat="45.36222" lon="0.6459">
        <ele>99.248404416476</ele>
        <time>2015-08-08T09:57:04Z</time>
      </trkpt>
      <trkpt lat="45.36216" lon="0.64592">
        <ele>98.387902821357</ele>
        <time>2015-08-08T09:57:09Z</time>
      </trkpt>
      <trkpt lat="45.3621" lon="0.64591">
        <ele>98.387902821357</ele>
        <time>2015-08-08T09:57:14Z</time>
      </trkpt>
      <trkpt lat="45.36202" lon="0.64589">
        <ele>97.562692131885</ele>
        <time>2015-08-08T09:57:19Z</time>
      </trkpt>
      <trkpt lat="45.36196" lon="0.64592">
        <ele>97.562692131885</ele>
        <time>2015-08-08T09:57:24Z</time>
      </trkpt>
      <trkpt lat="45.36191" lon="0.64595">
        <ele>97.002791128007</ele>
        <time>2015-08-08T09:57:29Z</time>
      </trkpt>
      <trkpt lat="45.36183" lon="0.64593">
        <ele>97.002791128007</ele>
        <time>2015-08-08T09:57:34Z</time>
      </trkpt>
      <trkpt lat="45.36178" lon="0.64594">
        <ele>96.617647418275</ele>
        <time>2015-08-08T09:57:39Z</time>
      </trkpt>
      <trkpt lat="45.36172" lon="0.64596">
        <ele>96.617647418275</ele>
        <time>2015-08-08T09:57:44Z</time>
      </trkpt>
      <trkpt lat="45.36167" lon="0.64595">
        <ele>96.077631923747</ele>
        <time>2015-08-08T09:57:51Z</time>
      </trkpt>
      <trkpt lat="45.36153" lon="0.64597">
        <ele>95.928803987861</ele>
        <time>2015-08-08T09:58:00Z</time>
      </trkpt>
      <trkpt lat="45.36148" lon="0.64601">
        <ele>95.928803987861</ele>
        <time>2015-08-08T09:58:05Z</time>
      </trkpt>
      <trkpt lat="45.36137" lon="0.64606">
        <ele>96.142245633783</ele>
        <time>2015-08-08T09:58:16Z</time>
      </trkpt>
      <trkpt lat="45.36131" lon="0.64608">
        <ele>96.142245633783</ele>
        <time>2015-08-08T09:58:20Z</time>
      </trkpt>
      <trkpt lat="45.36119" lon="0.64611">
        <ele>96.127591240277</ele>
        <time>2015-08-08T09:58:31Z</time>
      </trkpt>
      <trkpt lat="45.36113" lon="0.64614">
        <ele>96.127591240277</ele>
        <time>2015-08-08T09:58:35Z</time>
      </trkpt>
      <trkpt lat="45.36101" lon="0.64616">
        <ele>96.059729064385</ele>
        <time>2015-08-08T09:58:45Z</time>
      </trkpt>
      <trkpt lat="45.36096" lon="0.64613">
        <ele>96.059729064385</ele>
        <time>2015-08-08T09:58:50Z</time>
      </trkpt>
      <trkpt lat="45.36092" lon="0.64611">
        <ele>95.999855115766</ele>
        <time>2015-08-08T09:59:00Z</time>
      </trkpt>
      <trkpt lat="45.3609" lon="0.64611">
        <ele>95.999855115766</ele>
        <time>2015-08-08T09:59:06Z</time>
      </trkpt>
      <trkpt lat="45.36084" lon="0.64606">
        <ele>95.999855115766</ele>
        <time>2015-08-08T09:59:16Z</time>
      </trkpt>
      <trkpt lat="45.36084" lon="0.64607">
        <ele>95.745027725102</ele>
        <time>2015-08-08T09:59:21Z</time>
      </trkpt>
      <trkpt lat="45.36083" lon="0.64607">
        <ele>95.745027725102</ele>
        <time>2015-08-08T09:59:35Z</time>
      </trkpt>
      <trkpt lat="45.3608" lon="0.64606">
        <ele>95.745027725102</ele>
        <time>2015-08-08T09:59:41Z</time>
      </trkpt>
      <trkpt lat="45.36076" lon="0.64608">
        <ele>95.745027725102</ele>
        <time>2015-08-08T09:59:51Z</time>
      </trkpt>
      <trkpt lat="45.36075" lon="0.64608">
        <ele>95.745027725102</ele>
        <time>2015-08-08T09:59:56Z</time>
      </trkpt>
      <trkpt lat="45.36076" lon="0.64608">
        <ele>95.814461555538</ele>
        <time>2015-08-08T10:00:06Z</time>
      </trkpt>
      <trkpt lat="45.36076" lon="0.64608">
        <ele>95.814461555538</ele>
        <time>2015-08-08T10:00:10Z</time>
      </trkpt>
      <trkpt lat="45.36076" lon="0.64608">
        <ele>95.814461555538</ele>
        <time>2015-08-08T10:00:20Z</time>
      </trkpt>
      <trkpt lat="45.36077" lon="0.64609">
        <ele>95.814461555538</ele>
        <time>2015-08-08T10:00:26Z</time>
      </trkpt>
      <trkpt lat="45.36078" lon="0.64608">
        <ele>95.814461555538</ele>
        <time>2015-08-08T10:00:36Z</time>
      </trkpt>
      <trkpt lat="45.36079" lon="0.64608">
        <ele>95.814461555538</ele>
        <time>2015-08-08T10:00:41Z</time>
      </trkpt>
      <trkpt lat="45.36085" lon="0.64612">
        <ele>96.644944414595</ele>
        <time>2015-08-08T10:00:51Z</time>
      </trkpt>
      <trkpt lat="45.36085" lon="0.64611">
        <ele>96.644944414595</ele>
        <time>2015-08-08T10:00:55Z</time>
      </trkpt>
      <trkpt lat="45.36085" lon="0.64612">
        <ele>96.644944414595</ele>
        <time>2015-08-08T10:01:05Z</time>
      </trkpt>
      <trkpt lat="45.36085" lon="0.64611">
        <ele>96.644944414595</ele>
        <time>2015-08-08T10:01:11Z</time>
      </trkpt>
      <trkpt lat="45.36087" lon="0.64613">
        <ele>96.644944414595</ele>
        <time>2015-08-08T10:01:21Z</time>
      </trkpt>
      <trkpt lat="45.36087" lon="0.64612">
        <ele>96.644944414595</ele>
        <time>2015-08-08T10:01:25Z</time>
      </trkpt>
      <trkpt lat="45.36087" lon="0.64612">
        <ele>96.644944414595</ele>
        <time>2015-08-08T10:01:36Z</time>
      </trkpt>
      <trkpt lat="45.36087" lon="0.64612">
        <ele>96.644944414595</ele>
        <time>2015-08-08T10:01:40Z</time>
      </trkpt>
      <trkpt lat="45.36086" lon="0.64614">
        <ele>96.644944414595</ele>
        <time>2015-08-08T10:01:51Z</time>
      </trkpt>
      <trkpt lat="45.36085" lon="0.64615">
        <ele>96.644944414595</ele>
        <time>2015-08-08T10:01:55Z</time>
      </trkpt>
      <trkpt lat="45.36085" lon="0.64613">
        <ele>96.644944414595</ele>
        <time>2015-08-08T10:02:12Z</time>
      </trkpt>
      <trkpt lat="45.36087" lon="0.64613">
        <ele>97.571843281923</ele>
        <time>2015-08-08T10:02:14Z</time>
      </trkpt>
      <trkpt lat="45.36089" lon="0.64614">
        <ele>97.571843281923</ele>
        <time>2015-08-08T10:02:26Z</time>
      </trkpt>
      <trkpt lat="45.3609" lon="0.64616">
        <ele>97.571843281923</ele>
        <time>2015-08-08T10:02:30Z</time>
      </trkpt>
      <trkpt lat="45.36091" lon="0.64614">
        <ele>97.571843281923</ele>
        <time>2015-08-08T10:02:39Z</time>
      </trkpt>
      <trkpt lat="45.36093" lon="0.64614">
        <ele>97.571843281923</ele>
        <time>2015-08-08T10:02:45Z</time>
      </trkpt>
      <trkpt lat="45.36092" lon="0.64614">
        <ele>97.571843281923</ele>
        <time>2015-08-08T10:02:55Z</time>
      </trkpt>
      <trkpt lat="45.3609" lon="0.64613">
        <ele>97.820615632807</ele>
        <time>2015-08-08T10:03:01Z</time>
      </trkpt>
      <trkpt lat="45.36084" lon="0.6461">
        <ele>97.820615632807</ele>
        <time>2015-08-08T10:03:10Z</time>
      </trkpt>
      <trkpt lat="45.36079" lon="0.6461">
        <ele>98.204097483019</ele>
        <time>2015-08-08T10:03:16Z</time>
      </trkpt>
      <trkpt lat="45.36059" lon="0.64608">
        <ele>98.465614838456</ele>
        <time>2015-08-08T10:03:30Z</time>
      </trkpt>
      <trkpt lat="45.36056" lon="0.6461">
        <ele>98.465614838456</ele>
        <time>2015-08-08T10:03:35Z</time>
      </trkpt>
      <trkpt lat="45.36042" lon="0.64608">
        <ele>99.70858193433</ele>
        <time>2015-08-08T10:03:46Z</time>
      </trkpt>
      <trkpt lat="45.36036" lon="0.64611">
        <ele>99.70858193433</ele>
        <time>2015-08-08T10:03:50Z</time>
      </trkpt>
      <trkpt lat="45.36032" lon="0.64611">
        <ele>100.81875010912</ele>
        <time>2015-08-08T10:03:54Z</time>
      </trkpt>
      <trkpt lat="45.36027" lon="0.64611">
        <ele>100.81875010912</ele>
        <time>2015-08-08T10:03:59Z</time>
      </trkpt>
      <trkpt lat="45.36021" lon="0.64615">
        <ele>102.06178673601</ele>
        <time>2015-08-08T10:04:04Z</time>
      </trkpt>
      <trkpt lat="45.36015" lon="0.64618">
        <ele>102.06178673601</ele>
        <time>2015-08-08T10:04:09Z</time>
      </trkpt>
      <trkpt lat="45.36009" lon="0.64619">
        <ele>103.45282090667</ele>
        <time>2015-08-08T10:04:14Z</time>
      </trkpt>
      <trkpt lat="45.36003" lon="0.6462">
        <ele>103.45282090667</ele>
        <time>2015-08-08T10:04:19Z</time>
      </trkpt>
      <trkpt lat="45.35996" lon="0.64623">
        <ele>104.57306264934</ele>
        <time>2015-08-08T10:04:24Z</time>
      </trkpt>
      <trkpt lat="45.3599" lon="0.64624">
        <ele>104.57306264934</ele>
        <time>2015-08-08T10:04:29Z</time>
      </trkpt>
      <trkpt lat="45.35984" lon="0.64625">
        <ele>105.62635145346</ele>
        <time>2015-08-08T10:04:34Z</time>
      </trkpt>
      <trkpt lat="45.35978" lon="0.64625">
        <ele>105.62635145346</ele>
        <time>2015-08-08T10:04:39Z</time>
      </trkpt>
      <trkpt lat="45.35971" lon="0.64624">
        <ele>106.38377521725</ele>
        <time>2015-08-08T10:04:44Z</time>
      </trkpt>
      <trkpt lat="45.35965" lon="0.64625">
        <ele>106.38377521725</ele>
        <time>2015-08-08T10:04:49Z</time>
      </trkpt>
      <trkpt lat="45.35958" lon="0.64625">
        <ele>107.08097502975</ele>
        <time>2015-08-08T10:04:54Z</time>
      </trkpt>
      <trkpt lat="45.35953" lon="0.64625">
        <ele>107.08097502975</ele>
        <time>2015-08-08T10:04:59Z</time>
      </trkpt>
      <trkpt lat="45.35947" lon="0.64626">
        <ele>107.20143266975</ele>
        <time>2015-08-08T10:05:04Z</time>
      </trkpt>
      <trkpt lat="45.35941" lon="0.64626">
        <ele>107.20143266975</ele>
        <time>2015-08-08T10:05:09Z</time>
      </trkpt>
      <trkpt lat="45.35935" lon="0.64629">
        <ele>107.50779019585</ele>
        <time>2015-08-08T10:05:14Z</time>
      </trkpt>
      <trkpt lat="45.35928" lon="0.64633">
        <ele>107.50779019585</ele>
        <time>2015-08-08T10:05:19Z</time>
      </trkpt>
      <trkpt lat="45.35923" lon="0.64633">
        <ele>108.48996373087</ele>
        <time>2015-08-08T10:05:24Z</time>
      </trkpt>
      <trkpt lat="45.35917" lon="0.64634">
        <ele>108.48996373087</ele>
        <time>2015-08-08T10:05:29Z</time>
      </trkpt>
      <trkpt lat="45.35913" lon="0.64635">
        <ele>109.64882996578</ele>
        <time>2015-08-08T10:05:34Z</time>
      </trkpt>
      <trkpt lat="45.35906" lon="0.64636">
        <ele>109.64882996578</ele>
        <time>2015-08-08T10:05:39Z</time>
      </trkpt>
      <trkpt lat="45.359" lon="0.64633">
        <ele>110.83860220385</ele>
        <time>2015-08-08T10:05:44Z</time>
      </trkpt>
      <trkpt lat="45.35894" lon="0.64637">
        <ele>110.83860220385</ele>
        <time>2015-08-08T10:05:49Z</time>
      </trkpt>
      <trkpt lat="45.35888" lon="0.64636">
        <ele>112.22684348373</ele>
        <time>2015-08-08T10:05:54Z</time>
      </trkpt>
      <trkpt lat="45.35882" lon="0.64635">
        <ele>112.22684348373</ele>
        <time>2015-08-08T10:05:59Z</time>
      </trkpt>
      <trkpt lat="45.35878" lon="0.64637">
        <ele>113.63685741396</ele>
        <time>2015-08-08T10:06:04Z</time>
      </trkpt>
      <trkpt lat="45.35871" lon="0.64639">
        <ele>113.63685741396</ele>
        <time>2015-08-08T10:06:09Z</time>
      </trkpt>
      <trkpt lat="45.35866" lon="0.64635">
        <ele>114.80407436113</ele>
        <time>2015-08-08T10:06:14Z</time>
      </trkpt>
      <trkpt lat="45.3586" lon="0.64638">
        <ele>114.80407436113</ele>
        <time>2015-08-08T10:06:19Z</time>
      </trkpt>
      <trkpt lat="45.35857" lon="0.64639">
        <ele>116.19028806942</ele>
        <time>2015-08-08T10:06:24Z</time>
      </trkpt>
      <trkpt lat="45.35851" lon="0.64639">
        <ele>116.19028806942</ele>
        <time>2015-08-08T10:06:29Z</time>
      </trkpt>
      <trkpt lat="45.35841" lon="0.6464">
        <ele>117.6896171335</ele>
        <time>2015-08-08T10:06:34Z</time>
      </trkpt>
      <trkpt lat="45.35837" lon="0.64641">
        <ele>117.6896171335</ele>
        <time>2015-08-08T10:06:39Z</time>
      </trkpt>
      <trkpt lat="45.35831" lon="0.64641">
        <ele>119.03079968617</ele>
        <time>2015-08-08T10:06:44Z</time>
      </trkpt>
      <trkpt lat="45.35825" lon="0.64641">
        <ele>119.03079968617</ele>
        <time>2015-08-08T10:06:49Z</time>
      </trkpt>
      <trkpt lat="45.35821" lon="0.64642">
        <ele>120.32332181224</ele>
        <time>2015-08-08T10:06:54Z</time>
      </trkpt>
      <trkpt lat="45.35815" lon="0.6464">
        <ele>120.32332181224</ele>
        <time>2015-08-08T10:06:59Z</time>
      </trkpt>
      <trkpt lat="45.35809" lon="0.6464">
        <ele>121.52474634611</ele>
        <time>2015-08-08T10:07:04Z</time>
      </trkpt>
      <trkpt lat="45.35803" lon="0.64638">
        <ele>121.52474634611</ele>
        <time>2015-08-08T10:07:09Z</time>
      </trkpt>
      <trkpt lat="45.35796" lon="0.64634">
        <ele>123.51842845002</ele>
        <time>2015-08-08T10:07:14Z</time>
      </trkpt>
      <trkpt lat="45.35792" lon="0.64628">
        <ele>123.51842845002</ele>
        <time>2015-08-08T10:07:19Z</time>
      </trkpt>
      <trkpt lat="45.35788" lon="0.64623">
        <ele>125.47782849984</ele>
        <time>2015-08-08T10:07:24Z</time>
      </trkpt>
      <trkpt lat="45.35785" lon="0.64619">
        <ele>125.47782849984</ele>
        <time>2015-08-08T10:07:29Z</time>
      </trkpt>
      <trkpt lat="45.3578" lon="0.64613">
        <ele>127.71817061329</ele>
        <time>2015-08-08T10:07:34Z</time>
      </trkpt>
      <trkpt lat="45.35777" lon="0.64605">
        <ele>127.71817061329</ele>
        <time>2015-08-08T10:07:39Z</time>
      </trkpt>
      <trkpt lat="45.35776" lon="0.646">
        <ele>129.75263472167</ele>
        <time>2015-08-08T10:07:44Z</time>
      </trkpt>
      <trkpt lat="45.35774" lon="0.64593">
        <ele>129.75263472167</ele>
        <time>2015-08-08T10:07:49Z</time>
      </trkpt>
      <trkpt lat="45.35776" lon="0.64583">
        <ele>131.31819948183</ele>
        <time>2015-08-08T10:07:54Z</time>
      </trkpt>
      <trkpt lat="45.35779" lon="0.64574">
        <ele>131.31819948183</ele>
        <time>2015-08-08T10:07:59Z</time>
      </trkpt>
      <trkpt lat="45.35785" lon="0.64568">
        <ele>133.15257067383</ele>
        <time>2015-08-08T10:08:04Z</time>
      </trkpt>
      <trkpt lat="45.3579" lon="0.64563">
        <ele>133.15257067383</ele>
        <time>2015-08-08T10:08:09Z</time>
      </trkpt>
      <trkpt lat="45.35794" lon="0.64559">
        <ele>134.77130922184</ele>
        <time>2015-08-08T10:08:14Z</time>
      </trkpt>
      <trkpt lat="45.35799" lon="0.64558">
        <ele>134.77130922184</ele>
        <time>2015-08-08T10:08:19Z</time>
      </trkpt>
      <trkpt lat="45.35805" lon="0.64555">
        <ele>136.21627448688</ele>
        <time>2015-08-08T10:08:24Z</time>
      </trkpt>
      <trkpt lat="45.35812" lon="0.64551">
        <ele>136.21627448688</ele>
        <time>2015-08-08T10:08:29Z</time>
      </trkpt>
      <trkpt lat="45.35818" lon="0.64547">
        <ele>137.44038946733</ele>
        <time>2015-08-08T10:08:34Z</time>
      </trkpt>
      <trkpt lat="45.35823" lon="0.64543">
        <ele>137.44038946733</ele>
        <time>2015-08-08T10:08:39Z</time>
      </trkpt>
      <trkpt lat="45.35828" lon="0.64536">
        <ele>138.42959473619</ele>
        <time>2015-08-08T10:08:44Z</time>
      </trkpt>
      <trkpt lat="45.3583" lon="0.64528">
        <ele>138.42959473619</ele>
        <time>2015-08-08T10:08:49Z</time>
      </trkpt>
      <trkpt lat="45.3583" lon="0.64518">
        <ele>139.44545341614</ele>
        <time>2015-08-08T10:08:54Z</time>
      </trkpt>
      <trkpt lat="45.35829" lon="0.6451">
        <ele>139.44545341614</ele>
        <time>2015-08-08T10:08:59Z</time>
      </trkpt>
      <trkpt lat="45.35828" lon="0.64503">
        <ele>140.41329451133</ele>
        <time>2015-08-08T10:09:04Z</time>
      </trkpt>
      <trkpt lat="45.35827" lon="0.64496">
        <ele>140.41329451133</ele>
        <time>2015-08-08T10:09:09Z</time>
      </trkpt>
      <trkpt lat="45.35825" lon="0.64487">
        <ele>141.24975633586</ele>
        <time>2015-08-08T10:09:14Z</time>
      </trkpt>
      <trkpt lat="45.35824" lon="0.64479">
        <ele>141.24975633586</ele>
        <time>2015-08-08T10:09:19Z</time>
      </trkpt>
      <trkpt lat="45.35822" lon="0.6447">
        <ele>142.05100149095</ele>
        <time>2015-08-08T10:09:24Z</time>
      </trkpt>
      <trkpt lat="45.3582" lon="0.64463">
        <ele>142.05100149095</ele>
        <time>2015-08-08T10:09:29Z</time>
      </trkpt>
      <trkpt lat="45.35818" lon="0.64454">
        <ele>142.94954891551</ele>
        <time>2015-08-08T10:09:34Z</time>
      </trkpt>
      <trkpt lat="45.35816" lon="0.64445">
        <ele>142.94954891551</ele>
        <time>2015-08-08T10:09:39Z</time>
      </trkpt>
      <trkpt lat="45.35814" lon="0.64437">
        <ele>143.9959327656</ele>
        <time>2015-08-08T10:09:44Z</time>
      </trkpt>
      <trkpt lat="45.35812" lon="0.64429">
        <ele>143.9959327656</ele>
        <time>2015-08-08T10:09:49Z</time>
      </trkpt>
      <trkpt lat="45.35808" lon="0.64421">
        <ele>145.13575451108</ele>
        <time>2015-08-08T10:09:54Z</time>
      </trkpt>
      <trkpt lat="45.35807" lon="0.64414">
        <ele>145.13575451108</ele>
        <time>2015-08-08T10:09:59Z</time>
      </trkpt>
      <trkpt lat="45.35805" lon="0.64406">
        <ele>146.46253425088</ele>
        <time>2015-08-08T10:10:04Z</time>
      </trkpt>
      <trkpt lat="45.35803" lon="0.64398">
        <ele>146.46253425088</ele>
        <time>2015-08-08T10:10:09Z</time>
      </trkpt>
      <trkpt lat="45.358" lon="0.64389">
        <ele>147.84629191146</ele>
        <time>2015-08-08T10:10:14Z</time>
      </trkpt>
      <trkpt lat="45.35798" lon="0.6438">
        <ele>147.84629191146</ele>
        <time>2015-08-08T10:10:19Z</time>
      </trkpt>
      <trkpt lat="45.35796" lon="0.64372">
        <ele>149.25296863182</ele>
        <time>2015-08-08T10:10:24Z</time>
      </trkpt>
      <trkpt lat="45.35795" lon="0.64364">
        <ele>149.25296863182</ele>
        <time>2015-08-08T10:10:29Z</time>
      </trkpt>
      <trkpt lat="45.35794" lon="0.64355">
        <ele>150.39159929419</ele>
        <time>2015-08-08T10:10:34Z</time>
      </trkpt>
      <trkpt lat="45.35791" lon="0.64346">
        <ele>150.39159929419</ele>
        <time>2015-08-08T10:10:39Z</time>
      </trkpt>
      <trkpt lat="45.35788" lon="0.64339">
        <ele>151.36810095514</ele>
        <time>2015-08-08T10:10:44Z</time>
      </trkpt>
      <trkpt lat="45.35786" lon="0.64332">
        <ele>151.36810095514</ele>
        <time>2015-08-08T10:10:49Z</time>
      </trkpt>
      <trkpt lat="45.35782" lon="0.64325">
        <ele>152.05053703634</ele>
        <time>2015-08-08T10:10:54Z</time>
      </trkpt>
      <trkpt lat="45.35779" lon="0.64318">
        <ele>152.05053703634</ele>
        <time>2015-08-08T10:10:59Z</time>
      </trkpt>
      <trkpt lat="45.35779" lon="0.6431">
        <ele>151.92843065551</ele>
        <time>2015-08-08T10:11:04Z</time>
      </trkpt>
      <trkpt lat="45.35781" lon="0.64302">
        <ele>151.92843065551</ele>
        <time>2015-08-08T10:11:09Z</time>
      </trkpt>
      <trkpt lat="45.35781" lon="0.64294">
        <ele>150.84815144467</ele>
        <time>2015-08-08T10:11:14Z</time>
      </trkpt>
      <trkpt lat="45.35784" lon="0.64285">
        <ele>150.84815144467</ele>
        <time>2015-08-08T10:11:19Z</time>
      </trkpt>
      <trkpt lat="45.35787" lon="0.64277">
        <ele>149.08799483777</ele>
        <time>2015-08-08T10:11:24Z</time>
      </trkpt>
      <trkpt lat="45.35789" lon="0.64271">
        <ele>149.08799483777</ele>
        <time>2015-08-08T10:11:30Z</time>
      </trkpt>
      <trkpt lat="45.35794" lon="0.64258">
        <ele>147.36888493636</ele>
        <time>2015-08-08T10:11:40Z</time>
      </trkpt>
      <trkpt lat="45.35795" lon="0.64257">
        <ele>147.36888493636</ele>
        <time>2015-08-08T10:11:46Z</time>
      </trkpt>
      <trkpt lat="45.35797" lon="0.64256">
        <ele>147.36888493636</ele>
        <time>2015-08-08T10:11:55Z</time>
      </trkpt>
      <trkpt lat="45.35798" lon="0.64257">
        <ele>147.36888493636</ele>
        <time>2015-08-08T10:12:01Z</time>
      </trkpt>
      <trkpt lat="45.35799" lon="0.64255">
        <ele>147.36888493636</ele>
        <time>2015-08-08T10:12:11Z</time>
      </trkpt>
      <trkpt lat="45.35799" lon="0.64255">
        <ele>147.36888493636</ele>
        <time>2015-08-08T10:12:15Z</time>
      </trkpt>
      <trkpt lat="45.35799" lon="0.64255">
        <ele>147.36888493636</ele>
        <time>2015-08-08T10:12:26Z</time>
      </trkpt>
      <trkpt lat="45.35799" lon="0.64255">
        <ele>147.36888493636</ele>
        <time>2015-08-08T10:12:30Z</time>
      </trkpt>
      <trkpt lat="45.35799" lon="0.64255">
        <ele>147.36888493636</ele>
        <time>2015-08-08T10:12:40Z</time>
      </trkpt>
      <trkpt lat="45.35799" lon="0.64255">
        <ele>147.36888493636</ele>
        <time>2015-08-08T10:12:46Z</time>
      </trkpt>
      <trkpt lat="45.35799" lon="0.64255">
        <ele>147.36888493636</ele>
        <time>2015-08-08T10:12:55Z</time>
      </trkpt>
      <trkpt lat="45.35799" lon="0.64255">
        <ele>147.36888493636</ele>
        <time>2015-08-08T10:13:01Z</time>
      </trkpt>
      <trkpt lat="45.35802" lon="0.64247">
        <ele>145.60926682481</ele>
        <time>2015-08-08T10:13:15Z</time>
      </trkpt>
      <trkpt lat="45.35805" lon="0.64242">
        <ele>145.60926682481</ele>
        <time>2015-08-08T10:13:21Z</time>
      </trkpt>
      <trkpt lat="45.35809" lon="0.64231">
        <ele>143.41660477614</ele>
        <time>2015-08-08T10:13:31Z</time>
      </trkpt>
      <trkpt lat="45.35812" lon="0.64225">
        <ele>143.41660477614</ele>
        <time>2015-08-08T10:13:35Z</time>
      </trkpt>
      <trkpt lat="45.3582" lon="0.64213">
        <ele>140.93274657767</ele>
        <time>2015-08-08T10:13:46Z</time>
      </trkpt>
      <trkpt lat="45.35823" lon="0.64208">
        <ele>140.93274657767</ele>
        <time>2015-08-08T10:13:50Z</time>
      </trkpt>
      <trkpt lat="45.35832" lon="0.64197">
        <ele>138.2466182057</ele>
        <time>2015-08-08T10:14:00Z</time>
      </trkpt>
      <trkpt lat="45.35835" lon="0.64191">
        <ele>138.2466182057</ele>
        <time>2015-08-08T10:14:04Z</time>
      </trkpt>
      <trkpt lat="45.35842" lon="0.64181">
        <ele>135.22490481711</ele>
        <time>2015-08-08T10:14:15Z</time>
      </trkpt>
      <trkpt lat="45.35846" lon="0.64177">
        <ele>135.22490481711</ele>
        <time>2015-08-08T10:14:20Z</time>
      </trkpt>
      <trkpt lat="45.35848" lon="0.6416">
        <ele>132.13399801976</ele>
        <time>2015-08-08T10:14:31Z</time>
      </trkpt>
      <trkpt lat="45.3585" lon="0.64152">
        <ele>132.13399801976</ele>
        <time>2015-08-08T10:14:36Z</time>
      </trkpt>
      <trkpt lat="45.35858" lon="0.64128">
        <ele>129.11988234418</ele>
        <time>2015-08-08T10:14:50Z</time>
      </trkpt>
      <trkpt lat="45.3587" lon="0.64107">
        <ele>126.49036284074</ele>
        <time>2015-08-08T10:15:04Z</time>
      </trkpt>
      <trkpt lat="45.35874" lon="0.64096">
        <ele>126.49036284074</ele>
        <time>2015-08-08T10:15:11Z</time>
      </trkpt>
      <trkpt lat="45.3587" lon="0.64077">
        <ele>124.71670818121</ele>
        <time>2015-08-08T10:15:21Z</time>
      </trkpt>
      <trkpt lat="45.35867" lon="0.6407">
        <ele>124.71670818121</ele>
        <time>2015-08-08T10:15:26Z</time>
      </trkpt>
      <trkpt lat="45.35861" lon="0.64055">
        <ele>122.96478156435</ele>
        <time>2015-08-08T10:15:34Z</time>
      </trkpt>
      <trkpt lat="45.35858" lon="0.64046">
        <ele>122.96478156435</ele>
        <time>2015-08-08T10:15:39Z</time>
      </trkpt>
      <trkpt lat="45.35852" lon="0.64043">
        <ele>121.00907264986</ele>
        <time>2015-08-08T10:15:44Z</time>
      </trkpt>
      <trkpt lat="45.35846" lon="0.64043">
        <ele>121.00907264986</ele>
        <time>2015-08-08T10:15:49Z</time>
      </trkpt>
      <trkpt lat="45.3584" lon="0.64049">
        <ele>119.44801455719</ele>
        <time>2015-08-08T10:15:54Z</time>
      </trkpt>
      <trkpt lat="45.35836" lon="0.64053">
        <ele>119.44801455719</ele>
        <time>2015-08-08T10:15:59Z</time>
      </trkpt>
      <trkpt lat="45.35836" lon="0.64054">
        <ele>119.44801455719</ele>
        <time>2015-08-08T10:16:04Z</time>
      </trkpt>
      <trkpt lat="45.35825" lon="0.6406">
        <ele>118.5177075267</ele>
        <time>2015-08-08T10:16:09Z</time>
      </trkpt>
      <trkpt lat="45.35813" lon="0.64076">
        <ele>117.81524119421</ele>
        <time>2015-08-08T10:16:21Z</time>
      </trkpt>
      <trkpt lat="45.3581" lon="0.64081">
        <ele>117.81524119421</ele>
        <time>2015-08-08T10:16:25Z</time>
      </trkpt>
      <trkpt lat="45.35796" lon="0.64093">
        <ele>116.51970284099</ele>
        <time>2015-08-08T10:16:35Z</time>
      </trkpt>
      <trkpt lat="45.35792" lon="0.64095">
        <ele>116.51970284099</ele>
        <time>2015-08-08T10:16:41Z</time>
      </trkpt>
      <trkpt lat="45.35779" lon="0.64101">
        <ele>115.99037222392</ele>
        <time>2015-08-08T10:16:49Z</time>
      </trkpt>
      <trkpt lat="45.35774" lon="0.64101">
        <ele>115.99037222392</ele>
        <time>2015-08-08T10:16:54Z</time>
      </trkpt>
      <trkpt lat="45.35767" lon="0.641">
        <ele>115.82704536267</ele>
        <time>2015-08-08T10:16:59Z</time>
      </trkpt>
      <trkpt lat="45.35761" lon="0.64097">
        <ele>115.82704536267</ele>
        <time>2015-08-08T10:17:04Z</time>
      </trkpt>
      <trkpt lat="45.35764" lon="0.6409">
        <ele>115.31182906154</ele>
        <time>2015-08-08T10:17:09Z</time>
      </trkpt>
      <trkpt lat="45.35769" lon="0.64089">
        <ele>115.31182906154</ele>
        <time>2015-08-08T10:17:14Z</time>
      </trkpt>
      <trkpt lat="45.35774" lon="0.64085">
        <ele>113.8091886926</ele>
        <time>2015-08-08T10:17:19Z</time>
      </trkpt>
      <trkpt lat="45.35779" lon="0.64079">
        <ele>113.8091886926</ele>
        <time>2015-08-08T10:17:24Z</time>
      </trkpt>
      <trkpt lat="45.35783" lon="0.64076">
        <ele>112.27485577031</ele>
        <time>2015-08-08T10:17:29Z</time>
      </trkpt>
      <trkpt lat="45.35786" lon="0.64069">
        <ele>112.27485577031</ele>
        <time>2015-08-08T10:17:34Z</time>
      </trkpt>
      <trkpt lat="45.35788" lon="0.64061">
        <ele>110.96017946607</ele>
        <time>2015-08-08T10:17:39Z</time>
      </trkpt>
      <trkpt lat="45.35787" lon="0.64056">
        <ele>110.96017946607</ele>
        <time>2015-08-08T10:17:44Z</time>
      </trkpt>
      <trkpt lat="45.35789" lon="0.64049">
        <ele>110.96017946607</ele>
        <time>2015-08-08T10:17:49Z</time>
      </trkpt>
      <trkpt lat="45.35794" lon="0.64043">
        <ele>110.50077049029</ele>
        <time>2015-08-08T10:17:54Z</time>
      </trkpt>
      <trkpt lat="45.35794" lon="0.64035">
        <ele>110.50077049029</ele>
        <time>2015-08-08T10:17:59Z</time>
      </trkpt>
      <trkpt lat="45.35797" lon="0.64029">
        <ele>109.95540506238</ele>
        <time>2015-08-08T10:18:04Z</time>
      </trkpt>
      <trkpt lat="45.35797" lon="0.64023">
        <ele>109.95540506238</ele>
        <time>2015-08-08T10:18:09Z</time>
      </trkpt>
      <trkpt lat="45.358" lon="0.64015">
        <ele>109.34557392503</ele>
        <time>2015-08-08T10:18:14Z</time>
      </trkpt>
      <trkpt lat="45.35795" lon="0.63999">
        <ele>108.93621021463</ele>
        <time>2015-08-08T10:18:26Z</time>
      </trkpt>
      <trkpt lat="45.35791" lon="0.63993">
        <ele>108.93621021463</ele>
        <time>2015-08-08T10:18:30Z</time>
      </trkpt>
      <trkpt lat="45.35781" lon="0.6398">
        <ele>108.72709518277</ele>
        <time>2015-08-08T10:18:45Z</time>
      </trkpt>
      <trkpt lat="45.35767" lon="0.63963">
        <ele>110.14404022809</ele>
        <time>2015-08-08T10:19:00Z</time>
      </trkpt>
      <trkpt lat="45.35763" lon="0.63958">
        <ele>110.14404022809</ele>
        <time>2015-08-08T10:19:04Z</time>
      </trkpt>
      <trkpt lat="45.35759" lon="0.63944">
        <ele>112.01032214421</ele>
        <time>2015-08-08T10:19:15Z</time>
      </trkpt>
      <trkpt lat="45.3576" lon="0.63938">
        <ele>112.01032214421</ele>
        <time>2015-08-08T10:19:19Z</time>
      </trkpt>
      <trkpt lat="45.35764" lon="0.63933">
        <ele>113.89722092055</ele>
        <time>2015-08-08T10:19:31Z</time>
      </trkpt>
      <trkpt lat="45.35767" lon="0.6393">
        <ele>113.89722092055</ele>
        <time>2015-08-08T10:19:36Z</time>
      </trkpt>
      <trkpt lat="45.35775" lon="0.63925">
        <ele>115.06151777229</ele>
        <time>2015-08-08T10:19:45Z</time>
      </trkpt>
      <trkpt lat="45.35782" lon="0.63921">
        <ele>115.06151777229</ele>
        <time>2015-08-08T10:19:51Z</time>
      </trkpt>
      <trkpt lat="45.3579" lon="0.63915">
        <ele>116.63237524501</ele>
        <time>2015-08-08T10:20:00Z</time>
      </trkpt>
      <trkpt lat="45.35798" lon="0.63908">
        <ele>118.54518895105</ele>
        <time>2015-08-08T10:20:06Z</time>
      </trkpt>
      <trkpt lat="45.35811" lon="0.63892">
        <ele>120.24916051904</ele>
        <time>2015-08-08T10:20:16Z</time>
      </trkpt>
      <trkpt lat="45.35815" lon="0.6389">
        <ele>120.24916051904</ele>
        <time>2015-08-08T10:20:20Z</time>
      </trkpt>
      <trkpt lat="45.35825" lon="0.63881">
        <ele>122.69008028518</ele>
        <time>2015-08-08T10:20:31Z</time>
      </trkpt>
      <trkpt lat="45.3583" lon="0.63876">
        <ele>122.69008028518</ele>
        <time>2015-08-08T10:20:35Z</time>
      </trkpt>
      <trkpt lat="45.35839" lon="0.63864">
        <ele>125.28670835241</ele>
        <time>2015-08-08T10:20:46Z</time>
      </trkpt>
      <trkpt lat="45.35843" lon="0.63859">
        <ele>125.28670835241</ele>
        <time>2015-08-08T10:20:51Z</time>
      </trkpt>
      <trkpt lat="45.35858" lon="0.63845">
        <ele>127.81716891311</ele>
        <time>2015-08-08T10:21:05Z</time>
      </trkpt>
      <trkpt lat="45.35864" lon="0.6384">
        <ele>127.81716891311</ele>
        <time>2015-08-08T10:21:11Z</time>
      </trkpt>
      <trkpt lat="45.35872" lon="0.63838">
        <ele>130.26349378471</ele>
        <time>2015-08-08T10:21:21Z</time>
      </trkpt>
      <trkpt lat="45.35874" lon="0.63837">
        <ele>130.26349378471</ele>
        <time>2015-08-08T10:21:25Z</time>
      </trkpt>
      <trkpt lat="45.35883" lon="0.63836">
        <ele>132.53731254149</ele>
        <time>2015-08-08T10:21:35Z</time>
      </trkpt>
      <trkpt lat="45.35895" lon="0.63832">
        <ele>134.29794349846</ele>
        <time>2015-08-08T10:21:40Z</time>
      </trkpt>
      <trkpt lat="45.35905" lon="0.63829">
        <ele>135.99508695931</ele>
        <time>2015-08-08T10:21:51Z</time>
      </trkpt>
      <trkpt lat="45.35914" lon="0.63828">
        <ele>137.10899891955</ele>
        <time>2015-08-08T10:21:56Z</time>
      </trkpt>
      <trkpt lat="45.35925" lon="0.63825">
        <ele>137.4913474438</ele>
        <time>2015-08-08T10:22:06Z</time>
      </trkpt>
      <trkpt lat="45.35935" lon="0.6382">
        <ele>138.08772447402</ele>
        <time>2015-08-08T10:22:10Z</time>
      </trkpt>
      <trkpt lat="45.35947" lon="0.63812">
        <ele>139.42793222423</ele>
        <time>2015-08-08T10:22:24Z</time>
      </trkpt>
      <trkpt lat="45.35948" lon="0.63812">
        <ele>139.42793222423</ele>
        <time>2015-08-08T10:22:29Z</time>
      </trkpt>
      <trkpt lat="45.35949" lon="0.63812">
        <ele>139.42793222423</ele>
        <time>2015-08-08T10:22:34Z</time>
      </trkpt>
      <trkpt lat="45.35959" lon="0.63805">
        <ele>140.84801620464</ele>
        <time>2015-08-08T10:22:39Z</time>
      </trkpt>
      <trkpt lat="45.35966" lon="0.63799">
        <ele>140.84801620464</ele>
        <time>2015-08-08T10:22:44Z</time>
      </trkpt>
      <trkpt lat="45.35968" lon="0.63796">
        <ele>142.58296624249</ele>
        <time>2015-08-08T10:22:49Z</time>
      </trkpt>
      <trkpt lat="45.3598" lon="0.6379">
        <ele>143.82657625718</ele>
        <time>2015-08-08T10:22:54Z</time>
      </trkpt>
      <trkpt lat="45.3599" lon="0.63788">
        <ele>145.00068335648</ele>
        <time>2015-08-08T10:22:59Z</time>
      </trkpt>
      <trkpt lat="45.35996" lon="0.63789">
        <ele>145.00068335648</ele>
        <time>2015-08-08T10:23:04Z</time>
      </trkpt>
      <trkpt lat="45.36003" lon="0.63783">
        <ele>146.89998527344</ele>
        <time>2015-08-08T10:23:09Z</time>
      </trkpt>
      <trkpt lat="45.36009" lon="0.63784">
        <ele>146.89998527344</ele>
        <time>2015-08-08T10:23:14Z</time>
      </trkpt>
      <trkpt lat="45.36011" lon="0.63781">
        <ele>148.81779900364</ele>
        <time>2015-08-08T10:23:19Z</time>
      </trkpt>
      <trkpt lat="45.36015" lon="0.63776">
        <ele>148.81779900364</ele>
        <time>2015-08-08T10:23:25Z</time>
      </trkpt>
      <trkpt lat="45.36019" lon="0.6376">
        <ele>150.358847036</ele>
        <time>2015-08-08T10:23:36Z</time>
      </trkpt>
      <trkpt lat="45.36026" lon="0.63752">
        <ele>150.358847036</ele>
        <time>2015-08-08T10:23:41Z</time>
      </trkpt>
      <trkpt lat="45.36037" lon="0.63742">
        <ele>150.81222296955</ele>
        <time>2015-08-08T10:23:51Z</time>
      </trkpt>
      <trkpt lat="45.36051" lon="0.63729">
        <ele>151.43911547724</ele>
        <time>2015-08-08T10:24:05Z</time>
      </trkpt>
      <trkpt lat="45.36059" lon="0.63722">
        <ele>152.00983902257</ele>
        <time>2015-08-08T10:24:11Z</time>
      </trkpt>
      <trkpt lat="45.36069" lon="0.63713">
        <ele>151.73542192625</ele>
        <time>2015-08-08T10:24:21Z</time>
      </trkpt>
      <trkpt lat="45.36076" lon="0.63704">
        <ele>151.44373893219</ele>
        <time>2015-08-08T10:24:25Z</time>
      </trkpt>
      <trkpt lat="45.36093" lon="0.63678">
        <ele>149.94208917077</ele>
        <time>2015-08-08T10:24:35Z</time>
      </trkpt>
      <trkpt lat="45.36097" lon="0.63674">
        <ele>149.94208917077</ele>
        <time>2015-08-08T10:24:40Z</time>
      </trkpt>
      <trkpt lat="45.36112" lon="0.63664">
        <ele>148.70845794164</ele>
        <time>2015-08-08T10:24:56Z</time>
      </trkpt>
      <trkpt lat="45.36118" lon="0.63662">
        <ele>148.70845794164</ele>
        <time>2015-08-08T10:25:00Z</time>
      </trkpt>
      <trkpt lat="45.36131" lon="0.63651">
        <ele>147.62722984537</ele>
        <time>2015-08-08T10:25:10Z</time>
      </trkpt>
      <trkpt lat="45.36138" lon="0.63644">
        <ele>147.62722984537</ele>
        <time>2015-08-08T10:25:15Z</time>
      </trkpt>
      <trkpt lat="45.36146" lon="0.6364">
        <ele>147.31146142655</ele>
        <time>2015-08-08T10:25:26Z</time>
      </trkpt>
      <trkpt lat="45.3615" lon="0.63638">
        <ele>147.31146142655</ele>
        <time>2015-08-08T10:25:30Z</time>
      </trkpt>
      <trkpt lat="45.36164" lon="0.63629">
        <ele>146.66978246282</ele>
        <time>2015-08-08T10:25:40Z</time>
      </trkpt>
      <trkpt lat="45.36168" lon="0.63626">
        <ele>146.66978246282</ele>
        <time>2015-08-08T10:25:46Z</time>
      </trkpt>
      <trkpt lat="45.36181" lon="0.6362">
        <ele>147.1418202472</ele>
        <time>2015-08-08T10:25:55Z</time>
      </trkpt>
      <trkpt lat="45.36184" lon="0.63616">
        <ele>147.1418202472</ele>
        <time>2015-08-08T10:26:01Z</time>
      </trkpt>
      <trkpt lat="45.36194" lon="0.63602">
        <ele>147.1761129247</ele>
        <time>2015-08-08T10:26:10Z</time>
      </trkpt>
      <trkpt lat="45.36198" lon="0.63592">
        <ele>147.1761129247</ele>
        <time>2015-08-08T10:26:15Z</time>
      </trkpt>
      <trkpt lat="45.36207" lon="0.63576">
        <ele>146.67663530794</ele>
        <time>2015-08-08T10:26:26Z</time>
      </trkpt>
      <trkpt lat="45.36213" lon="0.63562">
        <ele>146.91055841644</ele>
        <time>2015-08-08T10:26:30Z</time>
      </trkpt>
      <trkpt lat="45.36219" lon="0.63547">
        <ele>147.92583989502</ele>
        <time>2015-08-08T10:26:41Z</time>
      </trkpt>
      <trkpt lat="45.36224" lon="0.63541">
        <ele>147.92583989502</ele>
        <time>2015-08-08T10:26:45Z</time>
      </trkpt>
      <trkpt lat="45.36226" lon="0.6354">
        <ele>147.92583989502</ele>
        <time>2015-08-08T10:26:56Z</time>
      </trkpt>
      <trkpt lat="45.36226" lon="0.6354">
        <ele>147.92583989502</ele>
        <time>2015-08-08T10:27:00Z</time>
      </trkpt>
      <trkpt lat="45.36226" lon="0.6354">
        <ele>148.90005024123</ele>
        <time>2015-08-08T10:27:16Z</time>
      </trkpt>
      <trkpt lat="45.36226" lon="0.6354">
        <ele>148.90005024123</ele>
        <time>2015-08-08T10:27:21Z</time>
      </trkpt>
      <trkpt lat="45.36227" lon="0.63541">
        <ele>148.90005024123</ele>
        <time>2015-08-08T10:27:31Z</time>
      </trkpt>
      <trkpt lat="45.36226" lon="0.63541">
        <ele>148.90005024123</ele>
        <time>2015-08-08T10:27:36Z</time>
      </trkpt>
      <trkpt lat="45.36225" lon="0.6354">
        <ele>148.90005024123</ele>
        <time>2015-08-08T10:27:46Z</time>
      </trkpt>
      <trkpt lat="45.36225" lon="0.6354">
        <ele>148.90005024123</ele>
        <time>2015-08-08T10:27:51Z</time>
      </trkpt>
      <trkpt lat="45.36224" lon="0.63538">
        <ele>148.90005024123</ele>
        <time>2015-08-08T10:28:01Z</time>
      </trkpt>
      <trkpt lat="45.36225" lon="0.63537">
        <ele>148.90005024123</ele>
        <time>2015-08-08T10:28:05Z</time>
      </trkpt>
      <trkpt lat="45.36224" lon="0.63537">
        <ele>148.90005024123</ele>
        <time>2015-08-08T10:28:17Z</time>
      </trkpt>
      <trkpt lat="45.36224" lon="0.63537">
        <ele>148.90005024123</ele>
        <time>2015-08-08T10:28:20Z</time>
      </trkpt>
      <trkpt lat="45.36224" lon="0.63537">
        <ele>148.90005024123</ele>
        <time>2015-08-08T10:28:36Z</time>
      </trkpt>
      <trkpt lat="45.36224" lon="0.63537">
        <ele>148.90005024123</ele>
        <time>2015-08-08T10:28:40Z</time>
      </trkpt>
      <trkpt lat="45.36224" lon="0.63537">
        <ele>148.90005024123</ele>
        <time>2015-08-08T10:28:51Z</time>
      </trkpt>
      <trkpt lat="45.36224" lon="0.63537">
        <ele>148.90005024123</ele>
        <time>2015-08-08T10:28:56Z</time>
      </trkpt>
      <trkpt lat="45.36224" lon="0.63537">
        <ele>148.90005024123</ele>
        <time>2015-08-08T10:29:06Z</time>
      </trkpt>
      <trkpt lat="45.36224" lon="0.63537">
        <ele>148.90005024123</ele>
        <time>2015-08-08T10:29:11Z</time>
      </trkpt>
      <trkpt lat="45.36224" lon="0.63537">
        <ele>148.90005024123</ele>
        <time>2015-08-08T10:29:21Z</time>
      </trkpt>
      <trkpt lat="45.36224" lon="0.63537">
        <ele>148.90005024123</ele>
        <time>2015-08-08T10:29:25Z</time>
      </trkpt>
      <trkpt lat="45.36225" lon="0.63537">
        <ele>148.90005024123</ele>
        <time>2015-08-08T10:29:36Z</time>
      </trkpt>
      <trkpt lat="45.36227" lon="0.63532">
        <ele>149.97918605154</ele>
        <time>2015-08-08T10:29:40Z</time>
      </trkpt>
      <trkpt lat="45.36235" lon="0.63528">
        <ele>149.97918605154</ele>
        <time>2015-08-08T10:29:51Z</time>
      </trkpt>
      <trkpt lat="45.36242" lon="0.63527">
        <ele>150.9091228569</ele>
        <time>2015-08-08T10:29:55Z</time>
      </trkpt>
      <trkpt lat="45.36257" lon="0.63527">
        <ele>151.68540212652</ele>
        <time>2015-08-08T10:30:11Z</time>
      </trkpt>
      <trkpt lat="45.36271" lon="0.63526">
        <ele>152.23227241563</ele>
        <time>2015-08-08T10:30:24Z</time>
      </trkpt>
      <trkpt lat="45.36281" lon="0.6352">
        <ele>152.63871806189</ele>
        <time>2015-08-08T10:30:31Z</time>
      </trkpt>
      <trkpt lat="45.36284" lon="0.63521">
        <ele>152.63871806189</ele>
        <time>2015-08-08T10:30:34Z</time>
      </trkpt>
      <trkpt lat="45.36294" lon="0.63518">
        <ele>153.5063867991</ele>
        <time>2015-08-08T10:30:39Z</time>
      </trkpt>
      <trkpt lat="45.36297" lon="0.63515">
        <ele>153.5063867991</ele>
        <time>2015-08-08T10:30:44Z</time>
      </trkpt>
      <trkpt lat="45.363" lon="0.63512">
        <ele>153.5063867991</ele>
        <time>2015-08-08T10:30:49Z</time>
      </trkpt>
      <trkpt lat="45.36306" lon="0.63504">
        <ele>153.9359185403</ele>
        <time>2015-08-08T10:30:54Z</time>
      </trkpt>
      <trkpt lat="45.36311" lon="0.63496">
        <ele>153.9359185403</ele>
        <time>2015-08-08T10:30:59Z</time>
      </trkpt>
      <trkpt lat="45.36316" lon="0.63488">
        <ele>154.24814277559</ele>
        <time>2015-08-08T10:31:04Z</time>
      </trkpt>
      <trkpt lat="45.36317" lon="0.63482">
        <ele>154.24814277559</ele>
        <time>2015-08-08T10:31:10Z</time>
      </trkpt>
      <trkpt lat="45.36325" lon="0.63462">
        <ele>154.85594309231</ele>
        <time>2015-08-08T10:31:21Z</time>
      </trkpt>
      <trkpt lat="45.36325" lon="0.63456">
        <ele>154.85594309231</ele>
        <time>2015-08-08T10:31:26Z</time>
      </trkpt>
      <trkpt lat="45.36325" lon="0.63442">
        <ele>155.29079084882</ele>
        <time>2015-08-08T10:31:35Z</time>
      </trkpt>
      <trkpt lat="45.36325" lon="0.63432">
        <ele>155.29079084882</ele>
        <time>2015-08-08T10:31:41Z</time>
      </trkpt>
      <trkpt lat="45.36328" lon="0.63411">
        <ele>155.19111673122</ele>
        <time>2015-08-08T10:31:55Z</time>
      </trkpt>
      <trkpt lat="45.36328" lon="0.63401">
        <ele>155.19111673122</ele>
        <time>2015-08-08T10:32:00Z</time>
      </trkpt>
      <trkpt lat="45.36326" lon="0.6338">
        <ele>154.42516400868</ele>
        <time>2015-08-08T10:32:11Z</time>
      </trkpt>
      <trkpt lat="45.36325" lon="0.63368">
        <ele>154.42516400868</ele>
        <time>2015-08-08T10:32:16Z</time>
      </trkpt>
      <trkpt lat="45.36322" lon="0.6335">
        <ele>153.66532649328</ele>
        <time>2015-08-08T10:32:25Z</time>
      </trkpt>
      <trkpt lat="45.36322" lon="0.63341">
        <ele>153.66532649328</ele>
        <time>2015-08-08T10:32:31Z</time>
      </trkpt>
      <trkpt lat="45.3632" lon="0.63327">
        <ele>152.61225866128</ele>
        <time>2015-08-08T10:32:41Z</time>
      </trkpt>
      <trkpt lat="45.36317" lon="0.63316">
        <ele>152.61225866128</ele>
        <time>2015-08-08T10:32:45Z</time>
      </trkpt>
      <trkpt lat="45.36311" lon="0.63298">
        <ele>151.62348951681</ele>
        <time>2015-08-08T10:32:55Z</time>
      </trkpt>
      <trkpt lat="45.3631" lon="0.6329">
        <ele>151.62348951681</ele>
        <time>2015-08-08T10:33:01Z</time>
      </trkpt>
      <trkpt lat="45.36307" lon="0.63274">
        <ele>150.72743307319</ele>
        <time>2015-08-08T10:33:10Z</time>
      </trkpt>
      <trkpt lat="45.36304" lon="0.63266">
        <ele>150.72743307319</ele>
        <time>2015-08-08T10:33:16Z</time>
      </trkpt>
      <trkpt lat="45.36302" lon="0.63253">
        <ele>150.36803226884</ele>
        <time>2015-08-08T10:33:26Z</time>
      </trkpt>
      <trkpt lat="45.36301" lon="0.63247">
        <ele>150.36803226884</ele>
        <time>2015-08-08T10:33:30Z</time>
      </trkpt>
      <trkpt lat="45.363" lon="0.63232">
        <ele>150.00392559072</ele>
        <time>2015-08-08T10:33:40Z</time>
      </trkpt>
      <trkpt lat="45.36301" lon="0.63224">
        <ele>150.00392559072</ele>
        <time>2015-08-08T10:33:46Z</time>
      </trkpt>
      <trkpt lat="45.36299" lon="0.63204">
        <ele>148.85966150366</ele>
        <time>2015-08-08T10:33:55Z</time>
      </trkpt>
      <trkpt lat="45.36298" lon="0.63195">
        <ele>148.85966150366</ele>
        <time>2015-08-08T10:34:00Z</time>
      </trkpt>
      <trkpt lat="45.36298" lon="0.63186">
        <ele>148.16437690878</ele>
        <time>2015-08-08T10:34:04Z</time>
      </trkpt>
      <trkpt lat="45.363" lon="0.63163">
        <ele>148.37826674145</ele>
        <time>2015-08-08T10:34:14Z</time>
      </trkpt>
      <trkpt lat="45.36301" lon="0.63152">
        <ele>148.37826674145</ele>
        <time>2015-08-08T10:34:20Z</time>
      </trkpt>
      <trkpt lat="45.36305" lon="0.63145">
        <ele>148.93073291739</ele>
        <time>2015-08-08T10:34:24Z</time>
      </trkpt>
      <trkpt lat="45.36309" lon="0.63137">
        <ele>148.93073291739</ele>
        <time>2015-08-08T10:34:29Z</time>
      </trkpt>
      <trkpt lat="45.36311" lon="0.63131">
        <ele>149.4794190136</ele>
        <time>2015-08-08T10:34:34Z</time>
      </trkpt>
      <trkpt lat="45.36314" lon="0.63123">
        <ele>149.4794190136</ele>
        <time>2015-08-08T10:34:39Z</time>
      </trkpt>
      <trkpt lat="45.36316" lon="0.63114">
        <ele>150.326742404</ele>
        <time>2015-08-08T10:34:45Z</time>
      </trkpt>
      <trkpt lat="45.3632" lon="0.63103">
        <ele>150.326742404</ele>
        <time>2015-08-08T10:34:55Z</time>
      </trkpt>
      <trkpt lat="45.36322" lon="0.63095">
        <ele>150.6279419588</ele>
        <time>2015-08-08T10:35:00Z</time>
      </trkpt>
      <trkpt lat="45.36327" lon="0.63077">
        <ele>150.39440248111</ele>
        <time>2015-08-08T10:35:10Z</time>
      </trkpt>
      <trkpt lat="45.3633" lon="0.63067">
        <ele>150.39440248111</ele>
        <time>2015-08-08T10:35:16Z</time>
      </trkpt>
      <trkpt lat="45.36332" lon="0.6305">
        <ele>150.38750139558</ele>
        <time>2015-08-08T10:35:25Z</time>
      </trkpt>
      <trkpt lat="45.36332" lon="0.63042">
        <ele>150.38750139558</ele>
        <time>2015-08-08T10:35:30Z</time>
      </trkpt>
      <trkpt lat="45.36336" lon="0.63029">
        <ele>150.20234679564</ele>
        <time>2015-08-08T10:35:40Z</time>
      </trkpt>
      <trkpt lat="45.36337" lon="0.63021">
        <ele>150.20234679564</ele>
        <time>2015-08-08T10:35:46Z</time>
      </trkpt>
      <trkpt lat="45.36342" lon="0.63006">
        <ele>149.7524650367</ele>
        <time>2015-08-08T10:35:56Z</time>
      </trkpt>
      <trkpt lat="45.36345" lon="0.62998">
        <ele>149.7524650367</ele>
        <time>2015-08-08T10:36:01Z</time>
      </trkpt>
      <trkpt lat="45.36348" lon="0.62992">
        <ele>149.28988494201</ele>
        <time>2015-08-08T10:36:05Z</time>
      </trkpt>
      <trkpt lat="45.36354" lon="0.62975">
        <ele>148.38519546951</ele>
        <time>2015-08-08T10:36:16Z</time>
      </trkpt>
      <trkpt lat="45.36357" lon="0.62968">
        <ele>148.38519546951</ele>
        <time>2015-08-08T10:36:20Z</time>
      </trkpt>
      <trkpt lat="45.36361" lon="0.62953">
        <ele>147.10287180624</ele>
        <time>2015-08-08T10:36:30Z</time>
      </trkpt>
      <trkpt lat="45.36366" lon="0.62946">
        <ele>147.10287180624</ele>
        <time>2015-08-08T10:36:35Z</time>
      </trkpt>
      <trkpt lat="45.36372" lon="0.62931">
        <ele>144.95602907676</ele>
        <time>2015-08-08T10:36:45Z</time>
      </trkpt>
      <trkpt lat="45.36376" lon="0.62924">
        <ele>144.95602907676</ele>
        <time>2015-08-08T10:36:51Z</time>
      </trkpt>
      <trkpt lat="45.36385" lon="0.62909">
        <ele>143.08112772711</ele>
        <time>2015-08-08T10:37:00Z</time>
      </trkpt>
      <trkpt lat="45.36389" lon="0.62901">
        <ele>143.08112772711</ele>
        <time>2015-08-08T10:37:05Z</time>
      </trkpt>
      <trkpt lat="45.36394" lon="0.62888">
        <ele>140.82978991222</ele>
        <time>2015-08-08T10:37:16Z</time>
      </trkpt>
      <trkpt lat="45.364" lon="0.62879">
        <ele>140.82978991222</ele>
        <time>2015-08-08T10:37:21Z</time>
      </trkpt>
      <trkpt lat="45.36409" lon="0.62866">
        <ele>139.33156662571</ele>
        <time>2015-08-08T10:37:31Z</time>
      </trkpt>
      <trkpt lat="45.36412" lon="0.62858">
        <ele>139.33156662571</ele>
        <time>2015-08-08T10:37:36Z</time>
      </trkpt>
      <trkpt lat="45.36417" lon="0.62841">
        <ele>137.48356236276</ele>
        <time>2015-08-08T10:37:46Z</time>
      </trkpt>
      <trkpt lat="45.3642" lon="0.62835">
        <ele>137.48356236276</ele>
        <time>2015-08-08T10:37:51Z</time>
      </trkpt>
      <trkpt lat="45.36428" lon="0.62816">
        <ele>135.95087205549</ele>
        <time>2015-08-08T10:38:00Z</time>
      </trkpt>
      <trkpt lat="45.36431" lon="0.6281">
        <ele>135.95087205549</ele>
        <time>2015-08-08T10:38:06Z</time>
      </trkpt>
      <trkpt lat="45.36436" lon="0.62793">
        <ele>134.21025391644</ele>
        <time>2015-08-08T10:38:15Z</time>
      </trkpt>
      <trkpt lat="45.36439" lon="0.62783">
        <ele>134.21025391644</ele>
        <time>2015-08-08T10:38:21Z</time>
      </trkpt>
      <trkpt lat="45.36443" lon="0.62764">
        <ele>132.51233166026</ele>
        <time>2015-08-08T10:38:31Z</time>
      </trkpt>
      <trkpt lat="45.36446" lon="0.62754">
        <ele>132.51233166026</ele>
        <time>2015-08-08T10:38:35Z</time>
      </trkpt>
      <trkpt lat="45.36451" lon="0.62734">
        <ele>130.85849423198</ele>
        <time>2015-08-08T10:38:46Z</time>
      </trkpt>
      <trkpt lat="45.36452" lon="0.62722">
        <ele>130.85849423198</ele>
        <time>2015-08-08T10:38:51Z</time>
      </trkpt>
      <trkpt lat="45.36454" lon="0.62702">
        <ele>130.24414349697</ele>
        <time>2015-08-08T10:39:01Z</time>
      </trkpt>
      <trkpt lat="45.36458" lon="0.62695">
        <ele>130.24414349697</ele>
        <time>2015-08-08T10:39:06Z</time>
      </trkpt>
      <trkpt lat="45.36465" lon="0.6267">
        <ele>129.42684719721</ele>
        <time>2015-08-08T10:39:21Z</time>
      </trkpt>
      <trkpt lat="45.36466" lon="0.62661">
        <ele>129.42684719721</ele>
        <time>2015-08-08T10:39:25Z</time>
      </trkpt>
      <trkpt lat="45.36473" lon="0.62648">
        <ele>128.69699558035</ele>
        <time>2015-08-08T10:39:35Z</time>
      </trkpt>
      <trkpt lat="45.36475" lon="0.62643">
        <ele>128.69699558035</ele>
        <time>2015-08-08T10:39:41Z</time>
      </trkpt>
      <trkpt lat="45.36484" lon="0.62623">
        <ele>127.90535652549</ele>
        <time>2015-08-08T10:39:49Z</time>
      </trkpt>
      <trkpt lat="45.36488" lon="0.6261">
        <ele>127.41810579174</ele>
        <time>2015-08-08T10:39:54Z</time>
      </trkpt>
      <trkpt lat="45.3649" lon="0.626">
        <ele>127.41810579174</ele>
        <time>2015-08-08T10:39:59Z</time>
      </trkpt>
      <trkpt lat="45.36494" lon="0.62591">
        <ele>127.28533326574</ele>
        <time>2015-08-08T10:40:04Z</time>
      </trkpt>
      <trkpt lat="45.36498" lon="0.62584">
        <ele>127.28533326574</ele>
        <time>2015-08-08T10:40:09Z</time>
      </trkpt>
      <trkpt lat="45.36503" lon="0.62575">
        <ele>127.73969719182</ele>
        <time>2015-08-08T10:40:14Z</time>
      </trkpt>
      <trkpt lat="45.36508" lon="0.6257">
        <ele>127.73969719182</ele>
        <time>2015-08-08T10:40:19Z</time>
      </trkpt>
      <trkpt lat="45.36514" lon="0.62563">
        <ele>127.75566894413</ele>
        <time>2015-08-08T10:40:25Z</time>
      </trkpt>
      <trkpt lat="45.36527" lon="0.62553">
        <ele>127.78208063783</ele>
        <time>2015-08-08T10:40:36Z</time>
      </trkpt>
      <trkpt lat="45.36528" lon="0.62549">
        <ele>127.78208063783</ele>
        <time>2015-08-08T10:40:40Z</time>
      </trkpt>
      <trkpt lat="45.36538" lon="0.62535">
        <ele>127.51413657226</ele>
        <time>2015-08-08T10:40:51Z</time>
      </trkpt>
      <trkpt lat="45.36544" lon="0.6253">
        <ele>127.51413657226</ele>
        <time>2015-08-08T10:40:55Z</time>
      </trkpt>
      <trkpt lat="45.36554" lon="0.62516">
        <ele>127.30428374351</ele>
        <time>2015-08-08T10:41:06Z</time>
      </trkpt>
      <trkpt lat="45.36558" lon="0.62511">
        <ele>127.30428374351</ele>
        <time>2015-08-08T10:41:10Z</time>
      </trkpt>
      <trkpt lat="45.36567" lon="0.62495">
        <ele>126.91682728776</ele>
        <time>2015-08-08T10:41:21Z</time>
      </trkpt>
      <trkpt lat="45.36572" lon="0.62489">
        <ele>126.91682728776</ele>
        <time>2015-08-08T10:41:25Z</time>
      </trkpt>
      <trkpt lat="45.3658" lon="0.62473">
        <ele>126.59499203467</ele>
        <time>2015-08-08T10:41:35Z</time>
      </trkpt>
      <trkpt lat="45.36585" lon="0.62467">
        <ele>126.59499203467</ele>
        <time>2015-08-08T10:41:41Z</time>
      </trkpt>
      <trkpt lat="45.36599" lon="0.6245">
        <ele>126.53508712923</ele>
        <time>2015-08-08T10:41:56Z</time>
      </trkpt>
      <trkpt lat="45.36603" lon="0.62443">
        <ele>126.53508712923</ele>
        <time>2015-08-08T10:42:00Z</time>
      </trkpt>
      <trkpt lat="45.36614" lon="0.6243">
        <ele>126.83176382002</ele>
        <time>2015-08-08T10:42:10Z</time>
      </trkpt>
      <trkpt lat="45.3662" lon="0.62422">
        <ele>126.83176382002</ele>
        <time>2015-08-08T10:42:16Z</time>
      </trkpt>
      <trkpt lat="45.36631" lon="0.62404">
        <ele>127.34111394256</ele>
        <time>2015-08-08T10:42:26Z</time>
      </trkpt>
      <trkpt lat="45.36633" lon="0.62395">
        <ele>127.34111394256</ele>
        <time>2015-08-08T10:42:31Z</time>
      </trkpt>
      <trkpt lat="45.36636" lon="0.62375">
        <ele>127.9291846551</ele>
        <time>2015-08-08T10:42:41Z</time>
      </trkpt>
      <trkpt lat="45.36637" lon="0.62366">
        <ele>127.9291846551</ele>
        <time>2015-08-08T10:42:46Z</time>
      </trkpt>
      <trkpt lat="45.36638" lon="0.62351">
        <ele>128.9760225174</ele>
        <time>2015-08-08T10:42:56Z</time>
      </trkpt>
      <trkpt lat="45.36637" lon="0.62344">
        <ele>128.9760225174</ele>
        <time>2015-08-08T10:43:00Z</time>
      </trkpt>
      <trkpt lat="45.36635" lon="0.62326">
        <ele>129.05990258837</ele>
        <time>2015-08-08T10:43:10Z</time>
      </trkpt>
      <trkpt lat="45.36634" lon="0.62319">
        <ele>129.05990258837</ele>
        <time>2015-08-08T10:43:15Z</time>
      </trkpt>
      <trkpt lat="45.36635" lon="0.62299">
        <ele>129.70524128283</ele>
        <time>2015-08-08T10:43:26Z</time>
      </trkpt>
      <trkpt lat="45.36635" lon="0.62293">
        <ele>129.70524128283</ele>
        <time>2015-08-08T10:43:30Z</time>
      </trkpt>
      <trkpt lat="45.36633" lon="0.62273">
        <ele>130.59358364738</ele>
        <time>2015-08-08T10:43:40Z</time>
      </trkpt>
      <trkpt lat="45.3663" lon="0.62261">
        <ele>130.59358364738</ele>
        <time>2015-08-08T10:43:46Z</time>
      </trkpt>
      <trkpt lat="45.36626" lon="0.62243">
        <ele>132.06330601511</ele>
        <time>2015-08-08T10:43:56Z</time>
      </trkpt>
      <trkpt lat="45.36623" lon="0.62233">
        <ele>132.06330601511</ele>
        <time>2015-08-08T10:43:59Z</time>
      </trkpt>
      <trkpt lat="45.36604" lon="0.62156">
        <ele>133.02845815241</ele>
        <time>2015-08-08T10:44:15Z</time>
      </trkpt>
      <trkpt lat="45.366" lon="0.62135">
        <ele>133.89661766138</ele>
        <time>2015-08-08T10:44:20Z</time>
      </trkpt>
      <trkpt lat="45.36599" lon="0.62111">
        <ele>135.08898686397</ele>
        <time>2015-08-08T10:44:31Z</time>
      </trkpt>
      <trkpt lat="45.36599" lon="0.62101">
        <ele>135.08898686397</ele>
        <time>2015-08-08T10:44:35Z</time>
      </trkpt>
      <trkpt lat="45.36597" lon="0.62079">
        <ele>137.00939846747</ele>
        <time>2015-08-08T10:44:44Z</time>
      </trkpt>
      <trkpt lat="45.36597" lon="0.62073">
        <ele>137.00939846747</ele>
        <time>2015-08-08T10:44:49Z</time>
      </trkpt>
      <trkpt lat="45.36592" lon="0.62063">
        <ele>138.8771682382</ele>
        <time>2015-08-08T10:44:54Z</time>
      </trkpt>
      <trkpt lat="45.36592" lon="0.6205">
        <ele>140.6032881539</ele>
        <time>2015-08-08T10:44:59Z</time>
      </trkpt>
      <trkpt lat="45.36589" lon="0.6204">
        <ele>140.6032881539</ele>
        <time>2015-08-08T10:45:04Z</time>
      </trkpt>
      <trkpt lat="45.36586" lon="0.62033">
        <ele>142.40842164422</ele>
        <time>2015-08-08T10:45:10Z</time>
      </trkpt>
      <trkpt lat="45.36578" lon="0.62019">
        <ele>143.63224570321</ele>
        <time>2015-08-08T10:45:20Z</time>
      </trkpt>
      <trkpt lat="45.36576" lon="0.62012">
        <ele>143.63224570321</ele>
        <time>2015-08-08T10:45:26Z</time>
      </trkpt>
      <trkpt lat="45.36571" lon="0.62">
        <ele>144.34201643175</ele>
        <time>2015-08-08T10:45:35Z</time>
      </trkpt>
      <trkpt lat="45.36569" lon="0.61994">
        <ele>144.34201643175</ele>
        <time>2015-08-08T10:45:41Z</time>
      </trkpt>
      <trkpt lat="45.36564" lon="0.61982">
        <ele>144.64484709666</ele>
        <time>2015-08-08T10:45:50Z</time>
      </trkpt>
      <trkpt lat="45.36562" lon="0.61975">
        <ele>144.64484709666</ele>
        <time>2015-08-08T10:45:55Z</time>
      </trkpt>
      <trkpt lat="45.36556" lon="0.61952">
        <ele>144.8285908362</ele>
        <time>2015-08-08T10:46:05Z</time>
      </trkpt>
      <trkpt lat="45.36554" lon="0.61941">
        <ele>144.8285908362</ele>
        <time>2015-08-08T10:46:10Z</time>
      </trkpt>
      <trkpt lat="45.36548" lon="0.61915">
        <ele>145.23246428495</ele>
        <time>2015-08-08T10:46:25Z</time>
      </trkpt>
      <trkpt lat="45.36547" lon="0.61901">
        <ele>145.14707263795</ele>
        <time>2015-08-08T10:46:36Z</time>
      </trkpt>
      <trkpt lat="45.36545" lon="0.61891">
        <ele>145.14707263795</ele>
        <time>2015-08-08T10:46:41Z</time>
      </trkpt>
      <trkpt lat="45.3654" lon="0.61862">
        <ele>145.57389241323</ele>
        <time>2015-08-08T10:46:55Z</time>
      </trkpt>
      <trkpt lat="45.36539" lon="0.61853">
        <ele>145.57389241323</ele>
        <time>2015-08-08T10:47:01Z</time>
      </trkpt>
      <trkpt lat="45.36537" lon="0.61832">
        <ele>145.6813418732</ele>
        <time>2015-08-08T10:47:11Z</time>
      </trkpt>
      <trkpt lat="45.36537" lon="0.61828">
        <ele>145.6813418732</ele>
        <time>2015-08-08T10:47:15Z</time>
      </trkpt>
      <trkpt lat="45.36534" lon="0.61797">
        <ele>145.9248648168</ele>
        <time>2015-08-08T10:47:26Z</time>
      </trkpt>
      <trkpt lat="45.36533" lon="0.61786">
        <ele>145.9248648168</ele>
        <time>2015-08-08T10:47:30Z</time>
      </trkpt>
      <trkpt lat="45.36531" lon="0.61768">
        <ele>146.17853589875</ele>
        <time>2015-08-08T10:47:40Z</time>
      </trkpt>
      <trkpt lat="45.36527" lon="0.61757">
        <ele>146.58513868014</ele>
        <time>2015-08-08T10:47:46Z</time>
      </trkpt>
      <trkpt lat="45.36518" lon="0.61738">
        <ele>147.43514422395</ele>
        <time>2015-08-08T10:47:54Z</time>
      </trkpt>
      <trkpt lat="45.3651" lon="0.61727">
        <ele>148.88123433742</ele>
        <time>2015-08-08T10:48:01Z</time>
      </trkpt>
      <trkpt lat="45.3651" lon="0.61705">
        <ele>149.13219265891</ele>
        <time>2015-08-08T10:48:11Z</time>
      </trkpt>
      <trkpt lat="45.36511" lon="0.61694">
        <ele>149.13219265891</ele>
        <time>2015-08-08T10:48:16Z</time>
      </trkpt>
      <trkpt lat="45.36514" lon="0.61678">
        <ele>148.63583732496</ele>
        <time>2015-08-08T10:48:26Z</time>
      </trkpt>
      <trkpt lat="45.36514" lon="0.61674">
        <ele>148.63583732496</ele>
        <time>2015-08-08T10:48:29Z</time>
      </trkpt>
      <trkpt lat="45.36518" lon="0.61658">
        <ele>147.88131443794</ele>
        <time>2015-08-08T10:48:40Z</time>
      </trkpt>
      <trkpt lat="45.36522" lon="0.61649">
        <ele>147.88131443794</ele>
        <time>2015-08-08T10:48:46Z</time>
      </trkpt>
      <trkpt lat="45.36531" lon="0.61622">
        <ele>147.04881501926</ele>
        <time>2015-08-08T10:49:00Z</time>
      </trkpt>
      <trkpt lat="45.36533" lon="0.61613">
        <ele>147.04881501926</ele>
        <time>2015-08-08T10:49:05Z</time>
      </trkpt>
      <trkpt lat="45.36534" lon="0.61592">
        <ele>144.93650664421</ele>
        <time>2015-08-08T10:49:15Z</time>
      </trkpt>
      <trkpt lat="45.36532" lon="0.61582">
        <ele>144.93650664421</ele>
        <time>2015-08-08T10:49:20Z</time>
      </trkpt>
      <trkpt lat="45.3653" lon="0.6156">
        <ele>143.37433621429</ele>
        <time>2015-08-08T10:49:29Z</time>
      </trkpt>
      <trkpt lat="45.36529" lon="0.61549">
        <ele>143.37433621429</ele>
        <time>2015-08-08T10:49:36Z</time>
      </trkpt>
      <trkpt lat="45.36528" lon="0.61529">
        <ele>142.44225534544</ele>
        <time>2015-08-08T10:49:46Z</time>
      </trkpt>
      <trkpt lat="45.36525" lon="0.61517">
        <ele>141.47761272266</ele>
        <time>2015-08-08T10:49:49Z</time>
      </trkpt>
      <trkpt lat="45.36522" lon="0.61495">
        <ele>141.61026482836</ele>
        <time>2015-08-08T10:49:59Z</time>
      </trkpt>
      <trkpt lat="45.36517" lon="0.61483">
        <ele>142.14023311198</ele>
        <time>2015-08-08T10:50:04Z</time>
      </trkpt>
      <trkpt lat="45.36514" lon="0.61472">
        <ele>142.14023311198</ele>
        <time>2015-08-08T10:50:09Z</time>
      </trkpt>
      <trkpt lat="45.36513" lon="0.61461">
        <ele>143.38337507468</ele>
        <time>2015-08-08T10:50:14Z</time>
      </trkpt>
      <trkpt lat="45.36505" lon="0.61452">
        <ele>144.89536712519</ele>
        <time>2015-08-08T10:50:19Z</time>
      </trkpt>
      <trkpt lat="45.36488" lon="0.61427">
        <ele>146.58081260809</ele>
        <time>2015-08-08T10:50:35Z</time>
      </trkpt>
      <trkpt lat="45.36484" lon="0.61421">
        <ele>146.58081260809</ele>
        <time>2015-08-08T10:50:39Z</time>
      </trkpt>
      <trkpt lat="45.36471" lon="0.61416">
        <ele>149.63343441986</ele>
        <time>2015-08-08T10:50:50Z</time>
      </trkpt>
      <trkpt lat="45.36461" lon="0.6141">
        <ele>153.09466484109</ele>
        <time>2015-08-08T10:50:56Z</time>
      </trkpt>
      <trkpt lat="45.36446" lon="0.61402">
        <ele>156.57963782244</ele>
        <time>2015-08-08T10:51:06Z</time>
      </trkpt>
      <trkpt lat="45.36439" lon="0.61398">
        <ele>156.57963782244</ele>
        <time>2015-08-08T10:51:11Z</time>
      </trkpt>
      <trkpt lat="45.36431" lon="0.61385">
        <ele>158.82385402034</ele>
        <time>2015-08-08T10:51:21Z</time>
      </trkpt>
      <trkpt lat="45.36431" lon="0.61378">
        <ele>158.82385402034</ele>
        <time>2015-08-08T10:51:26Z</time>
      </trkpt>
      <trkpt lat="45.36432" lon="0.61364">
        <ele>158.60161507325</ele>
        <time>2015-08-08T10:51:36Z</time>
      </trkpt>
      <trkpt lat="45.36433" lon="0.61356">
        <ele>158.60161507325</ele>
        <time>2015-08-08T10:51:40Z</time>
      </trkpt>
      <trkpt lat="45.36435" lon="0.61335">
        <ele>157.26297355854</ele>
        <time>2015-08-08T10:51:50Z</time>
      </trkpt>
      <trkpt lat="45.36435" lon="0.61321">
        <ele>156.5664063008</ele>
        <time>2015-08-08T10:51:56Z</time>
      </trkpt>
      <trkpt lat="45.36434" lon="0.61298">
        <ele>157.13070237665</ele>
        <time>2015-08-08T10:52:05Z</time>
      </trkpt>
      <trkpt lat="45.36433" lon="0.61286">
        <ele>157.13070237665</ele>
        <time>2015-08-08T10:52:10Z</time>
      </trkpt>
      <trkpt lat="45.36429" lon="0.61263">
        <ele>159.65541847308</ele>
        <time>2015-08-08T10:52:20Z</time>
      </trkpt>
      <trkpt lat="45.3643" lon="0.61253">
        <ele>159.65541847308</ele>
        <time>2015-08-08T10:52:25Z</time>
      </trkpt>
      <trkpt lat="45.36434" lon="0.61242">
        <ele>161.88664590922</ele>
        <time>2015-08-08T10:52:41Z</time>
      </trkpt>
      <trkpt lat="45.36439" lon="0.61234">
        <ele>161.88664590922</ele>
        <time>2015-08-08T10:52:46Z</time>
      </trkpt>
      <trkpt lat="45.36442" lon="0.61222">
        <ele>163.10598630676</ele>
        <time>2015-08-08T10:52:56Z</time>
      </trkpt>
      <trkpt lat="45.36447" lon="0.61218">
        <ele>163.10598630676</ele>
        <time>2015-08-08T10:53:00Z</time>
      </trkpt>
      <trkpt lat="45.36456" lon="0.61204">
        <ele>163.37127304208</ele>
        <time>2015-08-08T10:53:11Z</time>
      </trkpt>
      <trkpt lat="45.36462" lon="0.61193">
        <ele>163.48821173189</ele>
        <time>2015-08-08T10:53:16Z</time>
      </trkpt>
      <trkpt lat="45.36473" lon="0.61163">
        <ele>165.48639341172</ele>
        <time>2015-08-08T10:53:25Z</time>
      </trkpt>
      <trkpt lat="45.3648" lon="0.61148">
        <ele>168.09948236116</ele>
        <time>2015-08-08T10:53:29Z</time>
      </trkpt>
      <trkpt lat="45.36486" lon="0.61137">
        <ele>170.61366741493</ele>
        <time>2015-08-08T10:53:34Z</time>
      </trkpt>
      <trkpt lat="45.36491" lon="0.6113">
        <ele>170.61366741493</ele>
        <time>2015-08-08T10:53:39Z</time>
      </trkpt>
      <trkpt lat="45.36496" lon="0.61124">
        <ele>172.98760543749</ele>
        <time>2015-08-08T10:53:44Z</time>
      </trkpt>
      <trkpt lat="45.365" lon="0.61114">
        <ele>172.98760543749</ele>
        <time>2015-08-08T10:53:49Z</time>
      </trkpt>
      <trkpt lat="45.36505" lon="0.61106">
        <ele>174.72231284019</ele>
        <time>2015-08-08T10:53:54Z</time>
      </trkpt>
      <trkpt lat="45.36509" lon="0.611">
        <ele>174.72231284019</ele>
        <time>2015-08-08T10:53:59Z</time>
      </trkpt>
      <trkpt lat="45.36512" lon="0.61094">
        <ele>176.32289067948</ele>
        <time>2015-08-08T10:54:04Z</time>
      </trkpt>
      <trkpt lat="45.36516" lon="0.61091">
        <ele>176.32289067948</ele>
        <time>2015-08-08T10:54:09Z</time>
      </trkpt>
      <trkpt lat="45.3652" lon="0.61084">
        <ele>178.48838631827</ele>
        <time>2015-08-08T10:54:14Z</time>
      </trkpt>
      <trkpt lat="45.36532" lon="0.61058">
        <ele>180.48154322254</ele>
        <time>2015-08-08T10:54:31Z</time>
      </trkpt>
      <trkpt lat="45.36534" lon="0.61051">
        <ele>180.48154322254</ele>
        <time>2015-08-08T10:54:36Z</time>
      </trkpt>
      <trkpt lat="45.3654" lon="0.61031">
        <ele>182.23952636506</ele>
        <time>2015-08-08T10:54:46Z</time>
      </trkpt>
      <trkpt lat="45.36542" lon="0.61027">
        <ele>182.23952636506</ele>
        <time>2015-08-08T10:54:51Z</time>
      </trkpt>
      <trkpt lat="45.3655" lon="0.61019">
        <ele>182.84021060823</ele>
        <time>2015-08-08T10:55:00Z</time>
      </trkpt>
      <trkpt lat="45.3655" lon="0.61012">
        <ele>182.84021060823</ele>
        <time>2015-08-08T10:55:06Z</time>
      </trkpt>
      <trkpt lat="45.36554" lon="0.60997">
        <ele>183.23394453966</ele>
        <time>2015-08-08T10:55:16Z</time>
      </trkpt>
      <trkpt lat="45.36556" lon="0.60987">
        <ele>183.23394453966</ele>
        <time>2015-08-08T10:55:20Z</time>
      </trkpt>
      <trkpt lat="45.36561" lon="0.60969">
        <ele>183.4084484577</ele>
        <time>2015-08-08T10:55:30Z</time>
      </trkpt>
      <trkpt lat="45.36562" lon="0.60963">
        <ele>183.4084484577</ele>
        <time>2015-08-08T10:55:35Z</time>
      </trkpt>
      <trkpt lat="45.36563" lon="0.60944">
        <ele>182.94953027925</ele>
        <time>2015-08-08T10:55:46Z</time>
      </trkpt>
      <trkpt lat="45.36563" lon="0.60934">
        <ele>182.94953027925</ele>
        <time>2015-08-08T10:55:50Z</time>
      </trkpt>
      <trkpt lat="45.36564" lon="0.60914">
        <ele>183.01726004329</ele>
        <time>2015-08-08T10:56:00Z</time>
      </trkpt>
      <trkpt lat="45.36563" lon="0.60902">
        <ele>183.01726004329</ele>
        <time>2015-08-08T10:56:05Z</time>
      </trkpt>
      <trkpt lat="45.36562" lon="0.60879">
        <ele>183.24395733159</ele>
        <time>2015-08-08T10:56:16Z</time>
      </trkpt>
      <trkpt lat="45.36561" lon="0.60869">
        <ele>183.24395733159</ele>
        <time>2015-08-08T10:56:20Z</time>
      </trkpt>
      <trkpt lat="45.3656" lon="0.60863">
        <ele>182.92827098835</ele>
        <time>2015-08-08T10:56:25Z</time>
      </trkpt>
      <trkpt lat="45.3656" lon="0.60836">
        <ele>183.78534848606</ele>
        <time>2015-08-08T10:56:35Z</time>
      </trkpt>
      <trkpt lat="45.36559" lon="0.60826">
        <ele>183.78534848606</ele>
        <time>2015-08-08T10:56:40Z</time>
      </trkpt>
      <trkpt lat="45.36554" lon="0.60796">
        <ele>184.72061092114</ele>
        <time>2015-08-08T10:56:51Z</time>
      </trkpt>
      <trkpt lat="45.36552" lon="0.60774">
        <ele>186.7372444693</ele>
        <time>2015-08-08T10:56:55Z</time>
      </trkpt>
      <trkpt lat="45.3655" lon="0.60744">
        <ele>187.77862580863</ele>
        <time>2015-08-08T10:57:06Z</time>
      </trkpt>
      <trkpt lat="45.36548" lon="0.60734">
        <ele>187.77862580863</ele>
        <time>2015-08-08T10:57:11Z</time>
      </trkpt>
      <trkpt lat="45.36542" lon="0.60703">
        <ele>188.85301063554</ele>
        <time>2015-08-08T10:57:21Z</time>
      </trkpt>
      <trkpt lat="45.3654" lon="0.60691">
        <ele>188.85301063554</ele>
        <time>2015-08-08T10:57:25Z</time>
      </trkpt>
      <trkpt lat="45.36538" lon="0.60675">
        <ele>189.17959201581</ele>
        <time>2015-08-08T10:57:36Z</time>
      </trkpt>
      <trkpt lat="45.36538" lon="0.60666">
        <ele>189.17959201581</ele>
        <time>2015-08-08T10:57:41Z</time>
      </trkpt>
      <trkpt lat="45.36534" lon="0.60648">
        <ele>188.08026605545</ele>
        <time>2015-08-08T10:57:51Z</time>
      </trkpt>
      <trkpt lat="45.36532" lon="0.60639">
        <ele>188.08026605545</ele>
        <time>2015-08-08T10:57:56Z</time>
      </trkpt>
      <trkpt lat="45.36526" lon="0.60615">
        <ele>187.611216262</ele>
        <time>2015-08-08T10:58:04Z</time>
      </trkpt>
      <trkpt lat="45.36525" lon="0.60597">
        <ele>188.36439828692</ele>
        <time>2015-08-08T10:58:09Z</time>
      </trkpt>
      <trkpt lat="45.36524" lon="0.60581">
        <ele>189.41491000815</ele>
        <time>2015-08-08T10:58:14Z</time>
      </trkpt>
      <trkpt lat="45.36524" lon="0.60568">
        <ele>189.41491000815</ele>
        <time>2015-08-08T10:58:19Z</time>
      </trkpt>
      <trkpt lat="45.36523" lon="0.60557">
        <ele>190.30845308436</ele>
        <time>2015-08-08T10:58:24Z</time>
      </trkpt>
      <trkpt lat="45.3652" lon="0.60549">
        <ele>190.30845308436</ele>
        <time>2015-08-08T10:58:29Z</time>
      </trkpt>
      <trkpt lat="45.3652" lon="0.60537">
        <ele>191.71977008248</ele>
        <time>2015-08-08T10:58:34Z</time>
      </trkpt>
      <trkpt lat="45.36519" lon="0.60523">
        <ele>193.23496994898</ele>
        <time>2015-08-08T10:58:39Z</time>
      </trkpt>
      <trkpt lat="45.36519" lon="0.60508">
        <ele>195.07553078164</ele>
        <time>2015-08-08T10:58:44Z</time>
      </trkpt>
      <trkpt lat="45.36518" lon="0.60496">
        <ele>195.07553078164</ele>
        <time>2015-08-08T10:58:49Z</time>
      </trkpt>
      <trkpt lat="45.36519" lon="0.60484">
        <ele>197.09987649139</ele>
        <time>2015-08-08T10:58:54Z</time>
      </trkpt>
      <trkpt lat="45.36517" lon="0.60475">
        <ele>197.09987649139</ele>
        <time>2015-08-08T10:58:59Z</time>
      </trkpt>
      <trkpt lat="45.36517" lon="0.60466">
        <ele>198.83045013882</ele>
        <time>2015-08-08T10:59:05Z</time>
      </trkpt>
      <trkpt lat="45.36516" lon="0.60442">
        <ele>199.99854050542</ele>
        <time>2015-08-08T10:59:15Z</time>
      </trkpt>
      <trkpt lat="45.36516" lon="0.60431">
        <ele>199.99854050542</ele>
        <time>2015-08-08T10:59:20Z</time>
      </trkpt>
      <trkpt lat="45.36516" lon="0.60411">
        <ele>201.06291007852</ele>
        <time>2015-08-08T10:59:31Z</time>
      </trkpt>
      <trkpt lat="45.36516" lon="0.604">
        <ele>201.06291007852</ele>
        <time>2015-08-08T10:59:35Z</time>
      </trkpt>
      <trkpt lat="45.36516" lon="0.60381">
        <ele>201.65631387059</ele>
        <time>2015-08-08T10:59:46Z</time>
      </trkpt>
      <trkpt lat="45.36517" lon="0.60374">
        <ele>201.65631387059</ele>
        <time>2015-08-08T10:59:50Z</time>
      </trkpt>
      <trkpt lat="45.36517" lon="0.60353">
        <ele>201.31011657533</ele>
        <time>2015-08-08T11:00:01Z</time>
      </trkpt>
      <trkpt lat="45.36517" lon="0.60344">
        <ele>201.31011657533</ele>
        <time>2015-08-08T11:00:05Z</time>
      </trkpt>
      <trkpt lat="45.36516" lon="0.60322">
        <ele>200.61593851883</ele>
        <time>2015-08-08T11:00:15Z</time>
      </trkpt>
      <trkpt lat="45.36513" lon="0.60314">
        <ele>200.61593851883</ele>
        <time>2015-08-08T11:00:20Z</time>
      </trkpt>
      <trkpt lat="45.3651" lon="0.60293">
        <ele>199.34471050744</ele>
        <time>2015-08-08T11:00:31Z</time>
      </trkpt>
      <trkpt lat="45.36509" lon="0.60284">
        <ele>199.34471050744</ele>
        <time>2015-08-08T11:00:36Z</time>
      </trkpt>
      <trkpt lat="45.36504" lon="0.60268">
        <ele>197.40107850871</ele>
        <time>2015-08-08T11:00:46Z</time>
      </trkpt>
      <trkpt lat="45.36502" lon="0.60258">
        <ele>197.40107850871</ele>
        <time>2015-08-08T11:00:50Z</time>
      </trkpt>
      <trkpt lat="45.36497" lon="0.60241">
        <ele>194.59766284657</ele>
        <time>2015-08-08T11:01:01Z</time>
      </trkpt>
      <trkpt lat="45.36496" lon="0.60236">
        <ele>194.59766284657</ele>
        <time>2015-08-08T11:01:05Z</time>
      </trkpt>
      <trkpt lat="45.36486" lon="0.6021">
        <ele>190.48938682345</ele>
        <time>2015-08-08T11:01:21Z</time>
      </trkpt>
      <trkpt lat="45.36484" lon="0.60198">
        <ele>190.48938682345</ele>
        <time>2015-08-08T11:01:26Z</time>
      </trkpt>
      <trkpt lat="45.36479" lon="0.60168">
        <ele>190.05720337517</ele>
        <time>2015-08-08T11:01:34Z</time>
      </trkpt>
      <trkpt lat="45.36477" lon="0.60154">
        <ele>190.12374977404</ele>
        <time>2015-08-08T11:01:39Z</time>
      </trkpt>
      <trkpt lat="45.36477" lon="0.60142">
        <ele>190.12374977404</ele>
        <time>2015-08-08T11:01:44Z</time>
      </trkpt>
      <trkpt lat="45.36478" lon="0.60136">
        <ele>190.61136958785</ele>
        <time>2015-08-08T11:01:49Z</time>
      </trkpt>
      <trkpt lat="45.36483" lon="0.6013">
        <ele>190.61136958785</ele>
        <time>2015-08-08T11:01:54Z</time>
      </trkpt>
      <trkpt lat="45.36486" lon="0.60123">
        <ele>190.74066700346</ele>
        <time>2015-08-08T11:01:59Z</time>
      </trkpt>
      <trkpt lat="45.3649" lon="0.6012">
        <ele>190.74066700346</ele>
        <time>2015-08-08T11:02:04Z</time>
      </trkpt>
      <trkpt lat="45.36495" lon="0.60111">
        <ele>190.82799070749</ele>
        <time>2015-08-08T11:02:09Z</time>
      </trkpt>
      <trkpt lat="45.36502" lon="0.60101">
        <ele>190.99352383886</ele>
        <time>2015-08-08T11:02:14Z</time>
      </trkpt>
      <trkpt lat="45.36506" lon="0.60095">
        <ele>190.99352383886</ele>
        <time>2015-08-08T11:02:19Z</time>
      </trkpt>
      <trkpt lat="45.36511" lon="0.60089">
        <ele>191.78062888624</ele>
        <time>2015-08-08T11:02:24Z</time>
      </trkpt>
      <trkpt lat="45.36515" lon="0.60086">
        <ele>191.78062888624</ele>
        <time>2015-08-08T11:02:29Z</time>
      </trkpt>
      <trkpt lat="45.36519" lon="0.60079">
        <ele>192.59566388371</ele>
        <time>2015-08-08T11:02:34Z</time>
      </trkpt>
      <trkpt lat="45.36524" lon="0.60071">
        <ele>192.59566388371</ele>
        <time>2015-08-08T11:02:39Z</time>
      </trkpt>
      <trkpt lat="45.36529" lon="0.60067">
        <ele>192.84518863313</ele>
        <time>2015-08-08T11:02:44Z</time>
      </trkpt>
      <trkpt lat="45.36535" lon="0.60058">
        <ele>192.84518863313</ele>
        <time>2015-08-08T11:02:49Z</time>
      </trkpt>
      <trkpt lat="45.36544" lon="0.60052">
        <ele>192.91757646694</ele>
        <time>2015-08-08T11:02:54Z</time>
      </trkpt>
      <trkpt lat="45.36551" lon="0.60044">
        <ele>192.91757646694</ele>
        <time>2015-08-08T11:02:59Z</time>
      </trkpt>
      <trkpt lat="45.36556" lon="0.60037">
        <ele>192.92809482691</ele>
        <time>2015-08-08T11:03:04Z</time>
      </trkpt>
      <trkpt lat="45.3656" lon="0.60034">
        <ele>192.92809482691</ele>
        <time>2015-08-08T11:03:09Z</time>
      </trkpt>
      <trkpt lat="45.36564" lon="0.60031">
        <ele>192.92809482691</ele>
        <time>2015-08-08T11:03:14Z</time>
      </trkpt>
      <trkpt lat="45.3657" lon="0.60022">
        <ele>193.27185941912</ele>
        <time>2015-08-08T11:03:19Z</time>
      </trkpt>
      <trkpt lat="45.36578" lon="0.60014">
        <ele>193.60780438221</ele>
        <time>2015-08-08T11:03:24Z</time>
      </trkpt>
      <trkpt lat="45.36584" lon="0.60009">
        <ele>193.60780438221</ele>
        <time>2015-08-08T11:03:29Z</time>
      </trkpt>
      <trkpt lat="45.36589" lon="0.60001">
        <ele>193.8648555332</ele>
        <time>2015-08-08T11:03:34Z</time>
      </trkpt>
      <trkpt lat="45.36597" lon="0.59994">
        <ele>194.19347793448</ele>
        <time>2015-08-08T11:03:39Z</time>
      </trkpt>
      <trkpt lat="45.36603" lon="0.59986">
        <ele>194.19347793448</ele>
        <time>2015-08-08T11:03:44Z</time>
      </trkpt>
      <trkpt lat="45.36608" lon="0.5998">
        <ele>195.00662909648</ele>
        <time>2015-08-08T11:03:49Z</time>
      </trkpt>
      <trkpt lat="45.36616" lon="0.59974">
        <ele>195.00662909648</ele>
        <time>2015-08-08T11:03:54Z</time>
      </trkpt>
      <trkpt lat="45.36621" lon="0.59971">
        <ele>195.33086636144</ele>
        <time>2015-08-08T11:03:59Z</time>
      </trkpt>
      <trkpt lat="45.36627" lon="0.59962">
        <ele>195.33086636144</ele>
        <time>2015-08-08T11:04:04Z</time>
      </trkpt>
      <trkpt lat="45.36633" lon="0.59954">
        <ele>195.34640480001</ele>
        <time>2015-08-08T11:04:09Z</time>
      </trkpt>
      <trkpt lat="45.3664" lon="0.5995">
        <ele>195.34640480001</ele>
        <time>2015-08-08T11:04:14Z</time>
      </trkpt>
      <trkpt lat="45.36645" lon="0.59944">
        <ele>195.99923603095</ele>
        <time>2015-08-08T11:04:19Z</time>
      </trkpt>
      <trkpt lat="45.36651" lon="0.59936">
        <ele>195.99923603095</ele>
        <time>2015-08-08T11:04:24Z</time>
      </trkpt>
      <trkpt lat="45.36655" lon="0.59932">
        <ele>196.18970138985</ele>
        <time>2015-08-08T11:04:29Z</time>
      </trkpt>
      <trkpt lat="45.36661" lon="0.5993">
        <ele>196.18970138985</ele>
        <time>2015-08-08T11:04:34Z</time>
      </trkpt>
      <trkpt lat="45.36671" lon="0.59924">
        <ele>196.55745376801</ele>
        <time>2015-08-08T11:04:39Z</time>
      </trkpt>
      <trkpt lat="45.36677" lon="0.59922">
        <ele>196.55745376801</ele>
        <time>2015-08-08T11:04:44Z</time>
      </trkpt>
      <trkpt lat="45.36685" lon="0.59916">
        <ele>196.58496273215</ele>
        <time>2015-08-08T11:04:49Z</time>
      </trkpt>
      <trkpt lat="45.36691" lon="0.59912">
        <ele>196.58496273215</ele>
        <time>2015-08-08T11:04:56Z</time>
      </trkpt>
      <trkpt lat="45.36707" lon="0.5991">
        <ele>196.87446504855</ele>
        <time>2015-08-08T11:05:05Z</time>
      </trkpt>
      <trkpt lat="45.36716" lon="0.59909">
        <ele>196.87446504855</ele>
        <time>2015-08-08T11:05:11Z</time>
      </trkpt>
      <trkpt lat="45.36738" lon="0.59903">
        <ele>197.19057490111</ele>
        <time>2015-08-08T11:05:20Z</time>
      </trkpt>
      <trkpt lat="45.36749" lon="0.59896">
        <ele>196.98363265219</ele>
        <time>2015-08-08T11:05:26Z</time>
      </trkpt>
      <trkpt lat="45.36757" lon="0.59887">
        <ele>196.45193385187</ele>
        <time>2015-08-08T11:05:35Z</time>
      </trkpt>
      <trkpt lat="45.36764" lon="0.59884">
        <ele>196.45193385187</ele>
        <time>2015-08-08T11:05:39Z</time>
      </trkpt>
      <trkpt lat="45.3678" lon="0.59861">
        <ele>194.54072472851</ele>
        <time>2015-08-08T11:05:51Z</time>
      </trkpt>
      <trkpt lat="45.36787" lon="0.59851">
        <ele>192.71203793235</ele>
        <time>2015-08-08T11:05:55Z</time>
      </trkpt>
      <trkpt lat="45.36802" lon="0.59828">
        <ele>190.70617571755</ele>
        <time>2015-08-08T11:06:05Z</time>
      </trkpt>
      <trkpt lat="45.3681" lon="0.5982">
        <ele>188.58558179667</ele>
        <time>2015-08-08T11:06:11Z</time>
      </trkpt>
      <trkpt lat="45.36834" lon="0.59801">
        <ele>186.95597811575</ele>
        <time>2015-08-08T11:06:25Z</time>
      </trkpt>
      <trkpt lat="45.36862" lon="0.59779">
        <ele>186.55005849787</ele>
        <time>2015-08-08T11:06:40Z</time>
      </trkpt>
      <trkpt lat="45.36868" lon="0.59767">
        <ele>186.44353306902</ele>
        <time>2015-08-08T11:06:46Z</time>
      </trkpt>
      <trkpt lat="45.36873" lon="0.59744">
        <ele>186.16817493912</ele>
        <time>2015-08-08T11:06:54Z</time>
      </trkpt>
      <trkpt lat="45.36878" lon="0.59735">
        <ele>186.16817493912</ele>
        <time>2015-08-08T11:06:59Z</time>
      </trkpt>
      <trkpt lat="45.36881" lon="0.59725">
        <ele>185.8958008697</ele>
        <time>2015-08-08T11:07:04Z</time>
      </trkpt>
      <trkpt lat="45.36883" lon="0.59718">
        <ele>185.8958008697</ele>
        <time>2015-08-08T11:07:09Z</time>
      </trkpt>
      <trkpt lat="45.36884" lon="0.5971">
        <ele>185.12259743631</ele>
        <time>2015-08-08T11:07:14Z</time>
      </trkpt>
      <trkpt lat="45.36885" lon="0.59701">
        <ele>185.12259743631</ele>
        <time>2015-08-08T11:07:19Z</time>
      </trkpt>
      <trkpt lat="45.36886" lon="0.59693">
        <ele>184.44950299175</ele>
        <time>2015-08-08T11:07:24Z</time>
      </trkpt>
      <trkpt lat="45.36887" lon="0.59688">
        <ele>184.44950299175</ele>
        <time>2015-08-08T11:07:29Z</time>
      </trkpt>
      <trkpt lat="45.36891" lon="0.59679">
        <ele>183.62592413181</ele>
        <time>2015-08-08T11:07:34Z</time>
      </trkpt>
      <trkpt lat="45.36895" lon="0.59671">
        <ele>183.62592413181</ele>
        <time>2015-08-08T11:07:39Z</time>
      </trkpt>
      <trkpt lat="45.36899" lon="0.59662">
        <ele>182.89558222781</ele>
        <time>2015-08-08T11:07:44Z</time>
      </trkpt>
      <trkpt lat="45.36902" lon="0.59654">
        <ele>182.89558222781</ele>
        <time>2015-08-08T11:07:49Z</time>
      </trkpt>
      <trkpt lat="45.36905" lon="0.59641">
        <ele>182.3254294272</ele>
        <time>2015-08-08T11:07:54Z</time>
      </trkpt>
      <trkpt lat="45.36909" lon="0.5963">
        <ele>182.3254294272</ele>
        <time>2015-08-08T11:07:59Z</time>
      </trkpt>
      <trkpt lat="45.36912" lon="0.5962">
        <ele>181.60228051712</ele>
        <time>2015-08-08T11:08:04Z</time>
      </trkpt>
      <trkpt lat="45.36914" lon="0.59609">
        <ele>181.60228051712</ele>
        <time>2015-08-08T11:08:09Z</time>
      </trkpt>
      <trkpt lat="45.36915" lon="0.59599">
        <ele>181.20009628079</ele>
        <time>2015-08-08T11:08:14Z</time>
      </trkpt>
      <trkpt lat="45.36917" lon="0.59588">
        <ele>181.20009628079</ele>
        <time>2015-08-08T11:08:19Z</time>
      </trkpt>
      <trkpt lat="45.36917" lon="0.59577">
        <ele>181.35528932155</ele>
        <time>2015-08-08T11:08:24Z</time>
      </trkpt>
      <trkpt lat="45.36915" lon="0.59567">
        <ele>181.35528932155</ele>
        <time>2015-08-08T11:08:29Z</time>
      </trkpt>
      <trkpt lat="45.36912" lon="0.59559">
        <ele>181.96822766969</ele>
        <time>2015-08-08T11:08:34Z</time>
      </trkpt>
      <trkpt lat="45.36907" lon="0.59554">
        <ele>181.96822766969</ele>
        <time>2015-08-08T11:08:39Z</time>
      </trkpt>
      <trkpt lat="45.36904" lon="0.59543">
        <ele>182.9020192648</ele>
        <time>2015-08-08T11:08:44Z</time>
      </trkpt>
      <trkpt lat="45.369" lon="0.59536">
        <ele>182.9020192648</ele>
        <time>2015-08-08T11:08:49Z</time>
      </trkpt>
      <trkpt lat="45.36898" lon="0.59529">
        <ele>184.30268907825</ele>
        <time>2015-08-08T11:08:54Z</time>
      </trkpt>
      <trkpt lat="45.36897" lon="0.59519">
        <ele>184.30268907825</ele>
        <time>2015-08-08T11:08:59Z</time>
      </trkpt>
      <trkpt lat="45.36898" lon="0.5951">
        <ele>184.87748701584</ele>
        <time>2015-08-08T11:09:04Z</time>
      </trkpt>
      <trkpt lat="45.36897" lon="0.59502">
        <ele>184.87748701584</ele>
        <time>2015-08-08T11:09:09Z</time>
      </trkpt>
      <trkpt lat="45.36898" lon="0.59487">
        <ele>185.56376456573</ele>
        <time>2015-08-08T11:09:19Z</time>
      </trkpt>
      <trkpt lat="45.369" lon="0.59477">
        <ele>185.56376456573</ele>
        <time>2015-08-08T11:09:24Z</time>
      </trkpt>
      <trkpt lat="45.36902" lon="0.5947">
        <ele>186.40825630388</ele>
        <time>2015-08-08T11:09:29Z</time>
      </trkpt>
      <trkpt lat="45.36903" lon="0.59463">
        <ele>186.40825630388</ele>
        <time>2015-08-08T11:09:34Z</time>
      </trkpt>
      <trkpt lat="45.36903" lon="0.59453">
        <ele>187.74204029585</ele>
        <time>2015-08-08T11:09:39Z</time>
      </trkpt>
      <trkpt lat="45.36906" lon="0.59445">
        <ele>187.74204029585</ele>
        <time>2015-08-08T11:09:44Z</time>
      </trkpt>
      <trkpt lat="45.36909" lon="0.59438">
        <ele>188.09794079158</ele>
        <time>2015-08-08T11:09:49Z</time>
      </trkpt>
      <trkpt lat="45.36908" lon="0.59428">
        <ele>188.09794079158</ele>
        <time>2015-08-08T11:09:54Z</time>
      </trkpt>
      <trkpt lat="45.36907" lon="0.5942">
        <ele>188.52597502709</ele>
        <time>2015-08-08T11:09:59Z</time>
      </trkpt>
      <trkpt lat="45.36906" lon="0.59411">
        <ele>188.52597502709</ele>
        <time>2015-08-08T11:10:04Z</time>
      </trkpt>
      <trkpt lat="45.36905" lon="0.59404">
        <ele>188.3992117345</ele>
        <time>2015-08-08T11:10:09Z</time>
      </trkpt>
      <trkpt lat="45.36906" lon="0.59396">
        <ele>188.3992117345</ele>
        <time>2015-08-08T11:10:14Z</time>
      </trkpt>
      <trkpt lat="45.36908" lon="0.59388">
        <ele>188.04625508073</ele>
        <time>2015-08-08T11:10:19Z</time>
      </trkpt>
      <trkpt lat="45.36908" lon="0.59381">
        <ele>188.04625508073</ele>
        <time>2015-08-08T11:10:24Z</time>
      </trkpt>
      <trkpt lat="45.36907" lon="0.59381">
        <ele>188.04625508073</ele>
        <time>2015-08-08T11:10:29Z</time>
      </trkpt>
      <trkpt lat="45.36907" lon="0.59371">
        <ele>187.77222986269</ele>
        <time>2015-08-08T11:10:34Z</time>
      </trkpt>
      <trkpt lat="45.36908" lon="0.59365">
        <ele>187.77222986269</ele>
        <time>2015-08-08T11:10:39Z</time>
      </trkpt>
      <trkpt lat="45.36909" lon="0.59357">
        <ele>187.25438196933</ele>
        <time>2015-08-08T11:10:44Z</time>
      </trkpt>
      <trkpt lat="45.36914" lon="0.5935">
        <ele>187.25438196933</ele>
        <time>2015-08-08T11:10:49Z</time>
      </trkpt>
      <trkpt lat="45.36918" lon="0.59338">
        <ele>186.71317169125</ele>
        <time>2015-08-08T11:10:54Z</time>
      </trkpt>
      <trkpt lat="45.36921" lon="0.59328">
        <ele>186.71317169125</ele>
        <time>2015-08-08T11:10:59Z</time>
      </trkpt>
      <trkpt lat="45.36921" lon="0.59314">
        <ele>187.0590937572</ele>
        <time>2015-08-08T11:11:04Z</time>
      </trkpt>
      <trkpt lat="45.36921" lon="0.59307">
        <ele>187.0590937572</ele>
        <time>2015-08-08T11:11:09Z</time>
      </trkpt>
      <trkpt lat="45.36923" lon="0.59297">
        <ele>187.72099903591</ele>
        <time>2015-08-08T11:11:14Z</time>
      </trkpt>
      <trkpt lat="45.36929" lon="0.59284">
        <ele>188.68762905271</ele>
        <time>2015-08-08T11:11:19Z</time>
      </trkpt>
      <trkpt lat="45.36931" lon="0.59274">
        <ele>188.68762905271</ele>
        <time>2015-08-08T11:11:24Z</time>
      </trkpt>
      <trkpt lat="45.36933" lon="0.59264">
        <ele>189.24157724219</ele>
        <time>2015-08-08T11:11:29Z</time>
      </trkpt>
      <trkpt lat="45.36933" lon="0.59254">
        <ele>189.24157724219</ele>
        <time>2015-08-08T11:11:34Z</time>
      </trkpt>
      <trkpt lat="45.36937" lon="0.59247">
        <ele>189.22371287921</ele>
        <time>2015-08-08T11:11:39Z</time>
      </trkpt>
      <trkpt lat="45.3694" lon="0.59238">
        <ele>189.22371287921</ele>
        <time>2015-08-08T11:11:44Z</time>
      </trkpt>
      <trkpt lat="45.36946" lon="0.5923">
        <ele>189.3240761327</ele>
        <time>2015-08-08T11:11:49Z</time>
      </trkpt>
      <trkpt lat="45.36952" lon="0.59225">
        <ele>189.3240761327</ele>
        <time>2015-08-08T11:11:54Z</time>
      </trkpt>
      <trkpt lat="45.36953" lon="0.59217">
        <ele>189.4179305252</ele>
        <time>2015-08-08T11:11:59Z</time>
      </trkpt>
      <trkpt lat="45.36959" lon="0.59217">
        <ele>189.4179305252</ele>
        <time>2015-08-08T11:12:04Z</time>
      </trkpt>
      <trkpt lat="45.36964" lon="0.59217">
        <ele>189.62033317113</ele>
        <time>2015-08-08T11:12:09Z</time>
      </trkpt>
      <trkpt lat="45.36971" lon="0.59219">
        <ele>189.62033317113</ele>
        <time>2015-08-08T11:12:14Z</time>
      </trkpt>
      <trkpt lat="45.36977" lon="0.5922">
        <ele>190.16731941507</ele>
        <time>2015-08-08T11:12:19Z</time>
      </trkpt>
      <trkpt lat="45.36983" lon="0.59223">
        <ele>190.16731941507</ele>
        <time>2015-08-08T11:12:24Z</time>
      </trkpt>
      <trkpt lat="45.36987" lon="0.59225">
        <ele>190.52727627628</ele>
        <time>2015-08-08T11:12:29Z</time>
      </trkpt>
      <trkpt lat="45.36993" lon="0.59229">
        <ele>190.52727627628</ele>
        <time>2015-08-08T11:12:34Z</time>
      </trkpt>
      <trkpt lat="45.36998" lon="0.59234">
        <ele>190.84229309888</ele>
        <time>2015-08-08T11:12:39Z</time>
      </trkpt>
      <trkpt lat="45.37003" lon="0.59238">
        <ele>190.84229309888</ele>
        <time>2015-08-08T11:12:44Z</time>
      </trkpt>
      <trkpt lat="45.37009" lon="0.59241">
        <ele>191.3018300763</ele>
        <time>2015-08-08T11:12:49Z</time>
      </trkpt>
      <trkpt lat="45.37015" lon="0.59243">
        <ele>191.3018300763</ele>
        <time>2015-08-08T11:12:54Z</time>
      </trkpt>
      <trkpt lat="45.37021" lon="0.59246">
        <ele>191.90813084508</ele>
        <time>2015-08-08T11:12:59Z</time>
      </trkpt>
      <trkpt lat="45.37028" lon="0.59247">
        <ele>191.90813084508</ele>
        <time>2015-08-08T11:13:04Z</time>
      </trkpt>
      <trkpt lat="45.37034" lon="0.59249">
        <ele>192.70613777233</ele>
        <time>2015-08-08T11:13:09Z</time>
      </trkpt>
      <trkpt lat="45.37039" lon="0.59252">
        <ele>192.70613777233</ele>
        <time>2015-08-08T11:13:14Z</time>
      </trkpt>
      <trkpt lat="45.37045" lon="0.59247">
        <ele>193.46318713724</ele>
        <time>2015-08-08T11:13:19Z</time>
      </trkpt>
      <trkpt lat="45.37046" lon="0.59244">
        <ele>193.46318713724</ele>
        <time>2015-08-08T11:13:24Z</time>
      </trkpt>
      <trkpt lat="45.3705" lon="0.5924">
        <ele>193.46318713724</ele>
        <time>2015-08-08T11:13:29Z</time>
      </trkpt>
      <trkpt lat="45.37052" lon="0.59242">
        <ele>194.74206997992</ele>
        <time>2015-08-08T11:13:34Z</time>
      </trkpt>
      <trkpt lat="45.37052" lon="0.59243">
        <ele>194.74206997992</ele>
        <time>2015-08-08T11:13:39Z</time>
      </trkpt>
      <trkpt lat="45.37052" lon="0.59243">
        <ele>194.74206997992</ele>
        <time>2015-08-08T11:13:44Z</time>
      </trkpt>
      <trkpt lat="45.37053" lon="0.59243">
        <ele>194.74206997992</ele>
        <time>2015-08-08T11:13:49Z</time>
      </trkpt>
      <trkpt lat="45.37054" lon="0.59241">
        <ele>194.74206997992</ele>
        <time>2015-08-08T11:13:54Z</time>
      </trkpt>
      <trkpt lat="45.37055" lon="0.59238">
        <ele>194.74206997992</ele>
        <time>2015-08-08T11:13:59Z</time>
      </trkpt>
      <trkpt lat="45.37055" lon="0.59238">
        <ele>194.74206997992</ele>
        <time>2015-08-08T11:14:04Z</time>
      </trkpt>
      <trkpt lat="45.37055" lon="0.59237">
        <ele>194.74206997992</ele>
        <time>2015-08-08T11:14:09Z</time>
      </trkpt>
      <trkpt lat="45.37055" lon="0.59237">
        <ele>194.74206997992</ele>
        <time>2015-08-08T11:14:14Z</time>
      </trkpt>
      <trkpt lat="45.37052" lon="0.59233">
        <ele>196.83224753203</ele>
        <time>2015-08-08T11:14:19Z</time>
      </trkpt>
      <trkpt lat="45.37047" lon="0.59226">
        <ele>196.83224753203</ele>
        <time>2015-08-08T11:14:24Z</time>
      </trkpt>
      <trkpt lat="45.37042" lon="0.59222">
        <ele>199.13503682372</ele>
        <time>2015-08-08T11:14:29Z</time>
      </trkpt>
      <trkpt lat="45.37035" lon="0.5922">
        <ele>199.13503682372</ele>
        <time>2015-08-08T11:14:34Z</time>
      </trkpt>
      <trkpt lat="45.37027" lon="0.59221">
        <ele>200.67728625863</ele>
        <time>2015-08-08T11:14:39Z</time>
      </trkpt>
      <trkpt lat="45.37022" lon="0.5922">
        <ele>200.67728625863</ele>
        <time>2015-08-08T11:14:44Z</time>
      </trkpt>
      <trkpt lat="45.37014" lon="0.59217">
        <ele>201.95742385101</ele>
        <time>2015-08-08T11:14:50Z</time>
      </trkpt>
      <trkpt lat="45.37004" lon="0.59215">
        <ele>202.55900797604</ele>
        <time>2015-08-08T11:14:59Z</time>
      </trkpt>
      <trkpt lat="45.37001" lon="0.59212">
        <ele>202.55900797604</ele>
        <time>2015-08-08T11:15:04Z</time>
      </trkpt>
      <trkpt lat="45.36988" lon="0.59208">
        <ele>202.94843835942</ele>
        <time>2015-08-08T11:15:15Z</time>
      </trkpt>
      <trkpt lat="45.3697" lon="0.59198">
        <ele>202.72269219229</ele>
        <time>2015-08-08T11:15:29Z</time>
      </trkpt>
      <trkpt lat="45.36962" lon="0.59198">
        <ele>202.72269219229</ele>
        <time>2015-08-08T11:15:35Z</time>
      </trkpt>
      <trkpt lat="45.36961" lon="0.59185">
        <ele>201.53898239157</ele>
        <time>2015-08-08T11:15:45Z</time>
      </trkpt>
      <trkpt lat="45.36967" lon="0.59179">
        <ele>201.53898239157</ele>
        <time>2015-08-08T11:15:50Z</time>
      </trkpt>
      <trkpt lat="45.36972" lon="0.59168">
        <ele>200.03359499956</ele>
        <time>2015-08-08T11:16:00Z</time>
      </trkpt>
      <trkpt lat="45.36975" lon="0.59164">
        <ele>200.03359499956</ele>
        <time>2015-08-08T11:16:05Z</time>
      </trkpt>
      <trkpt lat="45.3698" lon="0.59158">
        <ele>199.11407985157</ele>
        <time>2015-08-08T11:16:09Z</time>
      </trkpt>
      <trkpt lat="45.36987" lon="0.5915">
        <ele>199.11407985157</ele>
        <time>2015-08-08T11:16:15Z</time>
      </trkpt>
      <trkpt lat="45.36991" lon="0.59148">
        <ele>197.8183280586</ele>
        <time>2015-08-08T11:16:20Z</time>
      </trkpt>
      <trkpt lat="45.37002" lon="0.59135">
        <ele>197.30236880813</ele>
        <time>2015-08-08T11:16:36Z</time>
      </trkpt>
      <trkpt lat="45.37004" lon="0.59133">
        <ele>197.30236880813</ele>
        <time>2015-08-08T11:16:39Z</time>
      </trkpt>
      <trkpt lat="45.3701" lon="0.59125">
        <ele>196.9346267508</ele>
        <time>2015-08-08T11:16:44Z</time>
      </trkpt>
      <trkpt lat="45.37016" lon="0.59119">
        <ele>196.9346267508</ele>
        <time>2015-08-08T11:16:49Z</time>
      </trkpt>
      <trkpt lat="45.37023" lon="0.59115">
        <ele>196.60507943488</ele>
        <time>2015-08-08T11:16:54Z</time>
      </trkpt>
      <trkpt lat="45.3703" lon="0.59112">
        <ele>196.60507943488</ele>
        <time>2015-08-08T11:16:59Z</time>
      </trkpt>
      <trkpt lat="45.37036" lon="0.59111">
        <ele>197.01870273372</ele>
        <time>2015-08-08T11:17:04Z</time>
      </trkpt>
      <trkpt lat="45.37039" lon="0.59111">
        <ele>197.01870273372</ele>
        <time>2015-08-08T11:17:09Z</time>
      </trkpt>
      <trkpt lat="45.37045" lon="0.59109">
        <ele>197.01870273372</ele>
        <time>2015-08-08T11:17:14Z</time>
      </trkpt>
      <trkpt lat="45.3705" lon="0.59107">
        <ele>197.41430883556</ele>
        <time>2015-08-08T11:17:19Z</time>
      </trkpt>
      <trkpt lat="45.37057" lon="0.59102">
        <ele>197.41430883556</ele>
        <time>2015-08-08T11:17:24Z</time>
      </trkpt>
      <trkpt lat="45.3706" lon="0.59099">
        <ele>197.70635133162</ele>
        <time>2015-08-08T11:17:29Z</time>
      </trkpt>
      <trkpt lat="45.37068" lon="0.59092">
        <ele>197.70635133162</ele>
        <time>2015-08-08T11:17:34Z</time>
      </trkpt>
      <trkpt lat="45.37074" lon="0.59089">
        <ele>197.67174345236</ele>
        <time>2015-08-08T11:17:39Z</time>
      </trkpt>
      <trkpt lat="45.37079" lon="0.59087">
        <ele>197.67174345236</ele>
        <time>2015-08-08T11:17:44Z</time>
      </trkpt>
      <trkpt lat="45.37081" lon="0.59087">
        <ele>197.67174345236</ele>
        <time>2015-08-08T11:17:49Z</time>
      </trkpt>
      <trkpt lat="45.37088" lon="0.59086">
        <ele>197.19116463317</ele>
        <time>2015-08-08T11:17:54Z</time>
      </trkpt>
      <trkpt lat="45.37093" lon="0.59084">
        <ele>197.19116463317</ele>
        <time>2015-08-08T11:17:59Z</time>
      </trkpt>
      <trkpt lat="45.37098" lon="0.59081">
        <ele>195.92472451847</ele>
        <time>2015-08-08T11:18:04Z</time>
      </trkpt>
      <trkpt lat="45.37101" lon="0.5908">
        <ele>195.92472451847</ele>
        <time>2015-08-08T11:18:09Z</time>
      </trkpt>
      <trkpt lat="45.37102" lon="0.59079">
        <ele>195.92472451847</ele>
        <time>2015-08-08T11:18:14Z</time>
      </trkpt>
      <trkpt lat="45.37111" lon="0.59076">
        <ele>194.59729151864</ele>
        <time>2015-08-08T11:18:19Z</time>
      </trkpt>
      <trkpt lat="45.37118" lon="0.59073">
        <ele>194.59729151864</ele>
        <time>2015-08-08T11:18:24Z</time>
      </trkpt>
      <trkpt lat="45.37124" lon="0.5907">
        <ele>192.81421031516</ele>
        <time>2015-08-08T11:18:29Z</time>
      </trkpt>
      <trkpt lat="45.37131" lon="0.59069">
        <ele>192.81421031516</ele>
        <time>2015-08-08T11:18:34Z</time>
      </trkpt>
      <trkpt lat="45.37138" lon="0.59067">
        <ele>190.55692558928</ele>
        <time>2015-08-08T11:18:39Z</time>
      </trkpt>
      <trkpt lat="45.37144" lon="0.59066">
        <ele>190.55692558928</ele>
        <time>2015-08-08T11:18:45Z</time>
      </trkpt>
      <trkpt lat="45.37156" lon="0.59061">
        <ele>188.64537046583</ele>
        <time>2015-08-08T11:18:56Z</time>
      </trkpt>
      <trkpt lat="45.37165" lon="0.59058">
        <ele>187.08883546198</ele>
        <time>2015-08-08T11:19:00Z</time>
      </trkpt>
      <trkpt lat="45.37177" lon="0.59055">
        <ele>185.66427980563</ele>
        <time>2015-08-08T11:19:11Z</time>
      </trkpt>
      <trkpt lat="45.37181" lon="0.59051">
        <ele>185.66427980563</ele>
        <time>2015-08-08T11:19:15Z</time>
      </trkpt>
      <trkpt lat="45.37195" lon="0.59045">
        <ele>183.61696835943</ele>
        <time>2015-08-08T11:19:24Z</time>
      </trkpt>
      <trkpt lat="45.37204" lon="0.59043">
        <ele>183.61696835943</ele>
        <time>2015-08-08T11:19:29Z</time>
      </trkpt>
      <trkpt lat="45.3721" lon="0.5904">
        <ele>182.00741685371</ele>
        <time>2015-08-08T11:19:34Z</time>
      </trkpt>
      <trkpt lat="45.37214" lon="0.59037">
        <ele>182.00741685371</ele>
        <time>2015-08-08T11:19:39Z</time>
      </trkpt>
      <trkpt lat="45.37221" lon="0.59037">
        <ele>180.79371709592</ele>
        <time>2015-08-08T11:19:44Z</time>
      </trkpt>
      <trkpt lat="45.37228" lon="0.59036">
        <ele>180.79371709592</ele>
        <time>2015-08-08T11:19:49Z</time>
      </trkpt>
      <trkpt lat="45.37236" lon="0.59037">
        <ele>179.51789899201</ele>
        <time>2015-08-08T11:19:54Z</time>
      </trkpt>
      <trkpt lat="45.37242" lon="0.59037">
        <ele>179.51789899201</ele>
        <time>2015-08-08T11:19:59Z</time>
      </trkpt>
      <trkpt lat="45.3725" lon="0.59037">
        <ele>178.21685269602</ele>
        <time>2015-08-08T11:20:04Z</time>
      </trkpt>
      <trkpt lat="45.37257" lon="0.59035">
        <ele>178.21685269602</ele>
        <time>2015-08-08T11:20:09Z</time>
      </trkpt>
      <trkpt lat="45.37265" lon="0.59035">
        <ele>176.75178108557</ele>
        <time>2015-08-08T11:20:14Z</time>
      </trkpt>
      <trkpt lat="45.37272" lon="0.59033">
        <ele>176.75178108557</ele>
        <time>2015-08-08T11:20:19Z</time>
      </trkpt>
      <trkpt lat="45.37279" lon="0.59032">
        <ele>175.23941525196</ele>
        <time>2015-08-08T11:20:24Z</time>
      </trkpt>
      <trkpt lat="45.37288" lon="0.5903">
        <ele>173.87439189355</ele>
        <time>2015-08-08T11:20:29Z</time>
      </trkpt>
      <trkpt lat="45.37296" lon="0.59028">
        <ele>173.87439189355</ele>
        <time>2015-08-08T11:20:34Z</time>
      </trkpt>
      <trkpt lat="45.37303" lon="0.59028">
        <ele>172.73563861715</ele>
        <time>2015-08-08T11:20:39Z</time>
      </trkpt>
      <trkpt lat="45.3731" lon="0.59027">
        <ele>172.73563861715</ele>
        <time>2015-08-08T11:20:44Z</time>
      </trkpt>
      <trkpt lat="45.37315" lon="0.59026">
        <ele>171.765829986</ele>
        <time>2015-08-08T11:20:49Z</time>
      </trkpt>
      <trkpt lat="45.3732" lon="0.59025">
        <ele>171.765829986</ele>
        <time>2015-08-08T11:20:54Z</time>
      </trkpt>
      <trkpt lat="45.37326" lon="0.59023">
        <ele>170.94008101412</ele>
        <time>2015-08-08T11:20:59Z</time>
      </trkpt>
      <trkpt lat="45.37333" lon="0.59023">
        <ele>170.94008101412</ele>
        <time>2015-08-08T11:21:04Z</time>
      </trkpt>
      <trkpt lat="45.37339" lon="0.59022">
        <ele>170.27804809947</ele>
        <time>2015-08-08T11:21:09Z</time>
      </trkpt>
      <trkpt lat="45.37341" lon="0.59016">
        <ele>170.27804809947</ele>
        <time>2015-08-08T11:21:14Z</time>
      </trkpt>
      <trkpt lat="45.3734" lon="0.59009">
        <ele>169.48032808631</ele>
        <time>2015-08-08T11:21:19Z</time>
      </trkpt>
      <trkpt lat="45.37338" lon="0.59">
        <ele>169.48032808631</ele>
        <time>2015-08-08T11:21:24Z</time>
      </trkpt>
      <trkpt lat="45.37337" lon="0.58992">
        <ele>168.88946384983</ele>
        <time>2015-08-08T11:21:29Z</time>
      </trkpt>
      <trkpt lat="45.37335" lon="0.58985">
        <ele>168.88946384983</ele>
        <time>2015-08-08T11:21:34Z</time>
      </trkpt>
      <trkpt lat="45.37334" lon="0.58974">
        <ele>168.57716547993</ele>
        <time>2015-08-08T11:21:39Z</time>
      </trkpt>
      <trkpt lat="45.3734" lon="0.58972">
        <ele>168.57716547993</ele>
        <time>2015-08-08T11:21:44Z</time>
      </trkpt>
      <trkpt lat="45.37348" lon="0.58971">
        <ele>168.26313319621</ele>
        <time>2015-08-08T11:21:49Z</time>
      </trkpt>
      <trkpt lat="45.37354" lon="0.58969">
        <ele>168.26313319621</ele>
        <time>2015-08-08T11:21:54Z</time>
      </trkpt>
      <trkpt lat="45.3736" lon="0.58966">
        <ele>167.788453702</ele>
        <time>2015-08-08T11:21:59Z</time>
      </trkpt>
      <trkpt lat="45.37366" lon="0.58964">
        <ele>167.788453702</ele>
        <time>2015-08-08T11:22:04Z</time>
      </trkpt>
      <trkpt lat="45.37373" lon="0.58964">
        <ele>167.48182565271</ele>
        <time>2015-08-08T11:22:09Z</time>
      </trkpt>
      <trkpt lat="45.3738" lon="0.58963">
        <ele>167.48182565271</ele>
        <time>2015-08-08T11:22:14Z</time>
      </trkpt>
      <trkpt lat="45.37387" lon="0.58965">
        <ele>167.63284824667</ele>
        <time>2015-08-08T11:22:19Z</time>
      </trkpt>
      <trkpt lat="45.37392" lon="0.58967">
        <ele>167.63284824667</ele>
        <time>2015-08-08T11:22:24Z</time>
      </trkpt>
      <trkpt lat="45.37402" lon="0.58947">
        <ele>166.83680953226</ele>
        <time>2015-08-08T11:22:35Z</time>
      </trkpt>
      <trkpt lat="45.37407" lon="0.58938">
        <ele>166.83680953226</ele>
        <time>2015-08-08T11:22:40Z</time>
      </trkpt>
      <trkpt lat="45.37418" lon="0.58913">
        <ele>165.63940826987</ele>
        <time>2015-08-08T11:22:55Z</time>
      </trkpt>
      <trkpt lat="45.3742" lon="0.58904">
        <ele>165.63940826987</ele>
        <time>2015-08-08T11:23:00Z</time>
      </trkpt>
      <trkpt lat="45.37421" lon="0.5889">
        <ele>163.78353786755</ele>
        <time>2015-08-08T11:23:10Z</time>
      </trkpt>
      <trkpt lat="45.37422" lon="0.58882">
        <ele>163.78353786755</ele>
        <time>2015-08-08T11:23:15Z</time>
      </trkpt>
      <trkpt lat="45.37421" lon="0.58862">
        <ele>162.28653809479</ele>
        <time>2015-08-08T11:23:26Z</time>
      </trkpt>
      <trkpt lat="45.37419" lon="0.58853">
        <ele>162.28653809479</ele>
        <time>2015-08-08T11:23:30Z</time>
      </trkpt>
      <trkpt lat="45.37415" lon="0.5884">
        <ele>159.06361409827</ele>
        <time>2015-08-08T11:23:39Z</time>
      </trkpt>
      <trkpt lat="45.37415" lon="0.5883">
        <ele>159.06361409827</ele>
        <time>2015-08-08T11:23:46Z</time>
      </trkpt>
      <trkpt lat="45.37414" lon="0.58809">
        <ele>156.62651747662</ele>
        <time>2015-08-08T11:23:56Z</time>
      </trkpt>
      <trkpt lat="45.37413" lon="0.58803">
        <ele>156.62651747662</ele>
        <time>2015-08-08T11:24:00Z</time>
      </trkpt>
      <trkpt lat="45.37411" lon="0.58774">
        <ele>155.32588678707</ele>
        <time>2015-08-08T11:24:10Z</time>
      </trkpt>
      <trkpt lat="45.37411" lon="0.5876">
        <ele>154.93571427544</ele>
        <time>2015-08-08T11:24:14Z</time>
      </trkpt>
      <trkpt lat="45.37413" lon="0.58748">
        <ele>155.258373858</ele>
        <time>2015-08-08T11:24:19Z</time>
      </trkpt>
      <trkpt lat="45.37413" lon="0.58737">
        <ele>155.258373858</ele>
        <time>2015-08-08T11:24:24Z</time>
      </trkpt>
      <trkpt lat="45.37414" lon="0.58727">
        <ele>156.15192053449</ele>
        <time>2015-08-08T11:24:29Z</time>
      </trkpt>
      <trkpt lat="45.37414" lon="0.58721">
        <ele>156.15192053449</ele>
        <time>2015-08-08T11:24:34Z</time>
      </trkpt>
      <trkpt lat="45.37414" lon="0.58711">
        <ele>156.84908836047</ele>
        <time>2015-08-08T11:24:39Z</time>
      </trkpt>
      <trkpt lat="45.37413" lon="0.58701">
        <ele>156.84908836047</ele>
        <time>2015-08-08T11:24:45Z</time>
      </trkpt>
      <trkpt lat="45.37411" lon="0.58686">
        <ele>157.64826138136</ele>
        <time>2015-08-08T11:24:55Z</time>
      </trkpt>
      <trkpt lat="45.3741" lon="0.58683">
        <ele>157.64826138136</ele>
        <time>2015-08-08T11:25:00Z</time>
      </trkpt>
      <trkpt lat="45.37407" lon="0.58668">
        <ele>157.38447917883</ele>
        <time>2015-08-08T11:25:10Z</time>
      </trkpt>
      <trkpt lat="45.37408" lon="0.58656">
        <ele>157.38447917883</ele>
        <time>2015-08-08T11:25:15Z</time>
      </trkpt>
      <trkpt lat="45.37407" lon="0.58641">
        <ele>156.04774638743</ele>
        <time>2015-08-08T11:25:26Z</time>
      </trkpt>
      <trkpt lat="45.37408" lon="0.58635">
        <ele>156.04774638743</ele>
        <time>2015-08-08T11:25:30Z</time>
      </trkpt>
      <trkpt lat="45.37405" lon="0.58611">
        <ele>154.74145736348</ele>
        <time>2015-08-08T11:25:40Z</time>
      </trkpt>
      <trkpt lat="45.37405" lon="0.58606">
        <ele>154.74145736348</ele>
        <time>2015-08-08T11:25:45Z</time>
      </trkpt>
      <trkpt lat="45.37406" lon="0.58587">
        <ele>153.45025726396</ele>
        <time>2015-08-08T11:25:55Z</time>
      </trkpt>
      <trkpt lat="45.37406" lon="0.58576">
        <ele>153.45025726396</ele>
        <time>2015-08-08T11:26:00Z</time>
      </trkpt>
      <trkpt lat="45.37406" lon="0.58558">
        <ele>151.87164349926</ele>
        <time>2015-08-08T11:26:10Z</time>
      </trkpt>
      <trkpt lat="45.37407" lon="0.58547">
        <ele>151.87164349926</ele>
        <time>2015-08-08T11:26:15Z</time>
      </trkpt>
      <trkpt lat="45.3741" lon="0.58521">
        <ele>149.52436952474</ele>
        <time>2015-08-08T11:26:31Z</time>
      </trkpt>
      <trkpt lat="45.37409" lon="0.58512">
        <ele>149.52436952474</ele>
        <time>2015-08-08T11:26:35Z</time>
      </trkpt>
      <trkpt lat="45.3741" lon="0.58494">
        <ele>148.29927746121</ele>
        <time>2015-08-08T11:26:46Z</time>
      </trkpt>
      <trkpt lat="45.3741" lon="0.58494">
        <ele>148.29927746121</ele>
        <time>2015-08-08T11:26:49Z</time>
      </trkpt>
      <trkpt lat="45.37417" lon="0.58488">
        <ele>148.29927746121</ele>
        <time>2015-08-08T11:26:54Z</time>
      </trkpt>
      <trkpt lat="45.37424" lon="0.58484">
        <ele>147.76905857566</ele>
        <time>2015-08-08T11:26:59Z</time>
      </trkpt>
      <trkpt lat="45.37431" lon="0.58478">
        <ele>147.76905857566</ele>
        <time>2015-08-08T11:27:04Z</time>
      </trkpt>
      <trkpt lat="45.37438" lon="0.58474">
        <ele>147.49258596441</ele>
        <time>2015-08-08T11:27:09Z</time>
      </trkpt>
      <trkpt lat="45.37443" lon="0.58472">
        <ele>147.49258596441</ele>
        <time>2015-08-08T11:27:14Z</time>
      </trkpt>
      <trkpt lat="45.37456" lon="0.58467">
        <ele>147.4927362812</ele>
        <time>2015-08-08T11:27:24Z</time>
      </trkpt>
      <trkpt lat="45.37464" lon="0.58464">
        <ele>147.4927362812</ele>
        <time>2015-08-08T11:27:29Z</time>
      </trkpt>
      <trkpt lat="45.37484" lon="0.58458">
        <ele>147.44404575762</ele>
        <time>2015-08-08T11:27:44Z</time>
      </trkpt>
      <trkpt lat="45.3749" lon="0.58461">
        <ele>147.44404575762</ele>
        <time>2015-08-08T11:27:49Z</time>
      </trkpt>
      <trkpt lat="45.37503" lon="0.58457">
        <ele>147.34771975133</ele>
        <time>2015-08-08T11:27:59Z</time>
      </trkpt>
      <trkpt lat="45.3751" lon="0.58454">
        <ele>147.34771975133</ele>
        <time>2015-08-08T11:28:04Z</time>
      </trkpt>
      <trkpt lat="45.37521" lon="0.58454">
        <ele>147.40676248801</ele>
        <time>2015-08-08T11:28:14Z</time>
      </trkpt>
      <trkpt lat="45.37527" lon="0.58452">
        <ele>147.40676248801</ele>
        <time>2015-08-08T11:28:19Z</time>
      </trkpt>
      <trkpt lat="45.37537" lon="0.58452">
        <ele>147.60708018456</ele>
        <time>2015-08-08T11:28:29Z</time>
      </trkpt>
      <trkpt lat="45.37544" lon="0.58446">
        <ele>147.60708018456</ele>
        <time>2015-08-08T11:28:34Z</time>
      </trkpt>
      <trkpt lat="45.37551" lon="0.58445">
        <ele>148.55491105661</ele>
        <time>2015-08-08T11:28:44Z</time>
      </trkpt>
      <trkpt lat="45.37552" lon="0.58446">
        <ele>148.55491105661</ele>
        <time>2015-08-08T11:28:49Z</time>
      </trkpt>
      <trkpt lat="45.3757" lon="0.58436">
        <ele>148.73468500976</ele>
        <time>2015-08-08T11:28:59Z</time>
      </trkpt>
      <trkpt lat="45.37578" lon="0.5844">
        <ele>148.73468500976</ele>
        <time>2015-08-08T11:29:04Z</time>
      </trkpt>
      <trkpt lat="45.37598" lon="0.58426">
        <ele>147.4072602893</ele>
        <time>2015-08-08T11:29:14Z</time>
      </trkpt>
      <trkpt lat="45.37604" lon="0.58423">
        <ele>147.4072602893</ele>
        <time>2015-08-08T11:29:19Z</time>
      </trkpt>
      <trkpt lat="45.37618" lon="0.58406">
        <ele>146.44282153525</ele>
        <time>2015-08-08T11:29:29Z</time>
      </trkpt>
      <trkpt lat="45.37623" lon="0.58403">
        <ele>146.44282153525</ele>
        <time>2015-08-08T11:29:34Z</time>
      </trkpt>
      <trkpt lat="45.37635" lon="0.58397">
        <ele>145.72856431434</ele>
        <time>2015-08-08T11:29:44Z</time>
      </trkpt>
      <trkpt lat="45.37639" lon="0.58396">
        <ele>145.72856431434</ele>
        <time>2015-08-08T11:29:49Z</time>
      </trkpt>
      <trkpt lat="45.3765" lon="0.58392">
        <ele>145.38988018996</ele>
        <time>2015-08-08T11:29:59Z</time>
      </trkpt>
      <trkpt lat="45.37656" lon="0.58384">
        <ele>145.38988018996</ele>
        <time>2015-08-08T11:30:04Z</time>
      </trkpt>
      <trkpt lat="45.37673" lon="0.58371">
        <ele>144.5187374598</ele>
        <time>2015-08-08T11:30:19Z</time>
      </trkpt>
      <trkpt lat="45.3768" lon="0.5837">
        <ele>144.5187374598</ele>
        <time>2015-08-08T11:30:24Z</time>
      </trkpt>
      <trkpt lat="45.37686" lon="0.58369">
        <ele>143.67320930106</ele>
        <time>2015-08-08T11:30:29Z</time>
      </trkpt>
      <trkpt lat="45.37696" lon="0.58368">
        <ele>143.51444168526</ele>
        <time>2015-08-08T11:30:34Z</time>
      </trkpt>
      <trkpt lat="45.37704" lon="0.58365">
        <ele>143.51444168526</ele>
        <time>2015-08-08T11:30:39Z</time>
      </trkpt>
      <trkpt lat="45.37716" lon="0.58366">
        <ele>142.28969102468</ele>
        <time>2015-08-08T11:30:49Z</time>
      </trkpt>
      <trkpt lat="45.37723" lon="0.58369">
        <ele>142.28969102468</ele>
        <time>2015-08-08T11:30:54Z</time>
      </trkpt>
      <trkpt lat="45.3774" lon="0.58369">
        <ele>140.79905198457</ele>
        <time>2015-08-08T11:31:04Z</time>
      </trkpt>
      <trkpt lat="45.37748" lon="0.58367">
        <ele>140.79905198457</ele>
        <time>2015-08-08T11:31:09Z</time>
      </trkpt>
      <trkpt lat="45.37762" lon="0.58371">
        <ele>139.42433387693</ele>
        <time>2015-08-08T11:31:19Z</time>
      </trkpt>
      <trkpt lat="45.37767" lon="0.58375">
        <ele>139.42433387693</ele>
        <time>2015-08-08T11:31:24Z</time>
      </trkpt>
      <trkpt lat="45.37776" lon="0.58381">
        <ele>137.88490009903</ele>
        <time>2015-08-08T11:31:34Z</time>
      </trkpt>
      <trkpt lat="45.37781" lon="0.58381">
        <ele>137.88490009903</ele>
        <time>2015-08-08T11:31:39Z</time>
      </trkpt>
      <trkpt lat="45.37799" lon="0.58379">
        <ele>136.59852348304</ele>
        <time>2015-08-08T11:31:54Z</time>
      </trkpt>
      <trkpt lat="45.37806" lon="0.58379">
        <ele>136.59852348304</ele>
        <time>2015-08-08T11:31:59Z</time>
      </trkpt>
      <trkpt lat="45.37819" lon="0.58377">
        <ele>136.41273864722</ele>
        <time>2015-08-08T11:32:09Z</time>
      </trkpt>
      <trkpt lat="45.37825" lon="0.58377">
        <ele>136.41273864722</ele>
        <time>2015-08-08T11:32:14Z</time>
      </trkpt>
      <trkpt lat="45.3784" lon="0.58381">
        <ele>136.32275828445</ele>
        <time>2015-08-08T11:32:24Z</time>
      </trkpt>
      <trkpt lat="45.37849" lon="0.58383">
        <ele>136.01701939769</ele>
        <time>2015-08-08T11:32:29Z</time>
      </trkpt>
      <trkpt lat="45.37861" lon="0.58382">
        <ele>137.10972823082</ele>
        <time>2015-08-08T11:32:39Z</time>
      </trkpt>
      <trkpt lat="45.3787" lon="0.58377">
        <ele>138.13832769798</ele>
        <time>2015-08-08T11:32:44Z</time>
      </trkpt>
      <trkpt lat="45.37881" lon="0.58377">
        <ele>139.31871818056</ele>
        <time>2015-08-08T11:32:54Z</time>
      </trkpt>
      <trkpt lat="45.37887" lon="0.5838">
        <ele>139.31871818056</ele>
        <time>2015-08-08T11:32:59Z</time>
      </trkpt>
      <trkpt lat="45.379" lon="0.58379">
        <ele>140.60556460815</ele>
        <time>2015-08-08T11:33:09Z</time>
      </trkpt>
      <trkpt lat="45.37903" lon="0.58381">
        <ele>140.60556460815</ele>
        <time>2015-08-08T11:33:14Z</time>
      </trkpt>
      <trkpt lat="45.37907" lon="0.58382">
        <ele>140.60556460815</ele>
        <time>2015-08-08T11:33:19Z</time>
      </trkpt>
      <trkpt lat="45.37913" lon="0.58384">
        <ele>142.2304277663</ele>
        <time>2015-08-08T11:33:24Z</time>
      </trkpt>
      <trkpt lat="45.37926" lon="0.58388">
        <ele>143.93140956805</ele>
        <time>2015-08-08T11:33:34Z</time>
      </trkpt>
      <trkpt lat="45.37948" lon="0.58387">
        <ele>146.24391868856</ele>
        <time>2015-08-08T11:33:49Z</time>
      </trkpt>
      <trkpt lat="45.37957" lon="0.58388">
        <ele>146.24391868856</ele>
        <time>2015-08-08T11:33:55Z</time>
      </trkpt>
      <trkpt lat="45.37967" lon="0.58389">
        <ele>148.40864621857</ele>
        <time>2015-08-08T11:34:04Z</time>
      </trkpt>
      <trkpt lat="45.3797" lon="0.58386">
        <ele>148.40864621857</ele>
        <time>2015-08-08T11:34:10Z</time>
      </trkpt>
      <trkpt lat="45.37979" lon="0.58386">
        <ele>151.00517724504</ele>
        <time>2015-08-08T11:34:19Z</time>
      </trkpt>
      <trkpt lat="45.3799" lon="0.58379">
        <ele>153.27243595419</ele>
        <time>2015-08-08T11:34:25Z</time>
      </trkpt>
      <trkpt lat="45.38004" lon="0.58369">
        <ele>154.89541905503</ele>
        <time>2015-08-08T11:34:34Z</time>
      </trkpt>
      <trkpt lat="45.3801" lon="0.58365">
        <ele>154.89541905503</ele>
        <time>2015-08-08T11:34:39Z</time>
      </trkpt>
      <trkpt lat="45.38023" lon="0.58357">
        <ele>156.1606663556</ele>
        <time>2015-08-08T11:34:49Z</time>
      </trkpt>
      <trkpt lat="45.3803" lon="0.58356">
        <ele>156.1606663556</ele>
        <time>2015-08-08T11:34:55Z</time>
      </trkpt>
      <trkpt lat="45.38055" lon="0.58349">
        <ele>157.91127624223</ele>
        <time>2015-08-08T11:35:10Z</time>
      </trkpt>
      <trkpt lat="45.38059" lon="0.58351">
        <ele>157.91127624223</ele>
        <time>2015-08-08T11:35:15Z</time>
      </trkpt>
      <trkpt lat="45.38078" lon="0.58346">
        <ele>159.45728253165</ele>
        <time>2015-08-08T11:35:25Z</time>
      </trkpt>
      <trkpt lat="45.38106" lon="0.58337">
        <ele>161.21215710628</ele>
        <time>2015-08-08T11:35:30Z</time>
      </trkpt>
      <trkpt lat="45.38158" lon="0.58329">
        <ele>162.88126113992</ele>
        <time>2015-08-08T11:35:39Z</time>
      </trkpt>
      <trkpt lat="45.38191" lon="0.58312">
        <ele>164.75404829121</ele>
        <time>2015-08-08T11:35:45Z</time>
      </trkpt>
      <trkpt lat="45.38233" lon="0.58278">
        <ele>166.57951445775</ele>
        <time>2015-08-08T11:35:55Z</time>
      </trkpt>
      <trkpt lat="45.38258" lon="0.58269">
        <ele>168.34157279626</ele>
        <time>2015-08-08T11:35:59Z</time>
      </trkpt>
      <trkpt lat="45.38311" lon="0.58264">
        <ele>171.1785680352</ele>
        <time>2015-08-08T11:36:09Z</time>
      </trkpt>
      <trkpt lat="45.38336" lon="0.5826">
        <ele>174.05278219672</ele>
        <time>2015-08-08T11:36:14Z</time>
      </trkpt>
      <trkpt lat="45.38386" lon="0.5826">
        <ele>177.22776075056</ele>
        <time>2015-08-08T11:36:24Z</time>
      </trkpt>
      <trkpt lat="45.38416" lon="0.58256">
        <ele>180.28413418859</ele>
        <time>2015-08-08T11:36:29Z</time>
      </trkpt>
      <trkpt lat="45.38429" lon="0.58254">
        <ele>183.23739153</ele>
        <time>2015-08-08T11:36:34Z</time>
      </trkpt>
      <trkpt lat="45.38436" lon="0.58252">
        <ele>183.23739153</ele>
        <time>2015-08-08T11:36:39Z</time>
      </trkpt>
      <trkpt lat="45.38443" lon="0.58251">
        <ele>185.62682024448</ele>
        <time>2015-08-08T11:36:44Z</time>
      </trkpt>
      <trkpt lat="45.38451" lon="0.58251">
        <ele>185.62682024448</ele>
        <time>2015-08-08T11:36:49Z</time>
      </trkpt>
      <trkpt lat="45.38458" lon="0.58251">
        <ele>187.69026186668</ele>
        <time>2015-08-08T11:36:54Z</time>
      </trkpt>
      <trkpt lat="45.38465" lon="0.58252">
        <ele>187.69026186668</ele>
        <time>2015-08-08T11:36:59Z</time>
      </trkpt>
      <trkpt lat="45.38472" lon="0.58251">
        <ele>189.21688420235</ele>
        <time>2015-08-08T11:37:04Z</time>
      </trkpt>
      <trkpt lat="45.3848" lon="0.58251">
        <ele>189.21688420235</ele>
        <time>2015-08-08T11:37:09Z</time>
      </trkpt>
      <trkpt lat="45.38487" lon="0.58252">
        <ele>190.27246123639</ele>
        <time>2015-08-08T11:37:14Z</time>
      </trkpt>
      <trkpt lat="45.38494" lon="0.58253">
        <ele>190.27246123639</ele>
        <time>2015-08-08T11:37:19Z</time>
      </trkpt>
      <trkpt lat="45.38501" lon="0.58254">
        <ele>190.89063829428</ele>
        <time>2015-08-08T11:37:24Z</time>
      </trkpt>
      <trkpt lat="45.38509" lon="0.58254">
        <ele>190.89063829428</ele>
        <time>2015-08-08T11:37:29Z</time>
      </trkpt>
      <trkpt lat="45.38516" lon="0.58257">
        <ele>191.20488564289</ele>
        <time>2015-08-08T11:37:34Z</time>
      </trkpt>
      <trkpt lat="45.38524" lon="0.58258">
        <ele>191.20488564289</ele>
        <time>2015-08-08T11:37:39Z</time>
      </trkpt>
      <trkpt lat="45.38532" lon="0.58261">
        <ele>191.28225344983</ele>
        <time>2015-08-08T11:37:44Z</time>
      </trkpt>
      <trkpt lat="45.38539" lon="0.58263">
        <ele>191.28225344983</ele>
        <time>2015-08-08T11:37:49Z</time>
      </trkpt>
      <trkpt lat="45.38547" lon="0.58265">
        <ele>191.28656794749</ele>
        <time>2015-08-08T11:37:54Z</time>
      </trkpt>
      <trkpt lat="45.38554" lon="0.58267">
        <ele>191.28656794749</ele>
        <time>2015-08-08T11:37:59Z</time>
      </trkpt>
      <trkpt lat="45.38561" lon="0.58268">
        <ele>191.21144434114</ele>
        <time>2015-08-08T11:38:04Z</time>
      </trkpt>
      <trkpt lat="45.38568" lon="0.58271">
        <ele>191.21144434114</ele>
        <time>2015-08-08T11:38:09Z</time>
      </trkpt>
      <trkpt lat="45.38574" lon="0.58272">
        <ele>191.0224897028</ele>
        <time>2015-08-08T11:38:14Z</time>
      </trkpt>
      <trkpt lat="45.3858" lon="0.58274">
        <ele>191.0224897028</ele>
        <time>2015-08-08T11:38:19Z</time>
      </trkpt>
      <trkpt lat="45.38587" lon="0.58275">
        <ele>190.40003766195</ele>
        <time>2015-08-08T11:38:24Z</time>
      </trkpt>
      <trkpt lat="45.38594" lon="0.58276">
        <ele>190.40003766195</ele>
        <time>2015-08-08T11:38:29Z</time>
      </trkpt>
      <trkpt lat="45.38601" lon="0.58277">
        <ele>189.49594856533</ele>
        <time>2015-08-08T11:38:34Z</time>
      </trkpt>
      <trkpt lat="45.38608" lon="0.58277">
        <ele>189.49594856533</ele>
        <time>2015-08-08T11:38:39Z</time>
      </trkpt>
      <trkpt lat="45.38615" lon="0.58276">
        <ele>188.46619173794</ele>
        <time>2015-08-08T11:38:44Z</time>
      </trkpt>
      <trkpt lat="45.38622" lon="0.58276">
        <ele>188.46619173794</ele>
        <time>2015-08-08T11:38:49Z</time>
      </trkpt>
      <trkpt lat="45.38629" lon="0.58275">
        <ele>187.44126330219</ele>
        <time>2015-08-08T11:38:54Z</time>
      </trkpt>
      <trkpt lat="45.38637" lon="0.58274">
        <ele>187.44126330219</ele>
        <time>2015-08-08T11:38:59Z</time>
      </trkpt>
      <trkpt lat="45.38643" lon="0.58272">
        <ele>186.38355959267</ele>
        <time>2015-08-08T11:39:04Z</time>
      </trkpt>
      <trkpt lat="45.3865" lon="0.58269">
        <ele>186.38355959267</ele>
        <time>2015-08-08T11:39:09Z</time>
      </trkpt>
      <trkpt lat="45.38658" lon="0.58268">
        <ele>184.85482160525</ele>
        <time>2015-08-08T11:39:14Z</time>
      </trkpt>
      <trkpt lat="45.38666" lon="0.58267">
        <ele>184.85482160525</ele>
        <time>2015-08-08T11:39:19Z</time>
      </trkpt>
      <trkpt lat="45.38673" lon="0.58264">
        <ele>183.14202102829</ele>
        <time>2015-08-08T11:39:24Z</time>
      </trkpt>
      <trkpt lat="45.3868" lon="0.58263">
        <ele>183.14202102829</ele>
        <time>2015-08-08T11:39:29Z</time>
      </trkpt>
      <trkpt lat="45.38687" lon="0.58262">
        <ele>181.41064886883</ele>
        <time>2015-08-08T11:39:34Z</time>
      </trkpt>
      <trkpt lat="45.38695" lon="0.5826">
        <ele>181.41064886883</ele>
        <time>2015-08-08T11:39:39Z</time>
      </trkpt>
      <trkpt lat="45.38701" lon="0.58259">
        <ele>179.69874436719</ele>
        <time>2015-08-08T11:39:44Z</time>
      </trkpt>
      <trkpt lat="45.3871" lon="0.58258">
        <ele>178.05583202305</ele>
        <time>2015-08-08T11:39:49Z</time>
      </trkpt>
      <trkpt lat="45.38719" lon="0.58259">
        <ele>178.05583202305</ele>
        <time>2015-08-08T11:39:54Z</time>
      </trkpt>
      <trkpt lat="45.38728" lon="0.5826">
        <ele>176.41222158403</ele>
        <time>2015-08-08T11:39:59Z</time>
      </trkpt>
      <trkpt lat="45.38736" lon="0.58262">
        <ele>176.41222158403</ele>
        <time>2015-08-08T11:40:04Z</time>
      </trkpt>
      <trkpt lat="45.38744" lon="0.58264">
        <ele>174.8329345188</ele>
        <time>2015-08-08T11:40:09Z</time>
      </trkpt>
      <trkpt lat="45.38752" lon="0.58266">
        <ele>174.8329345188</ele>
        <time>2015-08-08T11:40:14Z</time>
      </trkpt>
      <trkpt lat="45.38759" lon="0.58269">
        <ele>173.291445387</ele>
        <time>2015-08-08T11:40:19Z</time>
      </trkpt>
      <trkpt lat="45.38766" lon="0.58271">
        <ele>173.291445387</ele>
        <time>2015-08-08T11:40:24Z</time>
      </trkpt>
      <trkpt lat="45.38773" lon="0.58273">
        <ele>171.67646916131</ele>
        <time>2015-08-08T11:40:29Z</time>
      </trkpt>
      <trkpt lat="45.38781" lon="0.58275">
        <ele>171.67646916131</ele>
        <time>2015-08-08T11:40:34Z</time>
      </trkpt>
      <trkpt lat="45.38788" lon="0.58279">
        <ele>170.33170095493</ele>
        <time>2015-08-08T11:40:39Z</time>
      </trkpt>
      <trkpt lat="45.38797" lon="0.58283">
        <ele>169.19998742756</ele>
        <time>2015-08-08T11:40:44Z</time>
      </trkpt>
      <trkpt lat="45.38803" lon="0.58286">
        <ele>169.19998742756</ele>
        <time>2015-08-08T11:40:49Z</time>
      </trkpt>
      <trkpt lat="45.3881" lon="0.58289">
        <ele>168.05468245097</ele>
        <time>2015-08-08T11:40:54Z</time>
      </trkpt>
      <trkpt lat="45.38817" lon="0.58291">
        <ele>168.05468245097</ele>
        <time>2015-08-08T11:40:59Z</time>
      </trkpt>
      <trkpt lat="45.38823" lon="0.58296">
        <ele>166.78654020136</ele>
        <time>2015-08-08T11:41:04Z</time>
      </trkpt>
      <trkpt lat="45.38829" lon="0.58299">
        <ele>166.78654020136</ele>
        <time>2015-08-08T11:41:09Z</time>
      </trkpt>
      <trkpt lat="45.38835" lon="0.583">
        <ele>165.69802791895</ele>
        <time>2015-08-08T11:41:14Z</time>
      </trkpt>
      <trkpt lat="45.38843" lon="0.583">
        <ele>165.69802791895</ele>
        <time>2015-08-08T11:41:19Z</time>
      </trkpt>
      <trkpt lat="45.38848" lon="0.58304">
        <ele>164.63638646755</ele>
        <time>2015-08-08T11:41:24Z</time>
      </trkpt>
      <trkpt lat="45.38858" lon="0.58303">
        <ele>163.45983167181</ele>
        <time>2015-08-08T11:41:29Z</time>
      </trkpt>
      <trkpt lat="45.38865" lon="0.58307">
        <ele>163.45983167181</ele>
        <time>2015-08-08T11:41:34Z</time>
      </trkpt>
      <trkpt lat="45.3888" lon="0.58314">
        <ele>162.62800158698</ele>
        <time>2015-08-08T11:41:44Z</time>
      </trkpt>
      <trkpt lat="45.38884" lon="0.58314">
        <ele>162.62800158698</ele>
        <time>2015-08-08T11:41:49Z</time>
      </trkpt>
      <trkpt lat="45.38899" lon="0.5832">
        <ele>161.23980847337</ele>
        <time>2015-08-08T11:41:59Z</time>
      </trkpt>
      <trkpt lat="45.38903" lon="0.58325">
        <ele>161.23980847337</ele>
        <time>2015-08-08T11:42:04Z</time>
      </trkpt>
      <trkpt lat="45.38926" lon="0.58337">
        <ele>160.10461551929</ele>
        <time>2015-08-08T11:42:19Z</time>
      </trkpt>
      <trkpt lat="45.38934" lon="0.58338">
        <ele>160.10461551929</ele>
        <time>2015-08-08T11:42:24Z</time>
      </trkpt>
      <trkpt lat="45.38949" lon="0.5834">
        <ele>158.76091710222</ele>
        <time>2015-08-08T11:42:34Z</time>
      </trkpt>
      <trkpt lat="45.38957" lon="0.58342">
        <ele>158.76091710222</ele>
        <time>2015-08-08T11:42:39Z</time>
      </trkpt>
      <trkpt lat="45.38964" lon="0.58353">
        <ele>157.09856918526</ele>
        <time>2015-08-08T11:42:49Z</time>
      </trkpt>
      <trkpt lat="45.38963" lon="0.58364">
        <ele>157.09856918526</ele>
        <time>2015-08-08T11:42:54Z</time>
      </trkpt>
      <trkpt lat="45.38966" lon="0.58388">
        <ele>156.1691330232</ele>
        <time>2015-08-08T11:43:04Z</time>
      </trkpt>
      <trkpt lat="45.38967" lon="0.58398">
        <ele>156.1691330232</ele>
        <time>2015-08-08T11:43:09Z</time>
      </trkpt>
      <trkpt lat="45.3897" lon="0.58416">
        <ele>155.61887710844</ele>
        <time>2015-08-08T11:43:19Z</time>
      </trkpt>
      <trkpt lat="45.38972" lon="0.58423">
        <ele>155.61887710844</ele>
        <time>2015-08-08T11:43:24Z</time>
      </trkpt>
      <trkpt lat="45.38987" lon="0.58424">
        <ele>155.53675097871</ele>
        <time>2015-08-08T11:43:34Z</time>
      </trkpt>
      <trkpt lat="45.38992" lon="0.58424">
        <ele>155.53675097871</ele>
        <time>2015-08-08T11:43:39Z</time>
      </trkpt>
      <trkpt lat="45.39002" lon="0.58428">
        <ele>156.06134672135</ele>
        <time>2015-08-08T11:43:49Z</time>
      </trkpt>
      <trkpt lat="45.39004" lon="0.58428">
        <ele>156.06134672135</ele>
        <time>2015-08-08T11:43:54Z</time>
      </trkpt>
      <trkpt lat="45.39007" lon="0.58428">
        <ele>156.06134672135</ele>
        <time>2015-08-08T11:44:04Z</time>
      </trkpt>
      <trkpt lat="45.39008" lon="0.58428">
        <ele>156.06134672135</ele>
        <time>2015-08-08T11:44:09Z</time>
      </trkpt>
      <trkpt lat="45.3902" lon="0.58405">
        <ele>155.90693981268</ele>
        <time>2015-08-08T11:44:24Z</time>
      </trkpt>
      <trkpt lat="45.39024" lon="0.58398">
        <ele>155.90693981268</ele>
        <time>2015-08-08T11:44:29Z</time>
      </trkpt>
      <trkpt lat="45.39027" lon="0.58394">
        <ele>155.15220375184</ele>
        <time>2015-08-08T11:44:34Z</time>
      </trkpt>
      <trkpt lat="45.39033" lon="0.58386">
        <ele>155.15220375184</ele>
        <time>2015-08-08T11:44:39Z</time>
      </trkpt>
      <trkpt lat="45.39037" lon="0.58378">
        <ele>154.18863729503</ele>
        <time>2015-08-08T11:44:44Z</time>
      </trkpt>
      <trkpt lat="45.3904" lon="0.58372">
        <ele>154.18863729503</ele>
        <time>2015-08-08T11:44:49Z</time>
      </trkpt>
      <trkpt lat="45.39042" lon="0.58369">
        <ele>154.18863729503</ele>
        <time>2015-08-08T11:44:54Z</time>
      </trkpt>
      <trkpt lat="45.39055" lon="0.58346">
        <ele>152.80300337813</ele>
        <time>2015-08-08T11:45:09Z</time>
      </trkpt>
      <trkpt lat="45.39059" lon="0.58339">
        <ele>152.80300337813</ele>
        <time>2015-08-08T11:45:14Z</time>
      </trkpt>
      <trkpt lat="45.39067" lon="0.58325">
        <ele>150.74115300978</ele>
        <time>2015-08-08T11:45:24Z</time>
      </trkpt>
      <trkpt lat="45.39071" lon="0.58316">
        <ele>150.74115300978</ele>
        <time>2015-08-08T11:45:29Z</time>
      </trkpt>
      <trkpt lat="45.39079" lon="0.58301">
        <ele>148.44670930126</ele>
        <time>2015-08-08T11:45:39Z</time>
      </trkpt>
      <trkpt lat="45.39084" lon="0.58295">
        <ele>148.44670930126</ele>
        <time>2015-08-08T11:45:44Z</time>
      </trkpt>
      <trkpt lat="45.39091" lon="0.58267">
        <ele>146.97974062266</ele>
        <time>2015-08-08T11:45:54Z</time>
      </trkpt>
      <trkpt lat="45.39093" lon="0.58262">
        <ele>146.97974062266</ele>
        <time>2015-08-08T11:45:59Z</time>
      </trkpt>
      <trkpt lat="45.391" lon="0.58249">
        <ele>145.57625488768</ele>
        <time>2015-08-08T11:46:09Z</time>
      </trkpt>
      <trkpt lat="45.39103" lon="0.5824">
        <ele>145.57625488768</ele>
        <time>2015-08-08T11:46:14Z</time>
      </trkpt>
      <trkpt lat="45.39105" lon="0.58234">
        <ele>145.18536062688</ele>
        <time>2015-08-08T11:46:19Z</time>
      </trkpt>
      <trkpt lat="45.39105" lon="0.58226">
        <ele>145.18536062688</ele>
        <time>2015-08-08T11:46:24Z</time>
      </trkpt>
      <trkpt lat="45.39109" lon="0.5822">
        <ele>144.14712813351</ele>
        <time>2015-08-08T11:46:29Z</time>
      </trkpt>
      <trkpt lat="45.39114" lon="0.58205">
        <ele>143.34633367437</ele>
        <time>2015-08-08T11:46:35Z</time>
      </trkpt>
      <trkpt lat="45.39128" lon="0.5818">
        <ele>142.42027157389</ele>
        <time>2015-08-08T11:46:45Z</time>
      </trkpt>
      <trkpt lat="45.39132" lon="0.58172">
        <ele>142.42027157389</ele>
        <time>2015-08-08T11:46:50Z</time>
      </trkpt>
      <trkpt lat="45.39139" lon="0.58156">
        <ele>142.15719701286</ele>
        <time>2015-08-08T11:47:01Z</time>
      </trkpt>
      <trkpt lat="45.39141" lon="0.58146">
        <ele>142.15719701286</ele>
        <time>2015-08-08T11:47:04Z</time>
      </trkpt>
      <trkpt lat="45.39147" lon="0.58126">
        <ele>141.28235977679</ele>
        <time>2015-08-08T11:47:15Z</time>
      </trkpt>
      <trkpt lat="45.39159" lon="0.5809">
        <ele>140.69148066166</ele>
        <time>2015-08-08T11:47:20Z</time>
      </trkpt>
      <trkpt lat="45.39179" lon="0.58025">
        <ele>140.50745955541</ele>
        <time>2015-08-08T11:47:30Z</time>
      </trkpt>
      <trkpt lat="45.39183" lon="0.58011">
        <ele>140.61237732339</ele>
        <time>2015-08-08T11:47:35Z</time>
      </trkpt>
      <trkpt lat="45.39191" lon="0.57992">
        <ele>141.16991623942</ele>
        <time>2015-08-08T11:47:45Z</time>
      </trkpt>
      <trkpt lat="45.39195" lon="0.5798">
        <ele>141.3360475278</ele>
        <time>2015-08-08T11:47:50Z</time>
      </trkpt>
      <trkpt lat="45.39197" lon="0.57969">
        <ele>141.3360475278</ele>
        <time>2015-08-08T11:47:54Z</time>
      </trkpt>
      <trkpt lat="45.39206" lon="0.57946">
        <ele>141.35299313273</ele>
        <time>2015-08-08T11:48:04Z</time>
      </trkpt>
      <trkpt lat="45.3921" lon="0.57937">
        <ele>141.35299313273</ele>
        <time>2015-08-08T11:48:09Z</time>
      </trkpt>
      <trkpt lat="45.39213" lon="0.57927">
        <ele>141.53203990551</ele>
        <time>2015-08-08T11:48:14Z</time>
      </trkpt>
      <trkpt lat="45.39217" lon="0.57917">
        <ele>141.53203990551</ele>
        <time>2015-08-08T11:48:19Z</time>
      </trkpt>
      <trkpt lat="45.3922" lon="0.57909">
        <ele>141.81527012095</ele>
        <time>2015-08-08T11:48:24Z</time>
      </trkpt>
      <trkpt lat="45.39223" lon="0.57901">
        <ele>141.81527012095</ele>
        <time>2015-08-08T11:48:29Z</time>
      </trkpt>
      <trkpt lat="45.39226" lon="0.57895">
        <ele>141.97578830039</ele>
        <time>2015-08-08T11:48:34Z</time>
      </trkpt>
      <trkpt lat="45.3923" lon="0.57887">
        <ele>141.97578830039</ele>
        <time>2015-08-08T11:48:39Z</time>
      </trkpt>
      <trkpt lat="45.39239" lon="0.5787">
        <ele>141.28491131665</ele>
        <time>2015-08-08T11:48:49Z</time>
      </trkpt>
      <trkpt lat="45.39243" lon="0.57863">
        <ele>141.28491131665</ele>
        <time>2015-08-08T11:48:54Z</time>
      </trkpt>
      <trkpt lat="45.39249" lon="0.57846">
        <ele>140.28041290078</ele>
        <time>2015-08-08T11:49:06Z</time>
      </trkpt>
      <trkpt lat="45.3925" lon="0.57844">
        <ele>140.28041290078</ele>
        <time>2015-08-08T11:49:09Z</time>
      </trkpt>
      <trkpt lat="45.39251" lon="0.57842">
        <ele>140.28041290078</ele>
        <time>2015-08-08T11:49:21Z</time>
      </trkpt>
      <trkpt lat="45.39254" lon="0.57834">
        <ele>139.12999472945</ele>
        <time>2015-08-08T11:49:25Z</time>
      </trkpt>
      <trkpt lat="45.39264" lon="0.57816">
        <ele>138.34973494008</ele>
        <time>2015-08-08T11:49:35Z</time>
      </trkpt>
      <trkpt lat="45.3927" lon="0.57809">
        <ele>138.34973494008</ele>
        <time>2015-08-08T11:49:40Z</time>
      </trkpt>
      <trkpt lat="45.39282" lon="0.57803">
        <ele>137.81150292954</ele>
        <time>2015-08-08T11:49:49Z</time>
      </trkpt>
      <trkpt lat="45.39288" lon="0.57802">
        <ele>137.81150292954</ele>
        <time>2015-08-08T11:49:54Z</time>
      </trkpt>
      <trkpt lat="45.39295" lon="0.57801">
        <ele>137.16533016589</ele>
        <time>2015-08-08T11:49:59Z</time>
      </trkpt>
      <trkpt lat="45.39299" lon="0.57801">
        <ele>137.16533016589</ele>
        <time>2015-08-08T11:50:04Z</time>
      </trkpt>
      <trkpt lat="45.39314" lon="0.57801">
        <ele>136.28902121472</ele>
        <time>2015-08-08T11:50:15Z</time>
      </trkpt>
      <trkpt lat="45.3932" lon="0.57802">
        <ele>136.28902121472</ele>
        <time>2015-08-08T11:50:19Z</time>
      </trkpt>
      <trkpt lat="45.39327" lon="0.578">
        <ele>135.502342616</ele>
        <time>2015-08-08T11:50:24Z</time>
      </trkpt>
      <trkpt lat="45.39335" lon="0.57797">
        <ele>135.502342616</ele>
        <time>2015-08-08T11:50:29Z</time>
      </trkpt>
      <trkpt lat="45.39339" lon="0.57795">
        <ele>134.59693680153</ele>
        <time>2015-08-08T11:50:34Z</time>
      </trkpt>
      <trkpt lat="45.39345" lon="0.57791">
        <ele>134.59693680153</ele>
        <time>2015-08-08T11:50:39Z</time>
      </trkpt>
      <trkpt lat="45.39349" lon="0.57783">
        <ele>133.29362319852</ele>
        <time>2015-08-08T11:50:44Z</time>
      </trkpt>
      <trkpt lat="45.39353" lon="0.57774">
        <ele>133.29362319852</ele>
        <time>2015-08-08T11:50:49Z</time>
      </trkpt>
      <trkpt lat="45.39355" lon="0.57763">
        <ele>131.43572529725</ele>
        <time>2015-08-08T11:50:54Z</time>
      </trkpt>
      <trkpt lat="45.39357" lon="0.57754">
        <ele>131.43572529725</ele>
        <time>2015-08-08T11:50:59Z</time>
      </trkpt>
      <trkpt lat="45.39359" lon="0.57744">
        <ele>129.64341789494</ele>
        <time>2015-08-08T11:51:04Z</time>
      </trkpt>
      <trkpt lat="45.39362" lon="0.57735">
        <ele>129.64341789494</ele>
        <time>2015-08-08T11:51:09Z</time>
      </trkpt>
      <trkpt lat="45.39365" lon="0.57724">
        <ele>128.43348142629</ele>
        <time>2015-08-08T11:51:14Z</time>
      </trkpt>
      <trkpt lat="45.39371" lon="0.57717">
        <ele>128.43348142629</ele>
        <time>2015-08-08T11:51:19Z</time>
      </trkpt>
      <trkpt lat="45.39376" lon="0.57711">
        <ele>127.37518639773</ele>
        <time>2015-08-08T11:51:24Z</time>
      </trkpt>
      <trkpt lat="45.39381" lon="0.57706">
        <ele>127.37518639773</ele>
        <time>2015-08-08T11:51:29Z</time>
      </trkpt>
      <trkpt lat="45.39385" lon="0.57703">
        <ele>126.58780222162</ele>
        <time>2015-08-08T11:51:34Z</time>
      </trkpt>
      <trkpt lat="45.39391" lon="0.57697">
        <ele>126.58780222162</ele>
        <time>2015-08-08T11:51:39Z</time>
      </trkpt>
      <trkpt lat="45.39397" lon="0.57692">
        <ele>126.1522369017</ele>
        <time>2015-08-08T11:51:44Z</time>
      </trkpt>
      <trkpt lat="45.39404" lon="0.57686">
        <ele>126.1522369017</ele>
        <time>2015-08-08T11:51:49Z</time>
      </trkpt>
      <trkpt lat="45.39408" lon="0.57682">
        <ele>125.53718462063</ele>
        <time>2015-08-08T11:51:54Z</time>
      </trkpt>
      <trkpt lat="45.39414" lon="0.57677">
        <ele>125.53718462063</ele>
        <time>2015-08-08T11:51:59Z</time>
      </trkpt>
      <trkpt lat="45.39417" lon="0.57672">
        <ele>124.79848059814</ele>
        <time>2015-08-08T11:52:04Z</time>
      </trkpt>
      <trkpt lat="45.39423" lon="0.57667">
        <ele>124.79848059814</ele>
        <time>2015-08-08T11:52:09Z</time>
      </trkpt>
      <trkpt lat="45.39432" lon="0.57663">
        <ele>123.94496003859</ele>
        <time>2015-08-08T11:52:14Z</time>
      </trkpt>
      <trkpt lat="45.39441" lon="0.57659">
        <ele>123.51833331222</ele>
        <time>2015-08-08T11:52:19Z</time>
      </trkpt>
      <trkpt lat="45.39445" lon="0.57654">
        <ele>123.51833331222</ele>
        <time>2015-08-08T11:52:24Z</time>
      </trkpt>
      <trkpt lat="45.39452" lon="0.5765">
        <ele>123.7166802969</ele>
        <time>2015-08-08T11:52:29Z</time>
      </trkpt>
      <trkpt lat="45.39458" lon="0.57645">
        <ele>123.7166802969</ele>
        <time>2015-08-08T11:52:34Z</time>
      </trkpt>
      <trkpt lat="45.39466" lon="0.57641">
        <ele>124.7361881283</ele>
        <time>2015-08-08T11:52:39Z</time>
      </trkpt>
      <trkpt lat="45.39473" lon="0.57636">
        <ele>124.7361881283</ele>
        <time>2015-08-08T11:52:44Z</time>
      </trkpt>
      <trkpt lat="45.39478" lon="0.57629">
        <ele>125.96372629566</ele>
        <time>2015-08-08T11:52:49Z</time>
      </trkpt>
      <trkpt lat="45.39482" lon="0.57625">
        <ele>125.96372629566</ele>
        <time>2015-08-08T11:52:54Z</time>
      </trkpt>
      <trkpt lat="45.39488" lon="0.57621">
        <ele>125.74980584806</ele>
        <time>2015-08-08T11:52:59Z</time>
      </trkpt>
      <trkpt lat="45.39491" lon="0.57617">
        <ele>125.74980584806</ele>
        <time>2015-08-08T11:53:04Z</time>
      </trkpt>
      <trkpt lat="45.39495" lon="0.57611">
        <ele>125.25064765495</ele>
        <time>2015-08-08T11:53:09Z</time>
      </trkpt>
      <trkpt lat="45.39498" lon="0.57604">
        <ele>125.25064765495</ele>
        <time>2015-08-08T11:53:14Z</time>
      </trkpt>
      <trkpt lat="45.39504" lon="0.57599">
        <ele>125.07721683132</ele>
        <time>2015-08-08T11:53:19Z</time>
      </trkpt>
      <trkpt lat="45.3951" lon="0.57592">
        <ele>125.07721683132</ele>
        <time>2015-08-08T11:53:24Z</time>
      </trkpt>
      <trkpt lat="45.39515" lon="0.57587">
        <ele>124.85799983308</ele>
        <time>2015-08-08T11:53:29Z</time>
      </trkpt>
      <trkpt lat="45.39519" lon="0.57581">
        <ele>124.85799983308</ele>
        <time>2015-08-08T11:53:34Z</time>
      </trkpt>
      <trkpt lat="45.39524" lon="0.57573">
        <ele>124.22011998423</ele>
        <time>2015-08-08T11:53:39Z</time>
      </trkpt>
      <trkpt lat="45.39529" lon="0.57566">
        <ele>124.22011998423</ele>
        <time>2015-08-08T11:53:44Z</time>
      </trkpt>
      <trkpt lat="45.39534" lon="0.57559">
        <ele>123.66956201227</ele>
        <time>2015-08-08T11:53:49Z</time>
      </trkpt>
      <trkpt lat="45.39539" lon="0.57551">
        <ele>123.66956201227</ele>
        <time>2015-08-08T11:53:54Z</time>
      </trkpt>
      <trkpt lat="45.39547" lon="0.57543">
        <ele>123.63170335175</ele>
        <time>2015-08-08T11:53:59Z</time>
      </trkpt>
      <trkpt lat="45.39551" lon="0.57538">
        <ele>123.63170335175</ele>
        <time>2015-08-08T11:54:04Z</time>
      </trkpt>
      <trkpt lat="45.39556" lon="0.57533">
        <ele>123.79313159604</ele>
        <time>2015-08-08T11:54:09Z</time>
      </trkpt>
      <trkpt lat="45.3956" lon="0.57529">
        <ele>123.79313159604</ele>
        <time>2015-08-08T11:54:14Z</time>
      </trkpt>
      <trkpt lat="45.39565" lon="0.57523">
        <ele>124.59790907031</ele>
        <time>2015-08-08T11:54:19Z</time>
      </trkpt>
      <trkpt lat="45.3957" lon="0.57523">
        <ele>124.59790907031</ele>
        <time>2015-08-08T11:54:24Z</time>
      </trkpt>
      <trkpt lat="45.39577" lon="0.5752">
        <ele>125.3316539928</ele>
        <time>2015-08-08T11:54:29Z</time>
      </trkpt>
      <trkpt lat="45.39581" lon="0.57518">
        <ele>125.3316539928</ele>
        <time>2015-08-08T11:54:34Z</time>
      </trkpt>
      <trkpt lat="45.39587" lon="0.57517">
        <ele>126.47119557925</ele>
        <time>2015-08-08T11:54:39Z</time>
      </trkpt>
      <trkpt lat="45.39594" lon="0.57513">
        <ele>126.47119557925</ele>
        <time>2015-08-08T11:54:44Z</time>
      </trkpt>
      <trkpt lat="45.396" lon="0.57509">
        <ele>127.57818270528</ele>
        <time>2015-08-08T11:54:49Z</time>
      </trkpt>
      <trkpt lat="45.39608" lon="0.57507">
        <ele>127.57818270528</ele>
        <time>2015-08-08T11:54:54Z</time>
      </trkpt>
      <trkpt lat="45.39613" lon="0.57503">
        <ele>128.24662857123</ele>
        <time>2015-08-08T11:54:59Z</time>
      </trkpt>
      <trkpt lat="45.3962" lon="0.57501">
        <ele>128.24662857123</ele>
        <time>2015-08-08T11:55:04Z</time>
      </trkpt>
      <trkpt lat="45.3963" lon="0.575">
        <ele>129.83101518759</ele>
        <time>2015-08-08T11:55:09Z</time>
      </trkpt>
      <trkpt lat="45.39635" lon="0.57493">
        <ele>129.83101518759</ele>
        <time>2015-08-08T11:55:14Z</time>
      </trkpt>
      <trkpt lat="45.39642" lon="0.57487">
        <ele>131.13395524878</ele>
        <time>2015-08-08T11:55:20Z</time>
      </trkpt>
      <trkpt lat="45.39657" lon="0.57476">
        <ele>132.57448651555</ele>
        <time>2015-08-08T11:55:30Z</time>
      </trkpt>
      <trkpt lat="45.39661" lon="0.57473">
        <ele>132.57448651555</ele>
        <time>2015-08-08T11:55:35Z</time>
      </trkpt>
      <trkpt lat="45.39669" lon="0.57461">
        <ele>133.14270470434</ele>
        <time>2015-08-08T11:55:45Z</time>
      </trkpt>
      <trkpt lat="45.39674" lon="0.57456">
        <ele>133.14270470434</ele>
        <time>2015-08-08T11:55:49Z</time>
      </trkpt>
      <trkpt lat="45.39685" lon="0.57443">
        <ele>133.60596140249</ele>
        <time>2015-08-08T11:56:00Z</time>
      </trkpt>
      <trkpt lat="45.39691" lon="0.57437">
        <ele>133.60596140249</ele>
        <time>2015-08-08T11:56:05Z</time>
      </trkpt>
      <trkpt lat="45.39704" lon="0.57428">
        <ele>133.30658879288</ele>
        <time>2015-08-08T11:56:15Z</time>
      </trkpt>
      <trkpt lat="45.39713" lon="0.57426">
        <ele>133.55415939755</ele>
        <time>2015-08-08T11:56:19Z</time>
      </trkpt>
      <trkpt lat="45.39728" lon="0.5742">
        <ele>133.71599503789</ele>
        <time>2015-08-08T11:56:29Z</time>
      </trkpt>
      <trkpt lat="45.39735" lon="0.57417">
        <ele>133.71599503789</ele>
        <time>2015-08-08T11:56:34Z</time>
      </trkpt>
      <trkpt lat="45.39743" lon="0.57415">
        <ele>134.34471599261</ele>
        <time>2015-08-08T11:56:39Z</time>
      </trkpt>
      <trkpt lat="45.3975" lon="0.57411">
        <ele>134.34471599261</ele>
        <time>2015-08-08T11:56:44Z</time>
      </trkpt>
      <trkpt lat="45.39755" lon="0.57408">
        <ele>134.78383743318</ele>
        <time>2015-08-08T11:56:49Z</time>
      </trkpt>
      <trkpt lat="45.3976" lon="0.57404">
        <ele>134.78383743318</ele>
        <time>2015-08-08T11:56:54Z</time>
      </trkpt>
      <trkpt lat="45.39765" lon="0.574">
        <ele>135.07422956494</ele>
        <time>2015-08-08T11:56:59Z</time>
      </trkpt>
      <trkpt lat="45.3977" lon="0.57395">
        <ele>135.07422956494</ele>
        <time>2015-08-08T11:57:04Z</time>
      </trkpt>
      <trkpt lat="45.39775" lon="0.57392">
        <ele>136.03247466022</ele>
        <time>2015-08-08T11:57:09Z</time>
      </trkpt>
      <trkpt lat="45.39781" lon="0.57389">
        <ele>136.03247466022</ele>
        <time>2015-08-08T11:57:14Z</time>
      </trkpt>
      <trkpt lat="45.39784" lon="0.57387">
        <ele>137.14521421801</ele>
        <time>2015-08-08T11:57:19Z</time>
      </trkpt>
      <trkpt lat="45.39788" lon="0.5738">
        <ele>137.14521421801</ele>
        <time>2015-08-08T11:57:24Z</time>
      </trkpt>
      <trkpt lat="45.39801" lon="0.57375">
        <ele>137.96528632144</ele>
        <time>2015-08-08T11:57:29Z</time>
      </trkpt>
      <trkpt lat="45.39804" lon="0.57372">
        <ele>137.96528632144</ele>
        <time>2015-08-08T11:57:34Z</time>
      </trkpt>
      <trkpt lat="45.3981" lon="0.57367">
        <ele>138.84308517211</ele>
        <time>2015-08-08T11:57:39Z</time>
      </trkpt>
      <trkpt lat="45.39819" lon="0.57365">
        <ele>139.16647864921</ele>
        <time>2015-08-08T11:57:44Z</time>
      </trkpt>
      <trkpt lat="45.39822" lon="0.57362">
        <ele>139.16647864921</ele>
        <time>2015-08-08T11:57:49Z</time>
      </trkpt>
      <trkpt lat="45.39827" lon="0.57359">
        <ele>139.47960965483</ele>
        <time>2015-08-08T11:57:54Z</time>
      </trkpt>
      <trkpt lat="45.39834" lon="0.57359">
        <ele>139.47960965483</ele>
        <time>2015-08-08T11:57:59Z</time>
      </trkpt>
      <trkpt lat="45.39841" lon="0.57358">
        <ele>139.82561599317</ele>
        <time>2015-08-08T11:58:04Z</time>
      </trkpt>
      <trkpt lat="45.39848" lon="0.57354">
        <ele>139.82561599317</ele>
        <time>2015-08-08T11:58:09Z</time>
      </trkpt>
      <trkpt lat="45.39856" lon="0.57352">
        <ele>140.15799817679</ele>
        <time>2015-08-08T11:58:14Z</time>
      </trkpt>
      <trkpt lat="45.39861" lon="0.57349">
        <ele>140.15799817679</ele>
        <time>2015-08-08T11:58:19Z</time>
      </trkpt>
      <trkpt lat="45.39866" lon="0.57349">
        <ele>140.05910702694</ele>
        <time>2015-08-08T11:58:24Z</time>
      </trkpt>
      <trkpt lat="45.39876" lon="0.57345">
        <ele>140.26733077684</ele>
        <time>2015-08-08T11:58:29Z</time>
      </trkpt>
      <trkpt lat="45.39883" lon="0.57346">
        <ele>140.26733077684</ele>
        <time>2015-08-08T11:58:34Z</time>
      </trkpt>
      <trkpt lat="45.3989" lon="0.57346">
        <ele>140.61577370112</ele>
        <time>2015-08-08T11:58:39Z</time>
      </trkpt>
      <trkpt lat="45.39896" lon="0.57347">
        <ele>140.61577370112</ele>
        <time>2015-08-08T11:58:44Z</time>
      </trkpt>
      <trkpt lat="45.39901" lon="0.57347">
        <ele>141.06476587009</ele>
        <time>2015-08-08T11:58:49Z</time>
      </trkpt>
      <trkpt lat="45.39905" lon="0.57344">
        <ele>141.06476587009</ele>
        <time>2015-08-08T11:58:54Z</time>
      </trkpt>
      <trkpt lat="45.39911" lon="0.57339">
        <ele>141.46204627606</ele>
        <time>2015-08-08T11:59:00Z</time>
      </trkpt>
      <trkpt lat="45.3992" lon="0.57326">
        <ele>141.91173545893</ele>
        <time>2015-08-08T11:59:10Z</time>
      </trkpt>
      <trkpt lat="45.39922" lon="0.57317">
        <ele>141.91173545893</ele>
        <time>2015-08-08T11:59:15Z</time>
      </trkpt>
      <trkpt lat="45.39926" lon="0.57306">
        <ele>141.61672738466</ele>
        <time>2015-08-08T11:59:19Z</time>
      </trkpt>
      <trkpt lat="45.3993" lon="0.57299">
        <ele>141.61672738466</ele>
        <time>2015-08-08T11:59:24Z</time>
      </trkpt>
      <trkpt lat="45.3993" lon="0.5729">
        <ele>141.29613621184</ele>
        <time>2015-08-08T11:59:29Z</time>
      </trkpt>
      <trkpt lat="45.3993" lon="0.57279">
        <ele>141.29613621184</ele>
        <time>2015-08-08T11:59:34Z</time>
      </trkpt>
      <trkpt lat="45.3993" lon="0.57273">
        <ele>140.11761165868</ele>
        <time>2015-08-08T11:59:39Z</time>
      </trkpt>
      <trkpt lat="45.39936" lon="0.57264">
        <ele>140.11761165868</ele>
        <time>2015-08-08T11:59:44Z</time>
      </trkpt>
      <trkpt lat="45.39938" lon="0.57254">
        <ele>139.12819090304</ele>
        <time>2015-08-08T11:59:49Z</time>
      </trkpt>
      <trkpt lat="45.39938" lon="0.57241">
        <ele>139.41278155089</ele>
        <time>2015-08-08T11:59:54Z</time>
      </trkpt>
      <trkpt lat="45.39939" lon="0.57234">
        <ele>139.41278155089</ele>
        <time>2015-08-08T11:59:59Z</time>
      </trkpt>
      <trkpt lat="45.39943" lon="0.57226">
        <ele>139.5375599485</ele>
        <time>2015-08-08T12:00:04Z</time>
      </trkpt>
      <trkpt lat="45.39948" lon="0.57221">
        <ele>139.5375599485</ele>
        <time>2015-08-08T12:00:09Z</time>
      </trkpt>
      <trkpt lat="45.3995" lon="0.57211">
        <ele>139.42825705914</ele>
        <time>2015-08-08T12:00:14Z</time>
      </trkpt>
      <trkpt lat="45.39951" lon="0.57204">
        <ele>139.42825705914</ele>
        <time>2015-08-08T12:00:19Z</time>
      </trkpt>
      <trkpt lat="45.39954" lon="0.57193">
        <ele>139.63640198208</ele>
        <time>2015-08-08T12:00:24Z</time>
      </trkpt>
      <trkpt lat="45.39956" lon="0.57188">
        <ele>139.63640198208</ele>
        <time>2015-08-08T12:00:29Z</time>
      </trkpt>
      <trkpt lat="45.39961" lon="0.57181">
        <ele>139.31747808655</ele>
        <time>2015-08-08T12:00:34Z</time>
      </trkpt>
      <trkpt lat="45.39967" lon="0.57178">
        <ele>139.31747808655</ele>
        <time>2015-08-08T12:00:39Z</time>
      </trkpt>
      <trkpt lat="45.39973" lon="0.57174">
        <ele>139.66481048406</ele>
        <time>2015-08-08T12:00:44Z</time>
      </trkpt>
      <trkpt lat="45.39979" lon="0.57171">
        <ele>139.66481048406</ele>
        <time>2015-08-08T12:00:49Z</time>
      </trkpt>
      <trkpt lat="45.39984" lon="0.57163">
        <ele>140.09609426023</ele>
        <time>2015-08-08T12:00:54Z</time>
      </trkpt>
      <trkpt lat="45.39991" lon="0.57158">
        <ele>140.09609426023</ele>
        <time>2015-08-08T12:00:59Z</time>
      </trkpt>
      <trkpt lat="45.39996" lon="0.57153">
        <ele>139.88421891293</ele>
        <time>2015-08-08T12:01:04Z</time>
      </trkpt>
      <trkpt lat="45.40004" lon="0.57151">
        <ele>139.88421891293</ele>
        <time>2015-08-08T12:01:09Z</time>
      </trkpt>
      <trkpt lat="45.40013" lon="0.5715">
        <ele>140.24514534654</ele>
        <time>2015-08-08T12:01:14Z</time>
      </trkpt>
      <trkpt lat="45.40019" lon="0.57146">
        <ele>140.24514534654</ele>
        <time>2015-08-08T12:01:19Z</time>
      </trkpt>
      <trkpt lat="45.40027" lon="0.57143">
        <ele>141.42482458261</ele>
        <time>2015-08-08T12:01:24Z</time>
      </trkpt>
      <trkpt lat="45.40035" lon="0.5714">
        <ele>141.42482458261</ele>
        <time>2015-08-08T12:01:29Z</time>
      </trkpt>
      <trkpt lat="45.40037" lon="0.57135">
        <ele>142.15008749117</ele>
        <time>2015-08-08T12:01:34Z</time>
      </trkpt>
      <trkpt lat="45.40038" lon="0.57133">
        <ele>142.15008749117</ele>
        <time>2015-08-08T12:01:39Z</time>
      </trkpt>
      <trkpt lat="45.40042" lon="0.57129">
        <ele>142.15008749117</ele>
        <time>2015-08-08T12:01:44Z</time>
      </trkpt>
      <trkpt lat="45.40046" lon="0.57119">
        <ele>142.81338041342</ele>
        <time>2015-08-08T12:01:49Z</time>
      </trkpt>
      <trkpt lat="45.40051" lon="0.57112">
        <ele>142.81338041342</ele>
        <time>2015-08-08T12:01:54Z</time>
      </trkpt>
      <trkpt lat="45.40056" lon="0.57109">
        <ele>143.14441135721</ele>
        <time>2015-08-08T12:01:59Z</time>
      </trkpt>
      <trkpt lat="45.40063" lon="0.57106">
        <ele>143.14441135721</ele>
        <time>2015-08-08T12:02:04Z</time>
      </trkpt>
      <trkpt lat="45.40068" lon="0.57101">
        <ele>143.54218459509</ele>
        <time>2015-08-08T12:02:09Z</time>
      </trkpt>
      <trkpt lat="45.4007" lon="0.57099">
        <ele>143.54218459509</ele>
        <time>2015-08-08T12:02:14Z</time>
      </trkpt>
      <trkpt lat="45.40073" lon="0.57094">
        <ele>143.54218459509</ele>
        <time>2015-08-08T12:02:19Z</time>
      </trkpt>
      <trkpt lat="45.40078" lon="0.57088">
        <ele>143.42508142656</ele>
        <time>2015-08-08T12:02:24Z</time>
      </trkpt>
      <trkpt lat="45.40086" lon="0.57083">
        <ele>143.42508142656</ele>
        <time>2015-08-08T12:02:29Z</time>
      </trkpt>
      <trkpt lat="45.40092" lon="0.57079">
        <ele>142.94739325673</ele>
        <time>2015-08-08T12:02:34Z</time>
      </trkpt>
      <trkpt lat="45.40099" lon="0.57073">
        <ele>142.94739325673</ele>
        <time>2015-08-08T12:02:39Z</time>
      </trkpt>
      <trkpt lat="45.40103" lon="0.57064">
        <ele>142.62778138651</ele>
        <time>2015-08-08T12:02:44Z</time>
      </trkpt>
      <trkpt lat="45.40107" lon="0.57057">
        <ele>142.62778138651</ele>
        <time>2015-08-08T12:02:49Z</time>
      </trkpt>
      <trkpt lat="45.40108" lon="0.57048">
        <ele>141.90876097786</ele>
        <time>2015-08-08T12:02:54Z</time>
      </trkpt>
      <trkpt lat="45.40113" lon="0.57041">
        <ele>141.90876097786</ele>
        <time>2015-08-08T12:02:59Z</time>
      </trkpt>
      <trkpt lat="45.40117" lon="0.57032">
        <ele>140.43343295981</ele>
        <time>2015-08-08T12:03:04Z</time>
      </trkpt>
      <trkpt lat="45.40121" lon="0.57027">
        <ele>140.43343295981</ele>
        <time>2015-08-08T12:03:09Z</time>
      </trkpt>
      <trkpt lat="45.40125" lon="0.57019">
        <ele>138.464073824</ele>
        <time>2015-08-08T12:03:14Z</time>
      </trkpt>
      <trkpt lat="45.40131" lon="0.57012">
        <ele>138.464073824</ele>
        <time>2015-08-08T12:03:19Z</time>
      </trkpt>
      <trkpt lat="45.40136" lon="0.57008">
        <ele>136.37474767002</ele>
        <time>2015-08-08T12:03:24Z</time>
      </trkpt>
      <trkpt lat="45.40143" lon="0.56994">
        <ele>134.02235213144</ele>
        <time>2015-08-08T12:03:29Z</time>
      </trkpt>
      <trkpt lat="45.40151" lon="0.56976">
        <ele>132.64403012147</ele>
        <time>2015-08-08T12:03:34Z</time>
      </trkpt>
      <trkpt lat="45.40164" lon="0.56961">
        <ele>131.55302653196</ele>
        <time>2015-08-08T12:03:39Z</time>
      </trkpt>
      <trkpt lat="45.4017" lon="0.5695">
        <ele>131.2073912363</ele>
        <time>2015-08-08T12:03:44Z</time>
      </trkpt>
      <trkpt lat="45.40178" lon="0.56946">
        <ele>131.2073912363</ele>
        <time>2015-08-08T12:03:49Z</time>
      </trkpt>
      <trkpt lat="45.40185" lon="0.56939">
        <ele>130.63146928109</ele>
        <time>2015-08-08T12:03:54Z</time>
      </trkpt>
      <trkpt lat="45.40195" lon="0.56933">
        <ele>130.44941316661</ele>
        <time>2015-08-08T12:03:59Z</time>
      </trkpt>
      <trkpt lat="45.40199" lon="0.56931">
        <ele>130.44941316661</ele>
        <time>2015-08-08T12:04:04Z</time>
      </trkpt>
      <trkpt lat="45.4021" lon="0.56929">
        <ele>130.27278955123</ele>
        <time>2015-08-08T12:04:09Z</time>
      </trkpt>
      <trkpt lat="45.40221" lon="0.56924">
        <ele>130.36127940685</ele>
        <time>2015-08-08T12:04:14Z</time>
      </trkpt>
      <trkpt lat="45.40227" lon="0.56921">
        <ele>130.36127940685</ele>
        <time>2015-08-08T12:04:19Z</time>
      </trkpt>
      <trkpt lat="45.40234" lon="0.56919">
        <ele>131.22847849532</ele>
        <time>2015-08-08T12:04:24Z</time>
      </trkpt>
      <trkpt lat="45.40241" lon="0.56915">
        <ele>131.22847849532</ele>
        <time>2015-08-08T12:04:29Z</time>
      </trkpt>
      <trkpt lat="45.40245" lon="0.56914">
        <ele>131.90688871581</ele>
        <time>2015-08-08T12:04:34Z</time>
      </trkpt>
      <trkpt lat="45.40246" lon="0.56915">
        <ele>131.90688871581</ele>
        <time>2015-08-08T12:04:39Z</time>
      </trkpt>
      <trkpt lat="45.40257" lon="0.56915">
        <ele>132.8984320055</ele>
        <time>2015-08-08T12:04:44Z</time>
      </trkpt>
      <trkpt lat="45.40262" lon="0.56915">
        <ele>132.8984320055</ele>
        <time>2015-08-08T12:04:49Z</time>
      </trkpt>
      <trkpt lat="45.40271" lon="0.56915">
        <ele>134.14843242049</ele>
        <time>2015-08-08T12:04:54Z</time>
      </trkpt>
      <trkpt lat="45.40278" lon="0.56909">
        <ele>134.14843242049</ele>
        <time>2015-08-08T12:04:59Z</time>
      </trkpt>
      <trkpt lat="45.40283" lon="0.56904">
        <ele>134.53904526285</ele>
        <time>2015-08-08T12:05:04Z</time>
      </trkpt>
      <trkpt lat="45.4029" lon="0.56901">
        <ele>134.53904526285</ele>
        <time>2015-08-08T12:05:09Z</time>
      </trkpt>
      <trkpt lat="45.40298" lon="0.56897">
        <ele>135.12653746465</ele>
        <time>2015-08-08T12:05:14Z</time>
      </trkpt>
      <trkpt lat="45.40311" lon="0.5689">
        <ele>135.70730093687</ele>
        <time>2015-08-08T12:05:19Z</time>
      </trkpt>
      <trkpt lat="45.4033" lon="0.56871">
        <ele>136.00622514408</ele>
        <time>2015-08-08T12:05:24Z</time>
      </trkpt>
      <trkpt lat="45.40355" lon="0.56856">
        <ele>136.17270432988</ele>
        <time>2015-08-08T12:05:29Z</time>
      </trkpt>
      <trkpt lat="45.40376" lon="0.56839">
        <ele>135.95642657242</ele>
        <time>2015-08-08T12:05:34Z</time>
      </trkpt>
      <trkpt lat="45.40404" lon="0.56823">
        <ele>135.93356300969</ele>
        <time>2015-08-08T12:05:39Z</time>
      </trkpt>
      <trkpt lat="45.40425" lon="0.56806">
        <ele>135.67187161404</ele>
        <time>2015-08-08T12:05:44Z</time>
      </trkpt>
      <trkpt lat="45.4045" lon="0.56795">
        <ele>135.52090978823</ele>
        <time>2015-08-08T12:05:49Z</time>
      </trkpt>
      <trkpt lat="45.40462" lon="0.56793">
        <ele>135.40073320602</ele>
        <time>2015-08-08T12:05:54Z</time>
      </trkpt>
      <trkpt lat="45.4047" lon="0.56791">
        <ele>135.40073320602</ele>
        <time>2015-08-08T12:05:59Z</time>
      </trkpt>
      <trkpt lat="45.40476" lon="0.56786">
        <ele>134.96336994636</ele>
        <time>2015-08-08T12:06:04Z</time>
      </trkpt>
      <trkpt lat="45.40476" lon="0.56777">
        <ele>134.96336994636</ele>
        <time>2015-08-08T12:06:09Z</time>
      </trkpt>
      <trkpt lat="45.40475" lon="0.56764">
        <ele>134.16110610575</ele>
        <time>2015-08-08T12:06:14Z</time>
      </trkpt>
      <trkpt lat="45.40473" lon="0.56755">
        <ele>134.16110610575</ele>
        <time>2015-08-08T12:06:19Z</time>
      </trkpt>
      <trkpt lat="45.40471" lon="0.56748">
        <ele>133.12368176005</ele>
        <time>2015-08-08T12:06:24Z</time>
      </trkpt>
      <trkpt lat="45.40467" lon="0.5674">
        <ele>133.12368176005</ele>
        <time>2015-08-08T12:06:29Z</time>
      </trkpt>
      <trkpt lat="45.40466" lon="0.56732">
        <ele>132.30340932444</ele>
        <time>2015-08-08T12:06:34Z</time>
      </trkpt>
      <trkpt lat="45.40472" lon="0.56729">
        <ele>132.30340932444</ele>
        <time>2015-08-08T12:06:39Z</time>
      </trkpt>
      <trkpt lat="45.40477" lon="0.56727">
        <ele>132.29168254759</ele>
        <time>2015-08-08T12:06:44Z</time>
      </trkpt>
      <trkpt lat="45.40483" lon="0.56726">
        <ele>132.29168254759</ele>
        <time>2015-08-08T12:06:49Z</time>
      </trkpt>
      <trkpt lat="45.4049" lon="0.56726">
        <ele>133.05772096478</ele>
        <time>2015-08-08T12:06:54Z</time>
      </trkpt>
      <trkpt lat="45.40497" lon="0.56726">
        <ele>133.05772096478</ele>
        <time>2015-08-08T12:06:59Z</time>
      </trkpt>
      <trkpt lat="45.40503" lon="0.56726">
        <ele>133.93671791125</ele>
        <time>2015-08-08T12:07:04Z</time>
      </trkpt>
      <trkpt lat="45.4051" lon="0.56726">
        <ele>133.93671791125</ele>
        <time>2015-08-08T12:07:09Z</time>
      </trkpt>
      <trkpt lat="45.40518" lon="0.56725">
        <ele>135.19145376176</ele>
        <time>2015-08-08T12:07:14Z</time>
      </trkpt>
      <trkpt lat="45.40525" lon="0.56724">
        <ele>135.19145376176</ele>
        <time>2015-08-08T12:07:19Z</time>
      </trkpt>
      <trkpt lat="45.40532" lon="0.56721">
        <ele>136.6896608236</ele>
        <time>2015-08-08T12:07:24Z</time>
      </trkpt>
      <trkpt lat="45.40539" lon="0.56718">
        <ele>136.6896608236</ele>
        <time>2015-08-08T12:07:29Z</time>
      </trkpt>
      <trkpt lat="45.40547" lon="0.56712">
        <ele>138.3369368099</ele>
        <time>2015-08-08T12:07:34Z</time>
      </trkpt>
      <trkpt lat="45.40553" lon="0.56706">
        <ele>138.3369368099</ele>
        <time>2015-08-08T12:07:39Z</time>
      </trkpt>
      <trkpt lat="45.40558" lon="0.56701">
        <ele>140.24717383345</ele>
        <time>2015-08-08T12:07:44Z</time>
      </trkpt>
      <trkpt lat="45.40559" lon="0.567">
        <ele>140.24717383345</ele>
        <time>2015-08-08T12:07:49Z</time>
      </trkpt>
      <trkpt lat="45.40559" lon="0.567">
        <ele>140.24717383345</ele>
        <time>2015-08-08T12:07:54Z</time>
      </trkpt>
      <trkpt lat="45.40558" lon="0.56699">
        <ele>140.24717383345</ele>
        <time>2015-08-08T12:07:59Z</time>
      </trkpt>
      <trkpt lat="45.40559" lon="0.56699">
        <ele>140.24717383345</ele>
        <time>2015-08-08T12:08:04Z</time>
      </trkpt>
      <trkpt lat="45.40559" lon="0.56699">
        <ele>140.24717383345</ele>
        <time>2015-08-08T12:08:09Z</time>
      </trkpt>
      <trkpt lat="45.4056" lon="0.56699">
        <ele>140.24717383345</ele>
        <time>2015-08-08T12:08:14Z</time>
      </trkpt>
      <trkpt lat="45.4056" lon="0.56697">
        <ele>140.24717383345</ele>
        <time>2015-08-08T12:08:19Z</time>
      </trkpt>
      <trkpt lat="45.4056" lon="0.56697">
        <ele>140.24717383345</ele>
        <time>2015-08-08T12:08:24Z</time>
      </trkpt>
      <trkpt lat="45.4056" lon="0.56696">
        <ele>140.24717383345</ele>
        <time>2015-08-08T12:08:29Z</time>
      </trkpt>
      <trkpt lat="45.4056" lon="0.56696">
        <ele>140.24717383345</ele>
        <time>2015-08-08T12:08:34Z</time>
      </trkpt>
      <trkpt lat="45.4056" lon="0.56696">
        <ele>140.24717383345</ele>
        <time>2015-08-08T12:08:39Z</time>
      </trkpt>
      <trkpt lat="45.4056" lon="0.56696">
        <ele>140.24717383345</ele>
        <time>2015-08-08T12:08:44Z</time>
      </trkpt>
      <trkpt lat="45.4056" lon="0.56696">
        <ele>140.24717383345</ele>
        <time>2015-08-08T12:08:49Z</time>
      </trkpt>
      <trkpt lat="45.4056" lon="0.56696">
        <ele>140.24717383345</ele>
        <time>2015-08-08T12:08:55Z</time>
      </trkpt>
      <trkpt lat="45.4056" lon="0.56696">
        <ele>140.24717383345</ele>
        <time>2015-08-08T12:09:00Z</time>
      </trkpt>
      <trkpt lat="45.4056" lon="0.56694">
        <ele>140.24717383345</ele>
        <time>2015-08-08T12:09:10Z</time>
      </trkpt>
      <trkpt lat="45.40567" lon="0.56692">
        <ele>142.8710631142</ele>
        <time>2015-08-08T12:09:15Z</time>
      </trkpt>
      <trkpt lat="45.40579" lon="0.56685">
        <ele>145.24077031027</ele>
        <time>2015-08-08T12:09:24Z</time>
      </trkpt>
      <trkpt lat="45.40584" lon="0.56682">
        <ele>145.24077031027</ele>
        <time>2015-08-08T12:09:29Z</time>
      </trkpt>
      <trkpt lat="45.40589" lon="0.56677">
        <ele>147.15206992577</ele>
        <time>2015-08-08T12:09:34Z</time>
      </trkpt>
      <trkpt lat="45.40593" lon="0.56673">
        <ele>147.15206992577</ele>
        <time>2015-08-08T12:09:39Z</time>
      </trkpt>
      <trkpt lat="45.40598" lon="0.5667">
        <ele>148.43151421865</ele>
        <time>2015-08-08T12:09:44Z</time>
      </trkpt>
      <trkpt lat="45.40603" lon="0.56667">
        <ele>148.43151421865</ele>
        <time>2015-08-08T12:09:49Z</time>
      </trkpt>
      <trkpt lat="45.40609" lon="0.56665">
        <ele>149.46787994876</ele>
        <time>2015-08-08T12:09:54Z</time>
      </trkpt>
      <trkpt lat="45.40616" lon="0.56665">
        <ele>149.46787994876</ele>
        <time>2015-08-08T12:09:59Z</time>
      </trkpt>
      <trkpt lat="45.40622" lon="0.56663">
        <ele>150.6221607137</ele>
        <time>2015-08-08T12:10:04Z</time>
      </trkpt>
      <trkpt lat="45.4063" lon="0.56662">
        <ele>150.6221607137</ele>
        <time>2015-08-08T12:10:09Z</time>
      </trkpt>
      <trkpt lat="45.40636" lon="0.5666">
        <ele>151.43598629243</ele>
        <time>2015-08-08T12:10:14Z</time>
      </trkpt>
      <trkpt lat="45.40642" lon="0.5666">
        <ele>151.43598629243</ele>
        <time>2015-08-08T12:10:19Z</time>
      </trkpt>
      <trkpt lat="45.40646" lon="0.56657">
        <ele>151.62982047413</ele>
        <time>2015-08-08T12:10:24Z</time>
      </trkpt>
      <trkpt lat="45.40651" lon="0.56656">
        <ele>151.62982047413</ele>
        <time>2015-08-08T12:10:29Z</time>
      </trkpt>
      <trkpt lat="45.40655" lon="0.56652">
        <ele>151.01854874141</ele>
        <time>2015-08-08T12:10:34Z</time>
      </trkpt>
      <trkpt lat="45.40663" lon="0.56651">
        <ele>151.01854874141</ele>
        <time>2015-08-08T12:10:39Z</time>
      </trkpt>
      <trkpt lat="45.40669" lon="0.56649">
        <ele>150.42736617772</ele>
        <time>2015-08-08T12:10:44Z</time>
      </trkpt>
      <trkpt lat="45.40676" lon="0.56649">
        <ele>150.42736617772</ele>
        <time>2015-08-08T12:10:49Z</time>
      </trkpt>
      <trkpt lat="45.40683" lon="0.56648">
        <ele>149.91472440111</ele>
        <time>2015-08-08T12:10:54Z</time>
      </trkpt>
      <trkpt lat="45.40694" lon="0.56648">
        <ele>149.64991476261</ele>
        <time>2015-08-08T12:10:59Z</time>
      </trkpt>
      <trkpt lat="45.40702" lon="0.56647">
        <ele>149.64991476261</ele>
        <time>2015-08-08T12:11:04Z</time>
      </trkpt>
      <trkpt lat="45.4071" lon="0.56646">
        <ele>149.45769580428</ele>
        <time>2015-08-08T12:11:09Z</time>
      </trkpt>
      <trkpt lat="45.40718" lon="0.56645">
        <ele>149.45769580428</ele>
        <time>2015-08-08T12:11:14Z</time>
      </trkpt>
      <trkpt lat="45.40727" lon="0.56647">
        <ele>149.75198589389</ele>
        <time>2015-08-08T12:11:19Z</time>
      </trkpt>
      <trkpt lat="45.40735" lon="0.56652">
        <ele>150.19441590281</ele>
        <time>2015-08-08T12:11:24Z</time>
      </trkpt>
      <trkpt lat="45.40744" lon="0.5665">
        <ele>150.19441590281</ele>
        <time>2015-08-08T12:11:29Z</time>
      </trkpt>
      <trkpt lat="45.40751" lon="0.56653">
        <ele>150.38462544089</ele>
        <time>2015-08-08T12:11:34Z</time>
      </trkpt>
      <trkpt lat="45.40757" lon="0.56653">
        <ele>150.38462544089</ele>
        <time>2015-08-08T12:11:39Z</time>
      </trkpt>
      <trkpt lat="45.40764" lon="0.56653">
        <ele>150.12533571514</ele>
        <time>2015-08-08T12:11:44Z</time>
      </trkpt>
      <trkpt lat="45.4077" lon="0.56656">
        <ele>150.12533571514</ele>
        <time>2015-08-08T12:11:49Z</time>
      </trkpt>
      <trkpt lat="45.40775" lon="0.56658">
        <ele>150.07089227389</ele>
        <time>2015-08-08T12:11:54Z</time>
      </trkpt>
      <trkpt lat="45.40781" lon="0.56661">
        <ele>150.07089227389</ele>
        <time>2015-08-08T12:11:59Z</time>
      </trkpt>
      <trkpt lat="45.40785" lon="0.56661">
        <ele>149.81824174004</ele>
        <time>2015-08-08T12:12:04Z</time>
      </trkpt>
      <trkpt lat="45.40792" lon="0.56668">
        <ele>149.81824174004</ele>
        <time>2015-08-08T12:12:09Z</time>
      </trkpt>
      <trkpt lat="45.408" lon="0.56675">
        <ele>150.16181239266</ele>
        <time>2015-08-08T12:12:14Z</time>
      </trkpt>
      <trkpt lat="45.4081" lon="0.56685">
        <ele>149.96256857615</ele>
        <time>2015-08-08T12:12:26Z</time>
      </trkpt>
      <trkpt lat="45.40811" lon="0.56693">
        <ele>149.96256857615</ele>
        <time>2015-08-08T12:12:29Z</time>
      </trkpt>
      <trkpt lat="45.40812" lon="0.56701">
        <ele>149.3627999643</ele>
        <time>2015-08-08T12:12:34Z</time>
      </trkpt>
      <trkpt lat="45.40817" lon="0.56709">
        <ele>149.3627999643</ele>
        <time>2015-08-08T12:12:39Z</time>
      </trkpt>
      <trkpt lat="45.40825" lon="0.56716">
        <ele>149.1439698103</ele>
        <time>2015-08-08T12:12:44Z</time>
      </trkpt>
      <trkpt lat="45.40833" lon="0.56723">
        <ele>148.8473524694</ele>
        <time>2015-08-08T12:12:49Z</time>
      </trkpt>
      <trkpt lat="45.40839" lon="0.5673">
        <ele>148.8473524694</ele>
        <time>2015-08-08T12:12:54Z</time>
      </trkpt>
      <trkpt lat="45.40843" lon="0.56736">
        <ele>148.91279743065</ele>
        <time>2015-08-08T12:12:59Z</time>
      </trkpt>
      <trkpt lat="45.40846" lon="0.56743">
        <ele>148.91279743065</ele>
        <time>2015-08-08T12:13:04Z</time>
      </trkpt>
      <trkpt lat="45.4085" lon="0.5675">
        <ele>148.70921474314</ele>
        <time>2015-08-08T12:13:09Z</time>
      </trkpt>
      <trkpt lat="45.40854" lon="0.56759">
        <ele>148.70921474314</ele>
        <time>2015-08-08T12:13:14Z</time>
      </trkpt>
      <trkpt lat="45.40859" lon="0.56765">
        <ele>149.00725888429</ele>
        <time>2015-08-08T12:13:19Z</time>
      </trkpt>
      <trkpt lat="45.40866" lon="0.56771">
        <ele>149.00725888429</ele>
        <time>2015-08-08T12:13:24Z</time>
      </trkpt>
      <trkpt lat="45.40872" lon="0.56769">
        <ele>149.19372613164</ele>
        <time>2015-08-08T12:13:29Z</time>
      </trkpt>
      <trkpt lat="45.4088" lon="0.56769">
        <ele>149.19372613164</ele>
        <time>2015-08-08T12:13:34Z</time>
      </trkpt>
      <trkpt lat="45.40887" lon="0.56769">
        <ele>149.52218813844</ele>
        <time>2015-08-08T12:13:39Z</time>
      </trkpt>
      <trkpt lat="45.40895" lon="0.56769">
        <ele>149.52218813844</ele>
        <time>2015-08-08T12:13:44Z</time>
      </trkpt>
      <trkpt lat="45.40902" lon="0.56768">
        <ele>149.73719621529</ele>
        <time>2015-08-08T12:13:49Z</time>
      </trkpt>
      <trkpt lat="45.40909" lon="0.56768">
        <ele>149.73719621529</ele>
        <time>2015-08-08T12:13:54Z</time>
      </trkpt>
      <trkpt lat="45.40916" lon="0.56768">
        <ele>149.89059116185</ele>
        <time>2015-08-08T12:13:59Z</time>
      </trkpt>
      <trkpt lat="45.40922" lon="0.56768">
        <ele>149.89059116185</ele>
        <time>2015-08-08T12:14:04Z</time>
      </trkpt>
      <trkpt lat="45.40929" lon="0.56769">
        <ele>149.98732915965</ele>
        <time>2015-08-08T12:14:09Z</time>
      </trkpt>
      <trkpt lat="45.40936" lon="0.5677">
        <ele>149.98732915965</ele>
        <time>2015-08-08T12:14:14Z</time>
      </trkpt>
      <trkpt lat="45.40942" lon="0.56771">
        <ele>150.16184561819</ele>
        <time>2015-08-08T12:14:19Z</time>
      </trkpt>
      <trkpt lat="45.40948" lon="0.56775">
        <ele>150.16184561819</ele>
        <time>2015-08-08T12:14:24Z</time>
      </trkpt>
      <trkpt lat="45.40954" lon="0.56778">
        <ele>150.58170027662</ele>
        <time>2015-08-08T12:14:29Z</time>
      </trkpt>
      <trkpt lat="45.40954" lon="0.56781">
        <ele>150.58170027662</ele>
        <time>2015-08-08T12:14:35Z</time>
      </trkpt>
      <trkpt lat="45.40951" lon="0.56796">
        <ele>149.83062746339</ele>
        <time>2015-08-08T12:14:45Z</time>
      </trkpt>
      <trkpt lat="45.40951" lon="0.56801">
        <ele>149.83062746339</ele>
        <time>2015-08-08T12:14:49Z</time>
      </trkpt>
      <trkpt lat="45.40959" lon="0.56808">
        <ele>149.40983389527</ele>
        <time>2015-08-08T12:14:59Z</time>
      </trkpt>
      <trkpt lat="45.40965" lon="0.56813">
        <ele>149.40983389527</ele>
        <time>2015-08-08T12:15:05Z</time>
      </trkpt>
      <trkpt lat="45.40973" lon="0.56818">
        <ele>148.72056644707</ele>
        <time>2015-08-08T12:15:15Z</time>
      </trkpt>
      <trkpt lat="45.40972" lon="0.56817">
        <ele>148.72056644707</ele>
        <time>2015-08-08T12:15:19Z</time>
      </trkpt>
      <trkpt lat="45.40976" lon="0.56819">
        <ele>148.72056644707</ele>
        <time>2015-08-08T12:15:24Z</time>
      </trkpt>
      <trkpt lat="45.40984" lon="0.56815">
        <ele>148.01580562979</ele>
        <time>2015-08-08T12:15:29Z</time>
      </trkpt>
      <trkpt lat="45.40991" lon="0.56815">
        <ele>148.01580562979</ele>
        <time>2015-08-08T12:15:34Z</time>
      </trkpt>
      <trkpt lat="45.40997" lon="0.56815">
        <ele>147.61642703309</ele>
        <time>2015-08-08T12:15:39Z</time>
      </trkpt>
      <trkpt lat="45.41003" lon="0.56817">
        <ele>147.61642703309</ele>
        <time>2015-08-08T12:15:44Z</time>
      </trkpt>
      <trkpt lat="45.41012" lon="0.56821">
        <ele>147.60267645651</ele>
        <time>2015-08-08T12:15:49Z</time>
      </trkpt>
      <trkpt lat="45.41018" lon="0.56825">
        <ele>147.60267645651</ele>
        <time>2015-08-08T12:15:54Z</time>
      </trkpt>
      <trkpt lat="45.41021" lon="0.5683">
        <ele>147.87485257144</ele>
        <time>2015-08-08T12:15:59Z</time>
      </trkpt>
      <trkpt lat="45.41029" lon="0.56836">
        <ele>147.87485257144</ele>
        <time>2015-08-08T12:16:04Z</time>
      </trkpt>
      <trkpt lat="45.4104" lon="0.56843">
        <ele>148.44061708906</ele>
        <time>2015-08-08T12:16:09Z</time>
      </trkpt>
      <trkpt lat="45.41046" lon="0.56849">
        <ele>148.44061708906</ele>
        <time>2015-08-08T12:16:14Z</time>
      </trkpt>
      <trkpt lat="45.41054" lon="0.56852">
        <ele>149.24856727098</ele>
        <time>2015-08-08T12:16:19Z</time>
      </trkpt>
      <trkpt lat="45.41053" lon="0.56857">
        <ele>149.24856727098</ele>
        <time>2015-08-08T12:16:24Z</time>
      </trkpt>
      <trkpt lat="45.41057" lon="0.56861">
        <ele>149.24856727098</ele>
        <time>2015-08-08T12:16:29Z</time>
      </trkpt>
      <trkpt lat="45.41068" lon="0.56865">
        <ele>149.91891251312</ele>
        <time>2015-08-08T12:16:39Z</time>
      </trkpt>
      <trkpt lat="45.41072" lon="0.56868">
        <ele>149.91891251312</ele>
        <time>2015-08-08T12:16:44Z</time>
      </trkpt>
      <trkpt lat="45.41079" lon="0.56874">
        <ele>151.22419260776</ele>
        <time>2015-08-08T12:16:54Z</time>
      </trkpt>
      <trkpt lat="45.41082" lon="0.56874">
        <ele>151.22419260776</ele>
        <time>2015-08-08T12:17:00Z</time>
      </trkpt>
      <trkpt lat="45.41079" lon="0.56876">
        <ele>151.22419260776</ele>
        <time>2015-08-08T12:17:10Z</time>
      </trkpt>
      <trkpt lat="45.41079" lon="0.56876">
        <ele>151.22419260776</ele>
        <time>2015-08-08T12:17:15Z</time>
      </trkpt>
      <trkpt lat="45.41079" lon="0.56876">
        <ele>151.22419260776</ele>
        <time>2015-08-08T12:17:25Z</time>
      </trkpt>
      <trkpt lat="45.41079" lon="0.56876">
        <ele>151.22419260776</ele>
        <time>2015-08-08T12:17:29Z</time>
      </trkpt>
      <trkpt lat="45.41079" lon="0.56876">
        <ele>151.22419260776</ele>
        <time>2015-08-08T12:17:40Z</time>
      </trkpt>
      <trkpt lat="45.41079" lon="0.56876">
        <ele>151.22419260776</ele>
        <time>2015-08-08T12:17:44Z</time>
      </trkpt>
      <trkpt lat="45.41079" lon="0.56876">
        <ele>151.22419260776</ele>
        <time>2015-08-08T12:17:55Z</time>
      </trkpt>
      <trkpt lat="45.41079" lon="0.56876">
        <ele>151.22419260776</ele>
        <time>2015-08-08T12:18:00Z</time>
      </trkpt>
      <trkpt lat="45.41079" lon="0.56876">
        <ele>151.22419260776</ele>
        <time>2015-08-08T12:18:10Z</time>
      </trkpt>
      <trkpt lat="45.41079" lon="0.56876">
        <ele>151.22419260776</ele>
        <time>2015-08-08T12:18:14Z</time>
      </trkpt>
      <trkpt lat="45.41079" lon="0.56876">
        <ele>151.22419260776</ele>
        <time>2015-08-08T12:18:30Z</time>
      </trkpt>
      <trkpt lat="45.41079" lon="0.56876">
        <ele>151.22419260776</ele>
        <time>2015-08-08T12:18:35Z</time>
      </trkpt>
      <trkpt lat="45.41079" lon="0.56876">
        <ele>151.22419260776</ele>
        <time>2015-08-08T12:18:45Z</time>
      </trkpt>
      <trkpt lat="45.41079" lon="0.56876">
        <ele>151.22419260776</ele>
        <time>2015-08-08T12:18:50Z</time>
      </trkpt>
      <trkpt lat="45.41079" lon="0.56876">
        <ele>151.22419260776</ele>
        <time>2015-08-08T12:18:59Z</time>
      </trkpt>
      <trkpt lat="45.41079" lon="0.56876">
        <ele>151.22419260776</ele>
        <time>2015-08-08T12:19:04Z</time>
      </trkpt>
      <trkpt lat="45.41079" lon="0.56876">
        <ele>151.22419260776</ele>
        <time>2015-08-08T12:19:15Z</time>
      </trkpt>
      <trkpt lat="45.41079" lon="0.56876">
        <ele>151.22419260776</ele>
        <time>2015-08-08T12:19:20Z</time>
      </trkpt>
      <trkpt lat="45.41079" lon="0.56876">
        <ele>151.22419260776</ele>
        <time>2015-08-08T12:19:30Z</time>
      </trkpt>
      <trkpt lat="45.41079" lon="0.56876">
        <ele>151.22419260776</ele>
        <time>2015-08-08T12:19:35Z</time>
      </trkpt>
      <trkpt lat="45.41079" lon="0.56876">
        <ele>151.22419260776</ele>
        <time>2015-08-08T12:19:49Z</time>
      </trkpt>
      <trkpt lat="45.41079" lon="0.56876">
        <ele>151.22419260776</ele>
        <time>2015-08-08T12:19:55Z</time>
      </trkpt>
      <trkpt lat="45.41079" lon="0.56876">
        <ele>151.22419260776</ele>
        <time>2015-08-08T12:20:05Z</time>
      </trkpt>
      <trkpt lat="45.4108" lon="0.56876">
        <ele>151.22419260776</ele>
        <time>2015-08-08T12:20:09Z</time>
      </trkpt>
      <trkpt lat="45.4108" lon="0.56876">
        <ele>151.22419260776</ele>
        <time>2015-08-08T12:20:20Z</time>
      </trkpt>
      <trkpt lat="45.4108" lon="0.56876">
        <ele>151.22419260776</ele>
        <time>2015-08-08T12:20:24Z</time>
      </trkpt>
      <trkpt lat="45.4108" lon="0.56876">
        <ele>151.22419260776</ele>
        <time>2015-08-08T12:20:35Z</time>
      </trkpt>
      <trkpt lat="45.4108" lon="0.56876">
        <ele>151.22419260776</ele>
        <time>2015-08-08T12:20:39Z</time>
      </trkpt>
      <trkpt lat="45.4108" lon="0.56876">
        <ele>151.22419260776</ele>
        <time>2015-08-08T12:20:50Z</time>
      </trkpt>
      <trkpt lat="45.4108" lon="0.56876">
        <ele>151.22419260776</ele>
        <time>2015-08-08T12:20:54Z</time>
      </trkpt>
      <trkpt lat="45.4108" lon="0.56876">
        <ele>151.22419260776</ele>
        <time>2015-08-08T12:21:05Z</time>
      </trkpt>
      <trkpt lat="45.4108" lon="0.56876">
        <ele>151.22419260776</ele>
        <time>2015-08-08T12:21:09Z</time>
      </trkpt>
      <trkpt lat="45.4108" lon="0.56876">
        <ele>151.22419260776</ele>
        <time>2015-08-08T12:21:20Z</time>
      </trkpt>
      <trkpt lat="45.4108" lon="0.56876">
        <ele>151.22419260776</ele>
        <time>2015-08-08T12:21:25Z</time>
      </trkpt>
      <trkpt lat="45.4108" lon="0.56876">
        <ele>151.22419260776</ele>
        <time>2015-08-08T12:21:29Z</time>
      </trkpt>
      <trkpt lat="45.4108" lon="0.56876">
        <ele>151.22419260776</ele>
        <time>2015-08-08T12:21:40Z</time>
      </trkpt>
      <trkpt lat="45.4108" lon="0.56876">
        <ele>151.22419260776</ele>
        <time>2015-08-08T12:21:45Z</time>
      </trkpt>
      <trkpt lat="45.4108" lon="0.56876">
        <ele>151.22419260776</ele>
        <time>2015-08-08T12:21:55Z</time>
      </trkpt>
      <trkpt lat="45.4108" lon="0.56876">
        <ele>151.22419260776</ele>
        <time>2015-08-08T12:22:00Z</time>
      </trkpt>
      <trkpt lat="45.4108" lon="0.56876">
        <ele>151.22419260776</ele>
        <time>2015-08-08T12:22:10Z</time>
      </trkpt>
      <trkpt lat="45.4108" lon="0.56876">
        <ele>151.22419260776</ele>
        <time>2015-08-08T12:22:15Z</time>
      </trkpt>
      <trkpt lat="45.4108" lon="0.56876">
        <ele>151.22419260776</ele>
        <time>2015-08-08T12:22:24Z</time>
      </trkpt>
      <trkpt lat="45.4108" lon="0.56876">
        <ele>151.22419260776</ele>
        <time>2015-08-08T12:22:30Z</time>
      </trkpt>
      <trkpt lat="45.4108" lon="0.56876">
        <ele>151.22419260776</ele>
        <time>2015-08-08T12:22:39Z</time>
      </trkpt>
      <trkpt lat="45.4108" lon="0.56876">
        <ele>151.22419260776</ele>
        <time>2015-08-08T12:22:45Z</time>
      </trkpt>
      <trkpt lat="45.4108" lon="0.56876">
        <ele>151.22419260776</ele>
        <time>2015-08-08T12:22:55Z</time>
      </trkpt>
      <trkpt lat="45.4108" lon="0.56876">
        <ele>151.22419260776</ele>
        <time>2015-08-08T12:23:00Z</time>
      </trkpt>
      <trkpt lat="45.4108" lon="0.56876">
        <ele>151.22419260776</ele>
        <time>2015-08-08T12:23:10Z</time>
      </trkpt>
      <trkpt lat="45.4108" lon="0.56876">
        <ele>151.22419260776</ele>
        <time>2015-08-08T12:23:15Z</time>
      </trkpt>
      <trkpt lat="45.41084" lon="0.56876">
        <ele>152.50934568063</ele>
        <time>2015-08-08T12:23:30Z</time>
      </trkpt>
      <trkpt lat="45.41086" lon="0.56877">
        <ele>152.50934568063</ele>
        <time>2015-08-08T12:23:34Z</time>
      </trkpt>
      <trkpt lat="45.41093" lon="0.5688">
        <ele>153.77274816788</ele>
        <time>2015-08-08T12:23:39Z</time>
      </trkpt>
      <trkpt lat="45.41101" lon="0.56881">
        <ele>153.77274816788</ele>
        <time>2015-08-08T12:23:45Z</time>
      </trkpt>
      <trkpt lat="45.4112" lon="0.56881">
        <ele>155.11383817449</ele>
        <time>2015-08-08T12:23:49Z</time>
      </trkpt>
      <trkpt lat="45.41123" lon="0.56882">
        <ele>155.11383817449</ele>
        <time>2015-08-08T12:23:54Z</time>
      </trkpt>
      <trkpt lat="45.41126" lon="0.56879">
        <ele>155.11383817449</ele>
        <time>2015-08-08T12:23:59Z</time>
      </trkpt>
      <trkpt lat="45.41131" lon="0.56878">
        <ele>155.7022312587</ele>
        <time>2015-08-08T12:24:04Z</time>
      </trkpt>
      <trkpt lat="45.41137" lon="0.56877">
        <ele>155.7022312587</ele>
        <time>2015-08-08T12:24:09Z</time>
      </trkpt>
      <trkpt lat="45.41144" lon="0.56878">
        <ele>156.67294004023</ele>
        <time>2015-08-08T12:24:14Z</time>
      </trkpt>
      <trkpt lat="45.41152" lon="0.5688">
        <ele>156.67294004023</ele>
        <time>2015-08-08T12:24:19Z</time>
      </trkpt>
      <trkpt lat="45.41154" lon="0.5688">
        <ele>157.10222747104</ele>
        <time>2015-08-08T12:24:24Z</time>
      </trkpt>
      <trkpt lat="45.41158" lon="0.5688">
        <ele>157.10222747104</ele>
        <time>2015-08-08T12:24:29Z</time>
      </trkpt>
      <trkpt lat="45.41164" lon="0.56879">
        <ele>157.73539286615</ele>
        <time>2015-08-08T12:24:34Z</time>
      </trkpt>
      <trkpt lat="45.41167" lon="0.56879">
        <ele>157.73539286615</ele>
        <time>2015-08-08T12:24:39Z</time>
      </trkpt>
      <trkpt lat="45.41173" lon="0.56881">
        <ele>158.59953155763</ele>
        <time>2015-08-08T12:24:44Z</time>
      </trkpt>
      <trkpt lat="45.41177" lon="0.56883">
        <ele>158.59953155763</ele>
        <time>2015-08-08T12:24:49Z</time>
      </trkpt>
      <trkpt lat="45.41182" lon="0.56885">
        <ele>159.99294332829</ele>
        <time>2015-08-08T12:24:54Z</time>
      </trkpt>
      <trkpt lat="45.41187" lon="0.56888">
        <ele>159.99294332829</ele>
        <time>2015-08-08T12:24:59Z</time>
      </trkpt>
      <trkpt lat="45.41194" lon="0.56889">
        <ele>161.05208661008</ele>
        <time>2015-08-08T12:25:04Z</time>
      </trkpt>
      <trkpt lat="45.41199" lon="0.5689">
        <ele>161.05208661008</ele>
        <time>2015-08-08T12:25:09Z</time>
      </trkpt>
      <trkpt lat="45.41206" lon="0.56894">
        <ele>162.26042102773</ele>
        <time>2015-08-08T12:25:14Z</time>
      </trkpt>
      <trkpt lat="45.41214" lon="0.56896">
        <ele>162.26042102773</ele>
        <time>2015-08-08T12:25:19Z</time>
      </trkpt>
      <trkpt lat="45.4122" lon="0.56897">
        <ele>163.80611705359</ele>
        <time>2015-08-08T12:25:24Z</time>
      </trkpt>
      <trkpt lat="45.41227" lon="0.56897">
        <ele>163.80611705359</ele>
        <time>2015-08-08T12:25:29Z</time>
      </trkpt>
      <trkpt lat="45.41233" lon="0.569">
        <ele>165.48793677867</ele>
        <time>2015-08-08T12:25:34Z</time>
      </trkpt>
      <trkpt lat="45.41241" lon="0.569">
        <ele>165.48793677867</ele>
        <time>2015-08-08T12:25:39Z</time>
      </trkpt>
      <trkpt lat="45.41248" lon="0.56901">
        <ele>167.37849958685</ele>
        <time>2015-08-08T12:25:44Z</time>
      </trkpt>
      <trkpt lat="45.41254" lon="0.56904">
        <ele>167.37849958685</ele>
        <time>2015-08-08T12:25:49Z</time>
      </trkpt>
      <trkpt lat="45.41259" lon="0.56906">
        <ele>168.80960027637</ele>
        <time>2015-08-08T12:25:54Z</time>
      </trkpt>
      <trkpt lat="45.41264" lon="0.56911">
        <ele>168.80960027637</ele>
        <time>2015-08-08T12:25:59Z</time>
      </trkpt>
      <trkpt lat="45.41269" lon="0.56913">
        <ele>170.05696613235</ele>
        <time>2015-08-08T12:26:04Z</time>
      </trkpt>
      <trkpt lat="45.41285" lon="0.56925">
        <ele>171.00196851061</ele>
        <time>2015-08-08T12:26:20Z</time>
      </trkpt>
      <trkpt lat="45.41289" lon="0.5693">
        <ele>171.00196851061</ele>
        <time>2015-08-08T12:26:25Z</time>
      </trkpt>
      <trkpt lat="45.413" lon="0.56936">
        <ele>171.73737120772</ele>
        <time>2015-08-08T12:26:34Z</time>
      </trkpt>
      <trkpt lat="45.41301" lon="0.56935">
        <ele>171.73737120772</ele>
        <time>2015-08-08T12:26:40Z</time>
      </trkpt>
      <trkpt lat="45.41312" lon="0.56928">
        <ele>172.59477453747</ele>
        <time>2015-08-08T12:26:50Z</time>
      </trkpt>
      <trkpt lat="45.4132" lon="0.5692">
        <ele>173.26147137177</ele>
        <time>2015-08-08T12:26:55Z</time>
      </trkpt>
      <trkpt lat="45.41337" lon="0.56907">
        <ele>173.76537428464</ele>
        <time>2015-08-08T12:27:05Z</time>
      </trkpt>
      <trkpt lat="45.41343" lon="0.56903">
        <ele>173.76537428464</ele>
        <time>2015-08-08T12:27:10Z</time>
      </trkpt>
      <trkpt lat="45.41356" lon="0.56899">
        <ele>174.29138953859</ele>
        <time>2015-08-08T12:27:19Z</time>
      </trkpt>
      <trkpt lat="45.41363" lon="0.56898">
        <ele>174.29138953859</ele>
        <time>2015-08-08T12:27:24Z</time>
      </trkpt>
      <trkpt lat="45.4137" lon="0.56897">
        <ele>174.99642847672</ele>
        <time>2015-08-08T12:27:29Z</time>
      </trkpt>
      <trkpt lat="45.41376" lon="0.56896">
        <ele>174.99642847672</ele>
        <time>2015-08-08T12:27:34Z</time>
      </trkpt>
      <trkpt lat="45.41382" lon="0.56896">
        <ele>175.80926436562</ele>
        <time>2015-08-08T12:27:39Z</time>
      </trkpt>
      <trkpt lat="45.41389" lon="0.56897">
        <ele>175.80926436562</ele>
        <time>2015-08-08T12:27:44Z</time>
      </trkpt>
      <trkpt lat="45.41395" lon="0.56898">
        <ele>176.50513198195</ele>
        <time>2015-08-08T12:27:49Z</time>
      </trkpt>
      <trkpt lat="45.41401" lon="0.56898">
        <ele>176.50513198195</ele>
        <time>2015-08-08T12:27:54Z</time>
      </trkpt>
      <trkpt lat="45.41408" lon="0.56899">
        <ele>177.17878966725</ele>
        <time>2015-08-08T12:27:59Z</time>
      </trkpt>
      <trkpt lat="45.41414" lon="0.56899">
        <ele>177.17878966725</ele>
        <time>2015-08-08T12:28:04Z</time>
      </trkpt>
      <trkpt lat="45.41421" lon="0.56899">
        <ele>177.86050079617</ele>
        <time>2015-08-08T12:28:09Z</time>
      </trkpt>
      <trkpt lat="45.41427" lon="0.569">
        <ele>177.86050079617</ele>
        <time>2015-08-08T12:28:14Z</time>
      </trkpt>
      <trkpt lat="45.41433" lon="0.569">
        <ele>178.50627262957</ele>
        <time>2015-08-08T12:28:19Z</time>
      </trkpt>
      <trkpt lat="45.41439" lon="0.56902">
        <ele>178.50627262957</ele>
        <time>2015-08-08T12:28:24Z</time>
      </trkpt>
      <trkpt lat="45.41446" lon="0.56903">
        <ele>179.14754265045</ele>
        <time>2015-08-08T12:28:29Z</time>
      </trkpt>
      <trkpt lat="45.41454" lon="0.56904">
        <ele>179.14754265045</ele>
        <time>2015-08-08T12:28:34Z</time>
      </trkpt>
      <trkpt lat="45.4146" lon="0.56904">
        <ele>179.79907958836</ele>
        <time>2015-08-08T12:28:39Z</time>
      </trkpt>
      <trkpt lat="45.41467" lon="0.56904">
        <ele>179.79907958836</ele>
        <time>2015-08-08T12:28:44Z</time>
      </trkpt>
      <trkpt lat="45.41473" lon="0.56904">
        <ele>180.43134123032</ele>
        <time>2015-08-08T12:28:49Z</time>
      </trkpt>
      <trkpt lat="45.41479" lon="0.56902">
        <ele>180.43134123032</ele>
        <time>2015-08-08T12:28:54Z</time>
      </trkpt>
      <trkpt lat="45.41485" lon="0.569">
        <ele>180.95939810856</ele>
        <time>2015-08-08T12:28:59Z</time>
      </trkpt>
      <trkpt lat="45.41492" lon="0.56897">
        <ele>180.95939810856</ele>
        <time>2015-08-08T12:29:04Z</time>
      </trkpt>
      <trkpt lat="45.41499" lon="0.56895">
        <ele>181.65074886544</ele>
        <time>2015-08-08T12:29:09Z</time>
      </trkpt>
      <trkpt lat="45.41506" lon="0.56893">
        <ele>181.65074886544</ele>
        <time>2015-08-08T12:29:14Z</time>
      </trkpt>
      <trkpt lat="45.41513" lon="0.56891">
        <ele>182.79604525783</ele>
        <time>2015-08-08T12:29:19Z</time>
      </trkpt>
      <trkpt lat="45.41519" lon="0.56888">
        <ele>182.79604525783</ele>
        <time>2015-08-08T12:29:24Z</time>
      </trkpt>
      <trkpt lat="45.41526" lon="0.56886">
        <ele>183.94278560366</ele>
        <time>2015-08-08T12:29:29Z</time>
      </trkpt>
      <trkpt lat="45.4153" lon="0.56889">
        <ele>183.94278560366</ele>
        <time>2015-08-08T12:29:34Z</time>
      </trkpt>
      <trkpt lat="45.41534" lon="0.56895">
        <ele>185.1617096579</ele>
        <time>2015-08-08T12:29:39Z</time>
      </trkpt>
      <trkpt lat="45.41539" lon="0.56897">
        <ele>185.1617096579</ele>
        <time>2015-08-08T12:29:44Z</time>
      </trkpt>
      <trkpt lat="45.41539" lon="0.56894">
        <ele>185.1617096579</ele>
        <time>2015-08-08T12:29:49Z</time>
      </trkpt>
      <trkpt lat="45.4154" lon="0.56894">
        <ele>185.1617096579</ele>
        <time>2015-08-08T12:29:54Z</time>
      </trkpt>
      <trkpt lat="45.41541" lon="0.56897">
        <ele>185.86968525642</ele>
        <time>2015-08-08T12:29:59Z</time>
      </trkpt>
      <trkpt lat="45.41539" lon="0.56902">
        <ele>185.86968525642</ele>
        <time>2015-08-08T12:30:04Z</time>
      </trkpt>
      <trkpt lat="45.41537" lon="0.56907">
        <ele>185.86968525642</ele>
        <time>2015-08-08T12:30:09Z</time>
      </trkpt>
      <trkpt lat="45.41535" lon="0.56915">
        <ele>185.98903246859</ele>
        <time>2015-08-08T12:30:14Z</time>
      </trkpt>
      <trkpt lat="45.41536" lon="0.56923">
        <ele>185.98903246859</ele>
        <time>2015-08-08T12:30:19Z</time>
      </trkpt>
      <trkpt lat="45.41535" lon="0.56927">
        <ele>185.98903246859</ele>
        <time>2015-08-08T12:30:25Z</time>
      </trkpt>
      <trkpt lat="45.41536" lon="0.56927">
        <ele>185.98903246859</ele>
        <time>2015-08-08T12:30:35Z</time>
      </trkpt>
      <trkpt lat="45.41536" lon="0.56928">
        <ele>186.05471990818</ele>
        <time>2015-08-08T12:30:39Z</time>
      </trkpt>
      <trkpt lat="45.41537" lon="0.56926">
        <ele>186.05471990818</ele>
        <time>2015-08-08T12:30:50Z</time>
      </trkpt>
      <trkpt lat="45.41541" lon="0.5693">
        <ele>186.05471990818</ele>
        <time>2015-08-08T12:30:55Z</time>
      </trkpt>
      <trkpt lat="45.41542" lon="0.56941">
        <ele>185.7267422083</ele>
        <time>2015-08-08T12:31:10Z</time>
      </trkpt>
      <trkpt lat="45.41542" lon="0.56935">
        <ele>185.7267422083</ele>
        <time>2015-08-08T12:31:14Z</time>
      </trkpt>
      <trkpt lat="45.41529" lon="0.56933">
        <ele>185.12351922691</ele>
        <time>2015-08-08T12:31:25Z</time>
      </trkpt>
      <trkpt lat="45.4153" lon="0.56932">
        <ele>185.12351922691</ele>
        <time>2015-08-08T12:31:30Z</time>
      </trkpt>
      <trkpt lat="45.4153" lon="0.56932">
        <ele>185.12351922691</ele>
        <time>2015-08-08T12:31:40Z</time>
      </trkpt>
      <trkpt lat="45.4153" lon="0.56932">
        <ele>185.12351922691</ele>
        <time>2015-08-08T12:31:45Z</time>
      </trkpt>
      <trkpt lat="45.41529" lon="0.56933">
        <ele>185.12351922691</ele>
        <time>2015-08-08T12:31:55Z</time>
      </trkpt>
      <trkpt lat="45.4153" lon="0.56933">
        <ele>185.12351922691</ele>
        <time>2015-08-08T12:32:00Z</time>
      </trkpt>
      <trkpt lat="45.4153" lon="0.56933">
        <ele>185.12351922691</ele>
        <time>2015-08-08T12:32:09Z</time>
      </trkpt>
      <trkpt lat="45.41531" lon="0.5693">
        <ele>185.12351922691</ele>
        <time>2015-08-08T12:32:15Z</time>
      </trkpt>
      <trkpt lat="45.41533" lon="0.56929">
        <ele>184.65817892509</ele>
        <time>2015-08-08T12:32:19Z</time>
      </trkpt>
      <trkpt lat="45.41532" lon="0.5692">
        <ele>184.65817892509</ele>
        <time>2015-08-08T13:14:21Z</time>
      </trkpt>
      <trkpt lat="45.41538" lon="0.56919">
        <ele>184.43929533747</ele>
        <time>2015-08-08T13:14:26Z</time>
      </trkpt>
      <trkpt lat="45.41536" lon="0.56915">
        <ele>184.43929533747</ele>
        <time>2015-08-08T13:14:31Z</time>
      </trkpt>
      <trkpt lat="45.41535" lon="0.56914">
        <ele>184.43929533747</ele>
        <time>2015-08-08T13:14:36Z</time>
      </trkpt>
      <trkpt lat="45.41535" lon="0.56913">
        <ele>184.43929533747</ele>
        <time>2015-08-08T13:14:41Z</time>
      </trkpt>
      <trkpt lat="45.41535" lon="0.56911">
        <ele>184.43929533747</ele>
        <time>2015-08-08T13:14:46Z</time>
      </trkpt>
      <trkpt lat="45.41535" lon="0.56909">
        <ele>184.43929533747</ele>
        <time>2015-08-08T13:14:51Z</time>
      </trkpt>
      <trkpt lat="45.41537" lon="0.56906">
        <ele>182.99594464731</ele>
        <time>2015-08-08T13:14:56Z</time>
      </trkpt>
      <trkpt lat="45.41537" lon="0.56903">
        <ele>182.99594464731</ele>
        <time>2015-08-08T13:15:01Z</time>
      </trkpt>
      <trkpt lat="45.41538" lon="0.56896">
        <ele>182.99594464731</ele>
        <time>2015-08-08T13:15:06Z</time>
      </trkpt>
      <trkpt lat="45.4154" lon="0.5689">
        <ele>182.13910742327</ele>
        <time>2015-08-08T13:15:11Z</time>
      </trkpt>
      <trkpt lat="45.41541" lon="0.56884">
        <ele>182.13910742327</ele>
        <time>2015-08-08T13:15:16Z</time>
      </trkpt>
      <trkpt lat="45.41541" lon="0.56878">
        <ele>182.13910742327</ele>
        <time>2015-08-08T13:15:21Z</time>
      </trkpt>
      <trkpt lat="45.41542" lon="0.56873">
        <ele>181.28249987667</ele>
        <time>2015-08-08T13:15:26Z</time>
      </trkpt>
      <trkpt lat="45.41545" lon="0.56869">
        <ele>181.28249987667</ele>
        <time>2015-08-08T13:15:31Z</time>
      </trkpt>
      <trkpt lat="45.41548" lon="0.56867">
        <ele>181.28249987667</ele>
        <time>2015-08-08T13:15:36Z</time>
      </trkpt>
      <trkpt lat="45.41551" lon="0.56866">
        <ele>180.05578763322</ele>
        <time>2015-08-08T13:15:41Z</time>
      </trkpt>
      <trkpt lat="45.41557" lon="0.56862">
        <ele>180.05578763322</ele>
        <time>2015-08-08T13:15:46Z</time>
      </trkpt>
      <trkpt lat="45.41563" lon="0.56861">
        <ele>178.85178345518</ele>
        <time>2015-08-08T13:15:51Z</time>
      </trkpt>
      <trkpt lat="45.41565" lon="0.5686">
        <ele>178.85178345518</ele>
        <time>2015-08-08T13:15:56Z</time>
      </trkpt>
      <trkpt lat="45.41566" lon="0.56861">
        <ele>178.85178345518</ele>
        <time>2015-08-08T13:16:01Z</time>
      </trkpt>
      <trkpt lat="45.41568" lon="0.5686">
        <ele>178.85178345518</ele>
        <time>2015-08-08T13:16:06Z</time>
      </trkpt>
      <trkpt lat="45.41571" lon="0.56859">
        <ele>176.21850471625</ele>
        <time>2015-08-08T13:16:11Z</time>
      </trkpt>
      <trkpt lat="45.41575" lon="0.56858">
        <ele>176.21850471625</ele>
        <time>2015-08-08T13:16:16Z</time>
      </trkpt>
      <trkpt lat="45.4158" lon="0.56856">
        <ele>174.08587527085</ele>
        <time>2015-08-08T13:16:21Z</time>
      </trkpt>
      <trkpt lat="45.41582" lon="0.56855">
        <ele>174.08587527085</ele>
        <time>2015-08-08T13:16:26Z</time>
      </trkpt>
      <trkpt lat="45.41588" lon="0.56851">
        <ele>174.08587527085</ele>
        <time>2015-08-08T13:16:32Z</time>
      </trkpt>
      <trkpt lat="45.41595" lon="0.56848">
        <ele>173.41910941577</ele>
        <time>2015-08-08T13:16:41Z</time>
      </trkpt>
      <trkpt lat="45.41596" lon="0.56846">
        <ele>173.41910941577</ele>
        <time>2015-08-08T13:16:46Z</time>
      </trkpt>
      <trkpt lat="45.41598" lon="0.56843">
        <ele>173.41910941577</ele>
        <time>2015-08-08T13:16:56Z</time>
      </trkpt>
      <trkpt lat="45.41597" lon="0.56844">
        <ele>173.41910941577</ele>
        <time>2015-08-08T13:17:01Z</time>
      </trkpt>
      <trkpt lat="45.41597" lon="0.56844">
        <ele>173.41910941577</ele>
        <time>2015-08-08T13:17:11Z</time>
      </trkpt>
      <trkpt lat="45.41599" lon="0.56837">
        <ele>173.84011780997</ele>
        <time>2015-08-08T13:17:17Z</time>
      </trkpt>
      <trkpt lat="45.41604" lon="0.56838">
        <ele>173.84011780997</ele>
        <time>2015-08-08T13:17:26Z</time>
      </trkpt>
      <trkpt lat="45.41609" lon="0.56836">
        <ele>174.60632091701</ele>
        <time>2015-08-08T13:17:31Z</time>
      </trkpt>
      <trkpt lat="45.41615" lon="0.56835">
        <ele>174.60632091701</ele>
        <time>2015-08-08T13:17:41Z</time>
      </trkpt>
      <trkpt lat="45.41619" lon="0.56832">
        <ele>175.51858906419</ele>
        <time>2015-08-08T13:17:46Z</time>
      </trkpt>
      <trkpt lat="45.41628" lon="0.56825">
        <ele>176.56484389765</ele>
        <time>2015-08-08T13:17:56Z</time>
      </trkpt>
      <trkpt lat="45.41633" lon="0.56817">
        <ele>176.56484389765</ele>
        <time>2015-08-08T13:18:01Z</time>
      </trkpt>
      <trkpt lat="45.41641" lon="0.5681">
        <ele>177.58931816286</ele>
        <time>2015-08-08T13:18:11Z</time>
      </trkpt>
      <trkpt lat="45.41645" lon="0.56804">
        <ele>177.58931816286</ele>
        <time>2015-08-08T13:18:16Z</time>
      </trkpt>
      <trkpt lat="45.41656" lon="0.56798">
        <ele>178.82236011197</ele>
        <time>2015-08-08T13:18:26Z</time>
      </trkpt>
      <trkpt lat="45.41661" lon="0.56796">
        <ele>178.82236011197</ele>
        <time>2015-08-08T13:18:31Z</time>
      </trkpt>
      <trkpt lat="45.41664" lon="0.56793">
        <ele>178.82236011197</ele>
        <time>2015-08-08T13:18:36Z</time>
      </trkpt>
      <trkpt lat="45.41668" lon="0.56792">
        <ele>179.82824577046</ele>
        <time>2015-08-08T13:18:41Z</time>
      </trkpt>
      <trkpt lat="45.41676" lon="0.56789">
        <ele>179.82824577046</ele>
        <time>2015-08-08T13:18:46Z</time>
      </trkpt>
      <trkpt lat="45.41684" lon="0.56786">
        <ele>180.63617509206</ele>
        <time>2015-08-08T13:18:51Z</time>
      </trkpt>
      <trkpt lat="45.41691" lon="0.56785">
        <ele>180.63617509206</ele>
        <time>2015-08-08T13:18:56Z</time>
      </trkpt>
      <trkpt lat="45.41696" lon="0.56781">
        <ele>181.92221438029</ele>
        <time>2015-08-08T13:19:01Z</time>
      </trkpt>
      <trkpt lat="45.41701" lon="0.56779">
        <ele>181.92221438029</ele>
        <time>2015-08-08T13:19:06Z</time>
      </trkpt>
      <trkpt lat="45.41706" lon="0.56776">
        <ele>183.20173507154</ele>
        <time>2015-08-08T13:19:11Z</time>
      </trkpt>
      <trkpt lat="45.41706" lon="0.56776">
        <ele>183.20173507154</ele>
        <time>2015-08-08T13:19:16Z</time>
      </trkpt>
      <trkpt lat="45.41705" lon="0.56775">
        <ele>183.20173507154</ele>
        <time>2015-08-08T13:19:21Z</time>
      </trkpt>
      <trkpt lat="45.4171" lon="0.56774">
        <ele>183.20173507154</ele>
        <time>2015-08-08T13:19:26Z</time>
      </trkpt>
      <trkpt lat="45.41716" lon="0.56771">
        <ele>184.44362513761</ele>
        <time>2015-08-08T13:19:31Z</time>
      </trkpt>
      <trkpt lat="45.4172" lon="0.5677">
        <ele>184.44362513761</ele>
        <time>2015-08-08T13:19:36Z</time>
      </trkpt>
      <trkpt lat="45.41725" lon="0.56767">
        <ele>185.3741589143</ele>
        <time>2015-08-08T13:19:41Z</time>
      </trkpt>
      <trkpt lat="45.41734" lon="0.56764">
        <ele>185.3741589143</ele>
        <time>2015-08-08T13:19:46Z</time>
      </trkpt>
      <trkpt lat="45.41741" lon="0.56761">
        <ele>186.64848564634</ele>
        <time>2015-08-08T13:19:51Z</time>
      </trkpt>
      <trkpt lat="45.41747" lon="0.56758">
        <ele>186.64848564634</ele>
        <time>2015-08-08T13:19:56Z</time>
      </trkpt>
      <trkpt lat="45.41753" lon="0.56755">
        <ele>187.86388651985</ele>
        <time>2015-08-08T13:20:01Z</time>
      </trkpt>
      <trkpt lat="45.41758" lon="0.56752">
        <ele>187.86388651985</ele>
        <time>2015-08-08T13:20:06Z</time>
      </trkpt>
      <trkpt lat="45.41763" lon="0.56749">
        <ele>189.09414495863</ele>
        <time>2015-08-08T13:20:11Z</time>
      </trkpt>
      <trkpt lat="45.41768" lon="0.56746">
        <ele>189.09414495863</ele>
        <time>2015-08-08T13:20:16Z</time>
      </trkpt>
      <trkpt lat="45.41772" lon="0.56745">
        <ele>190.52288770127</ele>
        <time>2015-08-08T13:20:21Z</time>
      </trkpt>
      <trkpt lat="45.41777" lon="0.56742">
        <ele>190.52288770127</ele>
        <time>2015-08-08T13:20:26Z</time>
      </trkpt>
      <trkpt lat="45.41782" lon="0.56739">
        <ele>191.71445176178</ele>
        <time>2015-08-08T13:20:31Z</time>
      </trkpt>
      <trkpt lat="45.41786" lon="0.56735">
        <ele>191.71445176178</ele>
        <time>2015-08-08T13:20:36Z</time>
      </trkpt>
      <trkpt lat="45.41791" lon="0.56731">
        <ele>192.75585024222</ele>
        <time>2015-08-08T13:20:41Z</time>
      </trkpt>
      <trkpt lat="45.41802" lon="0.56729">
        <ele>194.44871705195</ele>
        <time>2015-08-08T13:20:51Z</time>
      </trkpt>
      <trkpt lat="45.41806" lon="0.56729">
        <ele>194.44871705195</ele>
        <time>2015-08-08T13:20:56Z</time>
      </trkpt>
      <trkpt lat="45.41811" lon="0.56728">
        <ele>196.10731221537</ele>
        <time>2015-08-08T13:21:01Z</time>
      </trkpt>
      <trkpt lat="45.41818" lon="0.56726">
        <ele>196.10731221537</ele>
        <time>2015-08-08T13:21:06Z</time>
      </trkpt>
      <trkpt lat="45.41822" lon="0.56725">
        <ele>198.30694868534</ele>
        <time>2015-08-08T13:21:11Z</time>
      </trkpt>
      <trkpt lat="45.41829" lon="0.56725">
        <ele>198.30694868534</ele>
        <time>2015-08-08T13:21:16Z</time>
      </trkpt>
      <trkpt lat="45.41833" lon="0.56722">
        <ele>199.95075947573</ele>
        <time>2015-08-08T13:21:21Z</time>
      </trkpt>
      <trkpt lat="45.41837" lon="0.56724">
        <ele>199.95075947573</ele>
        <time>2015-08-08T13:21:26Z</time>
      </trkpt>
      <trkpt lat="45.41842" lon="0.56727">
        <ele>201.2346091107</ele>
        <time>2015-08-08T13:21:31Z</time>
      </trkpt>
      <trkpt lat="45.41849" lon="0.56728">
        <ele>201.2346091107</ele>
        <time>2015-08-08T13:21:36Z</time>
      </trkpt>
      <trkpt lat="45.41856" lon="0.5673">
        <ele>202.41310822398</ele>
        <time>2015-08-08T13:21:41Z</time>
      </trkpt>
      <trkpt lat="45.41858" lon="0.56727">
        <ele>202.41310822398</ele>
        <time>2015-08-08T13:21:46Z</time>
      </trkpt>
      <trkpt lat="45.41863" lon="0.56722">
        <ele>202.41310822398</ele>
        <time>2015-08-08T13:21:51Z</time>
      </trkpt>
      <trkpt lat="45.41863" lon="0.56717">
        <ele>203.4198981963</ele>
        <time>2015-08-08T13:21:56Z</time>
      </trkpt>
      <trkpt lat="45.4186" lon="0.56711">
        <ele>203.4198981963</ele>
        <time>2015-08-08T13:22:01Z</time>
      </trkpt>
      <trkpt lat="45.41855" lon="0.56708">
        <ele>204.22287183899</ele>
        <time>2015-08-08T13:22:06Z</time>
      </trkpt>
      <trkpt lat="45.4185" lon="0.56701">
        <ele>204.22287183899</ele>
        <time>2015-08-08T13:22:11Z</time>
      </trkpt>
      <trkpt lat="45.41845" lon="0.56695">
        <ele>204.98026861616</ele>
        <time>2015-08-08T13:22:16Z</time>
      </trkpt>
      <trkpt lat="45.4184" lon="0.56691">
        <ele>204.98026861616</ele>
        <time>2015-08-08T13:22:21Z</time>
      </trkpt>
      <trkpt lat="45.41837" lon="0.56688">
        <ele>204.98026861616</ele>
        <time>2015-08-08T13:22:26Z</time>
      </trkpt>
      <trkpt lat="45.41831" lon="0.56683">
        <ele>205.59391208882</ele>
        <time>2015-08-08T13:22:31Z</time>
      </trkpt>
      <trkpt lat="45.41825" lon="0.56675">
        <ele>205.59391208882</ele>
        <time>2015-08-08T13:22:36Z</time>
      </trkpt>
      <trkpt lat="45.4182" lon="0.56669">
        <ele>206.57857466945</ele>
        <time>2015-08-08T13:22:41Z</time>
      </trkpt>
      <trkpt lat="45.41815" lon="0.5666">
        <ele>206.57857466945</ele>
        <time>2015-08-08T13:22:46Z</time>
      </trkpt>
      <trkpt lat="45.41817" lon="0.56653">
        <ele>207.48792531055</ele>
        <time>2015-08-08T13:22:51Z</time>
      </trkpt>
      <trkpt lat="45.41824" lon="0.56648">
        <ele>207.48792531055</ele>
        <time>2015-08-08T13:22:56Z</time>
      </trkpt>
      <trkpt lat="45.41836" lon="0.56639">
        <ele>208.00956965207</ele>
        <time>2015-08-08T13:23:01Z</time>
      </trkpt>
      <trkpt lat="45.41842" lon="0.56633">
        <ele>208.00956965207</ele>
        <time>2015-08-08T13:23:06Z</time>
      </trkpt>
      <trkpt lat="45.41847" lon="0.56626">
        <ele>208.07137222251</ele>
        <time>2015-08-08T13:23:11Z</time>
      </trkpt>
      <trkpt lat="45.41855" lon="0.56621">
        <ele>208.07137222251</ele>
        <time>2015-08-08T13:23:16Z</time>
      </trkpt>
      <trkpt lat="45.41862" lon="0.56616">
        <ele>208.21310471989</ele>
        <time>2015-08-08T13:23:21Z</time>
      </trkpt>
      <trkpt lat="45.41862" lon="0.56615">
        <ele>208.21310471989</ele>
        <time>2015-08-08T13:23:26Z</time>
      </trkpt>
      <trkpt lat="45.41862" lon="0.56615">
        <ele>208.21310471989</ele>
        <time>2015-08-08T13:23:31Z</time>
      </trkpt>
      <trkpt lat="45.41863" lon="0.56615">
        <ele>208.21310471989</ele>
        <time>2015-08-08T13:23:36Z</time>
      </trkpt>
      <trkpt lat="45.41863" lon="0.56616">
        <ele>208.21310471989</ele>
        <time>2015-08-08T13:23:41Z</time>
      </trkpt>
      <trkpt lat="45.41863" lon="0.56614">
        <ele>208.21310471989</ele>
        <time>2015-08-08T13:23:46Z</time>
      </trkpt>
      <trkpt lat="45.41862" lon="0.56615">
        <ele>208.21310471989</ele>
        <time>2015-08-08T13:23:51Z</time>
      </trkpt>
      <trkpt lat="45.4186" lon="0.56617">
        <ele>208.21310471989</ele>
        <time>2015-08-08T13:23:56Z</time>
      </trkpt>
      <trkpt lat="45.41859" lon="0.56617">
        <ele>208.21310471989</ele>
        <time>2015-08-08T13:24:01Z</time>
      </trkpt>
      <trkpt lat="45.4186" lon="0.56617">
        <ele>208.21310471989</ele>
        <time>2015-08-08T13:24:06Z</time>
      </trkpt>
      <trkpt lat="45.41859" lon="0.56615">
        <ele>208.60325285712</ele>
        <time>2015-08-08T13:24:11Z</time>
      </trkpt>
      <trkpt lat="45.41861" lon="0.56608">
        <ele>208.60325285712</ele>
        <time>2015-08-08T13:24:16Z</time>
      </trkpt>
      <trkpt lat="45.41862" lon="0.56606">
        <ele>208.60325285712</ele>
        <time>2015-08-08T13:24:26Z</time>
      </trkpt>
      <trkpt lat="45.41863" lon="0.56606">
        <ele>208.60325285712</ele>
        <time>2015-08-08T13:24:31Z</time>
      </trkpt>
      <trkpt lat="45.41862" lon="0.56607">
        <ele>208.60325285712</ele>
        <time>2015-08-08T13:24:41Z</time>
      </trkpt>
      <trkpt lat="45.41862" lon="0.56607">
        <ele>209.29638991667</ele>
        <time>2015-08-08T13:24:46Z</time>
      </trkpt>
      <trkpt lat="45.41867" lon="0.56607">
        <ele>209.29638991667</ele>
        <time>2015-08-08T13:24:56Z</time>
      </trkpt>
      <trkpt lat="45.41873" lon="0.56603">
        <ele>209.50641849745</ele>
        <time>2015-08-08T13:25:01Z</time>
      </trkpt>
      <trkpt lat="45.41882" lon="0.56592">
        <ele>209.097225194</ele>
        <time>2015-08-08T13:25:11Z</time>
      </trkpt>
      <trkpt lat="45.41889" lon="0.56587">
        <ele>209.097225194</ele>
        <time>2015-08-08T13:25:17Z</time>
      </trkpt>
      <trkpt lat="45.41894" lon="0.56581">
        <ele>208.90999764765</ele>
        <time>2015-08-08T13:25:21Z</time>
      </trkpt>
      <trkpt lat="45.41896" lon="0.56576">
        <ele>208.90999764765</ele>
        <time>2015-08-08T13:25:26Z</time>
      </trkpt>
      <trkpt lat="45.41907" lon="0.56568">
        <ele>208.54180863046</ele>
        <time>2015-08-08T13:25:31Z</time>
      </trkpt>
      <trkpt lat="45.41914" lon="0.56564">
        <ele>208.54180863046</ele>
        <time>2015-08-08T13:25:36Z</time>
      </trkpt>
      <trkpt lat="45.41917" lon="0.56559">
        <ele>207.80718485114</ele>
        <time>2015-08-08T13:25:41Z</time>
      </trkpt>
      <trkpt lat="45.41923" lon="0.56553">
        <ele>207.80718485114</ele>
        <time>2015-08-08T13:25:46Z</time>
      </trkpt>
      <trkpt lat="45.41927" lon="0.56548">
        <ele>206.9532207873</ele>
        <time>2015-08-08T13:25:51Z</time>
      </trkpt>
      <trkpt lat="45.41932" lon="0.56544">
        <ele>206.9532207873</ele>
        <time>2015-08-08T13:25:56Z</time>
      </trkpt>
      <trkpt lat="45.41937" lon="0.56539">
        <ele>206.80003348821</ele>
        <time>2015-08-08T13:26:01Z</time>
      </trkpt>
      <trkpt lat="45.41943" lon="0.56532">
        <ele>206.80003348821</ele>
        <time>2015-08-08T13:26:06Z</time>
      </trkpt>
      <trkpt lat="45.41947" lon="0.56529">
        <ele>206.8373255103</ele>
        <time>2015-08-08T13:26:11Z</time>
      </trkpt>
      <trkpt lat="45.41951" lon="0.56525">
        <ele>206.8373255103</ele>
        <time>2015-08-08T13:26:16Z</time>
      </trkpt>
      <trkpt lat="45.41955" lon="0.56522">
        <ele>206.8373255103</ele>
        <time>2015-08-08T13:26:21Z</time>
      </trkpt>
      <trkpt lat="45.4196" lon="0.56515">
        <ele>206.17379581879</ele>
        <time>2015-08-08T13:26:26Z</time>
      </trkpt>
      <trkpt lat="45.41964" lon="0.56507">
        <ele>206.17379581879</ele>
        <time>2015-08-08T13:26:31Z</time>
      </trkpt>
      <trkpt lat="45.41967" lon="0.56497">
        <ele>205.8878122999</ele>
        <time>2015-08-08T13:26:36Z</time>
      </trkpt>
      <trkpt lat="45.41968" lon="0.5649">
        <ele>205.8878122999</ele>
        <time>2015-08-08T13:26:41Z</time>
      </trkpt>
      <trkpt lat="45.41969" lon="0.56482">
        <ele>205.17603321575</ele>
        <time>2015-08-08T13:26:46Z</time>
      </trkpt>
      <trkpt lat="45.4197" lon="0.56473">
        <ele>205.17603321575</ele>
        <time>2015-08-08T13:26:51Z</time>
      </trkpt>
      <trkpt lat="45.41971" lon="0.56465">
        <ele>204.69315232491</ele>
        <time>2015-08-08T13:26:56Z</time>
      </trkpt>
      <trkpt lat="45.4197" lon="0.56451">
        <ele>204.20922690702</ele>
        <time>2015-08-08T13:27:01Z</time>
      </trkpt>
      <trkpt lat="45.41969" lon="0.56442">
        <ele>204.20922690702</ele>
        <time>2015-08-08T13:27:06Z</time>
      </trkpt>
      <trkpt lat="45.41968" lon="0.56435">
        <ele>203.69849182634</ele>
        <time>2015-08-08T13:27:11Z</time>
      </trkpt>
      <trkpt lat="45.41966" lon="0.56429">
        <ele>203.69849182634</ele>
        <time>2015-08-08T13:27:16Z</time>
      </trkpt>
      <trkpt lat="45.41964" lon="0.56422">
        <ele>202.80562744807</ele>
        <time>2015-08-08T13:27:21Z</time>
      </trkpt>
      <trkpt lat="45.41962" lon="0.56411">
        <ele>202.80562744807</ele>
        <time>2015-08-08T13:27:26Z</time>
      </trkpt>
      <trkpt lat="45.41961" lon="0.56402">
        <ele>201.98061635134</ele>
        <time>2015-08-08T13:27:31Z</time>
      </trkpt>
      <trkpt lat="45.4196" lon="0.56388">
        <ele>201.79864198736</ele>
        <time>2015-08-08T13:27:36Z</time>
      </trkpt>
      <trkpt lat="45.41962" lon="0.56374">
        <ele>201.00377289458</ele>
        <time>2015-08-08T13:27:41Z</time>
      </trkpt>
      <trkpt lat="45.41963" lon="0.56351">
        <ele>200.17771849826</ele>
        <time>2015-08-08T13:27:46Z</time>
      </trkpt>
      <trkpt lat="45.41959" lon="0.5633">
        <ele>199.2109565562</ele>
        <time>2015-08-08T13:27:51Z</time>
      </trkpt>
      <trkpt lat="45.41955" lon="0.5631">
        <ele>198.20407029475</ele>
        <time>2015-08-08T13:27:56Z</time>
      </trkpt>
      <trkpt lat="45.41948" lon="0.56291">
        <ele>197.29350574205</ele>
        <time>2015-08-08T13:28:01Z</time>
      </trkpt>
      <trkpt lat="45.41939" lon="0.5627">
        <ele>196.56208442788</ele>
        <time>2015-08-08T13:28:06Z</time>
      </trkpt>
      <trkpt lat="45.41938" lon="0.56241">
        <ele>195.48067346243</ele>
        <time>2015-08-08T13:28:11Z</time>
      </trkpt>
      <trkpt lat="45.41924" lon="0.56189">
        <ele>195.15952322476</ele>
        <time>2015-08-08T13:28:21Z</time>
      </trkpt>
      <trkpt lat="45.41917" lon="0.56169">
        <ele>194.85252323503</ele>
        <time>2015-08-08T13:28:26Z</time>
      </trkpt>
      <trkpt lat="45.41908" lon="0.56128">
        <ele>194.73289839239</ele>
        <time>2015-08-08T13:28:36Z</time>
      </trkpt>
      <trkpt lat="45.41904" lon="0.56123">
        <ele>194.73289839239</ele>
        <time>2015-08-08T13:28:41Z</time>
      </trkpt>
      <trkpt lat="45.41899" lon="0.5611">
        <ele>194.23996886357</ele>
        <time>2015-08-08T13:28:51Z</time>
      </trkpt>
      <trkpt lat="45.41899" lon="0.56101">
        <ele>194.23996886357</ele>
        <time>2015-08-08T13:28:56Z</time>
      </trkpt>
      <trkpt lat="45.41905" lon="0.56088">
        <ele>193.12900469538</ele>
        <time>2015-08-08T13:29:06Z</time>
      </trkpt>
      <trkpt lat="45.41906" lon="0.5608">
        <ele>193.12900469538</ele>
        <time>2015-08-08T13:29:11Z</time>
      </trkpt>
      <trkpt lat="45.41903" lon="0.56054">
        <ele>192.11161576803</ele>
        <time>2015-08-08T13:29:26Z</time>
      </trkpt>
      <trkpt lat="45.41902" lon="0.56045">
        <ele>192.11161576803</ele>
        <time>2015-08-08T13:29:31Z</time>
      </trkpt>
      <trkpt lat="45.41904" lon="0.56037">
        <ele>190.9965247951</ele>
        <time>2015-08-08T13:29:36Z</time>
      </trkpt>
      <trkpt lat="45.41904" lon="0.56027">
        <ele>190.9965247951</ele>
        <time>2015-08-08T13:29:41Z</time>
      </trkpt>
      <trkpt lat="45.41906" lon="0.56018">
        <ele>190.34165162273</ele>
        <time>2015-08-08T13:29:46Z</time>
      </trkpt>
      <trkpt lat="45.41909" lon="0.56011">
        <ele>190.34165162273</ele>
        <time>2015-08-08T13:29:51Z</time>
      </trkpt>
      <trkpt lat="45.41912" lon="0.56003">
        <ele>189.68258905094</ele>
        <time>2015-08-08T13:29:56Z</time>
      </trkpt>
      <trkpt lat="45.41915" lon="0.55996">
        <ele>189.68258905094</ele>
        <time>2015-08-08T13:30:01Z</time>
      </trkpt>
      <trkpt lat="45.41918" lon="0.55988">
        <ele>188.80512810008</ele>
        <time>2015-08-08T13:30:06Z</time>
      </trkpt>
      <trkpt lat="45.41924" lon="0.5598">
        <ele>188.80512810008</ele>
        <time>2015-08-08T13:30:11Z</time>
      </trkpt>
      <trkpt lat="45.41926" lon="0.55971">
        <ele>188.60655980668</ele>
        <time>2015-08-08T13:30:16Z</time>
      </trkpt>
      <trkpt lat="45.41926" lon="0.55961">
        <ele>188.60655980668</ele>
        <time>2015-08-08T13:30:21Z</time>
      </trkpt>
      <trkpt lat="45.41926" lon="0.55953">
        <ele>188.7777888511</ele>
        <time>2015-08-08T13:30:26Z</time>
      </trkpt>
      <trkpt lat="45.41928" lon="0.55946">
        <ele>188.7777888511</ele>
        <time>2015-08-08T13:30:31Z</time>
      </trkpt>
      <trkpt lat="45.41929" lon="0.55937">
        <ele>188.68543747918</ele>
        <time>2015-08-08T13:30:36Z</time>
      </trkpt>
      <trkpt lat="45.41931" lon="0.55927">
        <ele>188.68543747918</ele>
        <time>2015-08-08T13:30:41Z</time>
      </trkpt>
      <trkpt lat="45.41935" lon="0.5592">
        <ele>188.85297345368</ele>
        <time>2015-08-08T13:30:46Z</time>
      </trkpt>
      <trkpt lat="45.4194" lon="0.55915">
        <ele>188.85297345368</ele>
        <time>2015-08-08T13:30:51Z</time>
      </trkpt>
      <trkpt lat="45.41946" lon="0.5591">
        <ele>188.92876741958</ele>
        <time>2015-08-08T13:30:56Z</time>
      </trkpt>
      <trkpt lat="45.4195" lon="0.55902">
        <ele>188.92876741958</ele>
        <time>2015-08-08T13:31:01Z</time>
      </trkpt>
      <trkpt lat="45.41953" lon="0.55894">
        <ele>189.12042752313</ele>
        <time>2015-08-08T13:31:06Z</time>
      </trkpt>
      <trkpt lat="45.41957" lon="0.55885">
        <ele>189.12042752313</ele>
        <time>2015-08-08T13:31:11Z</time>
      </trkpt>
      <trkpt lat="45.41959" lon="0.55869">
        <ele>188.82731987397</ele>
        <time>2015-08-08T13:31:21Z</time>
      </trkpt>
      <trkpt lat="45.41962" lon="0.55862">
        <ele>188.82731987397</ele>
        <time>2015-08-08T13:31:26Z</time>
      </trkpt>
      <trkpt lat="45.41963" lon="0.55853">
        <ele>188.48861112634</ele>
        <time>2015-08-08T13:31:31Z</time>
      </trkpt>
      <trkpt lat="45.41965" lon="0.55845">
        <ele>188.48861112634</ele>
        <time>2015-08-08T13:31:36Z</time>
      </trkpt>
      <trkpt lat="45.41966" lon="0.55835">
        <ele>188.30953584619</ele>
        <time>2015-08-08T13:31:41Z</time>
      </trkpt>
      <trkpt lat="45.41967" lon="0.55827">
        <ele>188.30953584619</ele>
        <time>2015-08-08T13:31:46Z</time>
      </trkpt>
      <trkpt lat="45.41968" lon="0.55821">
        <ele>188.03302035486</ele>
        <time>2015-08-08T13:31:51Z</time>
      </trkpt>
      <trkpt lat="45.41969" lon="0.55813">
        <ele>188.03302035486</ele>
        <time>2015-08-08T13:31:56Z</time>
      </trkpt>
      <trkpt lat="45.41969" lon="0.55805">
        <ele>187.56522355343</ele>
        <time>2015-08-08T13:32:01Z</time>
      </trkpt>
      <trkpt lat="45.41972" lon="0.55797">
        <ele>187.56522355343</ele>
        <time>2015-08-08T13:32:06Z</time>
      </trkpt>
      <trkpt lat="45.41974" lon="0.55786">
        <ele>186.92057821199</ele>
        <time>2015-08-08T13:32:11Z</time>
      </trkpt>
      <trkpt lat="45.41977" lon="0.55779">
        <ele>186.92057821199</ele>
        <time>2015-08-08T13:32:16Z</time>
      </trkpt>
      <trkpt lat="45.4198" lon="0.5577">
        <ele>186.70377712866</ele>
        <time>2015-08-08T13:32:21Z</time>
      </trkpt>
      <trkpt lat="45.41985" lon="0.55767">
        <ele>186.70377712866</ele>
        <time>2015-08-08T13:32:26Z</time>
      </trkpt>
      <trkpt lat="45.41986" lon="0.5576">
        <ele>186.00392813609</ele>
        <time>2015-08-08T13:32:31Z</time>
      </trkpt>
      <trkpt lat="45.4199" lon="0.55755">
        <ele>186.00392813609</ele>
        <time>2015-08-08T13:32:36Z</time>
      </trkpt>
      <trkpt lat="45.41991" lon="0.55753">
        <ele>186.00392813609</ele>
        <time>2015-08-08T13:32:41Z</time>
      </trkpt>
      <trkpt lat="45.4199" lon="0.55753">
        <ele>186.00392813609</ele>
        <time>2015-08-08T13:32:46Z</time>
      </trkpt>
      <trkpt lat="45.41991" lon="0.5575">
        <ele>185.93829107462</ele>
        <time>2015-08-08T13:32:51Z</time>
      </trkpt>
      <trkpt lat="45.41997" lon="0.55743">
        <ele>185.93829107462</ele>
        <time>2015-08-08T13:32:56Z</time>
      </trkpt>
      <trkpt lat="45.42002" lon="0.55739">
        <ele>185.56592363447</ele>
        <time>2015-08-08T13:33:01Z</time>
      </trkpt>
      <trkpt lat="45.42006" lon="0.55737">
        <ele>185.56592363447</ele>
        <time>2015-08-08T13:33:06Z</time>
      </trkpt>
      <trkpt lat="45.42011" lon="0.55731">
        <ele>185.24078551722</ele>
        <time>2015-08-08T13:33:11Z</time>
      </trkpt>
      <trkpt lat="45.42017" lon="0.55725">
        <ele>185.24078551722</ele>
        <time>2015-08-08T13:33:16Z</time>
      </trkpt>
      <trkpt lat="45.42022" lon="0.55721">
        <ele>185.10333588963</ele>
        <time>2015-08-08T13:33:21Z</time>
      </trkpt>
      <trkpt lat="45.42027" lon="0.55719">
        <ele>185.10333588963</ele>
        <time>2015-08-08T13:33:26Z</time>
      </trkpt>
      <trkpt lat="45.42031" lon="0.55717">
        <ele>184.07263519817</ele>
        <time>2015-08-08T13:33:31Z</time>
      </trkpt>
      <trkpt lat="45.42033" lon="0.55712">
        <ele>184.07263519817</ele>
        <time>2015-08-08T13:33:36Z</time>
      </trkpt>
      <trkpt lat="45.42042" lon="0.55704">
        <ele>183.32571397635</ele>
        <time>2015-08-08T13:33:41Z</time>
      </trkpt>
      <trkpt lat="45.42044" lon="0.55694">
        <ele>183.32571397635</ele>
        <time>2015-08-08T13:33:46Z</time>
      </trkpt>
      <trkpt lat="45.42053" lon="0.5569">
        <ele>182.42474431133</ele>
        <time>2015-08-08T13:33:51Z</time>
      </trkpt>
      <trkpt lat="45.42056" lon="0.55688">
        <ele>182.42474431133</ele>
        <time>2015-08-08T13:33:56Z</time>
      </trkpt>
      <trkpt lat="45.4206" lon="0.55685">
        <ele>182.42474431133</ele>
        <time>2015-08-08T13:34:01Z</time>
      </trkpt>
      <trkpt lat="45.42061" lon="0.55674">
        <ele>180.21509112415</ele>
        <time>2015-08-08T13:34:06Z</time>
      </trkpt>
      <trkpt lat="45.42061" lon="0.55667">
        <ele>180.21509112415</ele>
        <time>2015-08-08T13:34:11Z</time>
      </trkpt>
      <trkpt lat="45.42063" lon="0.55659">
        <ele>177.95076908096</ele>
        <time>2015-08-08T13:34:16Z</time>
      </trkpt>
      <trkpt lat="45.42068" lon="0.55653">
        <ele>177.95076908096</ele>
        <time>2015-08-08T13:34:21Z</time>
      </trkpt>
      <trkpt lat="45.42069" lon="0.55644">
        <ele>175.79942170497</ele>
        <time>2015-08-08T13:34:26Z</time>
      </trkpt>
      <trkpt lat="45.42075" lon="0.55638">
        <ele>175.79942170497</ele>
        <time>2015-08-08T13:34:31Z</time>
      </trkpt>
      <trkpt lat="45.42079" lon="0.55636">
        <ele>173.84395685675</ele>
        <time>2015-08-08T13:34:36Z</time>
      </trkpt>
      <trkpt lat="45.42082" lon="0.55628">
        <ele>173.84395685675</ele>
        <time>2015-08-08T13:34:41Z</time>
      </trkpt>
      <trkpt lat="45.42084" lon="0.55623">
        <ele>171.44002738256</ele>
        <time>2015-08-08T13:34:46Z</time>
      </trkpt>
      <trkpt lat="45.42087" lon="0.55617">
        <ele>171.44002738256</ele>
        <time>2015-08-08T13:34:51Z</time>
      </trkpt>
      <trkpt lat="45.4209" lon="0.5561">
        <ele>168.81324134705</ele>
        <time>2015-08-08T13:34:56Z</time>
      </trkpt>
      <trkpt lat="45.4209" lon="0.55598">
        <ele>168.81324134705</ele>
        <time>2015-08-08T13:35:01Z</time>
      </trkpt>
      <trkpt lat="45.42092" lon="0.55585">
        <ele>167.06666963121</ele>
        <time>2015-08-08T13:35:06Z</time>
      </trkpt>
      <trkpt lat="45.42095" lon="0.55571">
        <ele>165.87956378784</ele>
        <time>2015-08-08T13:35:12Z</time>
      </trkpt>
      <trkpt lat="45.42102" lon="0.55559">
        <ele>164.6072112241</ele>
        <time>2015-08-08T13:35:21Z</time>
      </trkpt>
      <trkpt lat="45.42105" lon="0.55555">
        <ele>164.6072112241</ele>
        <time>2015-08-08T13:35:26Z</time>
      </trkpt>
      <trkpt lat="45.42106" lon="0.55547">
        <ele>163.3585521022</ele>
        <time>2015-08-08T13:35:31Z</time>
      </trkpt>
      <trkpt lat="45.42106" lon="0.55537">
        <ele>163.3585521022</ele>
        <time>2015-08-08T13:35:36Z</time>
      </trkpt>
      <trkpt lat="45.42107" lon="0.55526">
        <ele>162.07584489743</ele>
        <time>2015-08-08T13:35:41Z</time>
      </trkpt>
      <trkpt lat="45.42107" lon="0.5552">
        <ele>162.07584489743</ele>
        <time>2015-08-08T13:35:46Z</time>
      </trkpt>
      <trkpt lat="45.42108" lon="0.5551">
        <ele>160.57589641494</ele>
        <time>2015-08-08T13:35:51Z</time>
      </trkpt>
      <trkpt lat="45.4211" lon="0.55501">
        <ele>160.57589641494</ele>
        <time>2015-08-08T13:35:56Z</time>
      </trkpt>
      <trkpt lat="45.4211" lon="0.55492">
        <ele>158.97771470869</ele>
        <time>2015-08-08T13:36:01Z</time>
      </trkpt>
      <trkpt lat="45.42113" lon="0.55486">
        <ele>158.97771470869</ele>
        <time>2015-08-08T13:36:06Z</time>
      </trkpt>
      <trkpt lat="45.42116" lon="0.55476">
        <ele>157.39175398343</ele>
        <time>2015-08-08T13:36:11Z</time>
      </trkpt>
      <trkpt lat="45.42121" lon="0.55471">
        <ele>157.39175398343</ele>
        <time>2015-08-08T13:36:16Z</time>
      </trkpt>
      <trkpt lat="45.42127" lon="0.55466">
        <ele>155.51672149583</ele>
        <time>2015-08-08T13:36:21Z</time>
      </trkpt>
      <trkpt lat="45.42131" lon="0.55459">
        <ele>155.51672149583</ele>
        <time>2015-08-08T13:36:26Z</time>
      </trkpt>
      <trkpt lat="45.42135" lon="0.55455">
        <ele>153.69385793126</ele>
        <time>2015-08-08T13:36:31Z</time>
      </trkpt>
      <trkpt lat="45.4214" lon="0.55451">
        <ele>153.69385793126</ele>
        <time>2015-08-08T13:36:36Z</time>
      </trkpt>
      <trkpt lat="45.42144" lon="0.55446">
        <ele>151.80676725379</ele>
        <time>2015-08-08T13:36:41Z</time>
      </trkpt>
      <trkpt lat="45.42145" lon="0.55444">
        <ele>151.80676725379</ele>
        <time>2015-08-08T13:36:46Z</time>
      </trkpt>
      <trkpt lat="45.42146" lon="0.55444">
        <ele>151.80676725379</ele>
        <time>2015-08-08T13:36:51Z</time>
      </trkpt>
      <trkpt lat="45.42145" lon="0.55443">
        <ele>151.80676725379</ele>
        <time>2015-08-08T13:36:56Z</time>
      </trkpt>
      <trkpt lat="45.42148" lon="0.5544">
        <ele>151.80676725379</ele>
        <time>2015-08-08T13:37:01Z</time>
      </trkpt>
      <trkpt lat="45.42148" lon="0.5544">
        <ele>151.80676725379</ele>
        <time>2015-08-08T13:37:06Z</time>
      </trkpt>
      <trkpt lat="45.42146" lon="0.55441">
        <ele>150.64118354254</ele>
        <time>2015-08-08T13:37:11Z</time>
      </trkpt>
      <trkpt lat="45.42146" lon="0.55441">
        <ele>150.64118354254</ele>
        <time>2015-08-08T13:37:16Z</time>
      </trkpt>
      <trkpt lat="45.42146" lon="0.55442">
        <ele>150.64118354254</ele>
        <time>2015-08-08T13:37:21Z</time>
      </trkpt>
      <trkpt lat="45.42147" lon="0.55443">
        <ele>150.64118354254</ele>
        <time>2015-08-08T13:37:26Z</time>
      </trkpt>
      <trkpt lat="45.42146" lon="0.55442">
        <ele>150.64118354254</ele>
        <time>2015-08-08T13:37:31Z</time>
      </trkpt>
      <trkpt lat="45.42146" lon="0.5544">
        <ele>150.64118354254</ele>
        <time>2015-08-08T13:37:36Z</time>
      </trkpt>
      <trkpt lat="45.42146" lon="0.5544">
        <ele>150.64118354254</ele>
        <time>2015-08-08T13:37:41Z</time>
      </trkpt>
      <trkpt lat="45.42146" lon="0.5544">
        <ele>150.64118354254</ele>
        <time>2015-08-08T13:37:46Z</time>
      </trkpt>
      <trkpt lat="45.42146" lon="0.5544">
        <ele>150.64118354254</ele>
        <time>2015-08-08T13:37:51Z</time>
      </trkpt>
      <trkpt lat="45.42148" lon="0.5544">
        <ele>150.64118354254</ele>
        <time>2015-08-08T13:37:56Z</time>
      </trkpt>
      <trkpt lat="45.42153" lon="0.55438">
        <ele>149.53954119245</ele>
        <time>2015-08-08T13:38:01Z</time>
      </trkpt>
      <trkpt lat="45.42158" lon="0.55434">
        <ele>149.53954119245</ele>
        <time>2015-08-08T13:38:06Z</time>
      </trkpt>
      <trkpt lat="45.42163" lon="0.55431">
        <ele>148.4831691028</ele>
        <time>2015-08-08T13:38:11Z</time>
      </trkpt>
      <trkpt lat="45.42168" lon="0.55425">
        <ele>148.4831691028</ele>
        <time>2015-08-08T13:38:16Z</time>
      </trkpt>
      <trkpt lat="45.4217" lon="0.55419">
        <ele>147.58425898334</ele>
        <time>2015-08-08T13:38:21Z</time>
      </trkpt>
      <trkpt lat="45.42172" lon="0.5541">
        <ele>147.58425898334</ele>
        <time>2015-08-08T13:38:26Z</time>
      </trkpt>
      <trkpt lat="45.42175" lon="0.55403">
        <ele>147.01829942456</ele>
        <time>2015-08-08T13:38:31Z</time>
      </trkpt>
      <trkpt lat="45.42178" lon="0.55395">
        <ele>147.01829942456</ele>
        <time>2015-08-08T13:38:36Z</time>
      </trkpt>
      <trkpt lat="45.4218" lon="0.55388">
        <ele>146.81718591291</ele>
        <time>2015-08-08T13:38:41Z</time>
      </trkpt>
      <trkpt lat="45.4218" lon="0.55377">
        <ele>146.81718591291</ele>
        <time>2015-08-08T13:38:46Z</time>
      </trkpt>
      <trkpt lat="45.42182" lon="0.55368">
        <ele>146.89410008477</ele>
        <time>2015-08-08T13:38:51Z</time>
      </trkpt>
      <trkpt lat="45.42183" lon="0.55357">
        <ele>146.89410008477</ele>
        <time>2015-08-08T13:38:56Z</time>
      </trkpt>
      <trkpt lat="45.42185" lon="0.55349">
        <ele>147.72980854267</ele>
        <time>2015-08-08T13:39:01Z</time>
      </trkpt>
      <trkpt lat="45.42188" lon="0.55341">
        <ele>147.72980854267</ele>
        <time>2015-08-08T13:39:06Z</time>
      </trkpt>
      <trkpt lat="45.42192" lon="0.55335">
        <ele>148.93175614405</ele>
        <time>2015-08-08T13:39:11Z</time>
      </trkpt>
      <trkpt lat="45.42197" lon="0.55331">
        <ele>148.93175614405</ele>
        <time>2015-08-08T13:39:16Z</time>
      </trkpt>
      <trkpt lat="45.42201" lon="0.55326">
        <ele>150.26488280648</ele>
        <time>2015-08-08T13:39:21Z</time>
      </trkpt>
      <trkpt lat="45.42205" lon="0.55321">
        <ele>150.26488280648</ele>
        <time>2015-08-08T13:39:26Z</time>
      </trkpt>
      <trkpt lat="45.42211" lon="0.55314">
        <ele>151.87131038507</ele>
        <time>2015-08-08T13:39:31Z</time>
      </trkpt>
      <trkpt lat="45.42215" lon="0.55307">
        <ele>151.87131038507</ele>
        <time>2015-08-08T13:39:36Z</time>
      </trkpt>
      <trkpt lat="45.42219" lon="0.55301">
        <ele>153.42082268745</ele>
        <time>2015-08-08T13:39:41Z</time>
      </trkpt>
      <trkpt lat="45.42224" lon="0.55295">
        <ele>153.42082268745</ele>
        <time>2015-08-08T13:39:46Z</time>
      </trkpt>
      <trkpt lat="45.42228" lon="0.55288">
        <ele>155.03999842895</ele>
        <time>2015-08-08T13:39:51Z</time>
      </trkpt>
      <trkpt lat="45.42234" lon="0.55284">
        <ele>155.03999842895</ele>
        <time>2015-08-08T13:39:56Z</time>
      </trkpt>
      <trkpt lat="45.42238" lon="0.55272">
        <ele>156.7018744223</ele>
        <time>2015-08-08T13:40:01Z</time>
      </trkpt>
      <trkpt lat="45.42243" lon="0.55262">
        <ele>156.7018744223</ele>
        <time>2015-08-08T13:40:06Z</time>
      </trkpt>
      <trkpt lat="45.42246" lon="0.55254">
        <ele>157.94909492444</ele>
        <time>2015-08-08T13:40:11Z</time>
      </trkpt>
      <trkpt lat="45.42249" lon="0.55247">
        <ele>157.94909492444</ele>
        <time>2015-08-08T13:40:16Z</time>
      </trkpt>
      <trkpt lat="45.42253" lon="0.55242">
        <ele>159.36793800315</ele>
        <time>2015-08-08T13:40:21Z</time>
      </trkpt>
      <trkpt lat="45.42256" lon="0.55237">
        <ele>159.36793800315</ele>
        <time>2015-08-08T13:40:26Z</time>
      </trkpt>
      <trkpt lat="45.4226" lon="0.55229">
        <ele>160.55010725332</ele>
        <time>2015-08-08T13:40:31Z</time>
      </trkpt>
      <trkpt lat="45.42263" lon="0.55226">
        <ele>160.55010725332</ele>
        <time>2015-08-08T13:40:36Z</time>
      </trkpt>
      <trkpt lat="45.42269" lon="0.55219">
        <ele>162.41508436827</ele>
        <time>2015-08-08T13:40:41Z</time>
      </trkpt>
      <trkpt lat="45.4227" lon="0.55213">
        <ele>162.41508436827</ele>
        <time>2015-08-08T13:40:46Z</time>
      </trkpt>
      <trkpt lat="45.42273" lon="0.55206">
        <ele>163.70899844587</ele>
        <time>2015-08-08T13:40:51Z</time>
      </trkpt>
      <trkpt lat="45.42277" lon="0.55198">
        <ele>163.70899844587</ele>
        <time>2015-08-08T13:40:56Z</time>
      </trkpt>
      <trkpt lat="45.42283" lon="0.55191">
        <ele>165.15968554562</ele>
        <time>2015-08-08T13:41:01Z</time>
      </trkpt>
      <trkpt lat="45.42287" lon="0.55184">
        <ele>165.15968554562</ele>
        <time>2015-08-08T13:41:06Z</time>
      </trkpt>
      <trkpt lat="45.42291" lon="0.55178">
        <ele>167.00889126231</ele>
        <time>2015-08-08T13:41:11Z</time>
      </trkpt>
      <trkpt lat="45.42296" lon="0.5517">
        <ele>167.00889126231</ele>
        <time>2015-08-08T13:41:16Z</time>
      </trkpt>
      <trkpt lat="45.42302" lon="0.55164">
        <ele>168.93202034614</ele>
        <time>2015-08-08T13:41:21Z</time>
      </trkpt>
      <trkpt lat="45.42306" lon="0.55157">
        <ele>168.93202034614</ele>
        <time>2015-08-08T13:41:26Z</time>
      </trkpt>
      <trkpt lat="45.4231" lon="0.55147">
        <ele>170.41211337401</ele>
        <time>2015-08-08T13:41:31Z</time>
      </trkpt>
      <trkpt lat="45.42312" lon="0.5514">
        <ele>170.41211337401</ele>
        <time>2015-08-08T13:41:36Z</time>
      </trkpt>
      <trkpt lat="45.42314" lon="0.55133">
        <ele>171.36070074998</ele>
        <time>2015-08-08T13:41:41Z</time>
      </trkpt>
      <trkpt lat="45.42316" lon="0.55125">
        <ele>171.36070074998</ele>
        <time>2015-08-08T13:41:46Z</time>
      </trkpt>
      <trkpt lat="45.42318" lon="0.55121">
        <ele>171.36070074998</ele>
        <time>2015-08-08T13:41:51Z</time>
      </trkpt>
      <trkpt lat="45.42318" lon="0.55119">
        <ele>172.89360183902</ele>
        <time>2015-08-08T13:41:56Z</time>
      </trkpt>
      <trkpt lat="45.42319" lon="0.55114">
        <ele>172.89360183902</ele>
        <time>2015-08-08T13:42:01Z</time>
      </trkpt>
      <trkpt lat="45.42321" lon="0.55106">
        <ele>174.25622998209</ele>
        <time>2015-08-08T13:42:06Z</time>
      </trkpt>
      <trkpt lat="45.42322" lon="0.55098">
        <ele>174.25622998209</ele>
        <time>2015-08-08T13:42:11Z</time>
      </trkpt>
      <trkpt lat="45.42325" lon="0.55092">
        <ele>175.88856669671</ele>
        <time>2015-08-08T13:42:16Z</time>
      </trkpt>
      <trkpt lat="45.42327" lon="0.55083">
        <ele>175.88856669671</ele>
        <time>2015-08-08T13:42:21Z</time>
      </trkpt>
      <trkpt lat="45.42331" lon="0.55075">
        <ele>177.75095421987</ele>
        <time>2015-08-08T13:42:26Z</time>
      </trkpt>
      <trkpt lat="45.42333" lon="0.55068">
        <ele>177.75095421987</ele>
        <time>2015-08-08T13:42:31Z</time>
      </trkpt>
      <trkpt lat="45.42336" lon="0.5506">
        <ele>179.41708745106</ele>
        <time>2015-08-08T13:42:36Z</time>
      </trkpt>
      <trkpt lat="45.42336" lon="0.55053">
        <ele>179.41708745106</ele>
        <time>2015-08-08T13:42:41Z</time>
      </trkpt>
      <trkpt lat="45.42339" lon="0.55044">
        <ele>180.53594729153</ele>
        <time>2015-08-08T13:42:46Z</time>
      </trkpt>
      <trkpt lat="45.42343" lon="0.55033">
        <ele>180.53594729153</ele>
        <time>2015-08-08T13:42:51Z</time>
      </trkpt>
      <trkpt lat="45.42344" lon="0.55023">
        <ele>181.17312093985</ele>
        <time>2015-08-08T13:42:56Z</time>
      </trkpt>
      <trkpt lat="45.42344" lon="0.55012">
        <ele>181.17312093985</ele>
        <time>2015-08-08T13:43:01Z</time>
      </trkpt>
      <trkpt lat="45.42344" lon="0.55005">
        <ele>182.34204561591</ele>
        <time>2015-08-08T13:43:06Z</time>
      </trkpt>
      <trkpt lat="45.42336" lon="0.55001">
        <ele>182.34204561591</ele>
        <time>2015-08-08T13:43:11Z</time>
      </trkpt>
      <trkpt lat="45.4233" lon="0.54996">
        <ele>183.89956608995</ele>
        <time>2015-08-08T13:43:16Z</time>
      </trkpt>
      <trkpt lat="45.42318" lon="0.54985">
        <ele>184.99157209353</ele>
        <time>2015-08-08T13:43:21Z</time>
      </trkpt>
      <trkpt lat="45.42304" lon="0.54959">
        <ele>185.96665024524</ele>
        <time>2015-08-08T13:43:26Z</time>
      </trkpt>
      <trkpt lat="45.42285" lon="0.54911">
        <ele>187.4220863089</ele>
        <time>2015-08-08T13:43:31Z</time>
      </trkpt>
      <trkpt lat="45.42281" lon="0.54881">
        <ele>188.72839361043</ele>
        <time>2015-08-08T13:43:36Z</time>
      </trkpt>
      <trkpt lat="45.42278" lon="0.5486">
        <ele>189.87934866202</ele>
        <time>2015-08-08T13:43:41Z</time>
      </trkpt>
      <trkpt lat="45.42274" lon="0.54851">
        <ele>189.87934866202</ele>
        <time>2015-08-08T13:43:46Z</time>
      </trkpt>
      <trkpt lat="45.42273" lon="0.54839">
        <ele>190.30774026257</ele>
        <time>2015-08-08T13:43:51Z</time>
      </trkpt>
      <trkpt lat="45.42273" lon="0.54828">
        <ele>190.30774026257</ele>
        <time>2015-08-08T13:43:56Z</time>
      </trkpt>
      <trkpt lat="45.42273" lon="0.54822">
        <ele>190.97454293393</ele>
        <time>2015-08-08T13:44:01Z</time>
      </trkpt>
      <trkpt lat="45.42271" lon="0.54808">
        <ele>191.81847526845</ele>
        <time>2015-08-08T13:44:06Z</time>
      </trkpt>
      <trkpt lat="45.42267" lon="0.54801">
        <ele>191.81847526845</ele>
        <time>2015-08-08T13:44:11Z</time>
      </trkpt>
      <trkpt lat="45.42266" lon="0.54786">
        <ele>192.76798065755</ele>
        <time>2015-08-08T13:44:16Z</time>
      </trkpt>
      <trkpt lat="45.42265" lon="0.54773">
        <ele>193.78540844108</ele>
        <time>2015-08-08T13:44:21Z</time>
      </trkpt>
      <trkpt lat="45.42262" lon="0.54762">
        <ele>193.78540844108</ele>
        <time>2015-08-08T13:44:26Z</time>
      </trkpt>
      <trkpt lat="45.42262" lon="0.54759">
        <ele>194.04318730209</ele>
        <time>2015-08-08T13:44:31Z</time>
      </trkpt>
      <trkpt lat="45.42262" lon="0.54759">
        <ele>194.04318730209</ele>
        <time>2015-08-08T13:44:36Z</time>
      </trkpt>
      <trkpt lat="45.42256" lon="0.54749">
        <ele>194.04318730209</ele>
        <time>2015-08-08T13:44:41Z</time>
      </trkpt>
      <trkpt lat="45.42252" lon="0.5474">
        <ele>194.44846711511</ele>
        <time>2015-08-08T13:44:46Z</time>
      </trkpt>
      <trkpt lat="45.42249" lon="0.54735">
        <ele>194.44846711511</ele>
        <time>2015-08-08T13:44:51Z</time>
      </trkpt>
      <trkpt lat="45.42249" lon="0.54736">
        <ele>194.44846711511</ele>
        <time>2015-08-08T13:44:56Z</time>
      </trkpt>
      <trkpt lat="45.42249" lon="0.54739">
        <ele>194.44846711511</ele>
        <time>2015-08-08T13:45:01Z</time>
      </trkpt>
      <trkpt lat="45.42253" lon="0.54742">
        <ele>195.43793413601</ele>
        <time>2015-08-08T13:45:06Z</time>
      </trkpt>
      <trkpt lat="45.42259" lon="0.54752">
        <ele>195.43793413601</ele>
        <time>2015-08-08T13:45:11Z</time>
      </trkpt>
      <trkpt lat="45.42264" lon="0.54761">
        <ele>196.39146022125</ele>
        <time>2015-08-08T13:45:16Z</time>
      </trkpt>
      <trkpt lat="45.42266" lon="0.54769">
        <ele>196.39146022125</ele>
        <time>2015-08-08T13:45:21Z</time>
      </trkpt>
      <trkpt lat="45.42266" lon="0.5478">
        <ele>197.21022434441</ele>
        <time>2015-08-08T13:45:26Z</time>
      </trkpt>
      <trkpt lat="45.42267" lon="0.54791">
        <ele>197.21022434441</ele>
        <time>2015-08-08T13:45:31Z</time>
      </trkpt>
      <trkpt lat="45.42269" lon="0.54799">
        <ele>198.03370011002</ele>
        <time>2015-08-08T13:45:36Z</time>
      </trkpt>
      <trkpt lat="45.42268" lon="0.54809">
        <ele>198.03370011002</ele>
        <time>2015-08-08T13:45:41Z</time>
      </trkpt>
      <trkpt lat="45.42269" lon="0.54814">
        <ele>198.22738620457</ele>
        <time>2015-08-08T13:45:46Z</time>
      </trkpt>
      <trkpt lat="45.42268" lon="0.5482">
        <ele>198.22738620457</ele>
        <time>2015-08-08T13:45:51Z</time>
      </trkpt>
      <trkpt lat="45.42268" lon="0.54817">
        <ele>198.22738620457</ele>
        <time>2015-08-08T13:45:56Z</time>
      </trkpt>
      <trkpt lat="45.42268" lon="0.5481">
        <ele>198.89132560141</ele>
        <time>2015-08-08T13:46:01Z</time>
      </trkpt>
      <trkpt lat="45.42268" lon="0.54802">
        <ele>198.89132560141</ele>
        <time>2015-08-08T13:46:06Z</time>
      </trkpt>
      <trkpt lat="45.42266" lon="0.5479">
        <ele>199.34298134058</ele>
        <time>2015-08-08T13:46:11Z</time>
      </trkpt>
      <trkpt lat="45.42268" lon="0.54778">
        <ele>199.34298134058</ele>
        <time>2015-08-08T13:46:16Z</time>
      </trkpt>
      <trkpt lat="45.42269" lon="0.54774">
        <ele>199.84409215191</ele>
        <time>2015-08-08T13:46:21Z</time>
      </trkpt>
      <trkpt lat="45.42269" lon="0.54772">
        <ele>199.84409215191</ele>
        <time>2015-08-08T13:46:26Z</time>
      </trkpt>
      <trkpt lat="45.42267" lon="0.54768">
        <ele>199.84409215191</ele>
        <time>2015-08-08T13:46:31Z</time>
      </trkpt>
      <trkpt lat="45.42261" lon="0.54757">
        <ele>200.30562002921</ele>
        <time>2015-08-08T13:46:36Z</time>
      </trkpt>
      <trkpt lat="45.42258" lon="0.54749">
        <ele>200.30562002921</ele>
        <time>2015-08-08T13:46:41Z</time>
      </trkpt>
      <trkpt lat="45.42253" lon="0.54744">
        <ele>200.29934929845</ele>
        <time>2015-08-08T13:46:46Z</time>
      </trkpt>
      <trkpt lat="45.42248" lon="0.54738">
        <ele>200.29934929845</ele>
        <time>2015-08-08T13:46:51Z</time>
      </trkpt>
      <trkpt lat="45.42245" lon="0.54728">
        <ele>199.94866219126</ele>
        <time>2015-08-08T13:46:56Z</time>
      </trkpt>
      <trkpt lat="45.42247" lon="0.54725">
        <ele>199.94866219126</ele>
        <time>2015-08-08T13:47:01Z</time>
      </trkpt>
      <trkpt lat="45.42249" lon="0.54713">
        <ele>200.03177521898</ele>
        <time>2015-08-08T13:47:06Z</time>
      </trkpt>
      <trkpt lat="45.42252" lon="0.54703">
        <ele>200.03177521898</ele>
        <time>2015-08-08T13:47:11Z</time>
      </trkpt>
      <trkpt lat="45.42251" lon="0.54694">
        <ele>198.81863972529</ele>
        <time>2015-08-08T13:47:16Z</time>
      </trkpt>
      <trkpt lat="45.4225" lon="0.54682">
        <ele>198.81863972529</ele>
        <time>2015-08-08T13:47:21Z</time>
      </trkpt>
      <trkpt lat="45.42248" lon="0.54672">
        <ele>196.770716218</ele>
        <time>2015-08-08T13:47:26Z</time>
      </trkpt>
      <trkpt lat="45.42247" lon="0.54659">
        <ele>194.49081972089</ele>
        <time>2015-08-08T13:47:31Z</time>
      </trkpt>
      <trkpt lat="45.42244" lon="0.54644">
        <ele>192.40839224387</ele>
        <time>2015-08-08T13:47:36Z</time>
      </trkpt>
      <trkpt lat="45.42243" lon="0.54631">
        <ele>191.42510375915</ele>
        <time>2015-08-08T13:47:41Z</time>
      </trkpt>
      <trkpt lat="45.4224" lon="0.54619">
        <ele>191.42510375915</ele>
        <time>2015-08-08T13:47:46Z</time>
      </trkpt>
      <trkpt lat="45.4224" lon="0.54608">
        <ele>191.29239442643</ele>
        <time>2015-08-08T13:47:51Z</time>
      </trkpt>
      <trkpt lat="45.42241" lon="0.54602">
        <ele>191.29239442643</ele>
        <time>2015-08-08T13:47:56Z</time>
      </trkpt>
      <trkpt lat="45.42239" lon="0.54594">
        <ele>191.02811155753</ele>
        <time>2015-08-08T13:48:01Z</time>
      </trkpt>
      <trkpt lat="45.42238" lon="0.54586">
        <ele>191.02811155753</ele>
        <time>2015-08-08T13:48:06Z</time>
      </trkpt>
      <trkpt lat="45.42234" lon="0.54578">
        <ele>190.4286702875</ele>
        <time>2015-08-08T13:48:11Z</time>
      </trkpt>
      <trkpt lat="45.42231" lon="0.54567">
        <ele>190.4286702875</ele>
        <time>2015-08-08T13:48:16Z</time>
      </trkpt>
      <trkpt lat="45.42228" lon="0.54557">
        <ele>189.65214995348</ele>
        <time>2015-08-08T13:48:21Z</time>
      </trkpt>
      <trkpt lat="45.42225" lon="0.54548">
        <ele>189.65214995348</ele>
        <time>2015-08-08T13:48:26Z</time>
      </trkpt>
      <trkpt lat="45.42223" lon="0.54539">
        <ele>188.78776843472</ele>
        <time>2015-08-08T13:48:31Z</time>
      </trkpt>
      <trkpt lat="45.42222" lon="0.54528">
        <ele>188.78776843472</ele>
        <time>2015-08-08T13:48:36Z</time>
      </trkpt>
      <trkpt lat="45.42221" lon="0.54518">
        <ele>187.60128566666</ele>
        <time>2015-08-08T13:48:41Z</time>
      </trkpt>
      <trkpt lat="45.42224" lon="0.54509">
        <ele>187.60128566666</ele>
        <time>2015-08-08T13:48:46Z</time>
      </trkpt>
      <trkpt lat="45.42224" lon="0.5449">
        <ele>187.66344161213</ele>
        <time>2015-08-08T13:48:51Z</time>
      </trkpt>
      <trkpt lat="45.42222" lon="0.54479">
        <ele>187.66344161213</ele>
        <time>2015-08-08T13:48:56Z</time>
      </trkpt>
      <trkpt lat="45.42217" lon="0.5447">
        <ele>187.77433122556</ele>
        <time>2015-08-08T13:49:01Z</time>
      </trkpt>
      <trkpt lat="45.42215" lon="0.54463">
        <ele>187.77433122556</ele>
        <time>2015-08-08T13:49:06Z</time>
      </trkpt>
      <trkpt lat="45.42212" lon="0.54457">
        <ele>187.91719128981</ele>
        <time>2015-08-08T13:49:11Z</time>
      </trkpt>
      <trkpt lat="45.4221" lon="0.54448">
        <ele>187.91719128981</ele>
        <time>2015-08-08T13:49:16Z</time>
      </trkpt>
      <trkpt lat="45.42209" lon="0.54436">
        <ele>188.16275951214</ele>
        <time>2015-08-08T13:49:21Z</time>
      </trkpt>
      <trkpt lat="45.42208" lon="0.54427">
        <ele>188.16275951214</ele>
        <time>2015-08-08T13:49:26Z</time>
      </trkpt>
      <trkpt lat="45.42208" lon="0.54422">
        <ele>188.50413142268</ele>
        <time>2015-08-08T13:49:31Z</time>
      </trkpt>
      <trkpt lat="45.42209" lon="0.54413">
        <ele>188.50413142268</ele>
        <time>2015-08-08T13:49:36Z</time>
      </trkpt>
      <trkpt lat="45.42209" lon="0.54406">
        <ele>188.55985510211</ele>
        <time>2015-08-08T13:49:41Z</time>
      </trkpt>
      <trkpt lat="45.4221" lon="0.54398">
        <ele>188.55985510211</ele>
        <time>2015-08-08T13:49:46Z</time>
      </trkpt>
      <trkpt lat="45.42208" lon="0.54391">
        <ele>187.53046304589</ele>
        <time>2015-08-08T13:49:51Z</time>
      </trkpt>
      <trkpt lat="45.42206" lon="0.54383">
        <ele>187.53046304589</ele>
        <time>2015-08-08T13:49:56Z</time>
      </trkpt>
      <trkpt lat="45.42199" lon="0.54373">
        <ele>186.56602473945</ele>
        <time>2015-08-08T13:50:01Z</time>
      </trkpt>
      <trkpt lat="45.42194" lon="0.54363">
        <ele>186.56602473945</ele>
        <time>2015-08-08T13:50:06Z</time>
      </trkpt>
      <trkpt lat="45.42188" lon="0.54352">
        <ele>185.92482959655</ele>
        <time>2015-08-08T13:50:11Z</time>
      </trkpt>
      <trkpt lat="45.42184" lon="0.54347">
        <ele>185.92482959655</ele>
        <time>2015-08-08T13:50:16Z</time>
      </trkpt>
      <trkpt lat="45.42181" lon="0.54339">
        <ele>184.40407954043</ele>
        <time>2015-08-08T13:50:21Z</time>
      </trkpt>
      <trkpt lat="45.42181" lon="0.54331">
        <ele>184.40407954043</ele>
        <time>2015-08-08T13:50:26Z</time>
      </trkpt>
      <trkpt lat="45.42181" lon="0.54322">
        <ele>183.03895748804</ele>
        <time>2015-08-08T13:50:31Z</time>
      </trkpt>
      <trkpt lat="45.4218" lon="0.54315">
        <ele>183.03895748804</ele>
        <time>2015-08-08T13:50:36Z</time>
      </trkpt>
      <trkpt lat="45.42179" lon="0.54305">
        <ele>181.21724907354</ele>
        <time>2015-08-08T13:50:41Z</time>
      </trkpt>
      <trkpt lat="45.42178" lon="0.54296">
        <ele>181.21724907354</ele>
        <time>2015-08-08T13:50:46Z</time>
      </trkpt>
      <trkpt lat="45.42178" lon="0.54286">
        <ele>179.38166048814</ele>
        <time>2015-08-08T13:50:51Z</time>
      </trkpt>
      <trkpt lat="45.42181" lon="0.54279">
        <ele>179.38166048814</ele>
        <time>2015-08-08T13:50:56Z</time>
      </trkpt>
      <trkpt lat="45.42183" lon="0.54272">
        <ele>177.56760821154</ele>
        <time>2015-08-08T13:51:01Z</time>
      </trkpt>
      <trkpt lat="45.42186" lon="0.54264">
        <ele>177.56760821154</ele>
        <time>2015-08-08T13:51:06Z</time>
      </trkpt>
      <trkpt lat="45.42189" lon="0.54254">
        <ele>175.50508698526</ele>
        <time>2015-08-08T13:51:11Z</time>
      </trkpt>
      <trkpt lat="45.42191" lon="0.54246">
        <ele>175.50508698526</ele>
        <time>2015-08-08T13:51:16Z</time>
      </trkpt>
      <trkpt lat="45.42193" lon="0.5424">
        <ele>173.17506670878</ele>
        <time>2015-08-08T13:51:21Z</time>
      </trkpt>
      <trkpt lat="45.42194" lon="0.54225">
        <ele>171.30990254643</ele>
        <time>2015-08-08T13:51:26Z</time>
      </trkpt>
      <trkpt lat="45.42197" lon="0.54212">
        <ele>169.83732226352</ele>
        <time>2015-08-08T13:51:31Z</time>
      </trkpt>
      <trkpt lat="45.42197" lon="0.54205">
        <ele>169.83732226352</ele>
        <time>2015-08-08T13:51:36Z</time>
      </trkpt>
      <trkpt lat="45.42197" lon="0.542">
        <ele>169.83732226352</ele>
        <time>2015-08-08T13:51:41Z</time>
      </trkpt>
      <trkpt lat="45.42199" lon="0.54204">
        <ele>168.51617711088</ele>
        <time>2015-08-08T13:51:46Z</time>
      </trkpt>
      <trkpt lat="45.42202" lon="0.54212">
        <ele>168.51617711088</ele>
        <time>2015-08-08T13:51:51Z</time>
      </trkpt>
      <trkpt lat="45.42206" lon="0.5422">
        <ele>166.79099925422</ele>
        <time>2015-08-08T13:51:56Z</time>
      </trkpt>
      <trkpt lat="45.42208" lon="0.54228">
        <ele>166.79099925422</ele>
        <time>2015-08-08T13:52:01Z</time>
      </trkpt>
      <trkpt lat="45.42211" lon="0.54235">
        <ele>164.81101580244</ele>
        <time>2015-08-08T13:52:06Z</time>
      </trkpt>
      <trkpt lat="45.42214" lon="0.54242">
        <ele>164.81101580244</ele>
        <time>2015-08-08T13:52:11Z</time>
      </trkpt>
      <trkpt lat="45.42217" lon="0.54248">
        <ele>163.29149704154</ele>
        <time>2015-08-08T13:52:16Z</time>
      </trkpt>
      <trkpt lat="45.42226" lon="0.5426">
        <ele>162.18758002581</ele>
        <time>2015-08-08T13:52:21Z</time>
      </trkpt>
      <trkpt lat="45.42231" lon="0.54267">
        <ele>162.18758002581</ele>
        <time>2015-08-08T13:52:26Z</time>
      </trkpt>
      <trkpt lat="45.42233" lon="0.5427">
        <ele>161.83106999455</ele>
        <time>2015-08-08T13:52:31Z</time>
      </trkpt>
      <trkpt lat="45.42239" lon="0.54272">
        <ele>161.83106999455</ele>
        <time>2015-08-08T13:52:36Z</time>
      </trkpt>
      <trkpt lat="45.42244" lon="0.5428">
        <ele>162.31099094826</ele>
        <time>2015-08-08T13:52:41Z</time>
      </trkpt>
      <trkpt lat="45.4225" lon="0.54288">
        <ele>162.31099094826</ele>
        <time>2015-08-08T13:52:46Z</time>
      </trkpt>
      <trkpt lat="45.42255" lon="0.54291">
        <ele>162.65533648461</ele>
        <time>2015-08-08T13:52:51Z</time>
      </trkpt>
      <trkpt lat="45.4226" lon="0.54296">
        <ele>162.65533648461</ele>
        <time>2015-08-08T13:52:56Z</time>
      </trkpt>
      <trkpt lat="45.42263" lon="0.54298">
        <ele>163.49134391497</ele>
        <time>2015-08-08T13:53:01Z</time>
      </trkpt>
      <trkpt lat="45.42267" lon="0.54303">
        <ele>163.49134391497</ele>
        <time>2015-08-08T13:53:06Z</time>
      </trkpt>
      <trkpt lat="45.42273" lon="0.54311">
        <ele>163.91434817088</ele>
        <time>2015-08-08T13:53:11Z</time>
      </trkpt>
      <trkpt lat="45.42278" lon="0.54317">
        <ele>163.91434817088</ele>
        <time>2015-08-08T13:53:16Z</time>
      </trkpt>
      <trkpt lat="45.42286" lon="0.54322">
        <ele>164.78772662518</ele>
        <time>2015-08-08T13:53:21Z</time>
      </trkpt>
      <trkpt lat="45.42295" lon="0.54327">
        <ele>166.67952685282</ele>
        <time>2015-08-08T13:53:26Z</time>
      </trkpt>
      <trkpt lat="45.42302" lon="0.5433">
        <ele>166.67952685282</ele>
        <time>2015-08-08T13:53:31Z</time>
      </trkpt>
      <trkpt lat="45.42308" lon="0.54334">
        <ele>167.95149681605</ele>
        <time>2015-08-08T13:53:36Z</time>
      </trkpt>
      <trkpt lat="45.42314" lon="0.54335">
        <ele>167.95149681605</ele>
        <time>2015-08-08T13:53:41Z</time>
      </trkpt>
      <trkpt lat="45.4232" lon="0.54334">
        <ele>168.05298332258</ele>
        <time>2015-08-08T13:53:46Z</time>
      </trkpt>
      <trkpt lat="45.42325" lon="0.54333">
        <ele>168.05298332258</ele>
        <time>2015-08-08T13:53:51Z</time>
      </trkpt>
      <trkpt lat="45.42339" lon="0.5434">
        <ele>167.51465235973</ele>
        <time>2015-08-08T13:53:56Z</time>
      </trkpt>
      <trkpt lat="45.4236" lon="0.54348">
        <ele>167.59376741569</ele>
        <time>2015-08-08T13:54:01Z</time>
      </trkpt>
      <trkpt lat="45.4237" lon="0.54362">
        <ele>167.40712562267</ele>
        <time>2015-08-08T13:54:06Z</time>
      </trkpt>
      <trkpt lat="45.42376" lon="0.5437">
        <ele>167.40712562267</ele>
        <time>2015-08-08T13:54:11Z</time>
      </trkpt>
      <trkpt lat="45.42382" lon="0.54378">
        <ele>167.8376680752</ele>
        <time>2015-08-08T13:54:16Z</time>
      </trkpt>
      <trkpt lat="45.42386" lon="0.54387">
        <ele>167.8376680752</ele>
        <time>2015-08-08T13:54:21Z</time>
      </trkpt>
      <trkpt lat="45.42388" lon="0.544">
        <ele>169.37030267958</ele>
        <time>2015-08-08T13:54:26Z</time>
      </trkpt>
      <trkpt lat="45.42392" lon="0.5441">
        <ele>169.37030267958</ele>
        <time>2015-08-08T13:54:31Z</time>
      </trkpt>
      <trkpt lat="45.42393" lon="0.54418">
        <ele>171.31277088556</ele>
        <time>2015-08-08T13:54:36Z</time>
      </trkpt>
      <trkpt lat="45.42393" lon="0.54428">
        <ele>171.31277088556</ele>
        <time>2015-08-08T13:54:41Z</time>
      </trkpt>
      <trkpt lat="45.42398" lon="0.54435">
        <ele>173.18107711881</ele>
        <time>2015-08-08T13:54:46Z</time>
      </trkpt>
      <trkpt lat="45.424" lon="0.54443">
        <ele>173.18107711881</ele>
        <time>2015-08-08T13:54:51Z</time>
      </trkpt>
      <trkpt lat="45.42404" lon="0.5445">
        <ele>174.59909583625</ele>
        <time>2015-08-08T13:54:56Z</time>
      </trkpt>
      <trkpt lat="45.42408" lon="0.54458">
        <ele>174.59909583625</ele>
        <time>2015-08-08T13:55:01Z</time>
      </trkpt>
      <trkpt lat="45.42409" lon="0.54467">
        <ele>175.98345128557</ele>
        <time>2015-08-08T13:55:06Z</time>
      </trkpt>
      <trkpt lat="45.42412" lon="0.54477">
        <ele>175.98345128557</ele>
        <time>2015-08-08T13:55:11Z</time>
      </trkpt>
      <trkpt lat="45.42416" lon="0.54485">
        <ele>176.7547919229</ele>
        <time>2015-08-08T13:55:16Z</time>
      </trkpt>
      <trkpt lat="45.42418" lon="0.54493">
        <ele>176.7547919229</ele>
        <time>2015-08-08T13:55:21Z</time>
      </trkpt>
      <trkpt lat="45.4242" lon="0.54504">
        <ele>178.87125884548</ele>
        <time>2015-08-08T13:55:26Z</time>
      </trkpt>
      <trkpt lat="45.42422" lon="0.54513">
        <ele>178.87125884548</ele>
        <time>2015-08-08T13:55:31Z</time>
      </trkpt>
      <trkpt lat="45.42426" lon="0.54521">
        <ele>180.45423004907</ele>
        <time>2015-08-08T13:55:36Z</time>
      </trkpt>
      <trkpt lat="45.42426" lon="0.54526">
        <ele>180.45423004907</ele>
        <time>2015-08-08T13:55:41Z</time>
      </trkpt>
      <trkpt lat="45.4243" lon="0.54532">
        <ele>180.45423004907</ele>
        <time>2015-08-08T13:55:46Z</time>
      </trkpt>
      <trkpt lat="45.42437" lon="0.54546">
        <ele>182.7910275114</ele>
        <time>2015-08-08T13:55:51Z</time>
      </trkpt>
      <trkpt lat="45.42445" lon="0.54551">
        <ele>182.7910275114</ele>
        <time>2015-08-08T13:55:56Z</time>
      </trkpt>
      <trkpt lat="45.42449" lon="0.54556">
        <ele>185.74659225584</ele>
        <time>2015-08-08T13:56:01Z</time>
      </trkpt>
      <trkpt lat="45.42454" lon="0.54561">
        <ele>185.74659225584</ele>
        <time>2015-08-08T13:56:06Z</time>
      </trkpt>
      <trkpt lat="45.42462" lon="0.54559">
        <ele>188.04129660491</ele>
        <time>2015-08-08T13:56:11Z</time>
      </trkpt>
      <trkpt lat="45.42467" lon="0.54562">
        <ele>188.04129660491</ele>
        <time>2015-08-08T13:56:16Z</time>
      </trkpt>
      <trkpt lat="45.42473" lon="0.54564">
        <ele>189.88939261942</ele>
        <time>2015-08-08T13:56:21Z</time>
      </trkpt>
      <trkpt lat="45.42479" lon="0.54569">
        <ele>189.88939261942</ele>
        <time>2015-08-08T13:56:26Z</time>
      </trkpt>
      <trkpt lat="45.42485" lon="0.54575">
        <ele>190.94318007788</ele>
        <time>2015-08-08T13:56:31Z</time>
      </trkpt>
      <trkpt lat="45.42494" lon="0.54577">
        <ele>192.06460233066</ele>
        <time>2015-08-08T13:56:36Z</time>
      </trkpt>
      <trkpt lat="45.42498" lon="0.54581">
        <ele>192.06460233066</ele>
        <time>2015-08-08T13:56:41Z</time>
      </trkpt>
      <trkpt lat="45.42506" lon="0.54586">
        <ele>193.14435811091</ele>
        <time>2015-08-08T13:56:46Z</time>
      </trkpt>
      <trkpt lat="45.42514" lon="0.54589">
        <ele>193.14435811091</ele>
        <time>2015-08-08T13:56:51Z</time>
      </trkpt>
      <trkpt lat="45.42518" lon="0.54592">
        <ele>194.19674317599</ele>
        <time>2015-08-08T13:56:56Z</time>
      </trkpt>
      <trkpt lat="45.42529" lon="0.54598">
        <ele>195.30729481224</ele>
        <time>2015-08-08T13:57:01Z</time>
      </trkpt>
      <trkpt lat="45.42542" lon="0.54607">
        <ele>196.31027083937</ele>
        <time>2015-08-08T13:57:06Z</time>
      </trkpt>
      <trkpt lat="45.42566" lon="0.54616">
        <ele>196.66345762921</ele>
        <time>2015-08-08T13:57:11Z</time>
      </trkpt>
      <trkpt lat="45.42593" lon="0.54625">
        <ele>197.20667514111</ele>
        <time>2015-08-08T13:57:16Z</time>
      </trkpt>
      <trkpt lat="45.42614" lon="0.54634">
        <ele>198.198857686</ele>
        <time>2015-08-08T13:57:21Z</time>
      </trkpt>
      <trkpt lat="45.42627" lon="0.54638">
        <ele>198.78354738754</ele>
        <time>2015-08-08T13:57:26Z</time>
      </trkpt>
      <trkpt lat="45.42642" lon="0.54641">
        <ele>199.24930426082</ele>
        <time>2015-08-08T13:57:31Z</time>
      </trkpt>
      <trkpt lat="45.4265" lon="0.54645">
        <ele>199.24930426082</ele>
        <time>2015-08-08T13:57:36Z</time>
      </trkpt>
      <trkpt lat="45.42654" lon="0.5465">
        <ele>199.34514289985</ele>
        <time>2015-08-08T13:57:41Z</time>
      </trkpt>
      <trkpt lat="45.42659" lon="0.54657">
        <ele>199.34514289985</ele>
        <time>2015-08-08T13:57:46Z</time>
      </trkpt>
      <trkpt lat="45.42662" lon="0.54664">
        <ele>199.44493010545</ele>
        <time>2015-08-08T13:57:51Z</time>
      </trkpt>
      <trkpt lat="45.42665" lon="0.54675">
        <ele>199.44493010545</ele>
        <time>2015-08-08T13:57:56Z</time>
      </trkpt>
      <trkpt lat="45.42667" lon="0.54683">
        <ele>199.85192558791</ele>
        <time>2015-08-08T13:58:01Z</time>
      </trkpt>
      <trkpt lat="45.42669" lon="0.54693">
        <ele>199.85192558791</ele>
        <time>2015-08-08T13:58:06Z</time>
      </trkpt>
      <trkpt lat="45.42673" lon="0.54701">
        <ele>200.05373049942</ele>
        <time>2015-08-08T13:58:11Z</time>
      </trkpt>
      <trkpt lat="45.42674" lon="0.54713">
        <ele>200.38326771088</ele>
        <time>2015-08-08T13:58:16Z</time>
      </trkpt>
      <trkpt lat="45.42676" lon="0.54726">
        <ele>201.0046097316</ele>
        <time>2015-08-08T13:58:21Z</time>
      </trkpt>
      <trkpt lat="45.42676" lon="0.54738">
        <ele>201.0046097316</ele>
        <time>2015-08-08T13:58:26Z</time>
      </trkpt>
      <trkpt lat="45.42679" lon="0.54744">
        <ele>201.3196480696</ele>
        <time>2015-08-08T13:58:31Z</time>
      </trkpt>
      <trkpt lat="45.42679" lon="0.54754">
        <ele>201.3196480696</ele>
        <time>2015-08-08T13:58:36Z</time>
      </trkpt>
      <trkpt lat="45.42681" lon="0.54762">
        <ele>201.78391034583</ele>
        <time>2015-08-08T13:58:41Z</time>
      </trkpt>
      <trkpt lat="45.42681" lon="0.54773">
        <ele>201.78391034583</ele>
        <time>2015-08-08T13:58:46Z</time>
      </trkpt>
      <trkpt lat="45.42682" lon="0.54782">
        <ele>202.34353233217</ele>
        <time>2015-08-08T13:58:51Z</time>
      </trkpt>
      <trkpt lat="45.42684" lon="0.54791">
        <ele>202.34353233217</ele>
        <time>2015-08-08T13:58:56Z</time>
      </trkpt>
      <trkpt lat="45.42687" lon="0.54803">
        <ele>203.12132421746</ele>
        <time>2015-08-08T13:59:01Z</time>
      </trkpt>
      <trkpt lat="45.42689" lon="0.54812">
        <ele>203.12132421746</ele>
        <time>2015-08-08T13:59:06Z</time>
      </trkpt>
      <trkpt lat="45.42693" lon="0.54819">
        <ele>203.69729848218</ele>
        <time>2015-08-08T13:59:11Z</time>
      </trkpt>
      <trkpt lat="45.42694" lon="0.54828">
        <ele>203.69729848218</ele>
        <time>2015-08-08T13:59:16Z</time>
      </trkpt>
      <trkpt lat="45.42695" lon="0.54839">
        <ele>204.38907420008</ele>
        <time>2015-08-08T13:59:21Z</time>
      </trkpt>
      <trkpt lat="45.42697" lon="0.54847">
        <ele>204.38907420008</ele>
        <time>2015-08-08T13:59:26Z</time>
      </trkpt>
      <trkpt lat="45.42701" lon="0.54855">
        <ele>205.34654337667</ele>
        <time>2015-08-08T13:59:31Z</time>
      </trkpt>
      <trkpt lat="45.42703" lon="0.54867">
        <ele>206.53494770498</ele>
        <time>2015-08-08T13:59:36Z</time>
      </trkpt>
      <trkpt lat="45.42706" lon="0.54875">
        <ele>206.53494770498</ele>
        <time>2015-08-08T13:59:41Z</time>
      </trkpt>
      <trkpt lat="45.42712" lon="0.54884">
        <ele>208.00794013902</ele>
        <time>2015-08-08T13:59:46Z</time>
      </trkpt>
      <trkpt lat="45.42714" lon="0.54891">
        <ele>208.00794013902</ele>
        <time>2015-08-08T13:59:51Z</time>
      </trkpt>
      <trkpt lat="45.42717" lon="0.549">
        <ele>209.6847744611</ele>
        <time>2015-08-08T13:59:56Z</time>
      </trkpt>
      <trkpt lat="45.42723" lon="0.54909">
        <ele>209.6847744611</ele>
        <time>2015-08-08T14:00:01Z</time>
      </trkpt>
      <trkpt lat="45.42724" lon="0.54917">
        <ele>210.40927224242</ele>
        <time>2015-08-08T14:00:06Z</time>
      </trkpt>
      <trkpt lat="45.4273" lon="0.54925">
        <ele>210.40927224242</ele>
        <time>2015-08-08T14:00:11Z</time>
      </trkpt>
      <trkpt lat="45.42734" lon="0.54931">
        <ele>210.55401234724</ele>
        <time>2015-08-08T14:00:16Z</time>
      </trkpt>
      <trkpt lat="45.42739" lon="0.54938">
        <ele>210.55401234724</ele>
        <time>2015-08-08T14:00:21Z</time>
      </trkpt>
      <trkpt lat="45.42742" lon="0.54946">
        <ele>211.24407168538</ele>
        <time>2015-08-08T14:00:26Z</time>
      </trkpt>
      <trkpt lat="45.42743" lon="0.54953">
        <ele>211.24407168538</ele>
        <time>2015-08-08T14:00:31Z</time>
      </trkpt>
      <trkpt lat="45.42744" lon="0.54963">
        <ele>212.13692063068</ele>
        <time>2015-08-08T14:00:36Z</time>
      </trkpt>
      <trkpt lat="45.42746" lon="0.54972">
        <ele>212.13692063068</ele>
        <time>2015-08-08T14:00:41Z</time>
      </trkpt>
      <trkpt lat="45.42747" lon="0.54981">
        <ele>213.47669115567</ele>
        <time>2015-08-08T14:00:46Z</time>
      </trkpt>
      <trkpt lat="45.4275" lon="0.54989">
        <ele>213.47669115567</ele>
        <time>2015-08-08T14:00:51Z</time>
      </trkpt>
      <trkpt lat="45.4275" lon="0.55">
        <ele>214.65251597095</ele>
        <time>2015-08-08T14:00:56Z</time>
      </trkpt>
      <trkpt lat="45.42751" lon="0.55006">
        <ele>214.65251597095</ele>
        <time>2015-08-08T14:01:01Z</time>
      </trkpt>
      <trkpt lat="45.42755" lon="0.55016">
        <ele>215.35829399926</ele>
        <time>2015-08-08T14:01:06Z</time>
      </trkpt>
      <trkpt lat="45.4276" lon="0.55023">
        <ele>215.35829399926</ele>
        <time>2015-08-08T14:01:11Z</time>
      </trkpt>
      <trkpt lat="45.42763" lon="0.55031">
        <ele>216.01790503264</ele>
        <time>2015-08-08T14:01:16Z</time>
      </trkpt>
      <trkpt lat="45.42769" lon="0.55038">
        <ele>216.01790503264</ele>
        <time>2015-08-08T14:01:21Z</time>
      </trkpt>
      <trkpt lat="45.42773" lon="0.55045">
        <ele>216.40457194694</ele>
        <time>2015-08-08T14:01:26Z</time>
      </trkpt>
      <trkpt lat="45.42777" lon="0.55053">
        <ele>216.40457194694</ele>
        <time>2015-08-08T14:01:31Z</time>
      </trkpt>
      <trkpt lat="45.42782" lon="0.5506">
        <ele>216.52513451689</ele>
        <time>2015-08-08T14:01:36Z</time>
      </trkpt>
      <trkpt lat="45.42787" lon="0.55067">
        <ele>216.52513451689</ele>
        <time>2015-08-08T14:01:41Z</time>
      </trkpt>
      <trkpt lat="45.4279" lon="0.55071">
        <ele>216.32905167821</ele>
        <time>2015-08-08T14:01:46Z</time>
      </trkpt>
      <trkpt lat="45.42795" lon="0.55077">
        <ele>216.32905167821</ele>
        <time>2015-08-08T14:01:51Z</time>
      </trkpt>
      <trkpt lat="45.428" lon="0.5508">
        <ele>215.3092386179</ele>
        <time>2015-08-08T14:01:56Z</time>
      </trkpt>
      <trkpt lat="45.42805" lon="0.55087">
        <ele>215.3092386179</ele>
        <time>2015-08-08T14:02:01Z</time>
      </trkpt>
      <trkpt lat="45.42812" lon="0.55092">
        <ele>214.10782750653</ele>
        <time>2015-08-08T14:02:06Z</time>
      </trkpt>
      <trkpt lat="45.42817" lon="0.55096">
        <ele>214.10782750653</ele>
        <time>2015-08-08T14:02:11Z</time>
      </trkpt>
      <trkpt lat="45.42821" lon="0.55099">
        <ele>212.28267482103</ele>
        <time>2015-08-08T14:02:16Z</time>
      </trkpt>
      <trkpt lat="45.42824" lon="0.55103">
        <ele>212.28267482103</ele>
        <time>2015-08-08T14:02:21Z</time>
      </trkpt>
      <trkpt lat="45.42829" lon="0.5511">
        <ele>210.13198020664</ele>
        <time>2015-08-08T14:02:26Z</time>
      </trkpt>
      <trkpt lat="45.42836" lon="0.55117">
        <ele>210.13198020664</ele>
        <time>2015-08-08T14:02:31Z</time>
      </trkpt>
      <trkpt lat="45.42842" lon="0.55121">
        <ele>208.45170239301</ele>
        <time>2015-08-08T14:02:36Z</time>
      </trkpt>
      <trkpt lat="45.42848" lon="0.55128">
        <ele>208.45170239301</ele>
        <time>2015-08-08T14:02:41Z</time>
      </trkpt>
      <trkpt lat="45.42854" lon="0.55132">
        <ele>206.76740932544</ele>
        <time>2015-08-08T14:02:46Z</time>
      </trkpt>
      <trkpt lat="45.42861" lon="0.55137">
        <ele>206.76740932544</ele>
        <time>2015-08-08T14:02:51Z</time>
      </trkpt>
      <trkpt lat="45.42868" lon="0.55142">
        <ele>205.12942624183</ele>
        <time>2015-08-08T14:02:56Z</time>
      </trkpt>
      <trkpt lat="45.42875" lon="0.55143">
        <ele>205.12942624183</ele>
        <time>2015-08-08T14:03:01Z</time>
      </trkpt>
      <trkpt lat="45.42881" lon="0.55148">
        <ele>203.84355418992</ele>
        <time>2015-08-08T14:03:06Z</time>
      </trkpt>
      <trkpt lat="45.42887" lon="0.55143">
        <ele>203.84355418992</ele>
        <time>2015-08-08T14:03:11Z</time>
      </trkpt>
      <trkpt lat="45.42892" lon="0.55139">
        <ele>202.29854376974</ele>
        <time>2015-08-08T14:03:16Z</time>
      </trkpt>
      <trkpt lat="45.42894" lon="0.55137">
        <ele>202.29854376974</ele>
        <time>2015-08-08T14:03:21Z</time>
      </trkpt>
      <trkpt lat="45.42899" lon="0.55138">
        <ele>202.29854376974</ele>
        <time>2015-08-08T14:03:26Z</time>
      </trkpt>
      <trkpt lat="45.42904" lon="0.55139">
        <ele>200.69244391047</ele>
        <time>2015-08-08T14:03:31Z</time>
      </trkpt>
      <trkpt lat="45.42914" lon="0.55143">
        <ele>199.48260937074</ele>
        <time>2015-08-08T14:03:36Z</time>
      </trkpt>
      <trkpt lat="45.4292" lon="0.55146">
        <ele>199.48260937074</ele>
        <time>2015-08-08T14:03:41Z</time>
      </trkpt>
      <trkpt lat="45.42928" lon="0.55148">
        <ele>197.62161604817</ele>
        <time>2015-08-08T14:03:46Z</time>
      </trkpt>
      <trkpt lat="45.42933" lon="0.55154">
        <ele>197.62161604817</ele>
        <time>2015-08-08T14:03:51Z</time>
      </trkpt>
      <trkpt lat="45.42937" lon="0.55161">
        <ele>196.04293366246</ele>
        <time>2015-08-08T14:03:56Z</time>
      </trkpt>
      <trkpt lat="45.42942" lon="0.55165">
        <ele>196.04293366246</ele>
        <time>2015-08-08T14:04:01Z</time>
      </trkpt>
      <trkpt lat="45.42949" lon="0.55168">
        <ele>194.47203980736</ele>
        <time>2015-08-08T14:04:06Z</time>
      </trkpt>
      <trkpt lat="45.42955" lon="0.5517">
        <ele>194.47203980736</ele>
        <time>2015-08-08T14:04:11Z</time>
      </trkpt>
      <trkpt lat="45.4297" lon="0.55177">
        <ele>192.6544006352</ele>
        <time>2015-08-08T14:04:16Z</time>
      </trkpt>
      <trkpt lat="45.42988" lon="0.55192">
        <ele>190.75822193802</ele>
        <time>2015-08-08T14:04:21Z</time>
      </trkpt>
      <trkpt lat="45.43008" lon="0.55205">
        <ele>188.76647308702</ele>
        <time>2015-08-08T14:04:26Z</time>
      </trkpt>
      <trkpt lat="45.43031" lon="0.55214">
        <ele>187.02374873414</ele>
        <time>2015-08-08T14:04:31Z</time>
      </trkpt>
      <trkpt lat="45.43042" lon="0.55219">
        <ele>185.51699993173</ele>
        <time>2015-08-08T14:04:36Z</time>
      </trkpt>
      <trkpt lat="45.43042" lon="0.55225">
        <ele>185.51699993173</ele>
        <time>2015-08-08T14:04:41Z</time>
      </trkpt>
      <trkpt lat="45.43049" lon="0.55229">
        <ele>184.47828604985</ele>
        <time>2015-08-08T14:04:46Z</time>
      </trkpt>
      <trkpt lat="45.4305" lon="0.55233">
        <ele>184.47828604985</ele>
        <time>2015-08-08T14:04:51Z</time>
      </trkpt>
      <trkpt lat="45.43056" lon="0.55226">
        <ele>183.37175159976</ele>
        <time>2015-08-08T14:04:56Z</time>
      </trkpt>
      <trkpt lat="45.43063" lon="0.55219">
        <ele>183.37175159976</ele>
        <time>2015-08-08T14:05:01Z</time>
      </trkpt>
      <trkpt lat="45.43066" lon="0.55216">
        <ele>183.70406838995</ele>
        <time>2015-08-08T14:05:06Z</time>
      </trkpt>
      <trkpt lat="45.43066" lon="0.55206">
        <ele>183.70406838995</ele>
        <time>2015-08-08T14:05:11Z</time>
      </trkpt>
      <trkpt lat="45.43073" lon="0.552">
        <ele>183.33630424803</ele>
        <time>2015-08-08T14:05:16Z</time>
      </trkpt>
      <trkpt lat="45.43078" lon="0.55192">
        <ele>183.33630424803</ele>
        <time>2015-08-08T14:05:21Z</time>
      </trkpt>
      <trkpt lat="45.43082" lon="0.5519">
        <ele>183.77595200818</ele>
        <time>2015-08-08T14:05:26Z</time>
      </trkpt>
      <trkpt lat="45.43087" lon="0.5518">
        <ele>183.77595200818</ele>
        <time>2015-08-08T14:05:31Z</time>
      </trkpt>
      <trkpt lat="45.43092" lon="0.55172">
        <ele>184.29892504864</ele>
        <time>2015-08-08T14:05:36Z</time>
      </trkpt>
      <trkpt lat="45.431" lon="0.55167">
        <ele>184.29892504864</ele>
        <time>2015-08-08T14:05:41Z</time>
      </trkpt>
      <trkpt lat="45.43106" lon="0.55164">
        <ele>184.33484507277</ele>
        <time>2015-08-08T14:05:46Z</time>
      </trkpt>
      <trkpt lat="45.4311" lon="0.55167">
        <ele>184.33484507277</ele>
        <time>2015-08-08T14:05:51Z</time>
      </trkpt>
      <trkpt lat="45.43115" lon="0.55165">
        <ele>184.43732042891</ele>
        <time>2015-08-08T14:05:56Z</time>
      </trkpt>
      <trkpt lat="45.4312" lon="0.55162">
        <ele>184.43732042891</ele>
        <time>2015-08-08T14:06:01Z</time>
      </trkpt>
      <trkpt lat="45.43124" lon="0.55162">
        <ele>184.43732042891</ele>
        <time>2015-08-08T14:06:06Z</time>
      </trkpt>
      <trkpt lat="45.43136" lon="0.55157">
        <ele>184.78754996076</ele>
        <time>2015-08-08T14:06:11Z</time>
      </trkpt>
      <trkpt lat="45.43143" lon="0.55157">
        <ele>184.78754996076</ele>
        <time>2015-08-08T14:06:16Z</time>
      </trkpt>
      <trkpt lat="45.43144" lon="0.55155">
        <ele>184.78754996076</ele>
        <time>2015-08-08T14:06:21Z</time>
      </trkpt>
      <trkpt lat="45.43153" lon="0.55155">
        <ele>185.06266184233</ele>
        <time>2015-08-08T14:06:26Z</time>
      </trkpt>
      <trkpt lat="45.43158" lon="0.55154">
        <ele>185.06266184233</ele>
        <time>2015-08-08T14:06:31Z</time>
      </trkpt>
      <trkpt lat="45.43164" lon="0.55149">
        <ele>185.28068214153</ele>
        <time>2015-08-08T14:06:36Z</time>
      </trkpt>
      <trkpt lat="45.43169" lon="0.55147">
        <ele>185.28068214153</ele>
        <time>2015-08-08T14:06:41Z</time>
      </trkpt>
      <trkpt lat="45.43176" lon="0.55144">
        <ele>184.92519645947</ele>
        <time>2015-08-08T14:06:46Z</time>
      </trkpt>
      <trkpt lat="45.43185" lon="0.55142">
        <ele>184.92519645947</ele>
        <time>2015-08-08T14:06:51Z</time>
      </trkpt>
      <trkpt lat="45.43189" lon="0.55137">
        <ele>184.74422380711</ele>
        <time>2015-08-08T14:06:56Z</time>
      </trkpt>
      <trkpt lat="45.43196" lon="0.55136">
        <ele>184.74422380711</ele>
        <time>2015-08-08T14:07:01Z</time>
      </trkpt>
      <trkpt lat="45.43201" lon="0.55133">
        <ele>184.81061872376</ele>
        <time>2015-08-08T14:07:06Z</time>
      </trkpt>
      <trkpt lat="45.43208" lon="0.55129">
        <ele>184.81061872376</ele>
        <time>2015-08-08T14:07:11Z</time>
      </trkpt>
      <trkpt lat="45.4321" lon="0.5513">
        <ele>184.55705941466</ele>
        <time>2015-08-08T14:07:16Z</time>
      </trkpt>
      <trkpt lat="45.43216" lon="0.55128">
        <ele>184.55705941466</ele>
        <time>2015-08-08T14:07:21Z</time>
      </trkpt>
      <trkpt lat="45.43221" lon="0.55126">
        <ele>184.91428493917</ele>
        <time>2015-08-08T14:07:26Z</time>
      </trkpt>
      <trkpt lat="45.43229" lon="0.55124">
        <ele>184.91428493917</ele>
        <time>2015-08-08T14:07:31Z</time>
      </trkpt>
      <trkpt lat="45.4324" lon="0.55121">
        <ele>185.4891552613</ele>
        <time>2015-08-08T14:07:36Z</time>
      </trkpt>
      <trkpt lat="45.43246" lon="0.55117">
        <ele>185.4891552613</ele>
        <time>2015-08-08T14:07:41Z</time>
      </trkpt>
      <trkpt lat="45.43254" lon="0.55112">
        <ele>186.10412563191</ele>
        <time>2015-08-08T14:07:46Z</time>
      </trkpt>
      <trkpt lat="45.43263" lon="0.55103">
        <ele>186.59457157635</ele>
        <time>2015-08-08T14:07:51Z</time>
      </trkpt>
      <trkpt lat="45.43266" lon="0.55093">
        <ele>186.59457157635</ele>
        <time>2015-08-08T14:07:56Z</time>
      </trkpt>
      <trkpt lat="45.4327" lon="0.55084">
        <ele>187.11094456155</ele>
        <time>2015-08-08T14:08:01Z</time>
      </trkpt>
      <trkpt lat="45.43272" lon="0.5507">
        <ele>187.87904727159</ele>
        <time>2015-08-08T14:08:06Z</time>
      </trkpt>
      <trkpt lat="45.43274" lon="0.55058">
        <ele>187.87904727159</ele>
        <time>2015-08-08T14:08:11Z</time>
      </trkpt>
      <trkpt lat="45.43276" lon="0.55046">
        <ele>189.16505240908</ele>
        <time>2015-08-08T14:08:16Z</time>
      </trkpt>
      <trkpt lat="45.43279" lon="0.55037">
        <ele>189.16505240908</ele>
        <time>2015-08-08T14:08:21Z</time>
      </trkpt>
      <trkpt lat="45.43281" lon="0.55027">
        <ele>190.75300079912</ele>
        <time>2015-08-08T14:08:26Z</time>
      </trkpt>
      <trkpt lat="45.43284" lon="0.55017">
        <ele>190.75300079912</ele>
        <time>2015-08-08T14:08:31Z</time>
      </trkpt>
      <trkpt lat="45.43286" lon="0.55009">
        <ele>192.35552506835</ele>
        <time>2015-08-08T14:08:36Z</time>
      </trkpt>
      <trkpt lat="45.43287" lon="0.54999">
        <ele>192.35552506835</ele>
        <time>2015-08-08T14:08:41Z</time>
      </trkpt>
      <trkpt lat="45.4329" lon="0.5499">
        <ele>193.83608062835</ele>
        <time>2015-08-08T14:08:46Z</time>
      </trkpt>
      <trkpt lat="45.43293" lon="0.54981">
        <ele>193.83608062835</ele>
        <time>2015-08-08T14:08:51Z</time>
      </trkpt>
      <trkpt lat="45.43295" lon="0.54971">
        <ele>195.08297256736</ele>
        <time>2015-08-08T14:08:56Z</time>
      </trkpt>
      <trkpt lat="45.43297" lon="0.5496">
        <ele>195.08297256736</ele>
        <time>2015-08-08T14:09:01Z</time>
      </trkpt>
      <trkpt lat="45.43299" lon="0.5495">
        <ele>196.15196528257</ele>
        <time>2015-08-08T14:09:06Z</time>
      </trkpt>
      <trkpt lat="45.43302" lon="0.54938">
        <ele>197.35471122222</ele>
        <time>2015-08-08T14:09:11Z</time>
      </trkpt>
      <trkpt lat="45.43305" lon="0.54931">
        <ele>197.35471122222</ele>
        <time>2015-08-08T14:09:16Z</time>
      </trkpt>
      <trkpt lat="45.43307" lon="0.54921">
        <ele>198.4032412634</ele>
        <time>2015-08-08T14:09:21Z</time>
      </trkpt>
      <trkpt lat="45.4331" lon="0.54913">
        <ele>198.4032412634</ele>
        <time>2015-08-08T14:09:26Z</time>
      </trkpt>
      <trkpt lat="45.43312" lon="0.54904">
        <ele>199.46360398951</ele>
        <time>2015-08-08T14:09:31Z</time>
      </trkpt>
      <trkpt lat="45.43313" lon="0.5489">
        <ele>200.68971922996</ele>
        <time>2015-08-08T14:09:36Z</time>
      </trkpt>
      <trkpt lat="45.43315" lon="0.5488">
        <ele>200.68971922996</ele>
        <time>2015-08-08T14:09:41Z</time>
      </trkpt>
      <trkpt lat="45.43317" lon="0.54872">
        <ele>201.92120797974</ele>
        <time>2015-08-08T14:09:46Z</time>
      </trkpt>
      <trkpt lat="45.43319" lon="0.54868">
        <ele>201.92120797974</ele>
        <time>2015-08-08T14:09:51Z</time>
      </trkpt>
      <trkpt lat="45.4332" lon="0.54858">
        <ele>203.41307939541</ele>
        <time>2015-08-08T14:09:56Z</time>
      </trkpt>
      <trkpt lat="45.43322" lon="0.54851">
        <ele>203.41307939541</ele>
        <time>2015-08-08T14:10:01Z</time>
      </trkpt>
      <trkpt lat="45.43325" lon="0.54842">
        <ele>204.68043797669</ele>
        <time>2015-08-08T14:10:06Z</time>
      </trkpt>
      <trkpt lat="45.43324" lon="0.54825">
        <ele>206.51411331037</ele>
        <time>2015-08-08T14:10:11Z</time>
      </trkpt>
      <trkpt lat="45.43328" lon="0.5481">
        <ele>208.37719805199</ele>
        <time>2015-08-08T14:10:22Z</time>
      </trkpt>
      <trkpt lat="45.4333" lon="0.54805">
        <ele>208.37719805199</ele>
        <time>2015-08-08T14:10:26Z</time>
      </trkpt>
      <trkpt lat="45.43332" lon="0.548">
        <ele>208.37719805199</ele>
        <time>2015-08-08T14:10:31Z</time>
      </trkpt>
      <trkpt lat="45.4334" lon="0.54785">
        <ele>209.54169324169</ele>
        <time>2015-08-08T14:10:42Z</time>
      </trkpt>
      <trkpt lat="45.43346" lon="0.54761">
        <ele>211.19420401399</ele>
        <time>2015-08-08T14:10:57Z</time>
      </trkpt>
      <trkpt lat="45.43346" lon="0.54754">
        <ele>211.19420401399</ele>
        <time>2015-08-08T14:11:01Z</time>
      </trkpt>
      <trkpt lat="45.43352" lon="0.54742">
        <ele>212.1992102765</ele>
        <time>2015-08-08T14:11:11Z</time>
      </trkpt>
      <trkpt lat="45.43354" lon="0.54734">
        <ele>212.1992102765</ele>
        <time>2015-08-08T14:11:16Z</time>
      </trkpt>
      <trkpt lat="45.4336" lon="0.54718">
        <ele>212.41445666886</ele>
        <time>2015-08-08T14:11:27Z</time>
      </trkpt>
      <trkpt lat="45.43361" lon="0.54713">
        <ele>212.41445666886</ele>
        <time>2015-08-08T14:11:31Z</time>
      </trkpt>
      <trkpt lat="45.43365" lon="0.54695">
        <ele>212.64720565448</ele>
        <time>2015-08-08T14:11:41Z</time>
      </trkpt>
      <trkpt lat="45.43367" lon="0.54686">
        <ele>212.64720565448</ele>
        <time>2015-08-08T14:11:46Z</time>
      </trkpt>
      <trkpt lat="45.43371" lon="0.54667">
        <ele>212.95375992059</ele>
        <time>2015-08-08T14:11:56Z</time>
      </trkpt>
      <trkpt lat="45.43373" lon="0.5466">
        <ele>212.95375992059</ele>
        <time>2015-08-08T14:12:01Z</time>
      </trkpt>
      <trkpt lat="45.43378" lon="0.54646">
        <ele>212.96827216438</ele>
        <time>2015-08-08T14:12:12Z</time>
      </trkpt>
      <trkpt lat="45.4338" lon="0.54639">
        <ele>212.96827216438</ele>
        <time>2015-08-08T14:12:16Z</time>
      </trkpt>
      <trkpt lat="45.43388" lon="0.54613">
        <ele>212.33828291491</ele>
        <time>2015-08-08T14:12:32Z</time>
      </trkpt>
      <trkpt lat="45.43395" lon="0.54593">
        <ele>211.1714580623</ele>
        <time>2015-08-08T14:12:46Z</time>
      </trkpt>
      <trkpt lat="45.43404" lon="0.54571">
        <ele>209.36738180286</ele>
        <time>2015-08-08T14:13:01Z</time>
      </trkpt>
      <trkpt lat="45.4341" lon="0.54543">
        <ele>207.71393985202</ele>
        <time>2015-08-08T14:13:16Z</time>
      </trkpt>
      <trkpt lat="45.43412" lon="0.54535">
        <ele>207.71393985202</ele>
        <time>2015-08-08T14:13:21Z</time>
      </trkpt>
      <trkpt lat="45.43416" lon="0.54515">
        <ele>206.32107973847</ele>
        <time>2015-08-08T14:13:31Z</time>
      </trkpt>
      <trkpt lat="45.43418" lon="0.54506">
        <ele>206.32107973847</ele>
        <time>2015-08-08T14:13:36Z</time>
      </trkpt>
      <trkpt lat="45.43423" lon="0.54488">
        <ele>204.85762849257</ele>
        <time>2015-08-08T14:13:46Z</time>
      </trkpt>
      <trkpt lat="45.43426" lon="0.54479">
        <ele>204.85762849257</ele>
        <time>2015-08-08T14:13:53Z</time>
      </trkpt>
      <trkpt lat="45.43429" lon="0.54464">
        <ele>203.20428577664</ele>
        <time>2015-08-08T14:14:01Z</time>
      </trkpt>
      <trkpt lat="45.43432" lon="0.54457">
        <ele>203.20428577664</ele>
        <time>2015-08-08T14:14:06Z</time>
      </trkpt>
      <trkpt lat="45.43436" lon="0.54441">
        <ele>201.42396652347</ele>
        <time>2015-08-08T14:14:16Z</time>
      </trkpt>
      <trkpt lat="45.43439" lon="0.54433">
        <ele>201.42396652347</ele>
        <time>2015-08-08T14:14:21Z</time>
      </trkpt>
      <trkpt lat="45.43443" lon="0.54415">
        <ele>199.63293416775</ele>
        <time>2015-08-08T14:14:31Z</time>
      </trkpt>
      <trkpt lat="45.43445" lon="0.54405">
        <ele>199.63293416775</ele>
        <time>2015-08-08T14:14:36Z</time>
      </trkpt>
      <trkpt lat="45.43449" lon="0.54387">
        <ele>197.43450592746</ele>
        <time>2015-08-08T14:14:46Z</time>
      </trkpt>
      <trkpt lat="45.4345" lon="0.54384">
        <ele>197.43450592746</ele>
        <time>2015-08-08T14:14:51Z</time>
      </trkpt>
      <trkpt lat="45.43451" lon="0.54375">
        <ele>195.31247566159</ele>
        <time>2015-08-08T14:14:56Z</time>
      </trkpt>
      <trkpt lat="45.43454" lon="0.54365">
        <ele>195.31247566159</ele>
        <time>2015-08-08T14:15:01Z</time>
      </trkpt>
      <trkpt lat="45.43456" lon="0.54355">
        <ele>193.26806183018</ele>
        <time>2015-08-08T14:15:06Z</time>
      </trkpt>
      <trkpt lat="45.43459" lon="0.54346">
        <ele>193.26806183018</ele>
        <time>2015-08-08T14:15:11Z</time>
      </trkpt>
      <trkpt lat="45.43463" lon="0.54336">
        <ele>190.91298346419</ele>
        <time>2015-08-08T14:15:16Z</time>
      </trkpt>
      <trkpt lat="45.43466" lon="0.54326">
        <ele>190.91298346419</ele>
        <time>2015-08-08T14:15:21Z</time>
      </trkpt>
      <trkpt lat="45.4347" lon="0.54318">
        <ele>189.05554923472</ele>
        <time>2015-08-08T14:15:26Z</time>
      </trkpt>
      <trkpt lat="45.43474" lon="0.54314">
        <ele>189.05554923472</ele>
        <time>2015-08-08T14:15:31Z</time>
      </trkpt>
      <trkpt lat="45.43477" lon="0.54303">
        <ele>187.65056649816</ele>
        <time>2015-08-08T14:15:36Z</time>
      </trkpt>
      <trkpt lat="45.4348" lon="0.54291">
        <ele>187.65056649816</ele>
        <time>2015-08-08T14:15:41Z</time>
      </trkpt>
      <trkpt lat="45.43484" lon="0.54286">
        <ele>186.71241398889</ele>
        <time>2015-08-08T14:15:46Z</time>
      </trkpt>
      <trkpt lat="45.43488" lon="0.54278">
        <ele>186.71241398889</ele>
        <time>2015-08-08T14:15:51Z</time>
      </trkpt>
      <trkpt lat="45.43491" lon="0.5427">
        <ele>186.05122119927</ele>
        <time>2015-08-08T14:15:56Z</time>
      </trkpt>
      <trkpt lat="45.43495" lon="0.54263">
        <ele>186.05122119927</ele>
        <time>2015-08-08T14:16:01Z</time>
      </trkpt>
      <trkpt lat="45.43499" lon="0.54254">
        <ele>185.37487122945</ele>
        <time>2015-08-08T14:16:06Z</time>
      </trkpt>
      <trkpt lat="45.43503" lon="0.54249">
        <ele>185.37487122945</ele>
        <time>2015-08-08T14:16:11Z</time>
      </trkpt>
      <trkpt lat="45.43508" lon="0.5424">
        <ele>184.94583390113</ele>
        <time>2015-08-08T14:16:16Z</time>
      </trkpt>
      <trkpt lat="45.43512" lon="0.54232">
        <ele>184.94583390113</ele>
        <time>2015-08-08T14:16:21Z</time>
      </trkpt>
      <trkpt lat="45.43516" lon="0.54227">
        <ele>184.02652584985</ele>
        <time>2015-08-08T14:16:26Z</time>
      </trkpt>
      <trkpt lat="45.4352" lon="0.5422">
        <ele>184.02652584985</ele>
        <time>2015-08-08T14:16:31Z</time>
      </trkpt>
      <trkpt lat="45.43524" lon="0.5421">
        <ele>183.37591462745</ele>
        <time>2015-08-08T14:16:36Z</time>
      </trkpt>
      <trkpt lat="45.43527" lon="0.54205">
        <ele>183.37591462745</ele>
        <time>2015-08-08T14:16:41Z</time>
      </trkpt>
      <trkpt lat="45.43531" lon="0.54194">
        <ele>182.81726812418</ele>
        <time>2015-08-08T14:16:46Z</time>
      </trkpt>
      <trkpt lat="45.43535" lon="0.54185">
        <ele>182.81726812418</ele>
        <time>2015-08-08T14:16:51Z</time>
      </trkpt>
      <trkpt lat="45.43539" lon="0.54178">
        <ele>182.63321383599</ele>
        <time>2015-08-08T14:16:56Z</time>
      </trkpt>
      <trkpt lat="45.43543" lon="0.54171">
        <ele>182.63321383599</ele>
        <time>2015-08-08T14:17:01Z</time>
      </trkpt>
      <trkpt lat="45.43546" lon="0.54161">
        <ele>182.46478444903</ele>
        <time>2015-08-08T14:17:06Z</time>
      </trkpt>
      <trkpt lat="45.4355" lon="0.54158">
        <ele>182.46478444903</ele>
        <time>2015-08-08T14:17:11Z</time>
      </trkpt>
      <trkpt lat="45.43555" lon="0.54142">
        <ele>181.90718438637</ele>
        <time>2015-08-08T14:17:21Z</time>
      </trkpt>
      <trkpt lat="45.43556" lon="0.54138">
        <ele>181.90718438637</ele>
        <time>2015-08-08T14:17:26Z</time>
      </trkpt>
      <trkpt lat="45.43561" lon="0.54132">
        <ele>180.96104199156</ele>
        <time>2015-08-08T14:17:31Z</time>
      </trkpt>
      <trkpt lat="45.43566" lon="0.5412">
        <ele>179.98821896047</ele>
        <time>2015-08-08T14:17:36Z</time>
      </trkpt>
      <trkpt lat="45.43565" lon="0.54111">
        <ele>179.98821896047</ele>
        <time>2015-08-08T14:17:41Z</time>
      </trkpt>
      <trkpt lat="45.43559" lon="0.54102">
        <ele>179.43927382437</ele>
        <time>2015-08-08T14:17:46Z</time>
      </trkpt>
      <trkpt lat="45.43557" lon="0.54084">
        <ele>179.35570800452</ele>
        <time>2015-08-08T14:17:51Z</time>
      </trkpt>
      <trkpt lat="45.43553" lon="0.54063">
        <ele>179.70253715654</ele>
        <time>2015-08-08T14:17:56Z</time>
      </trkpt>
      <trkpt lat="45.43549" lon="0.54042">
        <ele>180.86399469253</ele>
        <time>2015-08-08T14:18:01Z</time>
      </trkpt>
      <trkpt lat="45.4354" lon="0.54014">
        <ele>181.8679248424</ele>
        <time>2015-08-08T14:18:06Z</time>
      </trkpt>
      <trkpt lat="45.4353" lon="0.53986">
        <ele>182.8371751395</ele>
        <time>2015-08-08T14:18:11Z</time>
      </trkpt>
      <trkpt lat="45.43529" lon="0.53966">
        <ele>184.72148522573</ele>
        <time>2015-08-08T14:18:16Z</time>
      </trkpt>
      <trkpt lat="45.43531" lon="0.53959">
        <ele>184.72148522573</ele>
        <time>2015-08-08T14:18:21Z</time>
      </trkpt>
      <trkpt lat="45.43529" lon="0.53954">
        <ele>186.10688339451</ele>
        <time>2015-08-08T14:18:26Z</time>
      </trkpt>
      <trkpt lat="45.4353" lon="0.53943">
        <ele>186.10688339451</ele>
        <time>2015-08-08T14:18:31Z</time>
      </trkpt>
      <trkpt lat="45.43528" lon="0.53935">
        <ele>187.47165191165</ele>
        <time>2015-08-08T14:18:36Z</time>
      </trkpt>
      <trkpt lat="45.43519" lon="0.53923">
        <ele>188.10612771073</ele>
        <time>2015-08-08T14:18:41Z</time>
      </trkpt>
      <trkpt lat="45.43515" lon="0.53917">
        <ele>188.10612771073</ele>
        <time>2015-08-08T14:18:46Z</time>
      </trkpt>
      <trkpt lat="45.43512" lon="0.53906">
        <ele>187.72954775046</ele>
        <time>2015-08-08T14:18:51Z</time>
      </trkpt>
      <trkpt lat="45.4351" lon="0.53899">
        <ele>187.72954775046</ele>
        <time>2015-08-08T14:18:56Z</time>
      </trkpt>
      <trkpt lat="45.43506" lon="0.53886">
        <ele>188.11661558399</ele>
        <time>2015-08-08T14:19:01Z</time>
      </trkpt>
      <trkpt lat="45.43505" lon="0.53881">
        <ele>188.11661558399</ele>
        <time>2015-08-08T14:19:06Z</time>
      </trkpt>
      <trkpt lat="45.43504" lon="0.53876">
        <ele>188.11661558399</ele>
        <time>2015-08-08T14:19:11Z</time>
      </trkpt>
      <trkpt lat="45.43503" lon="0.53867">
        <ele>188.74789896891</ele>
        <time>2015-08-08T14:19:16Z</time>
      </trkpt>
      <trkpt lat="45.435" lon="0.53854">
        <ele>189.57381714035</ele>
        <time>2015-08-08T14:19:21Z</time>
      </trkpt>
      <trkpt lat="45.43499" lon="0.5384">
        <ele>190.95144738644</ele>
        <time>2015-08-08T14:19:26Z</time>
      </trkpt>
      <trkpt lat="45.43498" lon="0.53829">
        <ele>190.95144738644</ele>
        <time>2015-08-08T14:19:31Z</time>
      </trkpt>
      <trkpt lat="45.43496" lon="0.53821">
        <ele>192.31665684351</ele>
        <time>2015-08-08T14:19:36Z</time>
      </trkpt>
      <trkpt lat="45.43495" lon="0.53816">
        <ele>192.31665684351</ele>
        <time>2015-08-08T14:19:41Z</time>
      </trkpt>
      <trkpt lat="45.43493" lon="0.53809">
        <ele>192.61364067361</ele>
        <time>2015-08-08T14:19:46Z</time>
      </trkpt>
      <trkpt lat="45.4349" lon="0.538">
        <ele>192.61364067361</ele>
        <time>2015-08-08T14:19:51Z</time>
      </trkpt>
      <trkpt lat="45.43489" lon="0.53793">
        <ele>192.59655200112</ele>
        <time>2015-08-08T14:19:56Z</time>
      </trkpt>
      <trkpt lat="45.43488" lon="0.53779">
        <ele>192.9650968885</ele>
        <time>2015-08-08T14:20:01Z</time>
      </trkpt>
      <trkpt lat="45.43487" lon="0.53765">
        <ele>193.81894983474</ele>
        <time>2015-08-08T14:20:06Z</time>
      </trkpt>
      <trkpt lat="45.4349" lon="0.53758">
        <ele>193.81894983474</ele>
        <time>2015-08-08T14:20:11Z</time>
      </trkpt>
      <trkpt lat="45.43494" lon="0.53752">
        <ele>194.08187330411</ele>
        <time>2015-08-08T14:20:16Z</time>
      </trkpt>
      <trkpt lat="45.43497" lon="0.53744">
        <ele>194.08187330411</ele>
        <time>2015-08-08T14:20:21Z</time>
      </trkpt>
      <trkpt lat="45.43498" lon="0.53736">
        <ele>193.83925160202</ele>
        <time>2015-08-08T14:20:26Z</time>
      </trkpt>
      <trkpt lat="45.43499" lon="0.53725">
        <ele>193.83925160202</ele>
        <time>2015-08-08T14:20:31Z</time>
      </trkpt>
      <trkpt lat="45.43499" lon="0.53716">
        <ele>193.17168299159</ele>
        <time>2015-08-08T14:20:36Z</time>
      </trkpt>
      <trkpt lat="45.435" lon="0.53705">
        <ele>193.17168299159</ele>
        <time>2015-08-08T14:20:41Z</time>
      </trkpt>
      <trkpt lat="45.43502" lon="0.53695">
        <ele>192.47214499303</ele>
        <time>2015-08-08T14:20:46Z</time>
      </trkpt>
      <trkpt lat="45.43501" lon="0.53685">
        <ele>192.47214499303</ele>
        <time>2015-08-08T14:20:51Z</time>
      </trkpt>
      <trkpt lat="45.43501" lon="0.53676">
        <ele>191.41315867653</ele>
        <time>2015-08-08T14:20:56Z</time>
      </trkpt>
      <trkpt lat="45.43508" lon="0.5367">
        <ele>191.41315867653</ele>
        <time>2015-08-08T14:21:01Z</time>
      </trkpt>
      <trkpt lat="45.43512" lon="0.53664">
        <ele>190.84524585772</ele>
        <time>2015-08-08T14:21:06Z</time>
      </trkpt>
      <trkpt lat="45.4351" lon="0.53655">
        <ele>190.84524585772</ele>
        <time>2015-08-08T14:21:11Z</time>
      </trkpt>
      <trkpt lat="45.4351" lon="0.53645">
        <ele>189.43667403315</ele>
        <time>2015-08-08T14:21:16Z</time>
      </trkpt>
      <trkpt lat="45.43512" lon="0.53637">
        <ele>189.43667403315</ele>
        <time>2015-08-08T14:21:21Z</time>
      </trkpt>
      <trkpt lat="45.43512" lon="0.53628">
        <ele>188.36258003859</ele>
        <time>2015-08-08T14:21:26Z</time>
      </trkpt>
      <trkpt lat="45.4351" lon="0.5362">
        <ele>188.36258003859</ele>
        <time>2015-08-08T14:21:31Z</time>
      </trkpt>
      <trkpt lat="45.43507" lon="0.53614">
        <ele>187.26974201723</ele>
        <time>2015-08-08T14:21:36Z</time>
      </trkpt>
      <trkpt lat="45.43503" lon="0.53607">
        <ele>187.26974201723</ele>
        <time>2015-08-08T14:21:41Z</time>
      </trkpt>
      <trkpt lat="45.43497" lon="0.53598">
        <ele>187.07030213841</ele>
        <time>2015-08-08T14:21:46Z</time>
      </trkpt>
      <trkpt lat="45.4349" lon="0.53593">
        <ele>187.07030213841</ele>
        <time>2015-08-08T14:21:51Z</time>
      </trkpt>
      <trkpt lat="45.43485" lon="0.53595">
        <ele>187.32430333179</ele>
        <time>2015-08-08T14:21:56Z</time>
      </trkpt>
      <trkpt lat="45.43479" lon="0.53597">
        <ele>187.32430333179</ele>
        <time>2015-08-08T14:22:01Z</time>
      </trkpt>
      <trkpt lat="45.43474" lon="0.53602">
        <ele>187.9687019709</ele>
        <time>2015-08-08T14:22:06Z</time>
      </trkpt>
      <trkpt lat="45.43467" lon="0.53608">
        <ele>187.9687019709</ele>
        <time>2015-08-08T14:22:11Z</time>
      </trkpt>
      <trkpt lat="45.43459" lon="0.53615">
        <ele>188.59812451583</ele>
        <time>2015-08-08T14:22:16Z</time>
      </trkpt>
      <trkpt lat="45.43453" lon="0.5362">
        <ele>188.59812451583</ele>
        <time>2015-08-08T14:22:21Z</time>
      </trkpt>
      <trkpt lat="45.43447" lon="0.53627">
        <ele>189.47111244591</ele>
        <time>2015-08-08T14:22:26Z</time>
      </trkpt>
      <trkpt lat="45.4344" lon="0.53633">
        <ele>189.47111244591</ele>
        <time>2015-08-08T14:22:31Z</time>
      </trkpt>
      <trkpt lat="45.43435" lon="0.53636">
        <ele>190.17804228489</ele>
        <time>2015-08-08T14:22:36Z</time>
      </trkpt>
      <trkpt lat="45.43429" lon="0.53636">
        <ele>190.17804228489</ele>
        <time>2015-08-08T14:22:41Z</time>
      </trkpt>
      <trkpt lat="45.43424" lon="0.5364">
        <ele>190.52720769006</ele>
        <time>2015-08-08T14:22:46Z</time>
      </trkpt>
      <trkpt lat="45.43419" lon="0.53643">
        <ele>190.52720769006</ele>
        <time>2015-08-08T14:22:51Z</time>
      </trkpt>
      <trkpt lat="45.43416" lon="0.53646">
        <ele>190.52720769006</ele>
        <time>2015-08-08T14:22:56Z</time>
      </trkpt>
      <trkpt lat="45.43412" lon="0.5366">
        <ele>189.21793908369</ele>
        <time>2015-08-08T14:23:01Z</time>
      </trkpt>
      <trkpt lat="45.43408" lon="0.53666">
        <ele>189.21793908369</ele>
        <time>2015-08-08T14:23:06Z</time>
      </trkpt>
      <trkpt lat="45.434" lon="0.53663">
        <ele>188.86872927105</ele>
        <time>2015-08-08T14:23:11Z</time>
      </trkpt>
      <trkpt lat="45.43397" lon="0.53664">
        <ele>188.86872927105</ele>
        <time>2015-08-08T14:23:16Z</time>
      </trkpt>
      <trkpt lat="45.4339" lon="0.5367">
        <ele>188.57407160388</ele>
        <time>2015-08-08T14:23:21Z</time>
      </trkpt>
      <trkpt lat="45.43382" lon="0.53676">
        <ele>188.57407160388</ele>
        <time>2015-08-08T14:23:26Z</time>
      </trkpt>
      <trkpt lat="45.43378" lon="0.53679">
        <ele>188.35950167696</ele>
        <time>2015-08-08T14:23:31Z</time>
      </trkpt>
      <trkpt lat="45.43371" lon="0.53676">
        <ele>188.35950167696</ele>
        <time>2015-08-08T14:23:36Z</time>
      </trkpt>
      <trkpt lat="45.43365" lon="0.5368">
        <ele>188.03229372641</ele>
        <time>2015-08-08T14:23:41Z</time>
      </trkpt>
      <trkpt lat="45.43358" lon="0.53684">
        <ele>188.03229372641</ele>
        <time>2015-08-08T14:23:46Z</time>
      </trkpt>
      <trkpt lat="45.4335" lon="0.53687">
        <ele>187.71683219567</ele>
        <time>2015-08-08T14:23:51Z</time>
      </trkpt>
      <trkpt lat="45.43343" lon="0.53686">
        <ele>187.71683219567</ele>
        <time>2015-08-08T14:23:56Z</time>
      </trkpt>
      <trkpt lat="45.43336" lon="0.53687">
        <ele>187.18246501285</ele>
        <time>2015-08-08T14:24:01Z</time>
      </trkpt>
      <trkpt lat="45.43329" lon="0.53684">
        <ele>187.18246501285</ele>
        <time>2015-08-08T14:24:06Z</time>
      </trkpt>
      <trkpt lat="45.43321" lon="0.53681">
        <ele>186.86459585567</ele>
        <time>2015-08-08T14:24:11Z</time>
      </trkpt>
      <trkpt lat="45.43316" lon="0.53676">
        <ele>186.86459585567</ele>
        <time>2015-08-08T14:24:16Z</time>
      </trkpt>
      <trkpt lat="45.4331" lon="0.53676">
        <ele>186.05637487869</ele>
        <time>2015-08-08T14:24:21Z</time>
      </trkpt>
      <trkpt lat="45.43306" lon="0.53673">
        <ele>186.05637487869</ele>
        <time>2015-08-08T14:24:26Z</time>
      </trkpt>
      <trkpt lat="45.43302" lon="0.53671">
        <ele>186.05637487869</ele>
        <time>2015-08-08T14:24:31Z</time>
      </trkpt>
      <trkpt lat="45.43297" lon="0.53666">
        <ele>185.22831006717</ele>
        <time>2015-08-08T14:24:36Z</time>
      </trkpt>
      <trkpt lat="45.43291" lon="0.53658">
        <ele>185.22831006717</ele>
        <time>2015-08-08T14:24:41Z</time>
      </trkpt>
      <trkpt lat="45.43288" lon="0.53646">
        <ele>184.52816560506</ele>
        <time>2015-08-08T14:24:46Z</time>
      </trkpt>
      <trkpt lat="45.43285" lon="0.53642">
        <ele>184.52816560506</ele>
        <time>2015-08-08T14:24:51Z</time>
      </trkpt>
      <trkpt lat="45.43282" lon="0.53633">
        <ele>183.93395169965</ele>
        <time>2015-08-08T14:24:56Z</time>
      </trkpt>
      <trkpt lat="45.43277" lon="0.53627">
        <ele>183.93395169965</ele>
        <time>2015-08-08T14:25:01Z</time>
      </trkpt>
      <trkpt lat="45.43273" lon="0.53618">
        <ele>182.93499571764</ele>
        <time>2015-08-08T14:25:06Z</time>
      </trkpt>
      <trkpt lat="45.4327" lon="0.53611">
        <ele>182.93499571764</ele>
        <time>2015-08-08T14:25:11Z</time>
      </trkpt>
      <trkpt lat="45.43263" lon="0.53604">
        <ele>181.85185781216</ele>
        <time>2015-08-08T14:25:16Z</time>
      </trkpt>
      <trkpt lat="45.43259" lon="0.53596">
        <ele>181.85185781216</ele>
        <time>2015-08-08T14:25:21Z</time>
      </trkpt>
      <trkpt lat="45.43254" lon="0.53593">
        <ele>180.99616506642</ele>
        <time>2015-08-08T14:25:26Z</time>
      </trkpt>
      <trkpt lat="45.43248" lon="0.53591">
        <ele>180.99616506642</ele>
        <time>2015-08-08T14:25:31Z</time>
      </trkpt>
      <trkpt lat="45.4324" lon="0.53588">
        <ele>179.73366570017</ele>
        <time>2015-08-08T14:25:36Z</time>
      </trkpt>
      <trkpt lat="45.43235" lon="0.53578">
        <ele>179.73366570017</ele>
        <time>2015-08-08T14:25:41Z</time>
      </trkpt>
      <trkpt lat="45.43231" lon="0.53567">
        <ele>179.84122350944</ele>
        <time>2015-08-08T14:25:46Z</time>
      </trkpt>
      <trkpt lat="45.43228" lon="0.53559">
        <ele>179.84122350944</ele>
        <time>2015-08-08T14:25:51Z</time>
      </trkpt>
      <trkpt lat="45.43224" lon="0.5355">
        <ele>180.82844581686</ele>
        <time>2015-08-08T14:25:56Z</time>
      </trkpt>
      <trkpt lat="45.43222" lon="0.53543">
        <ele>180.82844581686</ele>
        <time>2015-08-08T14:26:01Z</time>
      </trkpt>
      <trkpt lat="45.4322" lon="0.53535">
        <ele>181.66201454299</ele>
        <time>2015-08-08T14:26:06Z</time>
      </trkpt>
      <trkpt lat="45.43217" lon="0.53528">
        <ele>181.66201454299</ele>
        <time>2015-08-08T14:26:11Z</time>
      </trkpt>
      <trkpt lat="45.43213" lon="0.53519">
        <ele>182.52339795929</ele>
        <time>2015-08-08T14:26:16Z</time>
      </trkpt>
      <trkpt lat="45.43208" lon="0.53512">
        <ele>182.52339795929</ele>
        <time>2015-08-08T14:26:21Z</time>
      </trkpt>
      <trkpt lat="45.43204" lon="0.53504">
        <ele>183.23476886003</ele>
        <time>2015-08-08T14:26:26Z</time>
      </trkpt>
      <trkpt lat="45.43198" lon="0.53497">
        <ele>183.23476886003</ele>
        <time>2015-08-08T14:26:31Z</time>
      </trkpt>
      <trkpt lat="45.43194" lon="0.53495">
        <ele>183.41560599413</ele>
        <time>2015-08-08T14:26:36Z</time>
      </trkpt>
      <trkpt lat="45.43189" lon="0.53487">
        <ele>183.41560599413</ele>
        <time>2015-08-08T14:26:41Z</time>
      </trkpt>
      <trkpt lat="45.43185" lon="0.53478">
        <ele>183.8244815255</ele>
        <time>2015-08-08T14:26:46Z</time>
      </trkpt>
      <trkpt lat="45.43182" lon="0.53468">
        <ele>183.8244815255</ele>
        <time>2015-08-08T14:26:51Z</time>
      </trkpt>
      <trkpt lat="45.43181" lon="0.53459">
        <ele>184.48628372034</ele>
        <time>2015-08-08T14:26:56Z</time>
      </trkpt>
      <trkpt lat="45.43181" lon="0.53452">
        <ele>184.48628372034</ele>
        <time>2015-08-08T14:27:01Z</time>
      </trkpt>
      <trkpt lat="45.43177" lon="0.53443">
        <ele>184.77487006252</ele>
        <time>2015-08-08T14:27:06Z</time>
      </trkpt>
      <trkpt lat="45.43174" lon="0.53433">
        <ele>184.77487006252</ele>
        <time>2015-08-08T14:27:11Z</time>
      </trkpt>
      <trkpt lat="45.43173" lon="0.53421">
        <ele>184.96140814621</ele>
        <time>2015-08-08T14:27:16Z</time>
      </trkpt>
      <trkpt lat="45.43173" lon="0.53412">
        <ele>184.96140814621</ele>
        <time>2015-08-08T14:27:21Z</time>
      </trkpt>
      <trkpt lat="45.43174" lon="0.53404">
        <ele>185.13892440156</ele>
        <time>2015-08-08T14:27:26Z</time>
      </trkpt>
      <trkpt lat="45.43172" lon="0.53392">
        <ele>185.13892440156</ele>
        <time>2015-08-08T14:27:31Z</time>
      </trkpt>
      <trkpt lat="45.43172" lon="0.53385">
        <ele>185.43688765409</ele>
        <time>2015-08-08T14:27:36Z</time>
      </trkpt>
      <trkpt lat="45.4317" lon="0.53377">
        <ele>185.43688765409</ele>
        <time>2015-08-08T14:27:41Z</time>
      </trkpt>
      <trkpt lat="45.43167" lon="0.53368">
        <ele>185.62907047406</ele>
        <time>2015-08-08T14:27:46Z</time>
      </trkpt>
      <trkpt lat="45.43164" lon="0.53357">
        <ele>185.62907047406</ele>
        <time>2015-08-08T14:27:51Z</time>
      </trkpt>
      <trkpt lat="45.4316" lon="0.53348">
        <ele>186.32761587144</ele>
        <time>2015-08-08T14:27:56Z</time>
      </trkpt>
      <trkpt lat="45.43157" lon="0.53339">
        <ele>186.32761587144</ele>
        <time>2015-08-08T14:28:01Z</time>
      </trkpt>
      <trkpt lat="45.43155" lon="0.53338">
        <ele>186.51307929886</ele>
        <time>2015-08-08T14:28:06Z</time>
      </trkpt>
      <trkpt lat="45.43154" lon="0.53331">
        <ele>186.51307929886</ele>
        <time>2015-08-08T14:28:11Z</time>
      </trkpt>
      <trkpt lat="45.4315" lon="0.53322">
        <ele>186.8275918582</ele>
        <time>2015-08-08T14:28:16Z</time>
      </trkpt>
      <trkpt lat="45.43147" lon="0.53316">
        <ele>186.8275918582</ele>
        <time>2015-08-08T14:28:21Z</time>
      </trkpt>
      <trkpt lat="45.4314" lon="0.53308">
        <ele>186.22291080776</ele>
        <time>2015-08-08T14:28:26Z</time>
      </trkpt>
      <trkpt lat="45.43138" lon="0.53297">
        <ele>186.22291080776</ele>
        <time>2015-08-08T14:28:31Z</time>
      </trkpt>
      <trkpt lat="45.43135" lon="0.53285">
        <ele>186.88643707564</ele>
        <time>2015-08-08T14:28:36Z</time>
      </trkpt>
      <trkpt lat="45.43131" lon="0.53277">
        <ele>186.88643707564</ele>
        <time>2015-08-08T14:28:41Z</time>
      </trkpt>
      <trkpt lat="45.4313" lon="0.53269">
        <ele>187.42592143312</ele>
        <time>2015-08-08T14:28:46Z</time>
      </trkpt>
      <trkpt lat="45.43128" lon="0.53262">
        <ele>187.42592143312</ele>
        <time>2015-08-08T14:28:51Z</time>
      </trkpt>
      <trkpt lat="45.43117" lon="0.53248">
        <ele>187.54613097103</ele>
        <time>2015-08-08T14:28:56Z</time>
      </trkpt>
      <trkpt lat="45.43115" lon="0.53244">
        <ele>187.54613097103</ele>
        <time>2015-08-08T14:29:01Z</time>
      </trkpt>
      <trkpt lat="45.43114" lon="0.53234">
        <ele>188.55994896258</ele>
        <time>2015-08-08T14:29:06Z</time>
      </trkpt>
      <trkpt lat="45.43112" lon="0.53227">
        <ele>188.55994896258</ele>
        <time>2015-08-08T14:29:11Z</time>
      </trkpt>
      <trkpt lat="45.43111" lon="0.53222">
        <ele>188.55994896258</ele>
        <time>2015-08-08T14:29:16Z</time>
      </trkpt>
      <trkpt lat="45.43106" lon="0.53215">
        <ele>189.07292835839</ele>
        <time>2015-08-08T14:29:21Z</time>
      </trkpt>
      <trkpt lat="45.43102" lon="0.53209">
        <ele>189.07292835839</ele>
        <time>2015-08-08T14:29:26Z</time>
      </trkpt>
      <trkpt lat="45.43097" lon="0.53201">
        <ele>189.58147567744</ele>
        <time>2015-08-08T14:29:31Z</time>
      </trkpt>
      <trkpt lat="45.43093" lon="0.53199">
        <ele>189.58147567744</ele>
        <time>2015-08-08T14:29:36Z</time>
      </trkpt>
      <trkpt lat="45.43089" lon="0.53194">
        <ele>189.7097360133</ele>
        <time>2015-08-08T14:29:41Z</time>
      </trkpt>
      <trkpt lat="45.43084" lon="0.53185">
        <ele>189.7097360133</ele>
        <time>2015-08-08T14:29:46Z</time>
      </trkpt>
      <trkpt lat="45.43079" lon="0.53177">
        <ele>190.71020470347</ele>
        <time>2015-08-08T14:29:51Z</time>
      </trkpt>
      <trkpt lat="45.43078" lon="0.53166">
        <ele>190.71020470347</ele>
        <time>2015-08-08T14:29:56Z</time>
      </trkpt>
      <trkpt lat="45.43074" lon="0.53156">
        <ele>192.41514273239</ele>
        <time>2015-08-08T14:30:01Z</time>
      </trkpt>
      <trkpt lat="45.43072" lon="0.5315">
        <ele>192.41514273239</ele>
        <time>2015-08-08T14:30:06Z</time>
      </trkpt>
      <trkpt lat="45.43072" lon="0.53143">
        <ele>192.70729022442</ele>
        <time>2015-08-08T14:30:11Z</time>
      </trkpt>
      <trkpt lat="45.43074" lon="0.53138">
        <ele>192.70729022442</ele>
        <time>2015-08-08T14:30:16Z</time>
      </trkpt>
      <trkpt lat="45.43072" lon="0.53131">
        <ele>192.70729022442</ele>
        <time>2015-08-08T14:30:21Z</time>
      </trkpt>
      <trkpt lat="45.43071" lon="0.53125">
        <ele>193.53434498281</ele>
        <time>2015-08-08T14:30:26Z</time>
      </trkpt>
      <trkpt lat="45.43072" lon="0.53119">
        <ele>193.53434498281</ele>
        <time>2015-08-08T14:30:31Z</time>
      </trkpt>
      <trkpt lat="45.43066" lon="0.53102">
        <ele>194.95573635119</ele>
        <time>2015-08-08T14:30:36Z</time>
      </trkpt>
      <trkpt lat="45.43066" lon="0.53092">
        <ele>194.95573635119</ele>
        <time>2015-08-08T14:30:41Z</time>
      </trkpt>
      <trkpt lat="45.43066" lon="0.5309">
        <ele>195.38205003608</ele>
        <time>2015-08-08T14:30:46Z</time>
      </trkpt>
      <trkpt lat="45.43065" lon="0.5308">
        <ele>195.38205003608</ele>
        <time>2015-08-08T14:30:51Z</time>
      </trkpt>
      <trkpt lat="45.43064" lon="0.53072">
        <ele>196.03835777382</ele>
        <time>2015-08-08T14:30:56Z</time>
      </trkpt>
      <trkpt lat="45.43063" lon="0.53064">
        <ele>196.03835777382</ele>
        <time>2015-08-08T14:31:01Z</time>
      </trkpt>
      <trkpt lat="45.4306" lon="0.5305">
        <ele>196.71891909534</ele>
        <time>2015-08-08T14:31:06Z</time>
      </trkpt>
      <trkpt lat="45.43059" lon="0.53047">
        <ele>196.71891909534</ele>
        <time>2015-08-08T14:31:11Z</time>
      </trkpt>
      <trkpt lat="45.43059" lon="0.53037">
        <ele>196.98810989246</ele>
        <time>2015-08-08T14:31:16Z</time>
      </trkpt>
      <trkpt lat="45.43057" lon="0.53004">
        <ele>196.40028407697</ele>
        <time>2015-08-08T14:31:32Z</time>
      </trkpt>
      <trkpt lat="45.43056" lon="0.52993">
        <ele>196.40028407697</ele>
        <time>2015-08-08T14:31:36Z</time>
      </trkpt>
      <trkpt lat="45.43053" lon="0.52988">
        <ele>195.43847717804</ele>
        <time>2015-08-08T14:31:41Z</time>
      </trkpt>
      <trkpt lat="45.43051" lon="0.52979">
        <ele>195.43847717804</ele>
        <time>2015-08-08T14:31:46Z</time>
      </trkpt>
      <trkpt lat="45.43053" lon="0.52976">
        <ele>193.55696483836</ele>
        <time>2015-08-08T14:31:51Z</time>
      </trkpt>
      <trkpt lat="45.43052" lon="0.52966">
        <ele>193.55696483836</ele>
        <time>2015-08-08T14:31:56Z</time>
      </trkpt>
      <trkpt lat="45.43049" lon="0.52957">
        <ele>192.50085509848</ele>
        <time>2015-08-08T14:32:01Z</time>
      </trkpt>
      <trkpt lat="45.43047" lon="0.52949">
        <ele>192.50085509848</ele>
        <time>2015-08-08T14:32:06Z</time>
      </trkpt>
      <trkpt lat="45.43042" lon="0.52945">
        <ele>190.3828584154</ele>
        <time>2015-08-08T14:32:11Z</time>
      </trkpt>
      <trkpt lat="45.43036" lon="0.52942">
        <ele>190.3828584154</ele>
        <time>2015-08-08T14:32:16Z</time>
      </trkpt>
      <trkpt lat="45.4303" lon="0.52937">
        <ele>187.95042323126</ele>
        <time>2015-08-08T14:32:21Z</time>
      </trkpt>
      <trkpt lat="45.43024" lon="0.52935">
        <ele>187.95042323126</ele>
        <time>2015-08-08T14:32:26Z</time>
      </trkpt>
      <trkpt lat="45.43017" lon="0.52931">
        <ele>185.46461803763</ele>
        <time>2015-08-08T14:32:31Z</time>
      </trkpt>
      <trkpt lat="45.43014" lon="0.52924">
        <ele>185.46461803763</ele>
        <time>2015-08-08T14:32:36Z</time>
      </trkpt>
      <trkpt lat="45.4301" lon="0.52915">
        <ele>182.53335337436</ele>
        <time>2015-08-08T14:32:41Z</time>
      </trkpt>
      <trkpt lat="45.43008" lon="0.52909">
        <ele>182.53335337436</ele>
        <time>2015-08-08T14:32:46Z</time>
      </trkpt>
      <trkpt lat="45.43006" lon="0.52903">
        <ele>179.64478707415</ele>
        <time>2015-08-08T14:32:51Z</time>
      </trkpt>
      <trkpt lat="45.43002" lon="0.52895">
        <ele>179.64478707415</ele>
        <time>2015-08-08T14:32:56Z</time>
      </trkpt>
      <trkpt lat="45.42999" lon="0.52885">
        <ele>176.71780516489</ele>
        <time>2015-08-08T14:33:01Z</time>
      </trkpt>
      <trkpt lat="45.42995" lon="0.52877">
        <ele>176.71780516489</ele>
        <time>2015-08-08T14:33:06Z</time>
      </trkpt>
      <trkpt lat="45.42991" lon="0.52867">
        <ele>174.34017225142</ele>
        <time>2015-08-08T14:33:11Z</time>
      </trkpt>
      <trkpt lat="45.42988" lon="0.52858">
        <ele>174.34017225142</ele>
        <time>2015-08-08T14:33:16Z</time>
      </trkpt>
      <trkpt lat="45.42986" lon="0.52849">
        <ele>172.5360202735</ele>
        <time>2015-08-08T14:33:21Z</time>
      </trkpt>
      <trkpt lat="45.42985" lon="0.52841">
        <ele>172.5360202735</ele>
        <time>2015-08-08T14:33:26Z</time>
      </trkpt>
      <trkpt lat="45.42982" lon="0.52836">
        <ele>170.96569562766</ele>
        <time>2015-08-08T14:33:31Z</time>
      </trkpt>
      <trkpt lat="45.4298" lon="0.52833">
        <ele>170.96569562766</ele>
        <time>2015-08-08T14:33:36Z</time>
      </trkpt>
      <trkpt lat="45.42978" lon="0.52828">
        <ele>170.96569562766</ele>
        <time>2015-08-08T14:33:41Z</time>
      </trkpt>
      <trkpt lat="45.42976" lon="0.5282">
        <ele>169.58751714806</ele>
        <time>2015-08-08T14:33:46Z</time>
      </trkpt>
      <trkpt lat="45.42973" lon="0.52813">
        <ele>169.58751714806</ele>
        <time>2015-08-08T14:33:51Z</time>
      </trkpt>
      <trkpt lat="45.42969" lon="0.52805">
        <ele>168.23248907658</ele>
        <time>2015-08-08T14:33:56Z</time>
      </trkpt>
      <trkpt lat="45.42967" lon="0.52799">
        <ele>168.23248907658</ele>
        <time>2015-08-08T14:34:01Z</time>
      </trkpt>
      <trkpt lat="45.42963" lon="0.52791">
        <ele>166.87352626012</ele>
        <time>2015-08-08T14:34:06Z</time>
      </trkpt>
      <trkpt lat="45.42959" lon="0.52784">
        <ele>166.87352626012</ele>
        <time>2015-08-08T14:34:11Z</time>
      </trkpt>
      <trkpt lat="45.42957" lon="0.52775">
        <ele>165.74480574549</ele>
        <time>2015-08-08T14:34:16Z</time>
      </trkpt>
      <trkpt lat="45.42954" lon="0.52769">
        <ele>165.74480574549</ele>
        <time>2015-08-08T14:34:21Z</time>
      </trkpt>
      <trkpt lat="45.42951" lon="0.52762">
        <ele>164.57254077697</ele>
        <time>2015-08-08T14:34:26Z</time>
      </trkpt>
      <trkpt lat="45.42946" lon="0.52756">
        <ele>164.57254077697</ele>
        <time>2015-08-08T14:34:31Z</time>
      </trkpt>
      <trkpt lat="45.42942" lon="0.52749">
        <ele>163.44891035403</ele>
        <time>2015-08-08T14:34:36Z</time>
      </trkpt>
      <trkpt lat="45.42938" lon="0.5274">
        <ele>163.44891035403</ele>
        <time>2015-08-08T14:34:41Z</time>
      </trkpt>
      <trkpt lat="45.42936" lon="0.5273">
        <ele>162.50228657327</ele>
        <time>2015-08-08T14:34:46Z</time>
      </trkpt>
      <trkpt lat="45.42935" lon="0.52722">
        <ele>162.50228657327</ele>
        <time>2015-08-08T14:34:51Z</time>
      </trkpt>
      <trkpt lat="45.42933" lon="0.52711">
        <ele>161.75010869941</ele>
        <time>2015-08-08T14:34:56Z</time>
      </trkpt>
      <trkpt lat="45.42931" lon="0.52702">
        <ele>161.75010869941</ele>
        <time>2015-08-08T14:35:01Z</time>
      </trkpt>
      <trkpt lat="45.42929" lon="0.52693">
        <ele>161.12139945758</ele>
        <time>2015-08-08T14:35:06Z</time>
      </trkpt>
      <trkpt lat="45.42927" lon="0.52684">
        <ele>161.12139945758</ele>
        <time>2015-08-08T14:35:11Z</time>
      </trkpt>
      <trkpt lat="45.42925" lon="0.52674">
        <ele>160.54993198281</ele>
        <time>2015-08-08T14:35:16Z</time>
      </trkpt>
      <trkpt lat="45.42923" lon="0.52666">
        <ele>160.54993198281</ele>
        <time>2015-08-08T14:35:21Z</time>
      </trkpt>
      <trkpt lat="45.4292" lon="0.52657">
        <ele>160.04612930232</ele>
        <time>2015-08-08T14:35:26Z</time>
      </trkpt>
      <trkpt lat="45.42917" lon="0.52649">
        <ele>160.04612930232</ele>
        <time>2015-08-08T14:35:31Z</time>
      </trkpt>
      <trkpt lat="45.42914" lon="0.52641">
        <ele>159.50406744484</ele>
        <time>2015-08-08T14:35:36Z</time>
      </trkpt>
      <trkpt lat="45.42911" lon="0.52633">
        <ele>159.50406744484</ele>
        <time>2015-08-08T14:35:41Z</time>
      </trkpt>
      <trkpt lat="45.42908" lon="0.52622">
        <ele>159.31559451281</ele>
        <time>2015-08-08T14:35:46Z</time>
      </trkpt>
      <trkpt lat="45.42907" lon="0.52614">
        <ele>159.31559451281</ele>
        <time>2015-08-08T14:35:51Z</time>
      </trkpt>
      <trkpt lat="45.42908" lon="0.52606">
        <ele>158.87715068056</ele>
        <time>2015-08-08T14:35:56Z</time>
      </trkpt>
      <trkpt lat="45.42907" lon="0.52597">
        <ele>158.87715068056</ele>
        <time>2015-08-08T14:36:01Z</time>
      </trkpt>
      <trkpt lat="45.42906" lon="0.52585">
        <ele>158.59568146965</ele>
        <time>2015-08-08T14:36:06Z</time>
      </trkpt>
      <trkpt lat="45.42904" lon="0.52561">
        <ele>158.4153952224</ele>
        <time>2015-08-08T14:36:11Z</time>
      </trkpt>
      <trkpt lat="45.42902" lon="0.52523">
        <ele>158.57247695484</ele>
        <time>2015-08-08T14:36:16Z</time>
      </trkpt>
      <trkpt lat="45.42901" lon="0.52491">
        <ele>159.14065379764</ele>
        <time>2015-08-08T14:36:21Z</time>
      </trkpt>
      <trkpt lat="45.42896" lon="0.52487">
        <ele>159.14065379764</ele>
        <time>2015-08-08T14:36:26Z</time>
      </trkpt>
      <trkpt lat="45.42891" lon="0.52483">
        <ele>159.49531042487</ele>
        <time>2015-08-08T14:36:31Z</time>
      </trkpt>
      <trkpt lat="45.42886" lon="0.5249">
        <ele>159.49531042487</ele>
        <time>2015-08-08T14:36:36Z</time>
      </trkpt>
      <trkpt lat="45.4288" lon="0.52493">
        <ele>158.94299550564</ele>
        <time>2015-08-08T14:36:41Z</time>
      </trkpt>
      <trkpt lat="45.42873" lon="0.52495">
        <ele>158.94299550564</ele>
        <time>2015-08-08T14:36:46Z</time>
      </trkpt>
      <trkpt lat="45.42868" lon="0.52493">
        <ele>158.55864449832</ele>
        <time>2015-08-08T14:36:51Z</time>
      </trkpt>
      <trkpt lat="45.42869" lon="0.52491">
        <ele>158.55864449832</ele>
        <time>2015-08-08T14:36:56Z</time>
      </trkpt>
      <trkpt lat="45.42869" lon="0.52492">
        <ele>158.55864449832</ele>
        <time>2015-08-08T14:37:01Z</time>
      </trkpt>
      <trkpt lat="45.42869" lon="0.52492">
        <ele>158.55864449832</ele>
        <time>2015-08-08T14:37:06Z</time>
      </trkpt>
      <trkpt lat="45.4287" lon="0.52493">
        <ele>158.55864449832</ele>
        <time>2015-08-08T14:37:11Z</time>
      </trkpt>
      <trkpt lat="45.42873" lon="0.52492">
        <ele>158.55864449832</ele>
        <time>2015-08-08T14:37:16Z</time>
      </trkpt>
      <trkpt lat="45.42878" lon="0.52488">
        <ele>157.99750930954</ele>
        <time>2015-08-08T14:37:21Z</time>
      </trkpt>
      <trkpt lat="45.42882" lon="0.52487">
        <ele>157.99750930954</ele>
        <time>2015-08-08T14:37:26Z</time>
      </trkpt>
      <trkpt lat="45.42889" lon="0.52484">
        <ele>157.4594527298</ele>
        <time>2015-08-08T14:37:31Z</time>
      </trkpt>
      <trkpt lat="45.42895" lon="0.52483">
        <ele>157.4594527298</ele>
        <time>2015-08-08T14:37:36Z</time>
      </trkpt>
      <trkpt lat="45.42898" lon="0.52481">
        <ele>157.57632915261</ele>
        <time>2015-08-08T14:37:41Z</time>
      </trkpt>
      <trkpt lat="45.42897" lon="0.52471">
        <ele>157.57632915261</ele>
        <time>2015-08-08T14:37:46Z</time>
      </trkpt>
      <trkpt lat="45.42897" lon="0.5246">
        <ele>157.72120412677</ele>
        <time>2015-08-08T14:37:51Z</time>
      </trkpt>
      <trkpt lat="45.42896" lon="0.52451">
        <ele>157.72120412677</ele>
        <time>2015-08-08T14:37:56Z</time>
      </trkpt>
      <trkpt lat="45.42897" lon="0.52445">
        <ele>158.09132269002</ele>
        <time>2015-08-08T14:38:01Z</time>
      </trkpt>
      <trkpt lat="45.42894" lon="0.52432">
        <ele>158.45089646675</ele>
        <time>2015-08-08T14:38:06Z</time>
      </trkpt>
      <trkpt lat="45.42893" lon="0.5242">
        <ele>158.45089646675</ele>
        <time>2015-08-08T14:38:11Z</time>
      </trkpt>
      <trkpt lat="45.42891" lon="0.52412">
        <ele>158.99942829024</ele>
        <time>2015-08-08T14:38:16Z</time>
      </trkpt>
      <trkpt lat="45.42889" lon="0.52401">
        <ele>158.99942829024</ele>
        <time>2015-08-08T14:38:21Z</time>
      </trkpt>
      <trkpt lat="45.42887" lon="0.52392">
        <ele>159.71950665654</ele>
        <time>2015-08-08T14:38:26Z</time>
      </trkpt>
      <trkpt lat="45.42886" lon="0.5239">
        <ele>159.71950665654</ele>
        <time>2015-08-08T14:38:31Z</time>
      </trkpt>
      <trkpt lat="45.4289" lon="0.52389">
        <ele>159.71950665654</ele>
        <time>2015-08-08T14:38:36Z</time>
      </trkpt>
      <trkpt lat="45.42891" lon="0.52378">
        <ele>160.00369661621</ele>
        <time>2015-08-08T14:38:41Z</time>
      </trkpt>
      <trkpt lat="45.42893" lon="0.52368">
        <ele>160.00369661621</ele>
        <time>2015-08-08T14:38:46Z</time>
      </trkpt>
      <trkpt lat="45.42896" lon="0.52358">
        <ele>160.44333919767</ele>
        <time>2015-08-08T14:38:51Z</time>
      </trkpt>
      <trkpt lat="45.42898" lon="0.52348">
        <ele>160.44333919767</ele>
        <time>2015-08-08T14:38:56Z</time>
      </trkpt>
      <trkpt lat="45.429" lon="0.5234">
        <ele>160.85098151599</ele>
        <time>2015-08-08T14:39:01Z</time>
      </trkpt>
      <trkpt lat="45.42904" lon="0.52333">
        <ele>160.85098151599</ele>
        <time>2015-08-08T14:39:06Z</time>
      </trkpt>
      <trkpt lat="45.42908" lon="0.52328">
        <ele>161.34130744345</ele>
        <time>2015-08-08T14:39:11Z</time>
      </trkpt>
      <trkpt lat="45.42914" lon="0.52323">
        <ele>161.34130744345</ele>
        <time>2015-08-08T14:39:16Z</time>
      </trkpt>
      <trkpt lat="45.42921" lon="0.52323">
        <ele>161.50160293416</ele>
        <time>2015-08-08T14:39:21Z</time>
      </trkpt>
      <trkpt lat="45.42924" lon="0.52324">
        <ele>161.50160293416</ele>
        <time>2015-08-08T14:39:26Z</time>
      </trkpt>
      <trkpt lat="45.42925" lon="0.52324">
        <ele>161.50160293416</ele>
        <time>2015-08-08T14:39:31Z</time>
      </trkpt>
      <trkpt lat="45.42926" lon="0.52324">
        <ele>161.50160293416</ele>
        <time>2015-08-08T14:39:36Z</time>
      </trkpt>
      <trkpt lat="45.42926" lon="0.52324">
        <ele>161.50160293416</ele>
        <time>2015-08-08T14:39:41Z</time>
      </trkpt>
      <trkpt lat="45.42929" lon="0.52322">
        <ele>161.50160293416</ele>
        <time>2015-08-08T14:39:46Z</time>
      </trkpt>
      <trkpt lat="45.42936" lon="0.52322">
        <ele>162.06011675509</ele>
        <time>2015-08-08T14:39:51Z</time>
      </trkpt>
      <trkpt lat="45.42953" lon="0.52322">
        <ele>162.69618405126</ele>
        <time>2015-08-08T14:39:56Z</time>
      </trkpt>
      <trkpt lat="45.42976" lon="0.5232">
        <ele>163.22783815897</ele>
        <time>2015-08-08T14:40:01Z</time>
      </trkpt>
      <trkpt lat="45.43" lon="0.5232">
        <ele>163.47243540148</ele>
        <time>2015-08-08T14:40:06Z</time>
      </trkpt>
      <trkpt lat="45.43016" lon="0.52315">
        <ele>163.69396446849</ele>
        <time>2015-08-08T14:40:11Z</time>
      </trkpt>
      <trkpt lat="45.43022" lon="0.5231">
        <ele>163.69396446849</ele>
        <time>2015-08-08T14:40:16Z</time>
      </trkpt>
      <trkpt lat="45.43027" lon="0.52307">
        <ele>163.93540890244</ele>
        <time>2015-08-08T14:40:21Z</time>
      </trkpt>
      <trkpt lat="45.43031" lon="0.52307">
        <ele>163.93540890244</ele>
        <time>2015-08-08T14:40:26Z</time>
      </trkpt>
      <trkpt lat="45.43029" lon="0.52305">
        <ele>163.93540890244</ele>
        <time>2015-08-08T14:40:31Z</time>
      </trkpt>
      <trkpt lat="45.43025" lon="0.52299">
        <ele>164.79865213645</ele>
        <time>2015-08-08T14:40:36Z</time>
      </trkpt>
      <trkpt lat="45.43023" lon="0.52285">
        <ele>165.52828878935</ele>
        <time>2015-08-08T14:40:41Z</time>
      </trkpt>
      <trkpt lat="45.43021" lon="0.52252">
        <ele>166.23188567699</ele>
        <time>2015-08-08T14:40:46Z</time>
      </trkpt>
      <trkpt lat="45.43017" lon="0.52219">
        <ele>166.99485571507</ele>
        <time>2015-08-08T14:40:51Z</time>
      </trkpt>
      <trkpt lat="45.43013" lon="0.52184">
        <ele>167.55039255393</ele>
        <time>2015-08-08T14:40:56Z</time>
      </trkpt>
      <trkpt lat="45.43011" lon="0.5216">
        <ele>168.01223908693</ele>
        <time>2015-08-08T14:41:01Z</time>
      </trkpt>
      <trkpt lat="45.4301" lon="0.52148">
        <ele>168.01223908693</ele>
        <time>2015-08-08T14:41:06Z</time>
      </trkpt>
      <trkpt lat="45.43009" lon="0.52136">
        <ele>168.7023033203</ele>
        <time>2015-08-08T14:41:11Z</time>
      </trkpt>
      <trkpt lat="45.43006" lon="0.52126">
        <ele>168.7023033203</ele>
        <time>2015-08-08T14:41:16Z</time>
      </trkpt>
      <trkpt lat="45.43005" lon="0.52117">
        <ele>169.22656347001</ele>
        <time>2015-08-08T14:41:21Z</time>
      </trkpt>
      <trkpt lat="45.43009" lon="0.52109">
        <ele>169.22656347001</ele>
        <time>2015-08-08T14:41:26Z</time>
      </trkpt>
      <trkpt lat="45.43012" lon="0.52102">
        <ele>169.47989798721</ele>
        <time>2015-08-08T14:41:31Z</time>
      </trkpt>
      <trkpt lat="45.43017" lon="0.52096">
        <ele>169.47989798721</ele>
        <time>2015-08-08T14:41:36Z</time>
      </trkpt>
      <trkpt lat="45.4302" lon="0.52093">
        <ele>169.74044556764</ele>
        <time>2015-08-08T14:41:41Z</time>
      </trkpt>
      <trkpt lat="45.43021" lon="0.52092">
        <ele>169.74044556764</ele>
        <time>2015-08-08T14:41:46Z</time>
      </trkpt>
      <trkpt lat="45.43022" lon="0.52091">
        <ele>169.74044556764</ele>
        <time>2015-08-08T14:41:51Z</time>
      </trkpt>
      <trkpt lat="45.43022" lon="0.5209">
        <ele>169.74044556764</ele>
        <time>2015-08-08T14:41:56Z</time>
      </trkpt>
      <trkpt lat="45.43022" lon="0.52089">
        <ele>169.74044556764</ele>
        <time>2015-08-08T14:42:01Z</time>
      </trkpt>
      <trkpt lat="45.43023" lon="0.52089">
        <ele>169.74044556764</ele>
        <time>2015-08-08T14:42:06Z</time>
      </trkpt>
      <trkpt lat="45.43023" lon="0.52089">
        <ele>169.74044556764</ele>
        <time>2015-08-08T14:42:11Z</time>
      </trkpt>
      <trkpt lat="45.43023" lon="0.52087">
        <ele>169.74044556764</ele>
        <time>2015-08-08T14:42:16Z</time>
      </trkpt>
      <trkpt lat="45.43023" lon="0.52087">
        <ele>169.74044556764</ele>
        <time>2015-08-08T14:42:26Z</time>
      </trkpt>
      <trkpt lat="45.43023" lon="0.52087">
        <ele>169.74044556764</ele>
        <time>2015-08-08T14:42:31Z</time>
      </trkpt>
      <trkpt lat="45.43023" lon="0.52087">
        <ele>169.74044556764</ele>
        <time>2015-08-08T14:42:36Z</time>
      </trkpt>
      <trkpt lat="45.43023" lon="0.52087">
        <ele>169.74044556764</ele>
        <time>2015-08-08T14:42:41Z</time>
      </trkpt>
      <trkpt lat="45.43023" lon="0.52087">
        <ele>169.74044556764</ele>
        <time>2015-08-08T14:42:46Z</time>
      </trkpt>
      <trkpt lat="45.43023" lon="0.52087">
        <ele>169.74044556764</ele>
        <time>2015-08-08T14:42:51Z</time>
      </trkpt>
      <trkpt lat="45.43023" lon="0.52087">
        <ele>169.74044556764</ele>
        <time>2015-08-08T14:42:56Z</time>
      </trkpt>
      <trkpt lat="45.43023" lon="0.52087">
        <ele>169.74044556764</ele>
        <time>2015-08-08T14:43:01Z</time>
      </trkpt>
      <trkpt lat="45.43023" lon="0.52085">
        <ele>169.74044556764</ele>
        <time>2015-08-08T14:43:06Z</time>
      </trkpt>
      <trkpt lat="45.43023" lon="0.52085">
        <ele>169.74044556764</ele>
        <time>2015-08-08T14:43:11Z</time>
      </trkpt>
      <trkpt lat="45.43023" lon="0.52085">
        <ele>169.74044556764</ele>
        <time>2015-08-08T14:43:16Z</time>
      </trkpt>
      <trkpt lat="45.43023" lon="0.52085">
        <ele>169.74044556764</ele>
        <time>2015-08-08T14:43:21Z</time>
      </trkpt>
      <trkpt lat="45.43023" lon="0.52084">
        <ele>169.74044556764</ele>
        <time>2015-08-08T14:43:26Z</time>
      </trkpt>
      <trkpt lat="45.43023" lon="0.52083">
        <ele>169.74044556764</ele>
        <time>2015-08-08T14:43:31Z</time>
      </trkpt>
      <trkpt lat="45.43023" lon="0.52083">
        <ele>170.56861411032</ele>
        <time>2015-08-08T14:43:36Z</time>
      </trkpt>
      <trkpt lat="45.43023" lon="0.52083">
        <ele>170.56861411032</ele>
        <time>2015-08-08T14:43:41Z</time>
      </trkpt>
      <trkpt lat="45.43023" lon="0.52083">
        <ele>170.56861411032</ele>
        <time>2015-08-08T14:43:46Z</time>
      </trkpt>
      <trkpt lat="45.43023" lon="0.52083">
        <ele>170.56861411032</ele>
        <time>2015-08-08T14:43:51Z</time>
      </trkpt>
      <trkpt lat="45.43023" lon="0.52083">
        <ele>170.56861411032</ele>
        <time>2015-08-08T14:43:56Z</time>
      </trkpt>
      <trkpt lat="45.43023" lon="0.52083">
        <ele>170.56861411032</ele>
        <time>2015-08-08T14:44:01Z</time>
      </trkpt>
      <trkpt lat="45.43023" lon="0.52083">
        <ele>170.56861411032</ele>
        <time>2015-08-08T14:44:06Z</time>
      </trkpt>
      <trkpt lat="45.43023" lon="0.52083">
        <ele>170.56861411032</ele>
        <time>2015-08-08T14:44:11Z</time>
      </trkpt>
      <trkpt lat="45.43023" lon="0.52083">
        <ele>170.56861411032</ele>
        <time>2015-08-08T14:44:16Z</time>
      </trkpt>
      <trkpt lat="45.43023" lon="0.52083">
        <ele>170.56861411032</ele>
        <time>2015-08-08T14:44:21Z</time>
      </trkpt>
      <trkpt lat="45.43023" lon="0.52083">
        <ele>170.56861411032</ele>
        <time>2015-08-08T14:44:26Z</time>
      </trkpt>
      <trkpt lat="45.43022" lon="0.52079">
        <ele>170.56861411032</ele>
        <time>2015-08-08T14:44:31Z</time>
      </trkpt>
      <trkpt lat="45.4303" lon="0.52086">
        <ele>170.13312432354</ele>
        <time>2015-08-08T14:44:36Z</time>
      </trkpt>
      <trkpt lat="45.43036" lon="0.52084">
        <ele>170.13312432354</ele>
        <time>2015-08-08T14:44:41Z</time>
      </trkpt>
      <trkpt lat="45.43044" lon="0.52084">
        <ele>170.01217061792</ele>
        <time>2015-08-08T14:44:46Z</time>
      </trkpt>
      <trkpt lat="45.43049" lon="0.52077">
        <ele>170.01217061792</ele>
        <time>2015-08-08T14:44:51Z</time>
      </trkpt>
      <trkpt lat="45.43056" lon="0.52067">
        <ele>170.38461906387</ele>
        <time>2015-08-08T14:44:56Z</time>
      </trkpt>
      <trkpt lat="45.43064" lon="0.52054">
        <ele>171.0546071237</ele>
        <time>2015-08-08T14:45:01Z</time>
      </trkpt>
      <trkpt lat="45.43072" lon="0.52042">
        <ele>171.63813917522</ele>
        <time>2015-08-08T14:45:06Z</time>
      </trkpt>
      <trkpt lat="45.43084" lon="0.52028">
        <ele>171.96708199873</ele>
        <time>2015-08-08T14:45:11Z</time>
      </trkpt>
      <trkpt lat="45.4311" lon="0.52012">
        <ele>172.07377759444</ele>
        <time>2015-08-08T14:45:16Z</time>
      </trkpt>
      <trkpt lat="45.43137" lon="0.5199">
        <ele>172.07534528462</ele>
        <time>2015-08-08T14:45:21Z</time>
      </trkpt>
      <trkpt lat="45.43158" lon="0.51974">
        <ele>172.16712184474</ele>
        <time>2015-08-08T14:45:26Z</time>
      </trkpt>
      <trkpt lat="45.43165" lon="0.51972">
        <ele>172.16712184474</ele>
        <time>2015-08-08T14:45:31Z</time>
      </trkpt>
      <trkpt lat="45.43169" lon="0.51979">
        <ele>172.41460794586</ele>
        <time>2015-08-08T14:45:36Z</time>
      </trkpt>
      <trkpt lat="45.43172" lon="0.51973">
        <ele>172.41460794586</ele>
        <time>2015-08-08T14:45:41Z</time>
      </trkpt>
      <trkpt lat="45.43173" lon="0.51965">
        <ele>172.67635130714</ele>
        <time>2015-08-08T14:45:46Z</time>
      </trkpt>
      <trkpt lat="45.43171" lon="0.51957">
        <ele>172.67635130714</ele>
        <time>2015-08-08T14:45:51Z</time>
      </trkpt>
      <trkpt lat="45.43171" lon="0.51949">
        <ele>172.48984177445</ele>
        <time>2015-08-08T14:45:56Z</time>
      </trkpt>
      <trkpt lat="45.43172" lon="0.51941">
        <ele>172.48984177445</ele>
        <time>2015-08-08T14:46:01Z</time>
      </trkpt>
      <trkpt lat="45.43171" lon="0.51926">
        <ele>172.72484615522</ele>
        <time>2015-08-08T14:46:06Z</time>
      </trkpt>
      <trkpt lat="45.4317" lon="0.51916">
        <ele>172.72484615522</ele>
        <time>2015-08-08T14:46:11Z</time>
      </trkpt>
      <trkpt lat="45.43167" lon="0.51912">
        <ele>173.22055159852</ele>
        <time>2015-08-08T14:46:16Z</time>
      </trkpt>
      <trkpt lat="45.43165" lon="0.51903">
        <ele>173.22055159852</ele>
        <time>2015-08-08T14:46:21Z</time>
      </trkpt>
      <trkpt lat="45.43163" lon="0.51892">
        <ele>173.82726489164</ele>
        <time>2015-08-08T14:46:26Z</time>
      </trkpt>
      <trkpt lat="45.43163" lon="0.51886">
        <ele>173.82726489164</ele>
        <time>2015-08-08T14:46:31Z</time>
      </trkpt>
      <trkpt lat="45.4316" lon="0.51878">
        <ele>173.71427926559</ele>
        <time>2015-08-08T14:46:36Z</time>
      </trkpt>
      <trkpt lat="45.43158" lon="0.51863">
        <ele>174.29004280636</ele>
        <time>2015-08-08T14:46:41Z</time>
      </trkpt>
      <trkpt lat="45.43158" lon="0.51857">
        <ele>174.29004280636</ele>
        <time>2015-08-08T14:46:46Z</time>
      </trkpt>
      <trkpt lat="45.43157" lon="0.51849">
        <ele>173.62954840888</ele>
        <time>2015-08-08T14:46:51Z</time>
      </trkpt>
      <trkpt lat="45.43158" lon="0.51842">
        <ele>173.62954840888</ele>
        <time>2015-08-08T14:46:56Z</time>
      </trkpt>
      <trkpt lat="45.43157" lon="0.51828">
        <ele>172.82050516801</ele>
        <time>2015-08-08T14:47:01Z</time>
      </trkpt>
      <trkpt lat="45.43156" lon="0.51819">
        <ele>172.82050516801</ele>
        <time>2015-08-08T14:47:06Z</time>
      </trkpt>
      <trkpt lat="45.43155" lon="0.51812">
        <ele>172.64057880433</ele>
        <time>2015-08-08T14:47:11Z</time>
      </trkpt>
      <trkpt lat="45.43152" lon="0.51803">
        <ele>172.64057880433</ele>
        <time>2015-08-08T14:47:16Z</time>
      </trkpt>
      <trkpt lat="45.43152" lon="0.51794">
        <ele>172.46832331905</ele>
        <time>2015-08-08T14:47:21Z</time>
      </trkpt>
      <trkpt lat="45.43152" lon="0.51784">
        <ele>172.46832331905</ele>
        <time>2015-08-08T14:47:26Z</time>
      </trkpt>
      <trkpt lat="45.43155" lon="0.51777">
        <ele>172.16026275863</ele>
        <time>2015-08-08T14:47:31Z</time>
      </trkpt>
      <trkpt lat="45.43157" lon="0.5177">
        <ele>172.16026275863</ele>
        <time>2015-08-08T14:47:36Z</time>
      </trkpt>
      <trkpt lat="45.43158" lon="0.5176">
        <ele>171.85765457447</ele>
        <time>2015-08-08T14:47:41Z</time>
      </trkpt>
      <trkpt lat="45.43157" lon="0.51751">
        <ele>171.85765457447</ele>
        <time>2015-08-08T14:47:46Z</time>
      </trkpt>
      <trkpt lat="45.43155" lon="0.51742">
        <ele>171.40313874981</ele>
        <time>2015-08-08T14:47:51Z</time>
      </trkpt>
      <trkpt lat="45.43154" lon="0.51732">
        <ele>171.40313874981</ele>
        <time>2015-08-08T14:47:56Z</time>
      </trkpt>
      <trkpt lat="45.43153" lon="0.51724">
        <ele>171.05484449783</ele>
        <time>2015-08-08T14:48:01Z</time>
      </trkpt>
      <trkpt lat="45.43153" lon="0.51715">
        <ele>171.05484449783</ele>
        <time>2015-08-08T14:48:06Z</time>
      </trkpt>
      <trkpt lat="45.43154" lon="0.51704">
        <ele>170.90751788007</ele>
        <time>2015-08-08T14:48:11Z</time>
      </trkpt>
      <trkpt lat="45.43154" lon="0.51694">
        <ele>170.90751788007</ele>
        <time>2015-08-08T14:48:16Z</time>
      </trkpt>
      <trkpt lat="45.43149" lon="0.51684">
        <ele>170.22693096193</ele>
        <time>2015-08-08T14:48:21Z</time>
      </trkpt>
      <trkpt lat="45.43147" lon="0.5167">
        <ele>170.06360153055</ele>
        <time>2015-08-08T14:48:26Z</time>
      </trkpt>
      <trkpt lat="45.43145" lon="0.51661">
        <ele>170.06360153055</ele>
        <time>2015-08-08T14:48:31Z</time>
      </trkpt>
      <trkpt lat="45.43147" lon="0.51655">
        <ele>169.38625648414</ele>
        <time>2015-08-08T14:48:36Z</time>
      </trkpt>
      <trkpt lat="45.43151" lon="0.51649">
        <ele>169.38625648414</ele>
        <time>2015-08-08T14:48:41Z</time>
      </trkpt>
      <trkpt lat="45.43168" lon="0.51637">
        <ele>168.26398166482</ele>
        <time>2015-08-08T14:48:46Z</time>
      </trkpt>
      <trkpt lat="45.43185" lon="0.51623">
        <ele>167.12227921566</ele>
        <time>2015-08-08T14:48:51Z</time>
      </trkpt>
      <trkpt lat="45.43194" lon="0.51616">
        <ele>166.32658577216</ele>
        <time>2015-08-08T14:48:56Z</time>
      </trkpt>
      <trkpt lat="45.43199" lon="0.51615">
        <ele>166.32658577216</ele>
        <time>2015-08-08T14:49:01Z</time>
      </trkpt>
      <trkpt lat="45.43204" lon="0.51613">
        <ele>165.2056967255</ele>
        <time>2015-08-08T14:49:06Z</time>
      </trkpt>
      <trkpt lat="45.43207" lon="0.51612">
        <ele>165.2056967255</ele>
        <time>2015-08-08T14:49:11Z</time>
      </trkpt>
      <trkpt lat="45.43214" lon="0.51612">
        <ele>163.81589367497</ele>
        <time>2015-08-08T14:49:16Z</time>
      </trkpt>
      <trkpt lat="45.4322" lon="0.5161">
        <ele>163.81589367497</ele>
        <time>2015-08-08T14:49:21Z</time>
      </trkpt>
      <trkpt lat="45.43228" lon="0.51612">
        <ele>162.57029468448</ele>
        <time>2015-08-08T14:49:26Z</time>
      </trkpt>
      <trkpt lat="45.43235" lon="0.51611">
        <ele>162.57029468448</ele>
        <time>2015-08-08T14:49:31Z</time>
      </trkpt>
      <trkpt lat="45.43241" lon="0.5161">
        <ele>161.21710869997</ele>
        <time>2015-08-08T14:49:36Z</time>
      </trkpt>
      <trkpt lat="45.43246" lon="0.51608">
        <ele>161.21710869997</ele>
        <time>2015-08-08T14:49:41Z</time>
      </trkpt>
      <trkpt lat="45.43252" lon="0.51604">
        <ele>160.25823576429</ele>
        <time>2015-08-08T14:49:46Z</time>
      </trkpt>
      <trkpt lat="45.43257" lon="0.51602">
        <ele>160.25823576429</ele>
        <time>2015-08-08T14:49:51Z</time>
      </trkpt>
      <trkpt lat="45.43257" lon="0.51601">
        <ele>160.25823576429</ele>
        <time>2015-08-08T14:49:56Z</time>
      </trkpt>
      <trkpt lat="45.43257" lon="0.51602">
        <ele>160.25823576429</ele>
        <time>2015-08-08T14:50:01Z</time>
      </trkpt>
      <trkpt lat="45.43263" lon="0.51599">
        <ele>158.86051999106</ele>
        <time>2015-08-08T14:50:06Z</time>
      </trkpt>
      <trkpt lat="45.43269" lon="0.51599">
        <ele>158.86051999106</ele>
        <time>2015-08-08T14:50:11Z</time>
      </trkpt>
      <trkpt lat="45.43273" lon="0.51601">
        <ele>157.59338881029</ele>
        <time>2015-08-08T14:50:16Z</time>
      </trkpt>
      <trkpt lat="45.43277" lon="0.51602">
        <ele>157.59338881029</ele>
        <time>2015-08-08T14:50:21Z</time>
      </trkpt>
      <trkpt lat="45.4328" lon="0.51603">
        <ele>157.59338881029</ele>
        <time>2015-08-08T14:50:26Z</time>
      </trkpt>
      <trkpt lat="45.43281" lon="0.51604">
        <ele>157.59338881029</ele>
        <time>2015-08-08T14:50:31Z</time>
      </trkpt>
      <trkpt lat="45.43286" lon="0.51605">
        <ele>156.01843917063</ele>
        <time>2015-08-08T14:50:36Z</time>
      </trkpt>
      <trkpt lat="45.43293" lon="0.51608">
        <ele>156.01843917063</ele>
        <time>2015-08-08T14:50:41Z</time>
      </trkpt>
      <trkpt lat="45.43306" lon="0.51609">
        <ele>154.34992006882</ele>
        <time>2015-08-08T14:50:56Z</time>
      </trkpt>
      <trkpt lat="45.43318" lon="0.51624">
        <ele>151.89301423212</ele>
        <time>2015-08-08T14:51:11Z</time>
      </trkpt>
      <trkpt lat="45.43335" lon="0.51637">
        <ele>149.46157133859</ele>
        <time>2015-08-08T14:51:26Z</time>
      </trkpt>
      <trkpt lat="45.43339" lon="0.51642">
        <ele>149.46157133859</ele>
        <time>2015-08-08T14:51:31Z</time>
      </trkpt>
      <trkpt lat="45.43343" lon="0.51649">
        <ele>146.72863335389</ele>
        <time>2015-08-08T14:51:36Z</time>
      </trkpt>
      <trkpt lat="45.43348" lon="0.51658">
        <ele>146.72863335389</ele>
        <time>2015-08-08T14:51:41Z</time>
      </trkpt>
      <trkpt lat="45.43352" lon="0.5166">
        <ele>144.04047863915</ele>
        <time>2015-08-08T14:51:46Z</time>
      </trkpt>
      <trkpt lat="45.43358" lon="0.51655">
        <ele>144.04047863915</ele>
        <time>2015-08-08T14:51:51Z</time>
      </trkpt>
      <trkpt lat="45.43363" lon="0.51648">
        <ele>141.6456290793</ele>
        <time>2015-08-08T14:51:56Z</time>
      </trkpt>
      <trkpt lat="45.43369" lon="0.51641">
        <ele>141.6456290793</ele>
        <time>2015-08-08T14:52:01Z</time>
      </trkpt>
      <trkpt lat="45.43372" lon="0.51634">
        <ele>139.78779270123</ele>
        <time>2015-08-08T14:52:06Z</time>
      </trkpt>
      <trkpt lat="45.43377" lon="0.51627">
        <ele>139.78779270123</ele>
        <time>2015-08-08T14:52:11Z</time>
      </trkpt>
      <trkpt lat="45.43382" lon="0.51621">
        <ele>138.50377300882</ele>
        <time>2015-08-08T14:52:16Z</time>
      </trkpt>
      <trkpt lat="45.43387" lon="0.51613">
        <ele>138.50377300882</ele>
        <time>2015-08-08T14:52:21Z</time>
      </trkpt>
      <trkpt lat="45.43389" lon="0.51613">
        <ele>137.46563022503</ele>
        <time>2015-08-08T14:52:26Z</time>
      </trkpt>
      <trkpt lat="45.43389" lon="0.5161">
        <ele>137.46563022503</ele>
        <time>2015-08-08T14:52:31Z</time>
      </trkpt>
      <trkpt lat="45.43388" lon="0.51602">
        <ele>137.46563022503</ele>
        <time>2015-08-08T14:52:36Z</time>
      </trkpt>
      <trkpt lat="45.43387" lon="0.51599">
        <ele>137.07482117722</ele>
        <time>2015-08-08T14:52:41Z</time>
      </trkpt>
      <trkpt lat="45.43387" lon="0.51599">
        <ele>137.07482117722</ele>
        <time>2015-08-08T14:52:46Z</time>
      </trkpt>
      <trkpt lat="45.43391" lon="0.51599">
        <ele>137.07482117722</ele>
        <time>2015-08-08T14:52:51Z</time>
      </trkpt>
      <trkpt lat="45.43395" lon="0.51593">
        <ele>136.6349315051</ele>
        <time>2015-08-08T14:52:56Z</time>
      </trkpt>
      <trkpt lat="45.43394" lon="0.51586">
        <ele>136.6349315051</ele>
        <time>2015-08-08T14:53:01Z</time>
      </trkpt>
      <trkpt lat="45.43392" lon="0.51583">
        <ele>136.6349315051</ele>
        <time>2015-08-08T14:53:06Z</time>
      </trkpt>
      <trkpt lat="45.43388" lon="0.51577">
        <ele>135.93304320887</ele>
        <time>2015-08-08T14:53:11Z</time>
      </trkpt>
      <trkpt lat="45.43386" lon="0.51578">
        <ele>135.93304320887</ele>
        <time>2015-08-08T14:53:16Z</time>
      </trkpt>
      <trkpt lat="45.43385" lon="0.51577">
        <ele>135.93304320887</ele>
        <time>2015-08-08T14:53:21Z</time>
      </trkpt>
      <trkpt lat="45.43384" lon="0.51578">
        <ele>135.93304320887</ele>
        <time>2015-08-08T14:53:26Z</time>
      </trkpt>
      <trkpt lat="45.43385" lon="0.51579">
        <ele>135.93304320887</ele>
        <time>2015-08-08T14:53:31Z</time>
      </trkpt>
      <trkpt lat="45.43386" lon="0.5158">
        <ele>135.93304320887</ele>
        <time>2015-08-08T14:53:42Z</time>
      </trkpt>
      <trkpt lat="45.43386" lon="0.5158">
        <ele>135.93304320887</ele>
        <time>2015-08-08T14:53:47Z</time>
      </trkpt>
      <trkpt lat="45.43391" lon="0.51583">
        <ele>134.9598348342</ele>
        <time>2015-08-08T14:54:01Z</time>
      </trkpt>
      <trkpt lat="45.43403" lon="0.5158">
        <ele>133.85142673202</ele>
        <time>2015-08-08T14:54:16Z</time>
      </trkpt>
      <trkpt lat="45.43404" lon="0.51565">
        <ele>132.79185542805</ele>
        <time>2015-08-08T14:54:22Z</time>
      </trkpt>
      <trkpt lat="45.43408" lon="0.51546">
        <ele>132.72960069992</ele>
        <time>2015-08-08T14:54:31Z</time>
      </trkpt>
      <trkpt lat="45.43411" lon="0.51536">
        <ele>132.72960069992</ele>
        <time>2015-08-08T14:54:36Z</time>
      </trkpt>
      <trkpt lat="45.43411" lon="0.51526">
        <ele>132.9265323017</ele>
        <time>2015-08-08T14:54:41Z</time>
      </trkpt>
      <trkpt lat="45.4341" lon="0.5152">
        <ele>132.9265323017</ele>
        <time>2015-08-08T14:54:46Z</time>
      </trkpt>
      <trkpt lat="45.43413" lon="0.51512">
        <ele>132.66911041744</ele>
        <time>2015-08-08T14:54:51Z</time>
      </trkpt>
      <trkpt lat="45.43412" lon="0.51504">
        <ele>132.66911041744</ele>
        <time>2015-08-08T14:54:56Z</time>
      </trkpt>
      <trkpt lat="45.43414" lon="0.51497">
        <ele>132.16208081785</ele>
        <time>2015-08-08T14:55:01Z</time>
      </trkpt>
      <trkpt lat="45.43414" lon="0.51494">
        <ele>132.16208081785</ele>
        <time>2015-08-08T14:55:06Z</time>
      </trkpt>
      <trkpt lat="45.43418" lon="0.51487">
        <ele>132.16208081785</ele>
        <time>2015-08-08T14:55:11Z</time>
      </trkpt>
      <trkpt lat="45.43421" lon="0.51478">
        <ele>132.67662293733</ele>
        <time>2015-08-08T14:55:16Z</time>
      </trkpt>
      <trkpt lat="45.43425" lon="0.51471">
        <ele>132.67662293733</ele>
        <time>2015-08-08T14:55:21Z</time>
      </trkpt>
      <trkpt lat="45.43426" lon="0.51464">
        <ele>134.26355722389</ele>
        <time>2015-08-08T14:55:26Z</time>
      </trkpt>
      <trkpt lat="45.43431" lon="0.51459">
        <ele>134.26355722389</ele>
        <time>2015-08-08T14:55:31Z</time>
      </trkpt>
      <trkpt lat="45.43434" lon="0.51455">
        <ele>135.71316446964</ele>
        <time>2015-08-08T14:55:36Z</time>
      </trkpt>
      <trkpt lat="45.43438" lon="0.51452">
        <ele>135.71316446964</ele>
        <time>2015-08-08T14:55:41Z</time>
      </trkpt>
      <trkpt lat="45.43444" lon="0.51446">
        <ele>136.7696291512</ele>
        <time>2015-08-08T14:55:46Z</time>
      </trkpt>
      <trkpt lat="45.43447" lon="0.51437">
        <ele>136.7696291512</ele>
        <time>2015-08-08T14:55:51Z</time>
      </trkpt>
      <trkpt lat="45.43445" lon="0.51428">
        <ele>137.9320025248</ele>
        <time>2015-08-08T14:55:56Z</time>
      </trkpt>
      <trkpt lat="45.43446" lon="0.51419">
        <ele>137.9320025248</ele>
        <time>2015-08-08T14:56:01Z</time>
      </trkpt>
      <trkpt lat="45.4345" lon="0.5141">
        <ele>139.76328038649</ele>
        <time>2015-08-08T14:56:06Z</time>
      </trkpt>
      <trkpt lat="45.43454" lon="0.51406">
        <ele>139.76328038649</ele>
        <time>2015-08-08T14:56:11Z</time>
      </trkpt>
      <trkpt lat="45.43459" lon="0.51402">
        <ele>141.25568718036</ele>
        <time>2015-08-08T14:56:16Z</time>
      </trkpt>
      <trkpt lat="45.43468" lon="0.51392">
        <ele>143.01847553035</ele>
        <time>2015-08-08T14:56:21Z</time>
      </trkpt>
      <trkpt lat="45.43478" lon="0.51396">
        <ele>144.33286786163</ele>
        <time>2015-08-08T14:56:26Z</time>
      </trkpt>
      <trkpt lat="45.43503" lon="0.51411">
        <ele>145.87446706544</ele>
        <time>2015-08-08T14:56:31Z</time>
      </trkpt>
      <trkpt lat="45.43517" lon="0.51407">
        <ele>147.67785449356</ele>
        <time>2015-08-08T14:56:36Z</time>
      </trkpt>
      <trkpt lat="45.43525" lon="0.51401">
        <ele>150.16355136735</ele>
        <time>2015-08-08T14:56:41Z</time>
      </trkpt>
      <trkpt lat="45.43533" lon="0.51395">
        <ele>150.16355136735</ele>
        <time>2015-08-08T14:56:46Z</time>
      </trkpt>
      <trkpt lat="45.43539" lon="0.51387">
        <ele>153.14295756856</ele>
        <time>2015-08-08T14:56:51Z</time>
      </trkpt>
      <trkpt lat="45.43547" lon="0.51379">
        <ele>156.52655411484</ele>
        <time>2015-08-08T14:56:56Z</time>
      </trkpt>
      <trkpt lat="45.43552" lon="0.51371">
        <ele>156.52655411484</ele>
        <time>2015-08-08T14:57:01Z</time>
      </trkpt>
      <trkpt lat="45.43556" lon="0.51363">
        <ele>159.9133825086</ele>
        <time>2015-08-08T14:57:06Z</time>
      </trkpt>
      <trkpt lat="45.4356" lon="0.51354">
        <ele>159.9133825086</ele>
        <time>2015-08-08T14:57:11Z</time>
      </trkpt>
      <trkpt lat="45.43564" lon="0.51346">
        <ele>163.2347444264</ele>
        <time>2015-08-08T14:57:16Z</time>
      </trkpt>
      <trkpt lat="45.43568" lon="0.51336">
        <ele>163.2347444264</ele>
        <time>2015-08-08T14:57:21Z</time>
      </trkpt>
      <trkpt lat="45.43571" lon="0.51329">
        <ele>165.99503699841</ele>
        <time>2015-08-08T14:57:26Z</time>
      </trkpt>
      <trkpt lat="45.43575" lon="0.51321">
        <ele>165.99503699841</ele>
        <time>2015-08-08T14:57:31Z</time>
      </trkpt>
      <trkpt lat="45.43579" lon="0.51313">
        <ele>168.2988844387</ele>
        <time>2015-08-08T14:57:36Z</time>
      </trkpt>
      <trkpt lat="45.43583" lon="0.51307">
        <ele>168.2988844387</ele>
        <time>2015-08-08T14:57:41Z</time>
      </trkpt>
      <trkpt lat="45.43587" lon="0.51299">
        <ele>170.36001767569</ele>
        <time>2015-08-08T14:57:46Z</time>
      </trkpt>
      <trkpt lat="45.43591" lon="0.51296">
        <ele>170.36001767569</ele>
        <time>2015-08-08T14:57:51Z</time>
      </trkpt>
      <trkpt lat="45.43598" lon="0.51297">
        <ele>171.78652020134</ele>
        <time>2015-08-08T14:57:56Z</time>
      </trkpt>
      <trkpt lat="45.43598" lon="0.51296">
        <ele>171.78652020134</ele>
        <time>2015-08-08T14:58:01Z</time>
      </trkpt>
      <trkpt lat="45.43598" lon="0.51296">
        <ele>171.78652020134</ele>
        <time>2015-08-08T14:58:06Z</time>
      </trkpt>
      <trkpt lat="45.43598" lon="0.51296">
        <ele>171.78652020134</ele>
        <time>2015-08-08T14:58:11Z</time>
      </trkpt>
      <trkpt lat="45.43604" lon="0.51298">
        <ele>171.78652020134</ele>
        <time>2015-08-08T14:58:16Z</time>
      </trkpt>
      <trkpt lat="45.43607" lon="0.51304">
        <ele>173.00988582261</ele>
        <time>2015-08-08T14:58:21Z</time>
      </trkpt>
      <trkpt lat="45.4361" lon="0.51311">
        <ele>173.00988582261</ele>
        <time>2015-08-08T14:58:26Z</time>
      </trkpt>
      <trkpt lat="45.43611" lon="0.51321">
        <ele>174.15689537813</ele>
        <time>2015-08-08T14:58:31Z</time>
      </trkpt>
      <trkpt lat="45.4361" lon="0.51332">
        <ele>174.15689537813</ele>
        <time>2015-08-08T14:58:36Z</time>
      </trkpt>
      <trkpt lat="45.43612" lon="0.5134">
        <ele>174.88429435065</ele>
        <time>2015-08-08T14:58:41Z</time>
      </trkpt>
      <trkpt lat="45.43616" lon="0.51345">
        <ele>174.88429435065</ele>
        <time>2015-08-08T14:58:46Z</time>
      </trkpt>
      <trkpt lat="45.4362" lon="0.51351">
        <ele>175.30776459855</ele>
        <time>2015-08-08T14:58:51Z</time>
      </trkpt>
      <trkpt lat="45.43624" lon="0.51357">
        <ele>175.30776459855</ele>
        <time>2015-08-08T14:58:56Z</time>
      </trkpt>
      <trkpt lat="45.43629" lon="0.51364">
        <ele>175.54995333425</ele>
        <time>2015-08-08T14:59:01Z</time>
      </trkpt>
      <trkpt lat="45.43635" lon="0.5137">
        <ele>175.54995333425</ele>
        <time>2015-08-08T14:59:06Z</time>
      </trkpt>
      <trkpt lat="45.4364" lon="0.51377">
        <ele>175.82607165034</ele>
        <time>2015-08-08T14:59:11Z</time>
      </trkpt>
      <trkpt lat="45.43645" lon="0.51383">
        <ele>175.82607165034</ele>
        <time>2015-08-08T14:59:16Z</time>
      </trkpt>
      <trkpt lat="45.43651" lon="0.51388">
        <ele>176.10502186048</ele>
        <time>2015-08-08T14:59:21Z</time>
      </trkpt>
      <trkpt lat="45.43656" lon="0.51394">
        <ele>176.10502186048</ele>
        <time>2015-08-08T14:59:26Z</time>
      </trkpt>
      <trkpt lat="45.43662" lon="0.51402">
        <ele>176.48784278338</ele>
        <time>2015-08-08T14:59:31Z</time>
      </trkpt>
      <trkpt lat="45.43667" lon="0.51409">
        <ele>176.48784278338</ele>
        <time>2015-08-08T14:59:36Z</time>
      </trkpt>
      <trkpt lat="45.43671" lon="0.51416">
        <ele>176.86625088682</ele>
        <time>2015-08-08T14:59:41Z</time>
      </trkpt>
      <trkpt lat="45.43677" lon="0.51423">
        <ele>176.86625088682</ele>
        <time>2015-08-08T14:59:46Z</time>
      </trkpt>
      <trkpt lat="45.43681" lon="0.51429">
        <ele>177.39946450524</ele>
        <time>2015-08-08T14:59:51Z</time>
      </trkpt>
      <trkpt lat="45.43687" lon="0.51432">
        <ele>177.39946450524</ele>
        <time>2015-08-08T14:59:56Z</time>
      </trkpt>
      <trkpt lat="45.43692" lon="0.51436">
        <ele>177.7158949146</ele>
        <time>2015-08-08T15:00:01Z</time>
      </trkpt>
      <trkpt lat="45.43698" lon="0.5144">
        <ele>177.7158949146</ele>
        <time>2015-08-08T15:00:06Z</time>
      </trkpt>
      <trkpt lat="45.43703" lon="0.51446">
        <ele>177.78901508258</ele>
        <time>2015-08-08T15:00:11Z</time>
      </trkpt>
      <trkpt lat="45.43708" lon="0.51451">
        <ele>177.78901508258</ele>
        <time>2015-08-08T15:00:16Z</time>
      </trkpt>
      <trkpt lat="45.43713" lon="0.51458">
        <ele>177.681496714</ele>
        <time>2015-08-08T15:00:21Z</time>
      </trkpt>
      <trkpt lat="45.43718" lon="0.51464">
        <ele>177.681496714</ele>
        <time>2015-08-08T15:00:26Z</time>
      </trkpt>
      <trkpt lat="45.43724" lon="0.5147">
        <ele>177.5528811613</ele>
        <time>2015-08-08T15:00:31Z</time>
      </trkpt>
      <trkpt lat="45.4373" lon="0.51476">
        <ele>177.5528811613</ele>
        <time>2015-08-08T15:00:36Z</time>
      </trkpt>
      <trkpt lat="45.43736" lon="0.5148">
        <ele>177.40701441625</ele>
        <time>2015-08-08T15:00:41Z</time>
      </trkpt>
      <trkpt lat="45.43742" lon="0.51485">
        <ele>177.40701441625</ele>
        <time>2015-08-08T15:00:46Z</time>
      </trkpt>
      <trkpt lat="45.43748" lon="0.5149">
        <ele>177.17551653051</ele>
        <time>2015-08-08T15:00:51Z</time>
      </trkpt>
      <trkpt lat="45.43754" lon="0.51495">
        <ele>177.17551653051</ele>
        <time>2015-08-08T15:00:56Z</time>
      </trkpt>
      <trkpt lat="45.43761" lon="0.51498">
        <ele>177.15560065573</ele>
        <time>2015-08-08T15:01:01Z</time>
      </trkpt>
      <trkpt lat="45.43768" lon="0.515">
        <ele>177.15560065573</ele>
        <time>2015-08-08T15:01:06Z</time>
      </trkpt>
      <trkpt lat="45.43773" lon="0.51502">
        <ele>177.08888254437</ele>
        <time>2015-08-08T15:01:11Z</time>
      </trkpt>
      <trkpt lat="45.43775" lon="0.51503">
        <ele>177.08888254437</ele>
        <time>2015-08-08T15:01:16Z</time>
      </trkpt>
      <trkpt lat="45.43775" lon="0.51503">
        <ele>177.08888254437</ele>
        <time>2015-08-08T15:01:21Z</time>
      </trkpt>
      <trkpt lat="45.43777" lon="0.51504">
        <ele>177.08888254437</ele>
        <time>2015-08-08T15:01:26Z</time>
      </trkpt>
      <trkpt lat="45.43782" lon="0.51506">
        <ele>177.05316485925</ele>
        <time>2015-08-08T15:01:31Z</time>
      </trkpt>
      <trkpt lat="45.43787" lon="0.51508">
        <ele>177.05316485925</ele>
        <time>2015-08-08T15:01:36Z</time>
      </trkpt>
      <trkpt lat="45.43794" lon="0.5151">
        <ele>177.03400225122</ele>
        <time>2015-08-08T15:01:41Z</time>
      </trkpt>
      <trkpt lat="45.43799" lon="0.51512">
        <ele>177.03400225122</ele>
        <time>2015-08-08T15:01:46Z</time>
      </trkpt>
      <trkpt lat="45.43805" lon="0.51514">
        <ele>176.71534271898</ele>
        <time>2015-08-08T15:01:51Z</time>
      </trkpt>
      <trkpt lat="45.43811" lon="0.51518">
        <ele>176.71534271898</ele>
        <time>2015-08-08T15:01:56Z</time>
      </trkpt>
      <trkpt lat="45.43817" lon="0.51522">
        <ele>176.10782784655</ele>
        <time>2015-08-08T15:02:01Z</time>
      </trkpt>
      <trkpt lat="45.43824" lon="0.51526">
        <ele>176.10782784655</ele>
        <time>2015-08-08T15:02:06Z</time>
      </trkpt>
      <trkpt lat="45.43829" lon="0.5153">
        <ele>175.51034376269</ele>
        <time>2015-08-08T15:02:11Z</time>
      </trkpt>
      <trkpt lat="45.43836" lon="0.51533">
        <ele>175.51034376269</ele>
        <time>2015-08-08T15:02:16Z</time>
      </trkpt>
      <trkpt lat="45.43842" lon="0.51537">
        <ele>174.88273167534</ele>
        <time>2015-08-08T15:02:21Z</time>
      </trkpt>
      <trkpt lat="45.43849" lon="0.51541">
        <ele>174.88273167534</ele>
        <time>2015-08-08T15:02:26Z</time>
      </trkpt>
      <trkpt lat="45.43855" lon="0.51544">
        <ele>174.21666327071</ele>
        <time>2015-08-08T15:02:31Z</time>
      </trkpt>
      <trkpt lat="45.43876" lon="0.51555">
        <ele>173.31714893799</ele>
        <time>2015-08-08T15:02:47Z</time>
      </trkpt>
      <trkpt lat="45.43882" lon="0.51559">
        <ele>173.31714893799</ele>
        <time>2015-08-08T15:02:52Z</time>
      </trkpt>
      <trkpt lat="45.43893" lon="0.51563">
        <ele>172.2779425961</ele>
        <time>2015-08-08T15:03:01Z</time>
      </trkpt>
      <trkpt lat="45.43914" lon="0.51563">
        <ele>171.14301319792</ele>
        <time>2015-08-08T15:03:16Z</time>
      </trkpt>
      <trkpt lat="45.43925" lon="0.51562">
        <ele>170.19829122958</ele>
        <time>2015-08-08T15:03:21Z</time>
      </trkpt>
      <trkpt lat="45.43959" lon="0.51558">
        <ele>168.82901513926</ele>
        <time>2015-08-08T15:03:31Z</time>
      </trkpt>
      <trkpt lat="45.43978" lon="0.51557">
        <ele>167.37458898192</ele>
        <time>2015-08-08T15:03:37Z</time>
      </trkpt>
      <trkpt lat="45.44011" lon="0.51568">
        <ele>165.87581675036</ele>
        <time>2015-08-08T15:03:47Z</time>
      </trkpt>
      <trkpt lat="45.44025" lon="0.51574">
        <ele>164.52904731895</ele>
        <time>2015-08-08T15:03:52Z</time>
      </trkpt>
      <trkpt lat="45.44042" lon="0.51582">
        <ele>164.63973604152</ele>
        <time>2015-08-08T15:04:01Z</time>
      </trkpt>
      <trkpt lat="45.44048" lon="0.51587">
        <ele>164.63973604152</ele>
        <time>2015-08-08T15:04:06Z</time>
      </trkpt>
      <trkpt lat="45.44054" lon="0.51594">
        <ele>164.81923698075</ele>
        <time>2015-08-08T15:04:11Z</time>
      </trkpt>
      <trkpt lat="45.44064" lon="0.51597">
        <ele>165.07760794215</ele>
        <time>2015-08-08T15:04:16Z</time>
      </trkpt>
      <trkpt lat="45.44069" lon="0.51602">
        <ele>165.07760794215</ele>
        <time>2015-08-08T15:04:21Z</time>
      </trkpt>
      <trkpt lat="45.44076" lon="0.51603">
        <ele>165.38060504652</ele>
        <time>2015-08-08T15:04:26Z</time>
      </trkpt>
      <trkpt lat="45.44082" lon="0.51606">
        <ele>165.38060504652</ele>
        <time>2015-08-08T15:04:31Z</time>
      </trkpt>
      <trkpt lat="45.44091" lon="0.5161">
        <ele>165.55216203199</ele>
        <time>2015-08-08T15:04:36Z</time>
      </trkpt>
      <trkpt lat="45.44093" lon="0.51611">
        <ele>165.55216203199</ele>
        <time>2015-08-08T15:04:41Z</time>
      </trkpt>
      <trkpt lat="45.44101" lon="0.51617">
        <ele>165.84734276814</ele>
        <time>2015-08-08T15:04:46Z</time>
      </trkpt>
      <trkpt lat="45.44109" lon="0.51623">
        <ele>166.47321783251</ele>
        <time>2015-08-08T15:04:51Z</time>
      </trkpt>
      <trkpt lat="45.44112" lon="0.51626">
        <ele>166.47321783251</ele>
        <time>2015-08-08T15:04:56Z</time>
      </trkpt>
      <trkpt lat="45.44119" lon="0.51629">
        <ele>167.20271669962</ele>
        <time>2015-08-08T15:05:01Z</time>
      </trkpt>
      <trkpt lat="45.44129" lon="0.51633">
        <ele>167.65215320429</ele>
        <time>2015-08-08T15:05:06Z</time>
      </trkpt>
      <trkpt lat="45.44136" lon="0.51635">
        <ele>167.65215320429</ele>
        <time>2015-08-08T15:05:11Z</time>
      </trkpt>
      <trkpt lat="45.44142" lon="0.51641">
        <ele>167.92790364115</ele>
        <time>2015-08-08T15:05:16Z</time>
      </trkpt>
      <trkpt lat="45.44146" lon="0.51645">
        <ele>167.92790364115</ele>
        <time>2015-08-08T15:05:21Z</time>
      </trkpt>
      <trkpt lat="45.44148" lon="0.51649">
        <ele>168.08572653329</ele>
        <time>2015-08-08T15:05:26Z</time>
      </trkpt>
      <trkpt lat="45.44151" lon="0.51653">
        <ele>168.08572653329</ele>
        <time>2015-08-08T15:05:31Z</time>
      </trkpt>
      <trkpt lat="45.44157" lon="0.51656">
        <ele>168.264030328</ele>
        <time>2015-08-08T15:05:36Z</time>
      </trkpt>
      <trkpt lat="45.44161" lon="0.51661">
        <ele>168.264030328</ele>
        <time>2015-08-08T15:05:41Z</time>
      </trkpt>
      <trkpt lat="45.44167" lon="0.51662">
        <ele>168.30272892164</ele>
        <time>2015-08-08T15:05:46Z</time>
      </trkpt>
      <trkpt lat="45.44173" lon="0.51666">
        <ele>168.30272892164</ele>
        <time>2015-08-08T15:05:51Z</time>
      </trkpt>
      <trkpt lat="45.44176" lon="0.51669">
        <ele>168.21236582679</ele>
        <time>2015-08-08T15:05:56Z</time>
      </trkpt>
      <trkpt lat="45.44183" lon="0.51674">
        <ele>168.21236582679</ele>
        <time>2015-08-08T15:06:01Z</time>
      </trkpt>
      <trkpt lat="45.44187" lon="0.51678">
        <ele>168.44977568181</ele>
        <time>2015-08-08T15:06:06Z</time>
      </trkpt>
      <trkpt lat="45.4419" lon="0.51681">
        <ele>168.44977568181</ele>
        <time>2015-08-08T15:06:11Z</time>
      </trkpt>
      <trkpt lat="45.442" lon="0.51686">
        <ele>168.38526467116</ele>
        <time>2015-08-08T15:06:16Z</time>
      </trkpt>
      <trkpt lat="45.44208" lon="0.51691">
        <ele>168.38526467116</ele>
        <time>2015-08-08T15:06:21Z</time>
      </trkpt>
      <trkpt lat="45.44216" lon="0.51695">
        <ele>168.40175136436</ele>
        <time>2015-08-08T15:06:26Z</time>
      </trkpt>
      <trkpt lat="45.44222" lon="0.51703">
        <ele>168.40175136436</ele>
        <time>2015-08-08T15:06:31Z</time>
      </trkpt>
      <trkpt lat="45.44227" lon="0.51707">
        <ele>168.1908522194</ele>
        <time>2015-08-08T15:06:36Z</time>
      </trkpt>
      <trkpt lat="45.44228" lon="0.51716">
        <ele>168.1908522194</ele>
        <time>2015-08-08T15:06:41Z</time>
      </trkpt>
      <trkpt lat="45.44234" lon="0.51722">
        <ele>167.69801954615</ele>
        <time>2015-08-08T15:06:46Z</time>
      </trkpt>
      <trkpt lat="45.44239" lon="0.5173">
        <ele>167.69801954615</ele>
        <time>2015-08-08T15:06:51Z</time>
      </trkpt>
      <trkpt lat="45.44243" lon="0.51739">
        <ele>167.10404763029</ele>
        <time>2015-08-08T15:06:56Z</time>
      </trkpt>
      <trkpt lat="45.44247" lon="0.51749">
        <ele>167.10404763029</ele>
        <time>2015-08-08T15:07:01Z</time>
      </trkpt>
      <trkpt lat="45.4425" lon="0.51755">
        <ele>166.80727678328</ele>
        <time>2015-08-08T15:07:06Z</time>
      </trkpt>
      <trkpt lat="45.44252" lon="0.51761">
        <ele>166.80727678328</ele>
        <time>2015-08-08T15:07:11Z</time>
      </trkpt>
      <trkpt lat="45.44256" lon="0.51769">
        <ele>166.25360408943</ele>
        <time>2015-08-08T15:07:16Z</time>
      </trkpt>
      <trkpt lat="45.44256" lon="0.51776">
        <ele>166.25360408943</ele>
        <time>2015-08-08T15:07:21Z</time>
      </trkpt>
      <trkpt lat="45.44266" lon="0.51781">
        <ele>166.50112658348</ele>
        <time>2015-08-08T15:07:26Z</time>
      </trkpt>
      <trkpt lat="45.4427" lon="0.51787">
        <ele>166.50112658348</ele>
        <time>2015-08-08T15:07:31Z</time>
      </trkpt>
      <trkpt lat="45.44275" lon="0.51795">
        <ele>166.12127322269</ele>
        <time>2015-08-08T15:07:36Z</time>
      </trkpt>
      <trkpt lat="45.44282" lon="0.51805">
        <ele>165.79528394912</ele>
        <time>2015-08-08T15:07:41Z</time>
      </trkpt>
      <trkpt lat="45.44287" lon="0.5181">
        <ele>165.79528394912</ele>
        <time>2015-08-08T15:07:46Z</time>
      </trkpt>
      <trkpt lat="45.4429" lon="0.51817">
        <ele>165.01568963726</ele>
        <time>2015-08-08T15:07:51Z</time>
      </trkpt>
      <trkpt lat="45.44293" lon="0.51825">
        <ele>165.01568963726</ele>
        <time>2015-08-08T15:07:56Z</time>
      </trkpt>
      <trkpt lat="45.44297" lon="0.51834">
        <ele>164.16379092233</ele>
        <time>2015-08-08T15:08:01Z</time>
      </trkpt>
      <trkpt lat="45.44299" lon="0.51845">
        <ele>164.16379092233</ele>
        <time>2015-08-08T15:08:06Z</time>
      </trkpt>
      <trkpt lat="45.44303" lon="0.51853">
        <ele>163.62186457903</ele>
        <time>2015-08-08T15:08:11Z</time>
      </trkpt>
      <trkpt lat="45.44308" lon="0.51862">
        <ele>163.62186457903</ele>
        <time>2015-08-08T15:08:16Z</time>
      </trkpt>
      <trkpt lat="45.44311" lon="0.51869">
        <ele>163.46938452736</ele>
        <time>2015-08-08T15:08:21Z</time>
      </trkpt>
      <trkpt lat="45.44317" lon="0.51876">
        <ele>163.46938452736</ele>
        <time>2015-08-08T15:08:26Z</time>
      </trkpt>
      <trkpt lat="45.44323" lon="0.51884">
        <ele>163.9661986589</ele>
        <time>2015-08-08T15:08:31Z</time>
      </trkpt>
      <trkpt lat="45.44325" lon="0.51894">
        <ele>163.9661986589</ele>
        <time>2015-08-08T15:08:36Z</time>
      </trkpt>
      <trkpt lat="45.44328" lon="0.51904">
        <ele>164.5441854229</ele>
        <time>2015-08-08T15:08:41Z</time>
      </trkpt>
      <trkpt lat="45.44333" lon="0.51914">
        <ele>165.13785331162</ele>
        <time>2015-08-08T15:08:46Z</time>
      </trkpt>
      <trkpt lat="45.44337" lon="0.51919">
        <ele>165.13785331162</ele>
        <time>2015-08-08T15:08:51Z</time>
      </trkpt>
      <trkpt lat="45.44344" lon="0.51924">
        <ele>165.64321946439</ele>
        <time>2015-08-08T15:08:56Z</time>
      </trkpt>
      <trkpt lat="45.44349" lon="0.51926">
        <ele>165.64321946439</ele>
        <time>2015-08-08T15:09:01Z</time>
      </trkpt>
      <trkpt lat="45.44353" lon="0.51932">
        <ele>166.68472641754</ele>
        <time>2015-08-08T15:09:06Z</time>
      </trkpt>
      <trkpt lat="45.44355" lon="0.51939">
        <ele>166.68472641754</ele>
        <time>2015-08-08T15:09:11Z</time>
      </trkpt>
      <trkpt lat="45.44359" lon="0.51945">
        <ele>167.15333158905</ele>
        <time>2015-08-08T15:09:16Z</time>
      </trkpt>
      <trkpt lat="45.44366" lon="0.51952">
        <ele>167.15333158905</ele>
        <time>2015-08-08T15:09:21Z</time>
      </trkpt>
      <trkpt lat="45.44382" lon="0.51964">
        <ele>167.70916777068</ele>
        <time>2015-08-08T15:09:32Z</time>
      </trkpt>
      <trkpt lat="45.44386" lon="0.5197">
        <ele>167.70916777068</ele>
        <time>2015-08-08T15:09:36Z</time>
      </trkpt>
      <trkpt lat="45.44394" lon="0.51978">
        <ele>167.56575504909</ele>
        <time>2015-08-08T15:09:46Z</time>
      </trkpt>
      <trkpt lat="45.44399" lon="0.51984">
        <ele>167.56575504909</ele>
        <time>2015-08-08T15:09:52Z</time>
      </trkpt>
      <trkpt lat="45.44404" lon="0.51992">
        <ele>166.44309940706</ele>
        <time>2015-08-08T15:10:01Z</time>
      </trkpt>
      <trkpt lat="45.44417" lon="0.52">
        <ele>165.7850385039</ele>
        <time>2015-08-08T15:10:07Z</time>
      </trkpt>
      <trkpt lat="45.44432" lon="0.52017">
        <ele>165.7319229213</ele>
        <time>2015-08-08T15:10:21Z</time>
      </trkpt>
      <trkpt lat="45.44439" lon="0.52021">
        <ele>165.7319229213</ele>
        <time>2015-08-08T15:10:26Z</time>
      </trkpt>
      <trkpt lat="45.44444" lon="0.52027">
        <ele>165.27361637023</ele>
        <time>2015-08-08T15:10:31Z</time>
      </trkpt>
      <trkpt lat="45.4445" lon="0.52034">
        <ele>165.27361637023</ele>
        <time>2015-08-08T15:10:36Z</time>
      </trkpt>
      <trkpt lat="45.44454" lon="0.5204">
        <ele>164.81555224662</ele>
        <time>2015-08-08T15:10:41Z</time>
      </trkpt>
      <trkpt lat="45.44455" lon="0.52046">
        <ele>164.81555224662</ele>
        <time>2015-08-08T15:10:46Z</time>
      </trkpt>
      <trkpt lat="45.4446" lon="0.52045">
        <ele>164.81555224662</ele>
        <time>2015-08-08T15:10:51Z</time>
      </trkpt>
      <trkpt lat="45.44465" lon="0.52041">
        <ele>164.3730955608</ele>
        <time>2015-08-08T15:10:56Z</time>
      </trkpt>
      <trkpt lat="45.4447" lon="0.52038">
        <ele>164.3730955608</ele>
        <time>2015-08-08T15:11:01Z</time>
      </trkpt>
      <trkpt lat="45.44476" lon="0.52036">
        <ele>163.816318762</ele>
        <time>2015-08-08T15:11:06Z</time>
      </trkpt>
      <trkpt lat="45.44482" lon="0.52033">
        <ele>163.816318762</ele>
        <time>2015-08-08T15:11:11Z</time>
      </trkpt>
      <trkpt lat="45.44488" lon="0.52034">
        <ele>163.11161443202</ele>
        <time>2015-08-08T15:11:16Z</time>
      </trkpt>
      <trkpt lat="45.44495" lon="0.52035">
        <ele>163.11161443202</ele>
        <time>2015-08-08T15:11:21Z</time>
      </trkpt>
      <trkpt lat="45.44502" lon="0.52037">
        <ele>162.50205570553</ele>
        <time>2015-08-08T15:11:26Z</time>
      </trkpt>
      <trkpt lat="45.4451" lon="0.5204">
        <ele>162.50205570553</ele>
        <time>2015-08-08T15:11:31Z</time>
      </trkpt>
      <trkpt lat="45.44515" lon="0.52043">
        <ele>161.9099420674</ele>
        <time>2015-08-08T15:11:36Z</time>
      </trkpt>
      <trkpt lat="45.44521" lon="0.52046">
        <ele>161.9099420674</ele>
        <time>2015-08-08T15:11:41Z</time>
      </trkpt>
      <trkpt lat="45.44528" lon="0.52049">
        <ele>161.32085627584</ele>
        <time>2015-08-08T15:11:46Z</time>
      </trkpt>
      <trkpt lat="45.44536" lon="0.52052">
        <ele>161.32085627584</ele>
        <time>2015-08-08T15:11:51Z</time>
      </trkpt>
      <trkpt lat="45.44543" lon="0.52057">
        <ele>161.03845418179</ele>
        <time>2015-08-08T15:11:56Z</time>
      </trkpt>
      <trkpt lat="45.44549" lon="0.52061">
        <ele>161.03845418179</ele>
        <time>2015-08-08T15:12:01Z</time>
      </trkpt>
      <trkpt lat="45.44555" lon="0.52066">
        <ele>160.89645730995</ele>
        <time>2015-08-08T15:12:06Z</time>
      </trkpt>
      <trkpt lat="45.44561" lon="0.52069">
        <ele>160.89645730995</ele>
        <time>2015-08-08T15:12:11Z</time>
      </trkpt>
      <trkpt lat="45.44568" lon="0.5207">
        <ele>160.88449648675</ele>
        <time>2015-08-08T15:12:16Z</time>
      </trkpt>
      <trkpt lat="45.44574" lon="0.5207">
        <ele>160.88449648675</ele>
        <time>2015-08-08T15:12:21Z</time>
      </trkpt>
      <trkpt lat="45.4458" lon="0.52069">
        <ele>160.71876668452</ele>
        <time>2015-08-08T15:12:26Z</time>
      </trkpt>
      <trkpt lat="45.44586" lon="0.52065">
        <ele>160.71876668452</ele>
        <time>2015-08-08T15:12:31Z</time>
      </trkpt>
      <trkpt lat="45.44591" lon="0.52062">
        <ele>160.39612253848</ele>
        <time>2015-08-08T15:12:36Z</time>
      </trkpt>
      <trkpt lat="45.44598" lon="0.52058">
        <ele>160.39612253848</ele>
        <time>2015-08-08T15:12:41Z</time>
      </trkpt>
      <trkpt lat="45.44604" lon="0.52055">
        <ele>160.05818258464</ele>
        <time>2015-08-08T15:12:46Z</time>
      </trkpt>
      <trkpt lat="45.4461" lon="0.52053">
        <ele>160.05818258464</ele>
        <time>2015-08-08T15:12:51Z</time>
      </trkpt>
      <trkpt lat="45.44616" lon="0.5205">
        <ele>159.73530966437</ele>
        <time>2015-08-08T15:12:56Z</time>
      </trkpt>
      <trkpt lat="45.44621" lon="0.52047">
        <ele>159.73530966437</ele>
        <time>2015-08-08T15:13:01Z</time>
      </trkpt>
      <trkpt lat="45.44626" lon="0.52044">
        <ele>159.26823196383</ele>
        <time>2015-08-08T15:13:06Z</time>
      </trkpt>
      <trkpt lat="45.44634" lon="0.5204">
        <ele>159.26823196383</ele>
        <time>2015-08-08T15:13:11Z</time>
      </trkpt>
      <trkpt lat="45.4464" lon="0.52037">
        <ele>158.82680917054</ele>
        <time>2015-08-08T15:13:16Z</time>
      </trkpt>
      <trkpt lat="45.44646" lon="0.52035">
        <ele>158.82680917054</ele>
        <time>2015-08-08T15:13:21Z</time>
      </trkpt>
      <trkpt lat="45.44652" lon="0.52031">
        <ele>158.35216641933</ele>
        <time>2015-08-08T15:13:26Z</time>
      </trkpt>
      <trkpt lat="45.44659" lon="0.52028">
        <ele>158.35216641933</ele>
        <time>2015-08-08T15:13:31Z</time>
      </trkpt>
      <trkpt lat="45.44669" lon="0.52023">
        <ele>158.12128441964</ele>
        <time>2015-08-08T15:13:36Z</time>
      </trkpt>
      <trkpt lat="45.44678" lon="0.52016">
        <ele>157.92893935057</ele>
        <time>2015-08-08T15:13:41Z</time>
      </trkpt>
      <trkpt lat="45.44687" lon="0.52012">
        <ele>157.92893935057</ele>
        <time>2015-08-08T15:13:46Z</time>
      </trkpt>
      <trkpt lat="45.44691" lon="0.52012">
        <ele>158.46393679616</ele>
        <time>2015-08-08T15:13:51Z</time>
      </trkpt>
      <trkpt lat="45.44697" lon="0.52009">
        <ele>158.46393679616</ele>
        <time>2015-08-08T15:13:56Z</time>
      </trkpt>
      <trkpt lat="45.44703" lon="0.52009">
        <ele>158.95014024686</ele>
        <time>2015-08-08T15:14:01Z</time>
      </trkpt>
      <trkpt lat="45.44708" lon="0.52008">
        <ele>158.95014024686</ele>
        <time>2015-08-08T15:14:06Z</time>
      </trkpt>
      <trkpt lat="45.44715" lon="0.52006">
        <ele>159.31705650861</ele>
        <time>2015-08-08T15:14:11Z</time>
      </trkpt>
      <trkpt lat="45.4472" lon="0.52003">
        <ele>159.31705650861</ele>
        <time>2015-08-08T15:14:16Z</time>
      </trkpt>
      <trkpt lat="45.44729" lon="0.51998">
        <ele>159.71586943334</ele>
        <time>2015-08-08T15:14:21Z</time>
      </trkpt>
      <trkpt lat="45.44736" lon="0.51993">
        <ele>159.71586943334</ele>
        <time>2015-08-08T15:14:26Z</time>
      </trkpt>
      <trkpt lat="45.44742" lon="0.51988">
        <ele>160.58920495004</ele>
        <time>2015-08-08T15:14:31Z</time>
      </trkpt>
      <trkpt lat="45.44749" lon="0.51983">
        <ele>160.58920495004</ele>
        <time>2015-08-08T15:14:36Z</time>
      </trkpt>
      <trkpt lat="45.44755" lon="0.51979">
        <ele>161.59647550835</ele>
        <time>2015-08-08T15:14:41Z</time>
      </trkpt>
      <trkpt lat="45.44762" lon="0.51975">
        <ele>161.59647550835</ele>
        <time>2015-08-08T15:14:46Z</time>
      </trkpt>
      <trkpt lat="45.44767" lon="0.51971">
        <ele>163.21436779615</ele>
        <time>2015-08-08T15:14:51Z</time>
      </trkpt>
      <trkpt lat="45.44774" lon="0.51966">
        <ele>163.21436779615</ele>
        <time>2015-08-08T15:14:56Z</time>
      </trkpt>
      <trkpt lat="45.4478" lon="0.51963">
        <ele>165.11907868013</ele>
        <time>2015-08-08T15:15:01Z</time>
      </trkpt>
      <trkpt lat="45.44785" lon="0.51959">
        <ele>165.11907868013</ele>
        <time>2015-08-08T15:15:06Z</time>
      </trkpt>
      <trkpt lat="45.4479" lon="0.51955">
        <ele>167.09629504022</ele>
        <time>2015-08-08T15:15:11Z</time>
      </trkpt>
      <trkpt lat="45.44796" lon="0.51949">
        <ele>167.09629504022</ele>
        <time>2015-08-08T15:15:16Z</time>
      </trkpt>
      <trkpt lat="45.44806" lon="0.51943">
        <ele>169.82637775091</ele>
        <time>2015-08-08T15:15:21Z</time>
      </trkpt>
      <trkpt lat="45.44828" lon="0.51929">
        <ele>172.02098899817</ele>
        <time>2015-08-08T15:15:26Z</time>
      </trkpt>
      <trkpt lat="45.44846" lon="0.51913">
        <ele>174.37587577896</ele>
        <time>2015-08-08T15:15:31Z</time>
      </trkpt>
      <trkpt lat="45.44867" lon="0.519">
        <ele>176.33920316773</ele>
        <time>2015-08-08T15:15:36Z</time>
      </trkpt>
      <trkpt lat="45.44888" lon="0.51883">
        <ele>178.1070281911</ele>
        <time>2015-08-08T15:15:41Z</time>
      </trkpt>
      <trkpt lat="45.44906" lon="0.51866">
        <ele>180.06343044343</ele>
        <time>2015-08-08T15:15:46Z</time>
      </trkpt>
      <trkpt lat="45.44918" lon="0.51855">
        <ele>181.90096300228</ele>
        <time>2015-08-08T15:15:51Z</time>
      </trkpt>
      <trkpt lat="45.44924" lon="0.51855">
        <ele>181.90096300228</ele>
        <time>2015-08-08T15:15:56Z</time>
      </trkpt>
      <trkpt lat="45.44933" lon="0.51854">
        <ele>183.95490955082</ele>
        <time>2015-08-08T15:16:01Z</time>
      </trkpt>
      <trkpt lat="45.4494" lon="0.51853">
        <ele>183.95490955082</ele>
        <time>2015-08-08T15:16:06Z</time>
      </trkpt>
      <trkpt lat="45.44954" lon="0.51851">
        <ele>186.05988983115</ele>
        <time>2015-08-08T15:16:11Z</time>
      </trkpt>
      <trkpt lat="45.44982" lon="0.5184">
        <ele>188.27884105232</ele>
        <time>2015-08-08T15:16:16Z</time>
      </trkpt>
      <trkpt lat="45.45012" lon="0.51825">
        <ele>190.46815189869</ele>
        <time>2015-08-08T15:16:21Z</time>
      </trkpt>
      <trkpt lat="45.45039" lon="0.51812">
        <ele>193.12908869026</ele>
        <time>2015-08-08T15:16:26Z</time>
      </trkpt>
      <trkpt lat="45.45068" lon="0.51809">
        <ele>195.77379955078</ele>
        <time>2015-08-08T15:16:31Z</time>
      </trkpt>
      <trkpt lat="45.45098" lon="0.51807">
        <ele>198.46928267015</ele>
        <time>2015-08-08T15:16:36Z</time>
      </trkpt>
      <trkpt lat="45.45125" lon="0.51808">
        <ele>201.14794486121</ele>
        <time>2015-08-08T15:16:41Z</time>
      </trkpt>
      <trkpt lat="45.45151" lon="0.51805">
        <ele>203.63209440744</ele>
        <time>2015-08-08T15:16:46Z</time>
      </trkpt>
      <trkpt lat="45.45177" lon="0.518">
        <ele>206.01722013926</ele>
        <time>2015-08-08T15:16:51Z</time>
      </trkpt>
      <trkpt lat="45.45202" lon="0.51793">
        <ele>208.13285766525</ele>
        <time>2015-08-08T15:16:56Z</time>
      </trkpt>
      <trkpt lat="45.45235" lon="0.51782">
        <ele>210.15346026418</ele>
        <time>2015-08-08T15:17:01Z</time>
      </trkpt>
      <trkpt lat="45.45263" lon="0.51771">
        <ele>211.99612549605</ele>
        <time>2015-08-08T15:17:06Z</time>
      </trkpt>
      <trkpt lat="45.4528" lon="0.51762">
        <ele>213.70000724918</ele>
        <time>2015-08-08T15:17:11Z</time>
      </trkpt>
      <trkpt lat="45.45301" lon="0.51754">
        <ele>215.28753445863</ele>
        <time>2015-08-08T15:17:21Z</time>
      </trkpt>
      <trkpt lat="45.45309" lon="0.51749">
        <ele>215.28753445863</ele>
        <time>2015-08-08T15:17:28Z</time>
      </trkpt>
      <trkpt lat="45.45319" lon="0.51742">
        <ele>217.12584888477</ele>
        <time>2015-08-08T15:17:36Z</time>
      </trkpt>
      <trkpt lat="45.45326" lon="0.51738">
        <ele>217.12584888477</ele>
        <time>2015-08-08T15:17:41Z</time>
      </trkpt>
      <trkpt lat="45.45333" lon="0.51735">
        <ele>218.63226762181</ele>
        <time>2015-08-08T15:17:46Z</time>
      </trkpt>
      <trkpt lat="45.4534" lon="0.51731">
        <ele>218.63226762181</ele>
        <time>2015-08-08T15:17:51Z</time>
      </trkpt>
      <trkpt lat="45.45347" lon="0.51727">
        <ele>220.08942909227</ele>
        <time>2015-08-08T15:17:56Z</time>
      </trkpt>
      <trkpt lat="45.45352" lon="0.51724">
        <ele>220.08942909227</ele>
        <time>2015-08-08T15:18:01Z</time>
      </trkpt>
      <trkpt lat="45.45356" lon="0.51719">
        <ele>221.54332616756</ele>
        <time>2015-08-08T15:18:06Z</time>
      </trkpt>
      <trkpt lat="45.45364" lon="0.51716">
        <ele>221.54332616756</ele>
        <time>2015-08-08T15:18:11Z</time>
      </trkpt>
      <trkpt lat="45.45371" lon="0.51713">
        <ele>222.63320795058</ele>
        <time>2015-08-08T15:18:16Z</time>
      </trkpt>
      <trkpt lat="45.45376" lon="0.51709">
        <ele>222.63320795058</ele>
        <time>2015-08-08T15:18:21Z</time>
      </trkpt>
      <trkpt lat="45.45383" lon="0.51707">
        <ele>222.78098226229</ele>
        <time>2015-08-08T15:18:26Z</time>
      </trkpt>
      <trkpt lat="45.4539" lon="0.51704">
        <ele>222.78098226229</ele>
        <time>2015-08-08T15:18:31Z</time>
      </trkpt>
      <trkpt lat="45.45397" lon="0.51701">
        <ele>222.96694682298</ele>
        <time>2015-08-08T15:18:36Z</time>
      </trkpt>
      <trkpt lat="45.45404" lon="0.51697">
        <ele>222.96694682298</ele>
        <time>2015-08-08T15:18:41Z</time>
      </trkpt>
      <trkpt lat="45.45409" lon="0.51693">
        <ele>223.07618962127</ele>
        <time>2015-08-08T15:18:46Z</time>
      </trkpt>
      <trkpt lat="45.45416" lon="0.51691">
        <ele>223.07618962127</ele>
        <time>2015-08-08T15:18:51Z</time>
      </trkpt>
      <trkpt lat="45.45421" lon="0.51689">
        <ele>222.85842603911</ele>
        <time>2015-08-08T15:18:56Z</time>
      </trkpt>
      <trkpt lat="45.45428" lon="0.51687">
        <ele>222.85842603911</ele>
        <time>2015-08-08T15:19:01Z</time>
      </trkpt>
      <trkpt lat="45.45433" lon="0.51683">
        <ele>222.39978309832</ele>
        <time>2015-08-08T15:19:06Z</time>
      </trkpt>
      <trkpt lat="45.45438" lon="0.51681">
        <ele>222.39978309832</ele>
        <time>2015-08-08T15:19:11Z</time>
      </trkpt>
      <trkpt lat="45.45444" lon="0.51677">
        <ele>222.12664988489</ele>
        <time>2015-08-08T15:19:16Z</time>
      </trkpt>
      <trkpt lat="45.45448" lon="0.51674">
        <ele>222.12664988489</ele>
        <time>2015-08-08T15:19:21Z</time>
      </trkpt>
      <trkpt lat="45.45453" lon="0.5167">
        <ele>221.95803508596</ele>
        <time>2015-08-08T15:19:26Z</time>
      </trkpt>
      <trkpt lat="45.45459" lon="0.51665">
        <ele>221.95803508596</ele>
        <time>2015-08-08T15:19:31Z</time>
      </trkpt>
      <trkpt lat="45.45465" lon="0.51661">
        <ele>221.9194945588</ele>
        <time>2015-08-08T15:19:36Z</time>
      </trkpt>
      <trkpt lat="45.45471" lon="0.51656">
        <ele>221.9194945588</ele>
        <time>2015-08-08T15:19:41Z</time>
      </trkpt>
      <trkpt lat="45.45477" lon="0.51651">
        <ele>221.61641754555</ele>
        <time>2015-08-08T15:19:46Z</time>
      </trkpt>
      <trkpt lat="45.45482" lon="0.51646">
        <ele>221.61641754555</ele>
        <time>2015-08-08T15:19:51Z</time>
      </trkpt>
      <trkpt lat="45.45488" lon="0.51642">
        <ele>221.28917462694</ele>
        <time>2015-08-08T15:19:56Z</time>
      </trkpt>
      <trkpt lat="45.45495" lon="0.51638">
        <ele>221.28917462694</ele>
        <time>2015-08-08T15:20:01Z</time>
      </trkpt>
      <trkpt lat="45.45501" lon="0.51634">
        <ele>220.92994061669</ele>
        <time>2015-08-08T15:20:06Z</time>
      </trkpt>
      <trkpt lat="45.45508" lon="0.51629">
        <ele>220.92994061669</ele>
        <time>2015-08-08T15:20:11Z</time>
      </trkpt>
      <trkpt lat="45.45512" lon="0.51633">
        <ele>220.32975857789</ele>
        <time>2015-08-08T15:20:16Z</time>
      </trkpt>
      <trkpt lat="45.45516" lon="0.51642">
        <ele>220.32975857789</ele>
        <time>2015-08-08T15:20:21Z</time>
      </trkpt>
      <trkpt lat="45.4552" lon="0.5165">
        <ele>219.9729673624</ele>
        <time>2015-08-08T15:20:26Z</time>
      </trkpt>
      <trkpt lat="45.45523" lon="0.51657">
        <ele>219.9729673624</ele>
        <time>2015-08-08T15:20:31Z</time>
      </trkpt>
      <trkpt lat="45.45524" lon="0.51665">
        <ele>219.6590801483</ele>
        <time>2015-08-08T15:20:36Z</time>
      </trkpt>
      <trkpt lat="45.45524" lon="0.51675">
        <ele>219.6590801483</ele>
        <time>2015-08-08T15:20:41Z</time>
      </trkpt>
      <trkpt lat="45.45525" lon="0.51684">
        <ele>219.17332161566</ele>
        <time>2015-08-08T15:20:46Z</time>
      </trkpt>
      <trkpt lat="45.45525" lon="0.51695">
        <ele>219.17332161566</ele>
        <time>2015-08-08T15:20:51Z</time>
      </trkpt>
      <trkpt lat="45.45526" lon="0.51704">
        <ele>218.60531535898</ele>
        <time>2015-08-08T15:20:56Z</time>
      </trkpt>
      <trkpt lat="45.45527" lon="0.51711">
        <ele>218.60531535898</ele>
        <time>2015-08-08T15:21:01Z</time>
      </trkpt>
      <trkpt lat="45.45528" lon="0.51722">
        <ele>217.85089595195</ele>
        <time>2015-08-08T15:21:06Z</time>
      </trkpt>
      <trkpt lat="45.45529" lon="0.5173">
        <ele>217.85089595195</ele>
        <time>2015-08-08T15:21:11Z</time>
      </trkpt>
      <trkpt lat="45.4553" lon="0.51739">
        <ele>217.07337290279</ele>
        <time>2015-08-08T15:21:16Z</time>
      </trkpt>
      <trkpt lat="45.4553" lon="0.51748">
        <ele>217.07337290279</ele>
        <time>2015-08-08T15:21:21Z</time>
      </trkpt>
      <trkpt lat="45.45531" lon="0.51756">
        <ele>216.16461517981</ele>
        <time>2015-08-08T15:21:26Z</time>
      </trkpt>
      <trkpt lat="45.45533" lon="0.51766">
        <ele>216.16461517981</ele>
        <time>2015-08-08T15:21:31Z</time>
      </trkpt>
      <trkpt lat="45.45533" lon="0.51777">
        <ele>215.47143118904</ele>
        <time>2015-08-08T15:21:36Z</time>
      </trkpt>
      <trkpt lat="45.45535" lon="0.51785">
        <ele>215.47143118904</ele>
        <time>2015-08-08T15:21:41Z</time>
      </trkpt>
      <trkpt lat="45.45536" lon="0.51796">
        <ele>215.21354735257</ele>
        <time>2015-08-08T15:21:46Z</time>
      </trkpt>
      <trkpt lat="45.45538" lon="0.51804">
        <ele>215.21354735257</ele>
        <time>2015-08-08T15:21:51Z</time>
      </trkpt>
      <trkpt lat="45.45538" lon="0.51813">
        <ele>215.14645570892</ele>
        <time>2015-08-08T15:21:56Z</time>
      </trkpt>
      <trkpt lat="45.45537" lon="0.51822">
        <ele>215.14645570892</ele>
        <time>2015-08-08T15:22:01Z</time>
      </trkpt>
      <trkpt lat="45.45538" lon="0.51831">
        <ele>215.23028917715</ele>
        <time>2015-08-08T15:22:06Z</time>
      </trkpt>
      <trkpt lat="45.4554" lon="0.5184">
        <ele>215.23028917715</ele>
        <time>2015-08-08T15:22:11Z</time>
      </trkpt>
      <trkpt lat="45.4554" lon="0.51851">
        <ele>215.28344500424</ele>
        <time>2015-08-08T15:22:16Z</time>
      </trkpt>
      <trkpt lat="45.45541" lon="0.5186">
        <ele>215.28344500424</ele>
        <time>2015-08-08T15:22:21Z</time>
      </trkpt>
      <trkpt lat="45.45541" lon="0.5187">
        <ele>215.33937455491</ele>
        <time>2015-08-08T15:22:26Z</time>
      </trkpt>
      <trkpt lat="45.45541" lon="0.5188">
        <ele>215.33937455491</ele>
        <time>2015-08-08T15:22:31Z</time>
      </trkpt>
      <trkpt lat="45.45542" lon="0.51889">
        <ele>215.27041606656</ele>
        <time>2015-08-08T15:22:36Z</time>
      </trkpt>
      <trkpt lat="45.45543" lon="0.51899">
        <ele>215.27041606656</ele>
        <time>2015-08-08T15:22:41Z</time>
      </trkpt>
      <trkpt lat="45.45545" lon="0.51909">
        <ele>214.7999898072</ele>
        <time>2015-08-08T15:22:46Z</time>
      </trkpt>
      <trkpt lat="45.45546" lon="0.51917">
        <ele>214.7999898072</ele>
        <time>2015-08-08T15:22:51Z</time>
      </trkpt>
      <trkpt lat="45.45545" lon="0.51925">
        <ele>214.6527933303</ele>
        <time>2015-08-08T15:22:56Z</time>
      </trkpt>
      <trkpt lat="45.45545" lon="0.51935">
        <ele>214.6527933303</ele>
        <time>2015-08-08T15:23:01Z</time>
      </trkpt>
      <trkpt lat="45.45542" lon="0.51947">
        <ele>215.08133925567</ele>
        <time>2015-08-08T15:23:06Z</time>
      </trkpt>
      <trkpt lat="45.45544" lon="0.51951">
        <ele>215.08133925567</ele>
        <time>2015-08-08T15:23:11Z</time>
      </trkpt>
      <trkpt lat="45.45544" lon="0.51961">
        <ele>215.3234913148</ele>
        <time>2015-08-08T15:23:16Z</time>
      </trkpt>
      <trkpt lat="45.45544" lon="0.51971">
        <ele>215.3234913148</ele>
        <time>2015-08-08T15:23:21Z</time>
      </trkpt>
      <trkpt lat="45.45543" lon="0.51982">
        <ele>215.65346485452</ele>
        <time>2015-08-08T15:23:26Z</time>
      </trkpt>
      <trkpt lat="45.45544" lon="0.51992">
        <ele>215.65346485452</ele>
        <time>2015-08-08T15:23:31Z</time>
      </trkpt>
      <trkpt lat="45.45545" lon="0.52001">
        <ele>216.05116612464</ele>
        <time>2015-08-08T15:23:36Z</time>
      </trkpt>
      <trkpt lat="45.45546" lon="0.5201">
        <ele>216.05116612464</ele>
        <time>2015-08-08T15:23:41Z</time>
      </trkpt>
      <trkpt lat="45.45546" lon="0.52019">
        <ele>216.26710751677</ele>
        <time>2015-08-08T15:23:46Z</time>
      </trkpt>
      <trkpt lat="45.45547" lon="0.5203">
        <ele>216.26710751677</ele>
        <time>2015-08-08T15:23:51Z</time>
      </trkpt>
      <trkpt lat="45.45548" lon="0.5204">
        <ele>216.51728656554</ele>
        <time>2015-08-08T15:23:56Z</time>
      </trkpt>
      <trkpt lat="45.4555" lon="0.52047">
        <ele>216.51728656554</ele>
        <time>2015-08-08T15:24:01Z</time>
      </trkpt>
      <trkpt lat="45.45552" lon="0.52058">
        <ele>216.45402344682</ele>
        <time>2015-08-08T15:24:06Z</time>
      </trkpt>
      <trkpt lat="45.45553" lon="0.52068">
        <ele>216.45402344682</ele>
        <time>2015-08-08T15:24:11Z</time>
      </trkpt>
      <trkpt lat="45.45554" lon="0.52077">
        <ele>216.64945988877</ele>
        <time>2015-08-08T15:24:16Z</time>
      </trkpt>
      <trkpt lat="45.45556" lon="0.52086">
        <ele>216.64945988877</ele>
        <time>2015-08-08T15:24:21Z</time>
      </trkpt>
      <trkpt lat="45.45557" lon="0.52094">
        <ele>216.56647618565</ele>
        <time>2015-08-08T15:24:26Z</time>
      </trkpt>
      <trkpt lat="45.45559" lon="0.52104">
        <ele>216.56647618565</ele>
        <time>2015-08-08T15:24:31Z</time>
      </trkpt>
      <trkpt lat="45.4556" lon="0.52114">
        <ele>216.54395419887</ele>
        <time>2015-08-08T15:24:36Z</time>
      </trkpt>
      <trkpt lat="45.45561" lon="0.52123">
        <ele>216.54395419887</ele>
        <time>2015-08-08T15:24:41Z</time>
      </trkpt>
      <trkpt lat="45.45563" lon="0.52133">
        <ele>216.69387876908</ele>
        <time>2015-08-08T15:24:46Z</time>
      </trkpt>
      <trkpt lat="45.45564" lon="0.52142">
        <ele>216.69387876908</ele>
        <time>2015-08-08T15:24:51Z</time>
      </trkpt>
      <trkpt lat="45.45565" lon="0.5215">
        <ele>216.77358318948</ele>
        <time>2015-08-08T15:24:56Z</time>
      </trkpt>
      <trkpt lat="45.45568" lon="0.5216">
        <ele>216.77358318948</ele>
        <time>2015-08-08T15:25:01Z</time>
      </trkpt>
      <trkpt lat="45.45569" lon="0.52169">
        <ele>216.61599636864</ele>
        <time>2015-08-08T15:25:06Z</time>
      </trkpt>
      <trkpt lat="45.45572" lon="0.52179">
        <ele>216.61599636864</ele>
        <time>2015-08-08T15:25:11Z</time>
      </trkpt>
      <trkpt lat="45.45578" lon="0.52209">
        <ele>216.5280723217</ele>
        <time>2015-08-08T15:25:16Z</time>
      </trkpt>
      <trkpt lat="45.45586" lon="0.52243">
        <ele>216.80836594215</ele>
        <time>2015-08-08T15:25:21Z</time>
      </trkpt>
      <trkpt lat="45.45592" lon="0.52272">
        <ele>217.1703710616</ele>
        <time>2015-08-08T15:25:26Z</time>
      </trkpt>
      <trkpt lat="45.45597" lon="0.52306">
        <ele>217.43480639613</ele>
        <time>2015-08-08T15:25:31Z</time>
      </trkpt>
      <trkpt lat="45.45603" lon="0.52334">
        <ele>217.40695684705</ele>
        <time>2015-08-08T15:25:36Z</time>
      </trkpt>
      <trkpt lat="45.45608" lon="0.52359">
        <ele>217.20981278999</ele>
        <time>2015-08-08T15:25:41Z</time>
      </trkpt>
      <trkpt lat="45.45609" lon="0.52369">
        <ele>217.20981278999</ele>
        <time>2015-08-08T15:25:46Z</time>
      </trkpt>
      <trkpt lat="45.4561" lon="0.52378">
        <ele>216.95775563052</ele>
        <time>2015-08-08T15:25:51Z</time>
      </trkpt>
      <trkpt lat="45.4561" lon="0.52387">
        <ele>216.95775563052</ele>
        <time>2015-08-08T15:25:56Z</time>
      </trkpt>
      <trkpt lat="45.45611" lon="0.52397">
        <ele>216.59834817943</ele>
        <time>2015-08-08T15:26:01Z</time>
      </trkpt>
      <trkpt lat="45.45612" lon="0.52407">
        <ele>216.59834817943</ele>
        <time>2015-08-08T15:26:06Z</time>
      </trkpt>
      <trkpt lat="45.45614" lon="0.52416">
        <ele>216.18413634503</ele>
        <time>2015-08-08T15:26:11Z</time>
      </trkpt>
      <trkpt lat="45.45615" lon="0.52424">
        <ele>216.18413634503</ele>
        <time>2015-08-08T15:26:16Z</time>
      </trkpt>
      <trkpt lat="45.45616" lon="0.52434">
        <ele>215.85037835173</ele>
        <time>2015-08-08T15:26:21Z</time>
      </trkpt>
      <trkpt lat="45.45617" lon="0.52444">
        <ele>215.85037835173</ele>
        <time>2015-08-08T15:26:26Z</time>
      </trkpt>
      <trkpt lat="45.45617" lon="0.52455">
        <ele>215.54918887048</ele>
        <time>2015-08-08T15:26:31Z</time>
      </trkpt>
      <trkpt lat="45.45618" lon="0.52464">
        <ele>215.54918887048</ele>
        <time>2015-08-08T15:26:36Z</time>
      </trkpt>
      <trkpt lat="45.45618" lon="0.52473">
        <ele>215.38017155873</ele>
        <time>2015-08-08T15:26:41Z</time>
      </trkpt>
      <trkpt lat="45.4562" lon="0.52482">
        <ele>215.38017155873</ele>
        <time>2015-08-08T15:26:46Z</time>
      </trkpt>
      <trkpt lat="45.4562" lon="0.52493">
        <ele>215.49283947695</ele>
        <time>2015-08-08T15:26:51Z</time>
      </trkpt>
      <trkpt lat="45.45621" lon="0.525">
        <ele>215.49283947695</ele>
        <time>2015-08-08T15:26:56Z</time>
      </trkpt>
      <trkpt lat="45.4562" lon="0.52509">
        <ele>215.36197496952</ele>
        <time>2015-08-08T15:27:01Z</time>
      </trkpt>
      <trkpt lat="45.45619" lon="0.52518">
        <ele>215.36197496952</ele>
        <time>2015-08-08T15:27:06Z</time>
      </trkpt>
      <trkpt lat="45.45621" lon="0.52528">
        <ele>214.93391477139</ele>
        <time>2015-08-08T15:27:11Z</time>
      </trkpt>
      <trkpt lat="45.45623" lon="0.52538">
        <ele>214.93391477139</ele>
        <time>2015-08-08T15:27:16Z</time>
      </trkpt>
      <trkpt lat="45.45625" lon="0.52549">
        <ele>214.80822910486</ele>
        <time>2015-08-08T15:27:21Z</time>
      </trkpt>
      <trkpt lat="45.45627" lon="0.52557">
        <ele>214.80822910486</ele>
        <time>2015-08-08T15:27:26Z</time>
      </trkpt>
      <trkpt lat="45.45628" lon="0.52566">
        <ele>214.40107619437</ele>
        <time>2015-08-08T15:27:31Z</time>
      </trkpt>
      <trkpt lat="45.45629" lon="0.52574">
        <ele>214.40107619437</ele>
        <time>2015-08-08T15:27:36Z</time>
      </trkpt>
      <trkpt lat="45.45631" lon="0.52584">
        <ele>213.7054623564</ele>
        <time>2015-08-08T15:27:41Z</time>
      </trkpt>
      <trkpt lat="45.45632" lon="0.52591">
        <ele>213.7054623564</ele>
        <time>2015-08-08T15:27:46Z</time>
      </trkpt>
      <trkpt lat="45.45633" lon="0.526">
        <ele>212.94625245856</ele>
        <time>2015-08-08T15:27:51Z</time>
      </trkpt>
      <trkpt lat="45.45635" lon="0.52609">
        <ele>212.94625245856</ele>
        <time>2015-08-08T15:27:56Z</time>
      </trkpt>
      <trkpt lat="45.45637" lon="0.52618">
        <ele>211.84194905222</ele>
        <time>2015-08-08T15:28:01Z</time>
      </trkpt>
      <trkpt lat="45.45639" lon="0.52625">
        <ele>211.84194905222</ele>
        <time>2015-08-08T15:28:06Z</time>
      </trkpt>
      <trkpt lat="45.45638" lon="0.5264">
        <ele>211.22789952591</ele>
        <time>2015-08-08T15:28:11Z</time>
      </trkpt>
      <trkpt lat="45.45637" lon="0.5265">
        <ele>211.22789952591</ele>
        <time>2015-08-08T15:28:16Z</time>
      </trkpt>
      <trkpt lat="45.45639" lon="0.52659">
        <ele>210.70936211316</ele>
        <time>2015-08-08T15:28:21Z</time>
      </trkpt>
      <trkpt lat="45.4564" lon="0.52666">
        <ele>210.70936211316</ele>
        <time>2015-08-08T15:28:26Z</time>
      </trkpt>
      <trkpt lat="45.45641" lon="0.52675">
        <ele>210.4823075773</ele>
        <time>2015-08-08T15:28:31Z</time>
      </trkpt>
      <trkpt lat="45.45644" lon="0.52684">
        <ele>210.4823075773</ele>
        <time>2015-08-08T15:28:36Z</time>
      </trkpt>
      <trkpt lat="45.45645" lon="0.52694">
        <ele>210.23746455616</ele>
        <time>2015-08-08T15:28:41Z</time>
      </trkpt>
      <trkpt lat="45.45646" lon="0.52702">
        <ele>210.23746455616</ele>
        <time>2015-08-08T15:28:46Z</time>
      </trkpt>
      <trkpt lat="45.45645" lon="0.52713">
        <ele>210.4376603502</ele>
        <time>2015-08-08T15:28:51Z</time>
      </trkpt>
      <trkpt lat="45.45643" lon="0.52723">
        <ele>210.4376603502</ele>
        <time>2015-08-08T15:28:56Z</time>
      </trkpt>
      <trkpt lat="45.45641" lon="0.52729">
        <ele>210.02608410269</ele>
        <time>2015-08-08T15:29:01Z</time>
      </trkpt>
      <trkpt lat="45.45638" lon="0.52738">
        <ele>210.02608410269</ele>
        <time>2015-08-08T15:29:06Z</time>
      </trkpt>
      <trkpt lat="45.45636" lon="0.52746">
        <ele>209.52398712261</ele>
        <time>2015-08-08T15:29:11Z</time>
      </trkpt>
      <trkpt lat="45.45634" lon="0.52757">
        <ele>209.52398712261</ele>
        <time>2015-08-08T15:29:16Z</time>
      </trkpt>
      <trkpt lat="45.45632" lon="0.52767">
        <ele>209.57306639638</ele>
        <time>2015-08-08T15:29:21Z</time>
      </trkpt>
      <trkpt lat="45.45631" lon="0.5278">
        <ele>209.57306639638</ele>
        <time>2015-08-08T15:29:26Z</time>
      </trkpt>
      <trkpt lat="45.45628" lon="0.52789">
        <ele>210.27632041976</ele>
        <time>2015-08-08T15:29:31Z</time>
      </trkpt>
      <trkpt lat="45.45626" lon="0.52799">
        <ele>210.27632041976</ele>
        <time>2015-08-08T15:29:36Z</time>
      </trkpt>
      <trkpt lat="45.45625" lon="0.52807">
        <ele>210.93470409796</ele>
        <time>2015-08-08T15:29:41Z</time>
      </trkpt>
      <trkpt lat="45.45623" lon="0.52815">
        <ele>210.93470409796</ele>
        <time>2015-08-08T15:29:46Z</time>
      </trkpt>
      <trkpt lat="45.45621" lon="0.52824">
        <ele>211.6211815251</ele>
        <time>2015-08-08T15:29:51Z</time>
      </trkpt>
      <trkpt lat="45.45619" lon="0.52834">
        <ele>211.6211815251</ele>
        <time>2015-08-08T15:29:56Z</time>
      </trkpt>
      <trkpt lat="45.45618" lon="0.52842">
        <ele>212.54737410874</ele>
        <time>2015-08-08T15:30:01Z</time>
      </trkpt>
      <trkpt lat="45.45615" lon="0.5285">
        <ele>212.54737410874</ele>
        <time>2015-08-08T15:30:06Z</time>
      </trkpt>
      <trkpt lat="45.45614" lon="0.52856">
        <ele>213.23135652399</ele>
        <time>2015-08-08T15:30:11Z</time>
      </trkpt>
      <trkpt lat="45.45611" lon="0.52865">
        <ele>213.23135652399</ele>
        <time>2015-08-08T15:30:16Z</time>
      </trkpt>
      <trkpt lat="45.45609" lon="0.52875">
        <ele>213.84696501937</ele>
        <time>2015-08-08T15:30:21Z</time>
      </trkpt>
      <trkpt lat="45.45607" lon="0.52886">
        <ele>213.84696501937</ele>
        <time>2015-08-08T15:30:26Z</time>
      </trkpt>
      <trkpt lat="45.45605" lon="0.52893">
        <ele>214.74281249644</ele>
        <time>2015-08-08T15:30:31Z</time>
      </trkpt>
      <trkpt lat="45.45607" lon="0.52903">
        <ele>214.74281249644</ele>
        <time>2015-08-08T15:30:36Z</time>
      </trkpt>
      <trkpt lat="45.45603" lon="0.52909">
        <ele>215.07383314064</ele>
        <time>2015-08-08T15:30:41Z</time>
      </trkpt>
      <trkpt lat="45.45603" lon="0.52918">
        <ele>215.07383314064</ele>
        <time>2015-08-08T15:30:46Z</time>
      </trkpt>
      <trkpt lat="45.45599" lon="0.52938">
        <ele>214.83684512883</ele>
        <time>2015-08-08T15:30:57Z</time>
      </trkpt>
      <trkpt lat="45.45596" lon="0.5295">
        <ele>214.83684512883</ele>
        <time>2015-08-08T15:31:02Z</time>
      </trkpt>
      <trkpt lat="45.45592" lon="0.52961">
        <ele>215.22664123368</ele>
        <time>2015-08-08T15:31:06Z</time>
      </trkpt>
      <trkpt lat="45.45589" lon="0.52966">
        <ele>215.22664123368</ele>
        <time>2015-08-08T15:31:11Z</time>
      </trkpt>
      <trkpt lat="45.45576" lon="0.52984">
        <ele>215.67682463585</ele>
        <time>2015-08-08T15:31:16Z</time>
      </trkpt>
      <trkpt lat="45.4556" lon="0.53014">
        <ele>216.1236205414</ele>
        <time>2015-08-08T15:31:21Z</time>
      </trkpt>
      <trkpt lat="45.45551" lon="0.5305">
        <ele>216.79620165147</ele>
        <time>2015-08-08T15:31:26Z</time>
      </trkpt>
      <trkpt lat="45.4554" lon="0.53085">
        <ele>217.43073954733</ele>
        <time>2015-08-08T15:31:31Z</time>
      </trkpt>
      <trkpt lat="45.4553" lon="0.53121">
        <ele>218.22967548689</ele>
        <time>2015-08-08T15:31:36Z</time>
      </trkpt>
      <trkpt lat="45.45522" lon="0.53156">
        <ele>219.16399330822</ele>
        <time>2015-08-08T15:31:41Z</time>
      </trkpt>
      <trkpt lat="45.45517" lon="0.53174">
        <ele>220.0767746041</ele>
        <time>2015-08-08T15:31:46Z</time>
      </trkpt>
      <trkpt lat="45.45515" lon="0.53181">
        <ele>220.0767746041</ele>
        <time>2015-08-08T15:31:51Z</time>
      </trkpt>
      <trkpt lat="45.45512" lon="0.53192">
        <ele>221.21183953829</ele>
        <time>2015-08-08T15:31:56Z</time>
      </trkpt>
      <trkpt lat="45.4551" lon="0.532">
        <ele>221.21183953829</ele>
        <time>2015-08-08T15:32:01Z</time>
      </trkpt>
      <trkpt lat="45.45506" lon="0.53211">
        <ele>222.60718564328</ele>
        <time>2015-08-08T15:32:06Z</time>
      </trkpt>
      <trkpt lat="45.45505" lon="0.53219">
        <ele>222.60718564328</ele>
        <time>2015-08-08T15:32:11Z</time>
      </trkpt>
      <trkpt lat="45.45502" lon="0.53227">
        <ele>223.66326146023</ele>
        <time>2015-08-08T15:32:16Z</time>
      </trkpt>
      <trkpt lat="45.45499" lon="0.53236">
        <ele>223.66326146023</ele>
        <time>2015-08-08T15:32:21Z</time>
      </trkpt>
      <trkpt lat="45.45497" lon="0.53244">
        <ele>224.69024366209</ele>
        <time>2015-08-08T15:32:26Z</time>
      </trkpt>
      <trkpt lat="45.45495" lon="0.5325">
        <ele>224.69024366209</ele>
        <time>2015-08-08T15:32:31Z</time>
      </trkpt>
      <trkpt lat="45.455" lon="0.53258">
        <ele>224.92366352011</ele>
        <time>2015-08-08T15:32:36Z</time>
      </trkpt>
      <trkpt lat="45.45508" lon="0.53258">
        <ele>224.92366352011</ele>
        <time>2015-08-08T15:32:41Z</time>
      </trkpt>
      <trkpt lat="45.45527" lon="0.53256">
        <ele>224.62305099456</ele>
        <time>2015-08-08T15:32:46Z</time>
      </trkpt>
      <trkpt lat="45.45551" lon="0.53251">
        <ele>224.16013655724</ele>
        <time>2015-08-08T15:32:51Z</time>
      </trkpt>
      <trkpt lat="45.45579" lon="0.53244">
        <ele>223.76457140469</ele>
        <time>2015-08-08T15:32:56Z</time>
      </trkpt>
      <trkpt lat="45.45598" lon="0.53239">
        <ele>222.92844467776</ele>
        <time>2015-08-08T15:33:01Z</time>
      </trkpt>
      <trkpt lat="45.45629" lon="0.53229">
        <ele>222.22003593071</ele>
        <time>2015-08-08T15:33:06Z</time>
      </trkpt>
      <trkpt lat="45.45649" lon="0.53226">
        <ele>221.20000916117</ele>
        <time>2015-08-08T15:33:11Z</time>
      </trkpt>
      <trkpt lat="45.45669" lon="0.53224">
        <ele>220.97536706164</ele>
        <time>2015-08-08T15:33:17Z</time>
      </trkpt>
      <trkpt lat="45.45677" lon="0.53225">
        <ele>220.97536706164</ele>
        <time>2015-08-08T15:33:21Z</time>
      </trkpt>
      <trkpt lat="45.45684" lon="0.53224">
        <ele>220.89788747437</ele>
        <time>2015-08-08T15:33:26Z</time>
      </trkpt>
      <trkpt lat="45.45687" lon="0.53224">
        <ele>220.89788747437</ele>
        <time>2015-08-08T15:33:31Z</time>
      </trkpt>
      <trkpt lat="45.45688" lon="0.53223">
        <ele>220.89788747437</ele>
        <time>2015-08-08T15:33:36Z</time>
      </trkpt>
      <trkpt lat="45.45688" lon="0.53223">
        <ele>220.89788747437</ele>
        <time>2015-08-08T15:33:41Z</time>
      </trkpt>
      <trkpt lat="45.45688" lon="0.53223">
        <ele>220.89788747437</ele>
        <time>2015-08-08T15:33:46Z</time>
      </trkpt>
      <trkpt lat="45.45682" lon="0.53223">
        <ele>220.87095213019</ele>
        <time>2015-08-08T15:33:51Z</time>
      </trkpt>
      <trkpt lat="45.45676" lon="0.53223">
        <ele>220.87095213019</ele>
        <time>2015-08-08T15:33:56Z</time>
      </trkpt>
      <trkpt lat="45.45671" lon="0.53221">
        <ele>220.43021421294</ele>
        <time>2015-08-08T15:34:01Z</time>
      </trkpt>
      <trkpt lat="45.4567" lon="0.53219">
        <ele>220.43021421294</ele>
        <time>2015-08-08T15:34:06Z</time>
      </trkpt>
      <trkpt lat="45.45674" lon="0.5322">
        <ele>220.43021421294</ele>
        <time>2015-08-08T15:34:11Z</time>
      </trkpt>
      <trkpt lat="45.4568" lon="0.53221">
        <ele>220.05450002136</ele>
        <time>2015-08-08T15:34:16Z</time>
      </trkpt>
      <trkpt lat="45.45686" lon="0.5322">
        <ele>220.05450002136</ele>
        <time>2015-08-08T15:34:21Z</time>
      </trkpt>
      <trkpt lat="45.45692" lon="0.53218">
        <ele>219.58200968548</ele>
        <time>2015-08-08T15:34:26Z</time>
      </trkpt>
      <trkpt lat="45.45698" lon="0.53217">
        <ele>219.58200968548</ele>
        <time>2015-08-08T15:34:31Z</time>
      </trkpt>
      <trkpt lat="45.45702" lon="0.53216">
        <ele>218.99279353602</ele>
        <time>2015-08-08T15:34:36Z</time>
      </trkpt>
      <trkpt lat="45.45707" lon="0.53215">
        <ele>218.99279353602</ele>
        <time>2015-08-08T15:34:41Z</time>
      </trkpt>
      <trkpt lat="45.45715" lon="0.5321">
        <ele>217.77870381247</ele>
        <time>2015-08-08T15:34:46Z</time>
      </trkpt>
      <trkpt lat="45.4572" lon="0.53207">
        <ele>217.77870381247</ele>
        <time>2015-08-08T15:34:51Z</time>
      </trkpt>
      <trkpt lat="45.45725" lon="0.53203">
        <ele>217.25763385443</ele>
        <time>2015-08-08T15:34:56Z</time>
      </trkpt>
      <trkpt lat="45.4573" lon="0.53197">
        <ele>217.25763385443</ele>
        <time>2015-08-08T15:35:01Z</time>
      </trkpt>
      <trkpt lat="45.45732" lon="0.53193">
        <ele>216.15557272679</ele>
        <time>2015-08-08T15:35:06Z</time>
      </trkpt>
      <trkpt lat="45.45737" lon="0.53189">
        <ele>216.15557272679</ele>
        <time>2015-08-08T15:35:11Z</time>
      </trkpt>
      <trkpt lat="45.45741" lon="0.53186">
        <ele>215.09508488379</ele>
        <time>2015-08-08T15:35:16Z</time>
      </trkpt>
      <trkpt lat="45.45747" lon="0.53182">
        <ele>215.09508488379</ele>
        <time>2015-08-08T15:35:21Z</time>
      </trkpt>
      <trkpt lat="45.45752" lon="0.53175">
        <ele>214.17727936902</ele>
        <time>2015-08-08T15:35:26Z</time>
      </trkpt>
      <trkpt lat="45.45756" lon="0.53169">
        <ele>214.17727936902</ele>
        <time>2015-08-08T15:35:31Z</time>
      </trkpt>
      <trkpt lat="45.4576" lon="0.53163">
        <ele>212.70278054865</ele>
        <time>2015-08-08T15:35:36Z</time>
      </trkpt>
      <trkpt lat="45.45764" lon="0.53158">
        <ele>212.70278054865</ele>
        <time>2015-08-08T15:35:41Z</time>
      </trkpt>
      <trkpt lat="45.4577" lon="0.53153">
        <ele>211.22121991988</ele>
        <time>2015-08-08T15:35:46Z</time>
      </trkpt>
      <trkpt lat="45.45776" lon="0.53151">
        <ele>211.22121991988</ele>
        <time>2015-08-08T15:35:51Z</time>
      </trkpt>
      <trkpt lat="45.45783" lon="0.53146">
        <ele>209.98241307419</ele>
        <time>2015-08-08T15:35:56Z</time>
      </trkpt>
      <trkpt lat="45.45789" lon="0.53141">
        <ele>209.98241307419</ele>
        <time>2015-08-08T15:36:01Z</time>
      </trkpt>
      <trkpt lat="45.45795" lon="0.53136">
        <ele>209.23148832296</ele>
        <time>2015-08-08T15:36:06Z</time>
      </trkpt>
      <trkpt lat="45.45801" lon="0.53129">
        <ele>209.23148832296</ele>
        <time>2015-08-08T15:36:11Z</time>
      </trkpt>
      <trkpt lat="45.45803" lon="0.5312">
        <ele>208.19975967442</ele>
        <time>2015-08-08T15:36:16Z</time>
      </trkpt>
      <trkpt lat="45.45807" lon="0.53111">
        <ele>208.19975967442</ele>
        <time>2015-08-08T15:36:21Z</time>
      </trkpt>
      <trkpt lat="45.45812" lon="0.53104">
        <ele>207.19891002648</ele>
        <time>2015-08-08T15:36:26Z</time>
      </trkpt>
      <trkpt lat="45.45823" lon="0.53091">
        <ele>206.76255176963</ele>
        <time>2015-08-08T15:36:36Z</time>
      </trkpt>
      <trkpt lat="45.45828" lon="0.53085">
        <ele>206.76255176963</ele>
        <time>2015-08-08T15:36:41Z</time>
      </trkpt>
      <trkpt lat="45.45834" lon="0.53082">
        <ele>206.36024862722</ele>
        <time>2015-08-08T15:36:46Z</time>
      </trkpt>
      <trkpt lat="45.45843" lon="0.53077">
        <ele>206.48031518492</ele>
        <time>2015-08-08T15:36:51Z</time>
      </trkpt>
      <trkpt lat="45.45848" lon="0.53073">
        <ele>206.48031518492</ele>
        <time>2015-08-08T15:36:56Z</time>
      </trkpt>
      <trkpt lat="45.45853" lon="0.53069">
        <ele>206.63693564954</ele>
        <time>2015-08-08T15:37:01Z</time>
      </trkpt>
      <trkpt lat="45.45859" lon="0.53066">
        <ele>206.63693564954</ele>
        <time>2015-08-08T15:37:06Z</time>
      </trkpt>
      <trkpt lat="45.45865" lon="0.53063">
        <ele>206.76891428919</ele>
        <time>2015-08-08T15:37:11Z</time>
      </trkpt>
      <trkpt lat="45.4587" lon="0.53061">
        <ele>206.76891428919</ele>
        <time>2015-08-08T15:37:16Z</time>
      </trkpt>
      <trkpt lat="45.45874" lon="0.53059">
        <ele>206.4736937644</ele>
        <time>2015-08-08T15:37:21Z</time>
      </trkpt>
      <trkpt lat="45.4588" lon="0.53056">
        <ele>206.4736937644</ele>
        <time>2015-08-08T15:37:26Z</time>
      </trkpt>
      <trkpt lat="45.45884" lon="0.53052">
        <ele>205.68206586232</ele>
        <time>2015-08-08T15:37:31Z</time>
      </trkpt>
      <trkpt lat="45.4589" lon="0.53047">
        <ele>205.68206586232</ele>
        <time>2015-08-08T15:37:36Z</time>
      </trkpt>
      <trkpt lat="45.45896" lon="0.53043">
        <ele>204.79240333921</ele>
        <time>2015-08-08T15:37:41Z</time>
      </trkpt>
      <trkpt lat="45.45904" lon="0.53037">
        <ele>204.0299283922</ele>
        <time>2015-08-08T15:37:46Z</time>
      </trkpt>
      <trkpt lat="45.45908" lon="0.53032">
        <ele>204.0299283922</ele>
        <time>2015-08-08T15:37:51Z</time>
      </trkpt>
      <trkpt lat="45.4591" lon="0.53022">
        <ele>202.85353237483</ele>
        <time>2015-08-08T15:37:56Z</time>
      </trkpt>
      <trkpt lat="45.45913" lon="0.53014">
        <ele>202.85353237483</ele>
        <time>2015-08-08T15:38:01Z</time>
      </trkpt>
      <trkpt lat="45.45915" lon="0.53008">
        <ele>201.56998635927</ele>
        <time>2015-08-08T15:38:06Z</time>
      </trkpt>
      <trkpt lat="45.4592" lon="0.5301">
        <ele>201.56998635927</ele>
        <time>2015-08-08T15:38:11Z</time>
      </trkpt>
      <trkpt lat="45.45924" lon="0.53012">
        <ele>200.39171511208</ele>
        <time>2015-08-08T15:38:16Z</time>
      </trkpt>
      <trkpt lat="45.45929" lon="0.53014">
        <ele>200.39171511208</ele>
        <time>2015-08-08T15:38:21Z</time>
      </trkpt>
      <trkpt lat="45.45935" lon="0.53018">
        <ele>198.76580559872</ele>
        <time>2015-08-08T15:38:26Z</time>
      </trkpt>
      <trkpt lat="45.45939" lon="0.53021">
        <ele>198.76580559872</ele>
        <time>2015-08-08T15:38:31Z</time>
      </trkpt>
      <trkpt lat="45.45949" lon="0.53025">
        <ele>197.34845379202</ele>
        <time>2015-08-08T15:38:36Z</time>
      </trkpt>
      <trkpt lat="45.45954" lon="0.5303">
        <ele>197.34845379202</ele>
        <time>2015-08-08T15:38:41Z</time>
      </trkpt>
      <trkpt lat="45.4596" lon="0.53037">
        <ele>196.35789942618</ele>
        <time>2015-08-08T15:38:46Z</time>
      </trkpt>
      <trkpt lat="45.45964" lon="0.53042">
        <ele>196.35789942618</ele>
        <time>2015-08-08T15:38:51Z</time>
      </trkpt>
      <trkpt lat="45.45969" lon="0.5305">
        <ele>195.38981639383</ele>
        <time>2015-08-08T15:38:56Z</time>
      </trkpt>
      <trkpt lat="45.45973" lon="0.53058">
        <ele>195.38981639383</ele>
        <time>2015-08-08T15:39:01Z</time>
      </trkpt>
      <trkpt lat="45.45975" lon="0.53063">
        <ele>193.85327797586</ele>
        <time>2015-08-08T15:39:06Z</time>
      </trkpt>
      <trkpt lat="45.45977" lon="0.53071">
        <ele>193.85327797586</ele>
        <time>2015-08-08T15:39:11Z</time>
      </trkpt>
      <trkpt lat="45.45978" lon="0.53083">
        <ele>192.5713437433</ele>
        <time>2015-08-08T15:39:16Z</time>
      </trkpt>
      <trkpt lat="45.45978" lon="0.5309">
        <ele>192.5713437433</ele>
        <time>2015-08-08T15:39:21Z</time>
      </trkpt>
      <trkpt lat="45.4598" lon="0.53098">
        <ele>190.735010158</ele>
        <time>2015-08-08T15:39:26Z</time>
      </trkpt>
      <trkpt lat="45.45982" lon="0.53102">
        <ele>190.735010158</ele>
        <time>2015-08-08T15:39:31Z</time>
      </trkpt>
      <trkpt lat="45.45985" lon="0.5311">
        <ele>189.26786933997</ele>
        <time>2015-08-08T15:39:36Z</time>
      </trkpt>
      <trkpt lat="45.4599" lon="0.53118">
        <ele>189.26786933997</ele>
        <time>2015-08-08T15:39:41Z</time>
      </trkpt>
      <trkpt lat="45.45992" lon="0.53124">
        <ele>187.65549393223</ele>
        <time>2015-08-08T15:39:46Z</time>
      </trkpt>
      <trkpt lat="45.45997" lon="0.5313">
        <ele>187.65549393223</ele>
        <time>2015-08-08T15:39:51Z</time>
      </trkpt>
      <trkpt lat="45.45999" lon="0.53134">
        <ele>186.08448098014</ele>
        <time>2015-08-08T15:39:56Z</time>
      </trkpt>
      <trkpt lat="45.46004" lon="0.53145">
        <ele>185.00132977898</ele>
        <time>2015-08-08T15:40:01Z</time>
      </trkpt>
      <trkpt lat="45.4601" lon="0.53148">
        <ele>185.00132977898</ele>
        <time>2015-08-08T15:40:06Z</time>
      </trkpt>
      <trkpt lat="45.46014" lon="0.53154">
        <ele>183.86715167906</ele>
        <time>2015-08-08T15:40:11Z</time>
      </trkpt>
      <trkpt lat="45.46022" lon="0.53158">
        <ele>183.86715167906</ele>
        <time>2015-08-08T15:40:16Z</time>
      </trkpt>
      <trkpt lat="45.46026" lon="0.53169">
        <ele>182.932080622</ele>
        <time>2015-08-08T15:40:21Z</time>
      </trkpt>
      <trkpt lat="45.4603" lon="0.53175">
        <ele>182.932080622</ele>
        <time>2015-08-08T15:40:26Z</time>
      </trkpt>
      <trkpt lat="45.46037" lon="0.53179">
        <ele>181.80755627603</ele>
        <time>2015-08-08T15:40:31Z</time>
      </trkpt>
      <trkpt lat="45.46042" lon="0.53178">
        <ele>181.80755627603</ele>
        <time>2015-08-08T15:40:36Z</time>
      </trkpt>
      <trkpt lat="45.46047" lon="0.53174">
        <ele>180.6239909113</ele>
        <time>2015-08-08T15:40:41Z</time>
      </trkpt>
      <trkpt lat="45.46052" lon="0.53172">
        <ele>180.6239909113</ele>
        <time>2015-08-08T15:40:46Z</time>
      </trkpt>
      <trkpt lat="45.46054" lon="0.5317">
        <ele>180.6239909113</ele>
        <time>2015-08-08T15:40:51Z</time>
      </trkpt>
      <trkpt lat="45.46055" lon="0.53169">
        <ele>179.18525980838</ele>
        <time>2015-08-08T15:40:56Z</time>
      </trkpt>
      <trkpt lat="45.46062" lon="0.53167">
        <ele>179.18525980838</ele>
        <time>2015-08-08T15:41:01Z</time>
      </trkpt>
      <trkpt lat="45.46069" lon="0.53165">
        <ele>177.92996326754</ele>
        <time>2015-08-08T15:41:06Z</time>
      </trkpt>
      <trkpt lat="45.46076" lon="0.53165">
        <ele>177.92996326754</ele>
        <time>2015-08-08T15:41:11Z</time>
      </trkpt>
      <trkpt lat="45.46083" lon="0.53165">
        <ele>176.77391531488</ele>
        <time>2015-08-08T15:41:16Z</time>
      </trkpt>
      <trkpt lat="45.46088" lon="0.53164">
        <ele>176.77391531488</ele>
        <time>2015-08-08T15:41:21Z</time>
      </trkpt>
      <trkpt lat="45.46093" lon="0.53164">
        <ele>175.71081879388</ele>
        <time>2015-08-08T15:41:26Z</time>
      </trkpt>
      <trkpt lat="45.46101" lon="0.53163">
        <ele>175.71081879388</ele>
        <time>2015-08-08T15:41:31Z</time>
      </trkpt>
      <trkpt lat="45.46109" lon="0.53162">
        <ele>174.92185300742</ele>
        <time>2015-08-08T15:41:36Z</time>
      </trkpt>
      <trkpt lat="45.46117" lon="0.53161">
        <ele>174.92185300742</ele>
        <time>2015-08-08T15:41:41Z</time>
      </trkpt>
      <trkpt lat="45.46122" lon="0.53159">
        <ele>174.21377497464</ele>
        <time>2015-08-08T15:41:46Z</time>
      </trkpt>
      <trkpt lat="45.4613" lon="0.53156">
        <ele>174.21377497464</ele>
        <time>2015-08-08T15:41:51Z</time>
      </trkpt>
      <trkpt lat="45.46135" lon="0.53153">
        <ele>173.42166002175</ele>
        <time>2015-08-08T15:41:56Z</time>
      </trkpt>
      <trkpt lat="45.46141" lon="0.53149">
        <ele>173.42166002175</ele>
        <time>2015-08-08T15:42:01Z</time>
      </trkpt>
      <trkpt lat="45.46147" lon="0.53144">
        <ele>172.36405556038</ele>
        <time>2015-08-08T15:42:06Z</time>
      </trkpt>
      <trkpt lat="45.46152" lon="0.53141">
        <ele>172.36405556038</ele>
        <time>2015-08-08T15:42:11Z</time>
      </trkpt>
      <trkpt lat="45.4616" lon="0.53138">
        <ele>171.53644277476</ele>
        <time>2015-08-08T15:42:16Z</time>
      </trkpt>
      <trkpt lat="45.46167" lon="0.53137">
        <ele>171.53644277476</ele>
        <time>2015-08-08T15:42:21Z</time>
      </trkpt>
      <trkpt lat="45.46171" lon="0.5313">
        <ele>170.40284496134</ele>
        <time>2015-08-08T15:42:26Z</time>
      </trkpt>
      <trkpt lat="45.46173" lon="0.53122">
        <ele>170.40284496134</ele>
        <time>2015-08-08T15:42:31Z</time>
      </trkpt>
      <trkpt lat="45.46177" lon="0.53114">
        <ele>169.46183897493</ele>
        <time>2015-08-08T15:42:36Z</time>
      </trkpt>
      <trkpt lat="45.46181" lon="0.53106">
        <ele>169.46183897493</ele>
        <time>2015-08-08T15:42:41Z</time>
      </trkpt>
      <trkpt lat="45.46185" lon="0.53099">
        <ele>168.5551169528</ele>
        <time>2015-08-08T15:42:46Z</time>
      </trkpt>
      <trkpt lat="45.4619" lon="0.53091">
        <ele>168.5551169528</ele>
        <time>2015-08-08T15:42:51Z</time>
      </trkpt>
      <trkpt lat="45.46193" lon="0.53082">
        <ele>167.60792147938</ele>
        <time>2015-08-08T15:42:56Z</time>
      </trkpt>
      <trkpt lat="45.46196" lon="0.53074">
        <ele>167.60792147938</ele>
        <time>2015-08-08T15:43:01Z</time>
      </trkpt>
      <trkpt lat="45.462" lon="0.53067">
        <ele>166.49342035907</ele>
        <time>2015-08-08T15:43:06Z</time>
      </trkpt>
      <trkpt lat="45.46203" lon="0.53058">
        <ele>166.49342035907</ele>
        <time>2015-08-08T15:43:11Z</time>
      </trkpt>
      <trkpt lat="45.46206" lon="0.53049">
        <ele>165.4404017724</ele>
        <time>2015-08-08T15:43:16Z</time>
      </trkpt>
      <trkpt lat="45.4621" lon="0.53041">
        <ele>165.4404017724</ele>
        <time>2015-08-08T15:43:21Z</time>
      </trkpt>
      <trkpt lat="45.46214" lon="0.53034">
        <ele>164.66064477197</ele>
        <time>2015-08-08T15:43:26Z</time>
      </trkpt>
      <trkpt lat="45.46216" lon="0.53031">
        <ele>164.66064477197</ele>
        <time>2015-08-08T15:43:31Z</time>
      </trkpt>
      <trkpt lat="45.46217" lon="0.53031">
        <ele>164.66064477197</ele>
        <time>2015-08-08T15:43:36Z</time>
      </trkpt>
      <trkpt lat="45.46217" lon="0.53031">
        <ele>164.66064477197</ele>
        <time>2015-08-08T15:43:41Z</time>
      </trkpt>
      <trkpt lat="45.46214" lon="0.53036">
        <ele>164.66064477197</ele>
        <time>2015-08-08T15:43:46Z</time>
      </trkpt>
      <trkpt lat="45.46218" lon="0.53033">
        <ele>164.2198779611</ele>
        <time>2015-08-08T15:43:51Z</time>
      </trkpt>
      <trkpt lat="45.46218" lon="0.53033">
        <ele>164.2198779611</ele>
        <time>2015-08-08T15:43:56Z</time>
      </trkpt>
      <trkpt lat="45.46218" lon="0.53033">
        <ele>164.2198779611</ele>
        <time>2015-08-08T15:44:01Z</time>
      </trkpt>
      <trkpt lat="45.46218" lon="0.53033">
        <ele>164.2198779611</ele>
        <time>2015-08-08T15:44:06Z</time>
      </trkpt>
      <trkpt lat="45.46218" lon="0.53033">
        <ele>164.2198779611</ele>
        <time>2015-08-08T15:44:11Z</time>
      </trkpt>
      <trkpt lat="45.46219" lon="0.53033">
        <ele>164.2198779611</ele>
        <time>2015-08-08T15:44:16Z</time>
      </trkpt>
      <trkpt lat="45.46221" lon="0.53029">
        <ele>164.2198779611</ele>
        <time>2015-08-08T15:44:21Z</time>
      </trkpt>
      <trkpt lat="45.46224" lon="0.53022">
        <ele>163.73128332449</ele>
        <time>2015-08-08T15:44:26Z</time>
      </trkpt>
      <trkpt lat="45.46228" lon="0.53013">
        <ele>163.73128332449</ele>
        <time>2015-08-08T15:44:31Z</time>
      </trkpt>
      <trkpt lat="45.46233" lon="0.53004">
        <ele>163.26890836634</ele>
        <time>2015-08-08T15:44:36Z</time>
      </trkpt>
      <trkpt lat="45.46236" lon="0.52998">
        <ele>163.26890836634</ele>
        <time>2015-08-08T15:44:41Z</time>
      </trkpt>
      <trkpt lat="45.46243" lon="0.52989">
        <ele>162.67069759799</ele>
        <time>2015-08-08T15:44:46Z</time>
      </trkpt>
      <trkpt lat="45.46246" lon="0.52983">
        <ele>162.67069759799</ele>
        <time>2015-08-08T15:44:51Z</time>
      </trkpt>
      <trkpt lat="45.46249" lon="0.52974">
        <ele>162.01745211934</ele>
        <time>2015-08-08T15:44:56Z</time>
      </trkpt>
      <trkpt lat="45.46253" lon="0.52965">
        <ele>162.01745211934</ele>
        <time>2015-08-08T15:45:01Z</time>
      </trkpt>
      <trkpt lat="45.46257" lon="0.52955">
        <ele>161.62917892569</ele>
        <time>2015-08-08T15:45:06Z</time>
      </trkpt>
      <trkpt lat="45.46261" lon="0.52946">
        <ele>161.62917892569</ele>
        <time>2015-08-08T15:45:11Z</time>
      </trkpt>
      <trkpt lat="45.46266" lon="0.52938">
        <ele>161.39812589089</ele>
        <time>2015-08-08T15:45:16Z</time>
      </trkpt>
      <trkpt lat="45.4627" lon="0.52929">
        <ele>161.39812589089</ele>
        <time>2015-08-08T15:45:21Z</time>
      </trkpt>
      <trkpt lat="45.46275" lon="0.52921">
        <ele>161.22402329495</ele>
        <time>2015-08-08T15:45:26Z</time>
      </trkpt>
      <trkpt lat="45.46279" lon="0.52912">
        <ele>161.22402329495</ele>
        <time>2015-08-08T15:45:31Z</time>
      </trkpt>
      <trkpt lat="45.46284" lon="0.52904">
        <ele>161.14352116476</ele>
        <time>2015-08-08T15:45:36Z</time>
      </trkpt>
      <trkpt lat="45.46288" lon="0.52897">
        <ele>161.14352116476</ele>
        <time>2015-08-08T15:45:41Z</time>
      </trkpt>
      <trkpt lat="45.46292" lon="0.52893">
        <ele>160.98857870435</ele>
        <time>2015-08-08T15:45:46Z</time>
      </trkpt>
      <trkpt lat="45.46296" lon="0.52886">
        <ele>160.98857870435</ele>
        <time>2015-08-08T15:45:51Z</time>
      </trkpt>
      <trkpt lat="45.463" lon="0.52878">
        <ele>160.86313382697</ele>
        <time>2015-08-08T15:45:56Z</time>
      </trkpt>
      <trkpt lat="45.46303" lon="0.52872">
        <ele>160.86313382697</ele>
        <time>2015-08-08T15:46:01Z</time>
      </trkpt>
      <trkpt lat="45.46308" lon="0.52865">
        <ele>160.60403729929</ele>
        <time>2015-08-08T15:46:06Z</time>
      </trkpt>
      <trkpt lat="45.46313" lon="0.52859">
        <ele>160.60403729929</ele>
        <time>2015-08-08T15:46:11Z</time>
      </trkpt>
      <trkpt lat="45.46318" lon="0.52852">
        <ele>160.55051358855</ele>
        <time>2015-08-08T15:46:16Z</time>
      </trkpt>
      <trkpt lat="45.46322" lon="0.52843">
        <ele>160.55051358855</ele>
        <time>2015-08-08T15:46:21Z</time>
      </trkpt>
      <trkpt lat="45.46325" lon="0.52836">
        <ele>160.71369862278</ele>
        <time>2015-08-08T15:46:26Z</time>
      </trkpt>
      <trkpt lat="45.46328" lon="0.52826">
        <ele>160.71369862278</ele>
        <time>2015-08-08T15:46:31Z</time>
      </trkpt>
      <trkpt lat="45.46332" lon="0.52816">
        <ele>161.10334845509</ele>
        <time>2015-08-08T15:46:36Z</time>
      </trkpt>
      <trkpt lat="45.46336" lon="0.52806">
        <ele>161.10334845509</ele>
        <time>2015-08-08T15:46:41Z</time>
      </trkpt>
      <trkpt lat="45.46338" lon="0.52798">
        <ele>161.79997507689</ele>
        <time>2015-08-08T15:46:46Z</time>
      </trkpt>
      <trkpt lat="45.46341" lon="0.52788">
        <ele>161.79997507689</ele>
        <time>2015-08-08T15:46:51Z</time>
      </trkpt>
      <trkpt lat="45.46343" lon="0.52778">
        <ele>162.41621860158</ele>
        <time>2015-08-08T15:46:56Z</time>
      </trkpt>
      <trkpt lat="45.46346" lon="0.5277">
        <ele>162.41621860158</ele>
        <time>2015-08-08T15:47:01Z</time>
      </trkpt>
      <trkpt lat="45.4635" lon="0.52761">
        <ele>162.96815577196</ele>
        <time>2015-08-08T15:47:06Z</time>
      </trkpt>
      <trkpt lat="45.46353" lon="0.52752">
        <ele>162.96815577196</ele>
        <time>2015-08-08T15:47:11Z</time>
      </trkpt>
      <trkpt lat="45.46356" lon="0.52745">
        <ele>163.4277034832</ele>
        <time>2015-08-08T15:47:16Z</time>
      </trkpt>
      <trkpt lat="45.46359" lon="0.52737">
        <ele>163.4277034832</ele>
        <time>2015-08-08T15:47:21Z</time>
      </trkpt>
      <trkpt lat="45.46363" lon="0.52728">
        <ele>163.87005910638</ele>
        <time>2015-08-08T15:47:26Z</time>
      </trkpt>
      <trkpt lat="45.46367" lon="0.5272">
        <ele>163.87005910638</ele>
        <time>2015-08-08T15:47:31Z</time>
      </trkpt>
      <trkpt lat="45.4637" lon="0.52713">
        <ele>164.22091870794</ele>
        <time>2015-08-08T15:47:36Z</time>
      </trkpt>
      <trkpt lat="45.46372" lon="0.52705">
        <ele>164.22091870794</ele>
        <time>2015-08-08T15:47:41Z</time>
      </trkpt>
      <trkpt lat="45.46376" lon="0.52697">
        <ele>164.52707179476</ele>
        <time>2015-08-08T15:47:46Z</time>
      </trkpt>
      <trkpt lat="45.46379" lon="0.52688">
        <ele>164.52707179476</ele>
        <time>2015-08-08T15:47:51Z</time>
      </trkpt>
      <trkpt lat="45.46383" lon="0.5268">
        <ele>164.81767747088</ele>
        <time>2015-08-08T15:47:56Z</time>
      </trkpt>
      <trkpt lat="45.46386" lon="0.52671">
        <ele>164.81767747088</ele>
        <time>2015-08-08T15:48:01Z</time>
      </trkpt>
      <trkpt lat="45.46389" lon="0.52663">
        <ele>165.17753555747</ele>
        <time>2015-08-08T15:48:06Z</time>
      </trkpt>
      <trkpt lat="45.46393" lon="0.52656">
        <ele>165.17753555747</ele>
        <time>2015-08-08T15:48:11Z</time>
      </trkpt>
      <trkpt lat="45.46397" lon="0.52648">
        <ele>165.52659621088</ele>
        <time>2015-08-08T15:48:16Z</time>
      </trkpt>
      <trkpt lat="45.46401" lon="0.52639">
        <ele>165.52659621088</ele>
        <time>2015-08-08T15:48:21Z</time>
      </trkpt>
      <trkpt lat="45.46402" lon="0.52635">
        <ele>165.83405102089</ele>
        <time>2015-08-08T15:48:26Z</time>
      </trkpt>
      <trkpt lat="45.46402" lon="0.52636">
        <ele>165.83405102089</ele>
        <time>2015-08-08T15:48:31Z</time>
      </trkpt>
      <trkpt lat="45.46403" lon="0.52629">
        <ele>165.83405102089</ele>
        <time>2015-08-08T15:48:36Z</time>
      </trkpt>
      <trkpt lat="45.46407" lon="0.5262">
        <ele>166.07156951833</ele>
        <time>2015-08-08T15:48:41Z</time>
      </trkpt>
      <trkpt lat="45.4641" lon="0.52612">
        <ele>166.07156951833</ele>
        <time>2015-08-08T15:48:46Z</time>
      </trkpt>
      <trkpt lat="45.46414" lon="0.52605">
        <ele>166.28525238651</ele>
        <time>2015-08-08T15:48:51Z</time>
      </trkpt>
      <trkpt lat="45.46418" lon="0.52597">
        <ele>166.28525238651</ele>
        <time>2015-08-08T15:48:56Z</time>
      </trkpt>
      <trkpt lat="45.46422" lon="0.52591">
        <ele>166.44592280424</ele>
        <time>2015-08-08T15:49:01Z</time>
      </trkpt>
      <trkpt lat="45.46427" lon="0.52585">
        <ele>166.44592280424</ele>
        <time>2015-08-08T15:49:06Z</time>
      </trkpt>
      <trkpt lat="45.46432" lon="0.52577">
        <ele>166.61325936159</ele>
        <time>2015-08-08T15:49:11Z</time>
      </trkpt>
      <trkpt lat="45.46436" lon="0.52571">
        <ele>166.61325936159</ele>
        <time>2015-08-08T15:49:16Z</time>
      </trkpt>
      <trkpt lat="45.46441" lon="0.52563">
        <ele>166.64087728879</ele>
        <time>2015-08-08T15:49:21Z</time>
      </trkpt>
      <trkpt lat="45.46446" lon="0.52554">
        <ele>166.64087728879</ele>
        <time>2015-08-08T15:49:26Z</time>
      </trkpt>
      <trkpt lat="45.46451" lon="0.52548">
        <ele>166.72508559567</ele>
        <time>2015-08-08T15:49:31Z</time>
      </trkpt>
      <trkpt lat="45.46456" lon="0.52542">
        <ele>166.72508559567</ele>
        <time>2015-08-08T15:49:36Z</time>
      </trkpt>
      <trkpt lat="45.46461" lon="0.52536">
        <ele>166.78830395243</ele>
        <time>2015-08-08T15:49:41Z</time>
      </trkpt>
      <trkpt lat="45.46467" lon="0.52532">
        <ele>166.78830395243</ele>
        <time>2015-08-08T15:49:46Z</time>
      </trkpt>
      <trkpt lat="45.46472" lon="0.52528">
        <ele>166.80203063063</ele>
        <time>2015-08-08T15:49:51Z</time>
      </trkpt>
      <trkpt lat="45.46478" lon="0.52524">
        <ele>166.80203063063</ele>
        <time>2015-08-08T15:49:56Z</time>
      </trkpt>
      <trkpt lat="45.46483" lon="0.52521">
        <ele>166.53832458382</ele>
        <time>2015-08-08T15:50:01Z</time>
      </trkpt>
      <trkpt lat="45.46489" lon="0.52519">
        <ele>166.53832458382</ele>
        <time>2015-08-08T15:50:06Z</time>
      </trkpt>
      <trkpt lat="45.46495" lon="0.52515">
        <ele>166.21918059637</ele>
        <time>2015-08-08T15:50:11Z</time>
      </trkpt>
      <trkpt lat="45.46508" lon="0.52505">
        <ele>165.90640502629</ele>
        <time>2015-08-08T15:50:22Z</time>
      </trkpt>
      <trkpt lat="45.46511" lon="0.52498">
        <ele>165.90640502629</ele>
        <time>2015-08-08T15:50:27Z</time>
      </trkpt>
      <trkpt lat="45.46563" lon="0.52497">
        <ele>165.38350395836</ele>
        <time>2015-08-08T15:50:42Z</time>
      </trkpt>
      <trkpt lat="45.46622" lon="0.52502">
        <ele>164.73876135985</ele>
        <time>2015-08-08T15:50:56Z</time>
      </trkpt>
      <trkpt lat="45.46645" lon="0.52494">
        <ele>164.06878450402</ele>
        <time>2015-08-08T15:51:02Z</time>
      </trkpt>
      <trkpt lat="45.46679" lon="0.52483">
        <ele>163.4055587304</ele>
        <time>2015-08-08T15:51:11Z</time>
      </trkpt>
      <trkpt lat="45.467" lon="0.52475">
        <ele>162.73550852391</ele>
        <time>2015-08-08T15:51:17Z</time>
      </trkpt>
      <trkpt lat="45.46719" lon="0.5247">
        <ele>161.78670806763</ele>
        <time>2015-08-08T15:51:26Z</time>
      </trkpt>
      <trkpt lat="45.46726" lon="0.5247">
        <ele>161.78670806763</ele>
        <time>2015-08-08T15:51:31Z</time>
      </trkpt>
      <trkpt lat="45.46733" lon="0.52467">
        <ele>161.05739330286</ele>
        <time>2015-08-08T15:51:36Z</time>
      </trkpt>
      <trkpt lat="45.46737" lon="0.52463">
        <ele>161.05739330286</ele>
        <time>2015-08-08T15:51:41Z</time>
      </trkpt>
      <trkpt lat="45.46743" lon="0.52459">
        <ele>160.2015807693</ele>
        <time>2015-08-08T15:51:46Z</time>
      </trkpt>
      <trkpt lat="45.46751" lon="0.52455">
        <ele>160.2015807693</ele>
        <time>2015-08-08T15:51:51Z</time>
      </trkpt>
      <trkpt lat="45.46754" lon="0.52455">
        <ele>159.12964705308</ele>
        <time>2015-08-08T15:51:56Z</time>
      </trkpt>
      <trkpt lat="45.4676" lon="0.52457">
        <ele>159.12964705308</ele>
        <time>2015-08-08T15:52:01Z</time>
      </trkpt>
      <trkpt lat="45.46767" lon="0.52458">
        <ele>157.86004039531</ele>
        <time>2015-08-08T15:52:06Z</time>
      </trkpt>
      <trkpt lat="45.4677" lon="0.52459">
        <ele>157.86004039531</ele>
        <time>2015-08-08T15:52:11Z</time>
      </trkpt>
      <trkpt lat="45.46772" lon="0.52456">
        <ele>157.86004039531</ele>
        <time>2015-08-08T15:52:16Z</time>
      </trkpt>
      <trkpt lat="45.46779" lon="0.52456">
        <ele>156.78509382234</ele>
        <time>2015-08-08T15:52:21Z</time>
      </trkpt>
      <trkpt lat="45.46785" lon="0.52453">
        <ele>156.78509382234</ele>
        <time>2015-08-08T15:52:26Z</time>
      </trkpt>
      <trkpt lat="45.46793" lon="0.52451">
        <ele>155.87866266776</ele>
        <time>2015-08-08T15:52:31Z</time>
      </trkpt>
      <trkpt lat="45.46797" lon="0.52448">
        <ele>155.87866266776</ele>
        <time>2015-08-08T15:52:36Z</time>
      </trkpt>
      <trkpt lat="45.468" lon="0.52445">
        <ele>155.87866266776</ele>
        <time>2015-08-08T15:52:41Z</time>
      </trkpt>
      <trkpt lat="45.46807" lon="0.52443">
        <ele>154.65487610792</ele>
        <time>2015-08-08T15:52:46Z</time>
      </trkpt>
      <trkpt lat="45.46816" lon="0.52441">
        <ele>154.65487610792</ele>
        <time>2015-08-08T15:52:51Z</time>
      </trkpt>
      <trkpt lat="45.46822" lon="0.52438">
        <ele>153.80289928698</ele>
        <time>2015-08-08T15:52:56Z</time>
      </trkpt>
      <trkpt lat="45.46827" lon="0.52438">
        <ele>153.80289928698</ele>
        <time>2015-08-08T15:53:01Z</time>
      </trkpt>
      <trkpt lat="45.46832" lon="0.52438">
        <ele>153.25405508324</ele>
        <time>2015-08-08T15:53:06Z</time>
      </trkpt>
      <trkpt lat="45.46835" lon="0.52436">
        <ele>153.25405508324</ele>
        <time>2015-08-08T15:53:11Z</time>
      </trkpt>
      <trkpt lat="45.46843" lon="0.52435">
        <ele>152.61237294951</ele>
        <time>2015-08-08T15:53:16Z</time>
      </trkpt>
      <trkpt lat="45.46849" lon="0.52436">
        <ele>152.61237294951</ele>
        <time>2015-08-08T15:53:21Z</time>
      </trkpt>
      <trkpt lat="45.46859" lon="0.52433">
        <ele>152.17410758695</ele>
        <time>2015-08-08T15:53:26Z</time>
      </trkpt>
      <trkpt lat="45.46862" lon="0.5243">
        <ele>152.17410758695</ele>
        <time>2015-08-08T15:53:31Z</time>
      </trkpt>
      <trkpt lat="45.46865" lon="0.5243">
        <ele>152.17410758695</ele>
        <time>2015-08-08T15:53:36Z</time>
      </trkpt>
      <trkpt lat="45.4687" lon="0.52427">
        <ele>151.80963437308</ele>
        <time>2015-08-08T15:53:41Z</time>
      </trkpt>
      <trkpt lat="45.46882" lon="0.52423">
        <ele>151.38419836688</ele>
        <time>2015-08-08T15:53:46Z</time>
      </trkpt>
      <trkpt lat="45.46888" lon="0.5242">
        <ele>151.38419836688</ele>
        <time>2015-08-08T15:53:51Z</time>
      </trkpt>
      <trkpt lat="45.46892" lon="0.52417">
        <ele>150.39839111591</ele>
        <time>2015-08-08T15:53:56Z</time>
      </trkpt>
      <trkpt lat="45.46897" lon="0.52413">
        <ele>150.39839111591</ele>
        <time>2015-08-08T15:54:01Z</time>
      </trkpt>
      <trkpt lat="45.46904" lon="0.52408">
        <ele>149.99066235299</ele>
        <time>2015-08-08T15:54:06Z</time>
      </trkpt>
      <trkpt lat="45.4691" lon="0.52402">
        <ele>149.99066235299</ele>
        <time>2015-08-08T15:54:11Z</time>
      </trkpt>
      <trkpt lat="45.46917" lon="0.52397">
        <ele>149.54248682082</ele>
        <time>2015-08-08T15:54:16Z</time>
      </trkpt>
      <trkpt lat="45.46925" lon="0.5239">
        <ele>149.50404541593</ele>
        <time>2015-08-08T15:54:21Z</time>
      </trkpt>
      <trkpt lat="45.46931" lon="0.52389">
        <ele>149.50404541593</ele>
        <time>2015-08-08T15:54:26Z</time>
      </trkpt>
      <trkpt lat="45.46935" lon="0.52387">
        <ele>149.29690087683</ele>
        <time>2015-08-08T15:54:31Z</time>
      </trkpt>
      <trkpt lat="45.46941" lon="0.52387">
        <ele>149.29690087683</ele>
        <time>2015-08-08T15:54:36Z</time>
      </trkpt>
      <trkpt lat="45.46946" lon="0.52387">
        <ele>149.32227493474</ele>
        <time>2015-08-08T15:54:41Z</time>
      </trkpt>
      <trkpt lat="45.46952" lon="0.52384">
        <ele>149.32227493474</ele>
        <time>2015-08-08T15:54:46Z</time>
      </trkpt>
      <trkpt lat="45.46959" lon="0.52381">
        <ele>148.88481529554</ele>
        <time>2015-08-08T15:54:51Z</time>
      </trkpt>
      <trkpt lat="45.46964" lon="0.52377">
        <ele>148.88481529554</ele>
        <time>2015-08-08T15:54:56Z</time>
      </trkpt>
      <trkpt lat="45.46972" lon="0.52374">
        <ele>148.55205945257</ele>
        <time>2015-08-08T15:55:01Z</time>
      </trkpt>
      <trkpt lat="45.46975" lon="0.52374">
        <ele>148.55205945257</ele>
        <time>2015-08-08T15:55:06Z</time>
      </trkpt>
      <trkpt lat="45.46976" lon="0.52374">
        <ele>148.55205945257</ele>
        <time>2015-08-08T15:55:11Z</time>
      </trkpt>
      <trkpt lat="45.46978" lon="0.52373">
        <ele>148.55205945257</ele>
        <time>2015-08-08T15:55:16Z</time>
      </trkpt>
      <trkpt lat="45.46981" lon="0.52367">
        <ele>148.37397334608</ele>
        <time>2015-08-08T15:55:21Z</time>
      </trkpt>
      <trkpt lat="45.46988" lon="0.52364">
        <ele>148.37397334608</ele>
        <time>2015-08-08T15:55:26Z</time>
      </trkpt>
      <trkpt lat="45.46991" lon="0.5236">
        <ele>147.5605549158</ele>
        <time>2015-08-08T15:55:31Z</time>
      </trkpt>
      <trkpt lat="45.46998" lon="0.5236">
        <ele>147.5605549158</ele>
        <time>2015-08-08T15:55:36Z</time>
      </trkpt>
      <trkpt lat="45.47003" lon="0.52356">
        <ele>147.01005540215</ele>
        <time>2015-08-08T15:55:41Z</time>
      </trkpt>
      <trkpt lat="45.47008" lon="0.52354">
        <ele>147.01005540215</ele>
        <time>2015-08-08T15:55:46Z</time>
      </trkpt>
      <trkpt lat="45.47012" lon="0.52351">
        <ele>146.35786246557</ele>
        <time>2015-08-08T15:55:51Z</time>
      </trkpt>
      <trkpt lat="45.47019" lon="0.52348">
        <ele>146.35786246557</ele>
        <time>2015-08-08T15:55:56Z</time>
      </trkpt>
      <trkpt lat="45.47026" lon="0.52345">
        <ele>146.00138173931</ele>
        <time>2015-08-08T15:56:01Z</time>
      </trkpt>
      <trkpt lat="45.47032" lon="0.52342">
        <ele>146.00138173931</ele>
        <time>2015-08-08T15:56:06Z</time>
      </trkpt>
      <trkpt lat="45.47039" lon="0.52341">
        <ele>145.76035519111</ele>
        <time>2015-08-08T15:56:11Z</time>
      </trkpt>
      <trkpt lat="45.47046" lon="0.52341">
        <ele>145.76035519111</ele>
        <time>2015-08-08T15:56:16Z</time>
      </trkpt>
      <trkpt lat="45.47051" lon="0.5234">
        <ele>144.84774583402</ele>
        <time>2015-08-08T15:56:21Z</time>
      </trkpt>
      <trkpt lat="45.47058" lon="0.5234">
        <ele>144.84774583402</ele>
        <time>2015-08-08T15:56:26Z</time>
      </trkpt>
      <trkpt lat="45.47065" lon="0.52338">
        <ele>144.15024232229</ele>
        <time>2015-08-08T15:56:31Z</time>
      </trkpt>
      <trkpt lat="45.47071" lon="0.52338">
        <ele>144.15024232229</ele>
        <time>2015-08-08T15:56:36Z</time>
      </trkpt>
      <trkpt lat="45.47077" lon="0.52335">
        <ele>143.50881933942</ele>
        <time>2015-08-08T15:56:41Z</time>
      </trkpt>
      <trkpt lat="45.47085" lon="0.52329">
        <ele>143.50881933942</ele>
        <time>2015-08-08T15:56:46Z</time>
      </trkpt>
      <trkpt lat="45.47092" lon="0.52328">
        <ele>143.42445752033</ele>
        <time>2015-08-08T15:56:51Z</time>
      </trkpt>
      <trkpt lat="45.47098" lon="0.52327">
        <ele>143.42445752033</ele>
        <time>2015-08-08T15:56:56Z</time>
      </trkpt>
      <trkpt lat="45.47101" lon="0.52328">
        <ele>142.28455204475</ele>
        <time>2015-08-08T15:57:01Z</time>
      </trkpt>
      <trkpt lat="45.47107" lon="0.52328">
        <ele>142.28455204475</ele>
        <time>2015-08-08T15:57:06Z</time>
      </trkpt>
      <trkpt lat="45.47112" lon="0.52328">
        <ele>141.06219979929</ele>
        <time>2015-08-08T15:57:11Z</time>
      </trkpt>
      <trkpt lat="45.47115" lon="0.52326">
        <ele>141.06219979929</ele>
        <time>2015-08-08T15:57:16Z</time>
      </trkpt>
      <trkpt lat="45.47122" lon="0.52326">
        <ele>140.5727569507</ele>
        <time>2015-08-08T15:57:21Z</time>
      </trkpt>
      <trkpt lat="45.4713" lon="0.52319">
        <ele>140.11408191168</ele>
        <time>2015-08-08T15:57:26Z</time>
      </trkpt>
      <trkpt lat="45.47137" lon="0.52315">
        <ele>140.11408191168</ele>
        <time>2015-08-08T15:57:31Z</time>
      </trkpt>
      <trkpt lat="45.47139" lon="0.52311">
        <ele>138.43023223333</ele>
        <time>2015-08-08T15:57:36Z</time>
      </trkpt>
      <trkpt lat="45.47147" lon="0.52305">
        <ele>138.43023223333</ele>
        <time>2015-08-08T15:57:41Z</time>
      </trkpt>
      <trkpt lat="45.47149" lon="0.523">
        <ele>137.47373603632</ele>
        <time>2015-08-08T15:57:46Z</time>
      </trkpt>
      <trkpt lat="45.47155" lon="0.52294">
        <ele>137.47373603632</ele>
        <time>2015-08-08T15:57:51Z</time>
      </trkpt>
      <trkpt lat="45.47159" lon="0.52287">
        <ele>136.18380614033</ele>
        <time>2015-08-08T15:57:56Z</time>
      </trkpt>
      <trkpt lat="45.47166" lon="0.52281">
        <ele>136.18380614033</ele>
        <time>2015-08-08T15:58:01Z</time>
      </trkpt>
      <trkpt lat="45.47173" lon="0.52277">
        <ele>135.509571437</ele>
        <time>2015-08-08T15:58:06Z</time>
      </trkpt>
      <trkpt lat="45.47179" lon="0.52273">
        <ele>135.509571437</ele>
        <time>2015-08-08T15:58:11Z</time>
      </trkpt>
      <trkpt lat="45.47183" lon="0.5227">
        <ele>135.13255282123</ele>
        <time>2015-08-08T15:58:16Z</time>
      </trkpt>
      <trkpt lat="45.47191" lon="0.52268">
        <ele>135.13255282123</ele>
        <time>2015-08-08T15:58:21Z</time>
      </trkpt>
      <trkpt lat="45.472" lon="0.52265">
        <ele>135.57823244579</ele>
        <time>2015-08-08T15:58:26Z</time>
      </trkpt>
      <trkpt lat="45.47204" lon="0.52262">
        <ele>135.57823244579</ele>
        <time>2015-08-08T15:58:31Z</time>
      </trkpt>
      <trkpt lat="45.47211" lon="0.52256">
        <ele>135.14066199079</ele>
        <time>2015-08-08T15:58:36Z</time>
      </trkpt>
      <trkpt lat="45.47216" lon="0.52255">
        <ele>135.14066199079</ele>
        <time>2015-08-08T15:58:41Z</time>
      </trkpt>
      <trkpt lat="45.47219" lon="0.52248">
        <ele>134.87889681281</ele>
        <time>2015-08-08T15:58:46Z</time>
      </trkpt>
      <trkpt lat="45.47223" lon="0.52247">
        <ele>134.87889681281</ele>
        <time>2015-08-08T15:58:51Z</time>
      </trkpt>
      <trkpt lat="45.47226" lon="0.52247">
        <ele>134.87889681281</ele>
        <time>2015-08-08T15:58:56Z</time>
      </trkpt>
      <trkpt lat="45.47229" lon="0.52245">
        <ele>134.01552280043</ele>
        <time>2015-08-08T15:59:01Z</time>
      </trkpt>
      <trkpt lat="45.47236" lon="0.52242">
        <ele>134.01552280043</ele>
        <time>2015-08-08T15:59:06Z</time>
      </trkpt>
      <trkpt lat="45.47246" lon="0.52242">
        <ele>133.07125796078</ele>
        <time>2015-08-08T15:59:11Z</time>
      </trkpt>
      <trkpt lat="45.47255" lon="0.52239">
        <ele>131.75057479953</ele>
        <time>2015-08-08T15:59:16Z</time>
      </trkpt>
      <trkpt lat="45.47261" lon="0.52237">
        <ele>131.75057479953</ele>
        <time>2015-08-08T15:59:21Z</time>
      </trkpt>
      <trkpt lat="45.47267" lon="0.52234">
        <ele>130.18419938489</ele>
        <time>2015-08-08T15:59:26Z</time>
      </trkpt>
      <trkpt lat="45.47271" lon="0.52231">
        <ele>130.18419938489</ele>
        <time>2015-08-08T15:59:31Z</time>
      </trkpt>
      <trkpt lat="45.47275" lon="0.52229">
        <ele>130.18419938489</ele>
        <time>2015-08-08T15:59:36Z</time>
      </trkpt>
      <trkpt lat="45.47278" lon="0.52221">
        <ele>127.67248144365</ele>
        <time>2015-08-08T15:59:41Z</time>
      </trkpt>
      <trkpt lat="45.47283" lon="0.52218">
        <ele>127.67248144365</ele>
        <time>2015-08-08T15:59:46Z</time>
      </trkpt>
      <trkpt lat="45.47287" lon="0.52217">
        <ele>126.36554039696</ele>
        <time>2015-08-08T15:59:51Z</time>
      </trkpt>
      <trkpt lat="45.47293" lon="0.52216">
        <ele>126.36554039696</ele>
        <time>2015-08-08T15:59:56Z</time>
      </trkpt>
      <trkpt lat="45.47294" lon="0.52215">
        <ele>126.36554039696</ele>
        <time>2015-08-08T16:00:01Z</time>
      </trkpt>
      <trkpt lat="45.473" lon="0.52215">
        <ele>124.62052574701</ele>
        <time>2015-08-08T16:00:06Z</time>
      </trkpt>
      <trkpt lat="45.4731" lon="0.52217">
        <ele>122.91959469354</ele>
        <time>2015-08-08T16:00:11Z</time>
      </trkpt>
      <trkpt lat="45.47323" lon="0.52219">
        <ele>122.35780868423</ele>
        <time>2015-08-08T16:00:16Z</time>
      </trkpt>
      <trkpt lat="45.47329" lon="0.52223">
        <ele>122.35780868423</ele>
        <time>2015-08-08T16:00:21Z</time>
      </trkpt>
      <trkpt lat="45.47335" lon="0.52228">
        <ele>123.26921646758</ele>
        <time>2015-08-08T16:00:26Z</time>
      </trkpt>
      <trkpt lat="45.4734" lon="0.52234">
        <ele>123.26921646758</ele>
        <time>2015-08-08T16:00:31Z</time>
      </trkpt>
      <trkpt lat="45.47345" lon="0.52239">
        <ele>123.50925722657</ele>
        <time>2015-08-08T16:00:36Z</time>
      </trkpt>
      <trkpt lat="45.47355" lon="0.52255">
        <ele>123.83086438145</ele>
        <time>2015-08-08T16:00:46Z</time>
      </trkpt>
      <trkpt lat="45.47358" lon="0.52263">
        <ele>123.83086438145</ele>
        <time>2015-08-08T16:00:51Z</time>
      </trkpt>
      <trkpt lat="45.47363" lon="0.52267">
        <ele>123.40382450173</ele>
        <time>2015-08-08T16:00:56Z</time>
      </trkpt>
      <trkpt lat="45.47367" lon="0.52272">
        <ele>123.40382450173</ele>
        <time>2015-08-08T16:01:01Z</time>
      </trkpt>
      <trkpt lat="45.47371" lon="0.52279">
        <ele>123.08944710736</ele>
        <time>2015-08-08T16:01:06Z</time>
      </trkpt>
      <trkpt lat="45.47377" lon="0.52285">
        <ele>123.08944710736</ele>
        <time>2015-08-08T16:01:11Z</time>
      </trkpt>
      <trkpt lat="45.4738" lon="0.52287">
        <ele>122.02816070884</ele>
        <time>2015-08-08T16:01:16Z</time>
      </trkpt>
      <trkpt lat="45.47386" lon="0.52288">
        <ele>122.02816070884</ele>
        <time>2015-08-08T16:01:21Z</time>
      </trkpt>
      <trkpt lat="45.47394" lon="0.52292">
        <ele>121.14054331176</ele>
        <time>2015-08-08T16:01:26Z</time>
      </trkpt>
      <trkpt lat="45.47398" lon="0.52292">
        <ele>121.14054331176</ele>
        <time>2015-08-08T16:01:31Z</time>
      </trkpt>
      <trkpt lat="45.47405" lon="0.52291">
        <ele>120.74583851362</ele>
        <time>2015-08-08T16:01:36Z</time>
      </trkpt>
      <trkpt lat="45.47407" lon="0.52291">
        <ele>120.74583851362</ele>
        <time>2015-08-08T16:01:41Z</time>
      </trkpt>
      <trkpt lat="45.47411" lon="0.52292">
        <ele>120.74583851362</ele>
        <time>2015-08-08T16:01:46Z</time>
      </trkpt>
      <trkpt lat="45.47417" lon="0.52291">
        <ele>120.83581343458</ele>
        <time>2015-08-08T16:01:51Z</time>
      </trkpt>
      <trkpt lat="45.47426" lon="0.52294">
        <ele>120.72415149647</ele>
        <time>2015-08-08T16:01:56Z</time>
      </trkpt>
      <trkpt lat="45.47433" lon="0.52293">
        <ele>120.72415149647</ele>
        <time>2015-08-08T16:02:01Z</time>
      </trkpt>
      <trkpt lat="45.47439" lon="0.52296">
        <ele>120.46724946388</ele>
        <time>2015-08-08T16:02:06Z</time>
      </trkpt>
      <trkpt lat="45.47445" lon="0.523">
        <ele>120.46724946388</ele>
        <time>2015-08-08T16:02:11Z</time>
      </trkpt>
      <trkpt lat="45.4745" lon="0.52304">
        <ele>119.90160379951</ele>
        <time>2015-08-08T16:02:16Z</time>
      </trkpt>
      <trkpt lat="45.47455" lon="0.52311">
        <ele>119.90160379951</ele>
        <time>2015-08-08T16:02:21Z</time>
      </trkpt>
      <trkpt lat="45.47459" lon="0.52318">
        <ele>119.04952615524</ele>
        <time>2015-08-08T16:02:26Z</time>
      </trkpt>
      <trkpt lat="45.47464" lon="0.52325">
        <ele>119.04952615524</ele>
        <time>2015-08-08T16:02:31Z</time>
      </trkpt>
      <trkpt lat="45.47471" lon="0.52331">
        <ele>117.55780846092</ele>
        <time>2015-08-08T16:02:36Z</time>
      </trkpt>
      <trkpt lat="45.47476" lon="0.52338">
        <ele>117.55780846092</ele>
        <time>2015-08-08T16:02:41Z</time>
      </trkpt>
      <trkpt lat="45.47482" lon="0.52345">
        <ele>116.58533189926</ele>
        <time>2015-08-08T16:02:46Z</time>
      </trkpt>
      <trkpt lat="45.47485" lon="0.52353">
        <ele>116.58533189926</ele>
        <time>2015-08-08T16:02:51Z</time>
      </trkpt>
      <trkpt lat="45.47489" lon="0.52359">
        <ele>116.05150223176</ele>
        <time>2015-08-08T16:02:56Z</time>
      </trkpt>
      <trkpt lat="45.47493" lon="0.52368">
        <ele>116.05150223176</ele>
        <time>2015-08-08T16:03:01Z</time>
      </trkpt>
      <trkpt lat="45.47494" lon="0.52374">
        <ele>115.82277043693</ele>
        <time>2015-08-08T16:03:06Z</time>
      </trkpt>
      <trkpt lat="45.47497" lon="0.52383">
        <ele>115.82277043693</ele>
        <time>2015-08-08T16:03:11Z</time>
      </trkpt>
      <trkpt lat="45.475" lon="0.52394">
        <ele>116.10599855732</ele>
        <time>2015-08-08T16:03:16Z</time>
      </trkpt>
      <trkpt lat="45.47501" lon="0.52402">
        <ele>116.10599855732</ele>
        <time>2015-08-08T16:03:21Z</time>
      </trkpt>
      <trkpt lat="45.47502" lon="0.52416">
        <ele>115.95294217614</ele>
        <time>2015-08-08T16:03:26Z</time>
      </trkpt>
      <trkpt lat="45.47501" lon="0.52422">
        <ele>115.95294217614</ele>
        <time>2015-08-08T16:03:31Z</time>
      </trkpt>
      <trkpt lat="45.47499" lon="0.52435">
        <ele>115.52384660428</ele>
        <time>2015-08-08T16:03:36Z</time>
      </trkpt>
      <trkpt lat="45.47497" lon="0.52444">
        <ele>115.52384660428</ele>
        <time>2015-08-08T16:03:41Z</time>
      </trkpt>
      <trkpt lat="45.47496" lon="0.52453">
        <ele>116.04880721197</ele>
        <time>2015-08-08T16:03:46Z</time>
      </trkpt>
      <trkpt lat="45.47493" lon="0.52461">
        <ele>116.04880721197</ele>
        <time>2015-08-08T16:03:51Z</time>
      </trkpt>
      <trkpt lat="45.47491" lon="0.5247">
        <ele>116.97879999607</ele>
        <time>2015-08-08T16:03:56Z</time>
      </trkpt>
      <trkpt lat="45.47488" lon="0.52478">
        <ele>116.97879999607</ele>
        <time>2015-08-08T16:04:01Z</time>
      </trkpt>
      <trkpt lat="45.47485" lon="0.52488">
        <ele>117.93372268314</ele>
        <time>2015-08-08T16:04:06Z</time>
      </trkpt>
      <trkpt lat="45.47484" lon="0.52495">
        <ele>117.93372268314</ele>
        <time>2015-08-08T16:04:11Z</time>
      </trkpt>
      <trkpt lat="45.47483" lon="0.52504">
        <ele>119.25309525343</ele>
        <time>2015-08-08T16:04:16Z</time>
      </trkpt>
      <trkpt lat="45.47482" lon="0.52511">
        <ele>119.25309525343</ele>
        <time>2015-08-08T16:04:21Z</time>
      </trkpt>
      <trkpt lat="45.47481" lon="0.52523">
        <ele>121.01994514211</ele>
        <time>2015-08-08T16:04:26Z</time>
      </trkpt>
      <trkpt lat="45.47484" lon="0.52533">
        <ele>121.01994514211</ele>
        <time>2015-08-08T16:04:31Z</time>
      </trkpt>
      <trkpt lat="45.47484" lon="0.52538">
        <ele>122.89208480564</ele>
        <time>2015-08-08T16:04:36Z</time>
      </trkpt>
      <trkpt lat="45.47484" lon="0.52546">
        <ele>122.89208480564</ele>
        <time>2015-08-08T16:04:41Z</time>
      </trkpt>
      <trkpt lat="45.47484" lon="0.52555">
        <ele>124.03344244961</ele>
        <time>2015-08-08T16:04:46Z</time>
      </trkpt>
      <trkpt lat="45.47485" lon="0.52564">
        <ele>124.03344244961</ele>
        <time>2015-08-08T16:04:51Z</time>
      </trkpt>
      <trkpt lat="45.47485" lon="0.52572">
        <ele>124.96850024779</ele>
        <time>2015-08-08T16:04:56Z</time>
      </trkpt>
      <trkpt lat="45.47486" lon="0.52581">
        <ele>124.96850024779</ele>
        <time>2015-08-08T16:05:01Z</time>
      </trkpt>
      <trkpt lat="45.47485" lon="0.5259">
        <ele>125.66508594278</ele>
        <time>2015-08-08T16:05:06Z</time>
      </trkpt>
      <trkpt lat="45.47485" lon="0.52599">
        <ele>125.66508594278</ele>
        <time>2015-08-08T16:05:11Z</time>
      </trkpt>
      <trkpt lat="45.47484" lon="0.52608">
        <ele>126.58413923738</ele>
        <time>2015-08-08T16:05:16Z</time>
      </trkpt>
      <trkpt lat="45.47484" lon="0.52618">
        <ele>126.58413923738</ele>
        <time>2015-08-08T16:05:21Z</time>
      </trkpt>
      <trkpt lat="45.47483" lon="0.52627">
        <ele>127.82076598017</ele>
        <time>2015-08-08T16:05:26Z</time>
      </trkpt>
      <trkpt lat="45.47483" lon="0.52634">
        <ele>127.82076598017</ele>
        <time>2015-08-08T16:05:31Z</time>
      </trkpt>
      <trkpt lat="45.47485" lon="0.52642">
        <ele>129.3470166342</ele>
        <time>2015-08-08T16:05:36Z</time>
      </trkpt>
      <trkpt lat="45.47488" lon="0.5265">
        <ele>129.3470166342</ele>
        <time>2015-08-08T16:05:41Z</time>
      </trkpt>
      <trkpt lat="45.47491" lon="0.52658">
        <ele>130.87689815545</ele>
        <time>2015-08-08T16:05:46Z</time>
      </trkpt>
      <trkpt lat="45.47493" lon="0.5267">
        <ele>130.87689815545</ele>
        <time>2015-08-08T16:05:51Z</time>
      </trkpt>
      <trkpt lat="45.47496" lon="0.52678">
        <ele>132.13112637708</ele>
        <time>2015-08-08T16:05:56Z</time>
      </trkpt>
      <trkpt lat="45.475" lon="0.52686">
        <ele>132.13112637708</ele>
        <time>2015-08-08T16:06:01Z</time>
      </trkpt>
      <trkpt lat="45.47505" lon="0.52694">
        <ele>133.02476579411</ele>
        <time>2015-08-08T16:06:06Z</time>
      </trkpt>
      <trkpt lat="45.4751" lon="0.52703">
        <ele>133.02476579411</ele>
        <time>2015-08-08T16:06:11Z</time>
      </trkpt>
      <trkpt lat="45.47514" lon="0.52713">
        <ele>133.97023899061</ele>
        <time>2015-08-08T16:06:16Z</time>
      </trkpt>
      <trkpt lat="45.47517" lon="0.5272">
        <ele>133.97023899061</ele>
        <time>2015-08-08T16:06:21Z</time>
      </trkpt>
      <trkpt lat="45.4752" lon="0.52729">
        <ele>135.32083601302</ele>
        <time>2015-08-08T16:06:26Z</time>
      </trkpt>
      <trkpt lat="45.47523" lon="0.52737">
        <ele>135.32083601302</ele>
        <time>2015-08-08T16:06:31Z</time>
      </trkpt>
      <trkpt lat="45.47524" lon="0.52745">
        <ele>136.33646731373</ele>
        <time>2015-08-08T16:06:36Z</time>
      </trkpt>
      <trkpt lat="45.47525" lon="0.52751">
        <ele>136.33646731373</ele>
        <time>2015-08-08T16:06:41Z</time>
      </trkpt>
      <trkpt lat="45.47527" lon="0.52759">
        <ele>137.18273730025</ele>
        <time>2015-08-08T16:06:46Z</time>
      </trkpt>
      <trkpt lat="45.47528" lon="0.52768">
        <ele>137.18273730025</ele>
        <time>2015-08-08T16:06:51Z</time>
      </trkpt>
      <trkpt lat="45.4753" lon="0.52777">
        <ele>137.91281353695</ele>
        <time>2015-08-08T16:06:56Z</time>
      </trkpt>
      <trkpt lat="45.4753" lon="0.52783">
        <ele>137.91281353695</ele>
        <time>2015-08-08T16:07:01Z</time>
      </trkpt>
      <trkpt lat="45.47531" lon="0.52793">
        <ele>137.89908943641</ele>
        <time>2015-08-08T16:07:06Z</time>
      </trkpt>
      <trkpt lat="45.47532" lon="0.52802">
        <ele>137.89908943641</ele>
        <time>2015-08-08T16:07:11Z</time>
      </trkpt>
      <trkpt lat="45.47533" lon="0.52812">
        <ele>138.30601725706</ele>
        <time>2015-08-08T16:07:16Z</time>
      </trkpt>
      <trkpt lat="45.47533" lon="0.52822">
        <ele>138.30601725706</ele>
        <time>2015-08-08T16:07:21Z</time>
      </trkpt>
      <trkpt lat="45.47532" lon="0.5283">
        <ele>138.2371230091</ele>
        <time>2015-08-08T16:07:26Z</time>
      </trkpt>
      <trkpt lat="45.47534" lon="0.52839">
        <ele>138.2371230091</ele>
        <time>2015-08-08T16:07:31Z</time>
      </trkpt>
      <trkpt lat="45.47535" lon="0.52847">
        <ele>138.05935320633</ele>
        <time>2015-08-08T16:07:36Z</time>
      </trkpt>
      <trkpt lat="45.47535" lon="0.52855">
        <ele>138.05935320633</ele>
        <time>2015-08-08T16:07:41Z</time>
      </trkpt>
      <trkpt lat="45.47535" lon="0.52862">
        <ele>137.81046987527</ele>
        <time>2015-08-08T16:07:46Z</time>
      </trkpt>
      <trkpt lat="45.47537" lon="0.52873">
        <ele>137.81046987527</ele>
        <time>2015-08-08T16:07:51Z</time>
      </trkpt>
      <trkpt lat="45.47538" lon="0.52881">
        <ele>138.53453000425</ele>
        <time>2015-08-08T16:07:56Z</time>
      </trkpt>
      <trkpt lat="45.4754" lon="0.5289">
        <ele>138.53453000425</ele>
        <time>2015-08-08T16:08:01Z</time>
      </trkpt>
      <trkpt lat="45.47542" lon="0.52897">
        <ele>138.60224720799</ele>
        <time>2015-08-08T16:08:06Z</time>
      </trkpt>
      <trkpt lat="45.47539" lon="0.52908">
        <ele>138.60224720799</ele>
        <time>2015-08-08T16:08:11Z</time>
      </trkpt>
      <trkpt lat="45.47539" lon="0.52916">
        <ele>139.40257408368</ele>
        <time>2015-08-08T16:08:16Z</time>
      </trkpt>
      <trkpt lat="45.4754" lon="0.52924">
        <ele>139.40257408368</ele>
        <time>2015-08-08T16:08:21Z</time>
      </trkpt>
      <trkpt lat="45.47543" lon="0.52932">
        <ele>139.9723144292</ele>
        <time>2015-08-08T16:08:26Z</time>
      </trkpt>
      <trkpt lat="45.47545" lon="0.52939">
        <ele>139.9723144292</ele>
        <time>2015-08-08T16:08:31Z</time>
      </trkpt>
      <trkpt lat="45.47548" lon="0.52947">
        <ele>140.60145532031</ele>
        <time>2015-08-08T16:08:36Z</time>
      </trkpt>
      <trkpt lat="45.47549" lon="0.52954">
        <ele>140.60145532031</ele>
        <time>2015-08-08T16:08:41Z</time>
      </trkpt>
      <trkpt lat="45.47551" lon="0.52961">
        <ele>141.57299265711</ele>
        <time>2015-08-08T16:08:46Z</time>
      </trkpt>
      <trkpt lat="45.47553" lon="0.52965">
        <ele>141.57299265711</ele>
        <time>2015-08-08T16:08:51Z</time>
      </trkpt>
      <trkpt lat="45.47557" lon="0.52972">
        <ele>141.9088812907</ele>
        <time>2015-08-08T16:08:56Z</time>
      </trkpt>
      <trkpt lat="45.47561" lon="0.52981">
        <ele>141.9088812907</ele>
        <time>2015-08-08T16:09:01Z</time>
      </trkpt>
      <trkpt lat="45.47563" lon="0.52987">
        <ele>142.13146768637</ele>
        <time>2015-08-08T16:09:06Z</time>
      </trkpt>
      <trkpt lat="45.47565" lon="0.52992">
        <ele>142.13146768637</ele>
        <time>2015-08-08T16:09:11Z</time>
      </trkpt>
      <trkpt lat="45.47565" lon="0.52996">
        <ele>142.13146768637</ele>
        <time>2015-08-08T16:09:16Z</time>
      </trkpt>
      <trkpt lat="45.47562" lon="0.53001">
        <ele>141.96131267502</ele>
        <time>2015-08-08T16:09:21Z</time>
      </trkpt>
      <trkpt lat="45.47558" lon="0.53004">
        <ele>141.96131267502</ele>
        <time>2015-08-08T16:09:26Z</time>
      </trkpt>
      <trkpt lat="45.47553" lon="0.53008">
        <ele>141.84680235632</ele>
        <time>2015-08-08T16:09:31Z</time>
      </trkpt>
      <trkpt lat="45.47552" lon="0.53009">
        <ele>141.84680235632</ele>
        <time>2015-08-08T16:09:36Z</time>
      </trkpt>
      <trkpt lat="45.47551" lon="0.53009">
        <ele>141.84680235632</ele>
        <time>2015-08-08T16:09:41Z</time>
      </trkpt>
      <trkpt lat="45.47546" lon="0.53011">
        <ele>141.84680235632</ele>
        <time>2015-08-08T16:09:46Z</time>
      </trkpt>
      <trkpt lat="45.4754" lon="0.53016">
        <ele>141.68447247213</ele>
        <time>2015-08-08T16:09:51Z</time>
      </trkpt>
      <trkpt lat="45.47534" lon="0.53022">
        <ele>141.68447247213</ele>
        <time>2015-08-08T16:09:56Z</time>
      </trkpt>
      <trkpt lat="45.47529" lon="0.53027">
        <ele>141.26334036585</ele>
        <time>2015-08-08T16:10:01Z</time>
      </trkpt>
      <trkpt lat="45.47528" lon="0.53029">
        <ele>141.26334036585</ele>
        <time>2015-08-08T16:10:06Z</time>
      </trkpt>
      <trkpt lat="45.47527" lon="0.53029">
        <ele>141.26334036585</ele>
        <time>2015-08-08T16:10:11Z</time>
      </trkpt>
      <trkpt lat="45.47527" lon="0.5303">
        <ele>141.26334036585</ele>
        <time>2015-08-08T16:10:16Z</time>
      </trkpt>
      <trkpt lat="45.47527" lon="0.5303">
        <ele>141.26334036585</ele>
        <time>2015-08-08T16:10:21Z</time>
      </trkpt>
      <trkpt lat="45.47524" lon="0.53031">
        <ele>141.26334036585</ele>
        <time>2015-08-08T16:10:26Z</time>
      </trkpt>
      <trkpt lat="45.47518" lon="0.5303">
        <ele>140.74895326425</ele>
        <time>2015-08-08T16:10:31Z</time>
      </trkpt>
      <trkpt lat="45.47514" lon="0.53028">
        <ele>140.74895326425</ele>
        <time>2015-08-08T16:10:36Z</time>
      </trkpt>
      <trkpt lat="45.47509" lon="0.53025">
        <ele>140.30938876222</ele>
        <time>2015-08-08T16:10:41Z</time>
      </trkpt>
      <trkpt lat="45.47503" lon="0.53019">
        <ele>140.30938876222</ele>
        <time>2015-08-08T16:10:46Z</time>
      </trkpt>
      <trkpt lat="45.47499" lon="0.53016">
        <ele>140.50368997529</ele>
        <time>2015-08-08T16:10:51Z</time>
      </trkpt>
      <trkpt lat="45.47491" lon="0.53011">
        <ele>140.50368997529</ele>
        <time>2015-08-08T16:10:56Z</time>
      </trkpt>
      <trkpt lat="45.47486" lon="0.53004">
        <ele>141.24279334644</ele>
        <time>2015-08-08T16:11:01Z</time>
      </trkpt>
      <trkpt lat="45.47479" lon="0.53006">
        <ele>141.24279334644</ele>
        <time>2015-08-08T16:11:06Z</time>
      </trkpt>
      <trkpt lat="45.47473" lon="0.53007">
        <ele>141.95267373569</ele>
        <time>2015-08-08T16:11:11Z</time>
      </trkpt>
      <trkpt lat="45.47466" lon="0.53008">
        <ele>141.95267373569</ele>
        <time>2015-08-08T16:11:16Z</time>
      </trkpt>
      <trkpt lat="45.47461" lon="0.53013">
        <ele>142.75005754841</ele>
        <time>2015-08-08T16:11:21Z</time>
      </trkpt>
      <trkpt lat="45.47454" lon="0.53017">
        <ele>142.75005754841</ele>
        <time>2015-08-08T16:11:26Z</time>
      </trkpt>
      <trkpt lat="45.47447" lon="0.53018">
        <ele>143.1519980002</ele>
        <time>2015-08-08T16:11:31Z</time>
      </trkpt>
      <trkpt lat="45.4744" lon="0.53022">
        <ele>143.1519980002</ele>
        <time>2015-08-08T16:11:36Z</time>
      </trkpt>
      <trkpt lat="45.47434" lon="0.53026">
        <ele>143.50474987994</ele>
        <time>2015-08-08T16:11:41Z</time>
      </trkpt>
      <trkpt lat="45.47427" lon="0.53028">
        <ele>143.50474987994</ele>
        <time>2015-08-08T16:11:46Z</time>
      </trkpt>
      <trkpt lat="45.47425" lon="0.53034">
        <ele>143.58165148954</ele>
        <time>2015-08-08T16:11:51Z</time>
      </trkpt>
      <trkpt lat="45.47422" lon="0.5304">
        <ele>143.58165148954</ele>
        <time>2015-08-08T16:11:56Z</time>
      </trkpt>
      <trkpt lat="45.47419" lon="0.53047">
        <ele>143.20228913703</ele>
        <time>2015-08-08T16:12:01Z</time>
      </trkpt>
      <trkpt lat="45.47414" lon="0.53053">
        <ele>143.20228913703</ele>
        <time>2015-08-08T16:12:06Z</time>
      </trkpt>
      <trkpt lat="45.47411" lon="0.53059">
        <ele>142.95015816188</ele>
        <time>2015-08-08T16:12:11Z</time>
      </trkpt>
      <trkpt lat="45.47404" lon="0.5306">
        <ele>142.95015816188</ele>
        <time>2015-08-08T16:12:16Z</time>
      </trkpt>
      <trkpt lat="45.47398" lon="0.53064">
        <ele>142.52968194997</ele>
        <time>2015-08-08T16:12:21Z</time>
      </trkpt>
      <trkpt lat="45.47392" lon="0.53068">
        <ele>142.52968194997</ele>
        <time>2015-08-08T16:12:26Z</time>
      </trkpt>
      <trkpt lat="45.47387" lon="0.53069">
        <ele>142.28713449666</ele>
        <time>2015-08-08T16:12:31Z</time>
      </trkpt>
      <trkpt lat="45.47382" lon="0.53073">
        <ele>142.28713449666</ele>
        <time>2015-08-08T16:12:36Z</time>
      </trkpt>
      <trkpt lat="45.47378" lon="0.53077">
        <ele>141.85110156281</ele>
        <time>2015-08-08T16:12:41Z</time>
      </trkpt>
      <trkpt lat="45.47374" lon="0.53077">
        <ele>141.85110156281</ele>
        <time>2015-08-08T16:12:46Z</time>
      </trkpt>
      <trkpt lat="45.4737" lon="0.5308">
        <ele>141.85110156281</ele>
        <time>2015-08-08T16:12:51Z</time>
      </trkpt>
      <trkpt lat="45.47366" lon="0.53086">
        <ele>140.64739254193</ele>
        <time>2015-08-08T16:12:56Z</time>
      </trkpt>
      <trkpt lat="45.47362" lon="0.53092">
        <ele>140.64739254193</ele>
        <time>2015-08-08T16:13:01Z</time>
      </trkpt>
      <trkpt lat="45.47358" lon="0.531">
        <ele>140.52395359975</ele>
        <time>2015-08-08T16:13:06Z</time>
      </trkpt>
      <trkpt lat="45.47353" lon="0.53104">
        <ele>140.52395359975</ele>
        <time>2015-08-08T16:13:11Z</time>
      </trkpt>
      <trkpt lat="45.47347" lon="0.53107">
        <ele>140.6247369387</ele>
        <time>2015-08-08T16:13:16Z</time>
      </trkpt>
      <trkpt lat="45.47342" lon="0.53113">
        <ele>140.6247369387</ele>
        <time>2015-08-08T16:13:21Z</time>
      </trkpt>
      <trkpt lat="45.47339" lon="0.53119">
        <ele>141.40967944229</ele>
        <time>2015-08-08T16:13:26Z</time>
      </trkpt>
      <trkpt lat="45.47335" lon="0.53126">
        <ele>141.40967944229</ele>
        <time>2015-08-08T16:13:31Z</time>
      </trkpt>
      <trkpt lat="45.47331" lon="0.53131">
        <ele>141.6745169783</ele>
        <time>2015-08-08T16:13:36Z</time>
      </trkpt>
      <trkpt lat="45.47326" lon="0.53134">
        <ele>141.6745169783</ele>
        <time>2015-08-08T16:13:41Z</time>
      </trkpt>
      <trkpt lat="45.47321" lon="0.53138">
        <ele>141.83245044823</ele>
        <time>2015-08-08T16:13:46Z</time>
      </trkpt>
      <trkpt lat="45.47316" lon="0.53142">
        <ele>141.83245044823</ele>
        <time>2015-08-08T16:13:51Z</time>
      </trkpt>
      <trkpt lat="45.47307" lon="0.53145">
        <ele>142.7277496319</ele>
        <time>2015-08-08T16:13:56Z</time>
      </trkpt>
      <trkpt lat="45.47305" lon="0.53149">
        <ele>142.7277496319</ele>
        <time>2015-08-08T16:14:01Z</time>
      </trkpt>
      <trkpt lat="45.47301" lon="0.53152">
        <ele>142.7277496319</ele>
        <time>2015-08-08T16:14:06Z</time>
      </trkpt>
      <trkpt lat="45.47296" lon="0.53155">
        <ele>144.34795694838</ele>
        <time>2015-08-08T16:14:11Z</time>
      </trkpt>
      <trkpt lat="45.47294" lon="0.5316">
        <ele>144.34795694838</ele>
        <time>2015-08-08T16:14:16Z</time>
      </trkpt>
      <trkpt lat="45.47291" lon="0.53167">
        <ele>145.77157446054</ele>
        <time>2015-08-08T16:14:21Z</time>
      </trkpt>
      <trkpt lat="45.47286" lon="0.5317">
        <ele>145.77157446054</ele>
        <time>2015-08-08T16:14:26Z</time>
      </trkpt>
      <trkpt lat="45.47285" lon="0.53177">
        <ele>146.82265714174</ele>
        <time>2015-08-08T16:14:31Z</time>
      </trkpt>
      <trkpt lat="45.4728" lon="0.53182">
        <ele>146.82265714174</ele>
        <time>2015-08-08T16:14:36Z</time>
      </trkpt>
      <trkpt lat="45.47277" lon="0.5319">
        <ele>147.42569079468</ele>
        <time>2015-08-08T16:14:41Z</time>
      </trkpt>
      <trkpt lat="45.47275" lon="0.53201">
        <ele>147.42569079468</ele>
        <time>2015-08-08T16:14:46Z</time>
      </trkpt>
      <trkpt lat="45.47272" lon="0.53212">
        <ele>148.56397868243</ele>
        <time>2015-08-08T16:14:51Z</time>
      </trkpt>
      <trkpt lat="45.47266" lon="0.53218">
        <ele>148.56397868243</ele>
        <time>2015-08-08T16:14:56Z</time>
      </trkpt>
      <trkpt lat="45.47262" lon="0.53224">
        <ele>149.28806245062</ele>
        <time>2015-08-08T16:15:01Z</time>
      </trkpt>
      <trkpt lat="45.47259" lon="0.5323">
        <ele>149.28806245062</ele>
        <time>2015-08-08T16:15:06Z</time>
      </trkpt>
      <trkpt lat="45.47257" lon="0.53242">
        <ele>150.33344863216</ele>
        <time>2015-08-08T16:15:11Z</time>
      </trkpt>
      <trkpt lat="45.47255" lon="0.53253">
        <ele>150.33344863216</ele>
        <time>2015-08-08T16:15:16Z</time>
      </trkpt>
      <trkpt lat="45.47253" lon="0.53263">
        <ele>151.7610504085</ele>
        <time>2015-08-08T16:15:21Z</time>
      </trkpt>
      <trkpt lat="45.47251" lon="0.53272">
        <ele>151.7610504085</ele>
        <time>2015-08-08T16:15:26Z</time>
      </trkpt>
      <trkpt lat="45.47247" lon="0.53282">
        <ele>153.42450010914</ele>
        <time>2015-08-08T16:15:31Z</time>
      </trkpt>
      <trkpt lat="45.47243" lon="0.5329">
        <ele>153.42450010914</ele>
        <time>2015-08-08T16:15:36Z</time>
      </trkpt>
      <trkpt lat="45.47241" lon="0.53298">
        <ele>155.27401564259</ele>
        <time>2015-08-08T16:15:41Z</time>
      </trkpt>
      <trkpt lat="45.47241" lon="0.53307">
        <ele>155.27401564259</ele>
        <time>2015-08-08T16:15:46Z</time>
      </trkpt>
      <trkpt lat="45.47243" lon="0.53314">
        <ele>156.29744017354</ele>
        <time>2015-08-08T16:15:51Z</time>
      </trkpt>
      <trkpt lat="45.47249" lon="0.53319">
        <ele>156.29744017354</ele>
        <time>2015-08-08T16:15:56Z</time>
      </trkpt>
      <trkpt lat="45.47256" lon="0.53321">
        <ele>157.80746317245</ele>
        <time>2015-08-08T16:16:01Z</time>
      </trkpt>
      <trkpt lat="45.47259" lon="0.53322">
        <ele>157.80746317245</ele>
        <time>2015-08-08T16:16:06Z</time>
      </trkpt>
      <trkpt lat="45.47263" lon="0.53317">
        <ele>157.80746317245</ele>
        <time>2015-08-08T16:16:11Z</time>
      </trkpt>
      <trkpt lat="45.47268" lon="0.53315">
        <ele>158.78530401383</ele>
        <time>2015-08-08T16:16:16Z</time>
      </trkpt>
      <trkpt lat="45.47272" lon="0.53309">
        <ele>158.78530401383</ele>
        <time>2015-08-08T16:16:21Z</time>
      </trkpt>
      <trkpt lat="45.47276" lon="0.53304">
        <ele>159.8305546128</ele>
        <time>2015-08-08T16:16:26Z</time>
      </trkpt>
      <trkpt lat="45.4728" lon="0.53299">
        <ele>159.8305546128</ele>
        <time>2015-08-08T16:16:31Z</time>
      </trkpt>
      <trkpt lat="45.47285" lon="0.53296">
        <ele>160.87894728515</ele>
        <time>2015-08-08T16:16:36Z</time>
      </trkpt>
      <trkpt lat="45.47286" lon="0.53295">
        <ele>160.87894728515</ele>
        <time>2015-08-08T16:16:41Z</time>
      </trkpt>
      <trkpt lat="45.47286" lon="0.53295">
        <ele>160.87894728515</ele>
        <time>2015-08-08T16:16:46Z</time>
      </trkpt>
      <trkpt lat="45.47289" lon="0.53285">
        <ele>162.02950375828</ele>
        <time>2015-08-08T16:16:51Z</time>
      </trkpt>
      <trkpt lat="45.47292" lon="0.5328">
        <ele>162.02950375828</ele>
        <time>2015-08-08T16:16:56Z</time>
      </trkpt>
      <trkpt lat="45.47293" lon="0.5328">
        <ele>162.02950375828</ele>
        <time>2015-08-08T16:17:01Z</time>
      </trkpt>
      <trkpt lat="45.47293" lon="0.5328">
        <ele>162.02950375828</ele>
        <time>2015-08-08T16:17:06Z</time>
      </trkpt>
      <trkpt lat="45.47293" lon="0.53279">
        <ele>162.02950375828</ele>
        <time>2015-08-08T16:17:11Z</time>
      </trkpt>
      <trkpt lat="45.47293" lon="0.53279">
        <ele>162.02950375828</ele>
        <time>2015-08-08T16:17:16Z</time>
      </trkpt>
      <trkpt lat="45.47292" lon="0.53269">
        <ele>162.53789502287</ele>
        <time>2015-08-08T16:17:21Z</time>
      </trkpt>
      <trkpt lat="45.47292" lon="0.53263">
        <ele>162.53789502287</ele>
        <time>2015-08-08T16:17:26Z</time>
      </trkpt>
      <trkpt lat="45.47296" lon="0.53257">
        <ele>162.92685892524</ele>
        <time>2015-08-08T16:17:31Z</time>
      </trkpt>
      <trkpt lat="45.47299" lon="0.53249">
        <ele>162.92685892524</ele>
        <time>2015-08-08T16:17:36Z</time>
      </trkpt>
      <trkpt lat="45.473" lon="0.53244">
        <ele>163.75317585529</ele>
        <time>2015-08-08T16:17:41Z</time>
      </trkpt>
      <trkpt lat="45.47298" lon="0.53238">
        <ele>163.75317585529</ele>
        <time>2015-08-08T16:17:46Z</time>
      </trkpt>
      <trkpt lat="45.47298" lon="0.53233">
        <ele>163.75317585529</ele>
        <time>2015-08-08T16:17:51Z</time>
      </trkpt>
      <trkpt lat="45.47296" lon="0.53224">
        <ele>163.47075636977</ele>
        <time>2015-08-08T16:17:56Z</time>
      </trkpt>
      <trkpt lat="45.47298" lon="0.53222">
        <ele>163.47075636977</ele>
        <time>2015-08-08T16:18:01Z</time>
      </trkpt>
      <trkpt lat="45.47298" lon="0.5322">
        <ele>163.47075636977</ele>
        <time>2015-08-08T16:18:06Z</time>
      </trkpt>
      <trkpt lat="45.47298" lon="0.53213">
        <ele>163.33070569921</ele>
        <time>2015-08-08T16:18:11Z</time>
      </trkpt>
      <trkpt lat="45.47297" lon="0.53212">
        <ele>163.33070569921</ele>
        <time>2015-08-08T16:18:16Z</time>
      </trkpt>
      <trkpt lat="45.47298" lon="0.53211">
        <ele>163.33070569921</ele>
        <time>2015-08-08T16:18:21Z</time>
      </trkpt>
      <trkpt lat="45.47298" lon="0.53211">
        <ele>163.33070569921</ele>
        <time>2015-08-08T16:18:26Z</time>
      </trkpt>
      <trkpt lat="45.47298" lon="0.53211">
        <ele>163.33070569921</ele>
        <time>2015-08-08T16:18:31Z</time>
      </trkpt>
      <trkpt lat="45.47299" lon="0.53208">
        <ele>163.33070569921</ele>
        <time>2015-08-08T16:18:36Z</time>
      </trkpt>
      <trkpt lat="45.47297" lon="0.5319">
        <ele>164.40539470417</ele>
        <time>2015-08-08T16:18:41Z</time>
      </trkpt>
      <trkpt lat="45.47302" lon="0.53188">
        <ele>164.40539470417</ele>
        <time>2015-08-08T16:18:46Z</time>
      </trkpt>
      <trkpt lat="45.47305" lon="0.53184">
        <ele>164.40539470417</ele>
        <time>2015-08-08T16:18:51Z</time>
      </trkpt>
      <trkpt lat="45.47305" lon="0.53183">
        <ele>164.32725169382</ele>
        <time>2015-08-08T16:18:56Z</time>
      </trkpt>
      <trkpt lat="45.47308" lon="0.53178">
        <ele>164.32725169382</ele>
        <time>2015-08-08T16:19:01Z</time>
      </trkpt>
      <trkpt lat="45.47313" lon="0.53173">
        <ele>163.78810702398</ele>
        <time>2015-08-08T16:19:06Z</time>
      </trkpt>
      <trkpt lat="45.47317" lon="0.5317">
        <ele>163.78810702398</ele>
        <time>2015-08-08T16:19:11Z</time>
      </trkpt>
      <trkpt lat="45.47323" lon="0.5317">
        <ele>162.96912414712</ele>
        <time>2015-08-08T16:19:16Z</time>
      </trkpt>
      <trkpt lat="45.4733" lon="0.53167">
        <ele>162.96912414712</ele>
        <time>2015-08-08T16:19:21Z</time>
      </trkpt>
      <trkpt lat="45.47335" lon="0.53167">
        <ele>162.55775263156</ele>
        <time>2015-08-08T16:19:26Z</time>
      </trkpt>
      <trkpt lat="45.47337" lon="0.53166">
        <ele>162.55775263156</ele>
        <time>2015-08-08T16:19:31Z</time>
      </trkpt>
      <trkpt lat="45.47344" lon="0.53162">
        <ele>161.76309684906</ele>
        <time>2015-08-08T16:19:42Z</time>
      </trkpt>
      <trkpt lat="45.47348" lon="0.53161">
        <ele>161.76309684906</ele>
        <time>2015-08-08T16:19:46Z</time>
      </trkpt>
      <trkpt lat="45.47362" lon="0.53156">
        <ele>160.18487727533</ele>
        <time>2015-08-08T16:19:56Z</time>
      </trkpt>
      <trkpt lat="45.47366" lon="0.53158">
        <ele>160.18487727533</ele>
        <time>2015-08-08T16:20:02Z</time>
      </trkpt>
      <trkpt lat="45.47375" lon="0.53144">
        <ele>158.56404674069</ele>
        <time>2015-08-08T16:20:11Z</time>
      </trkpt>
      <trkpt lat="45.47382" lon="0.53138">
        <ele>158.56404674069</ele>
        <time>2015-08-08T16:20:16Z</time>
      </trkpt>
      <trkpt lat="45.47386" lon="0.53134">
        <ele>156.90988569106</ele>
        <time>2015-08-08T16:20:21Z</time>
      </trkpt>
      <trkpt lat="45.47388" lon="0.53129">
        <ele>156.90988569106</ele>
        <time>2015-08-08T16:20:26Z</time>
      </trkpt>
      <trkpt lat="45.47389" lon="0.53126">
        <ele>156.90988569106</ele>
        <time>2015-08-08T16:20:31Z</time>
      </trkpt>
      <trkpt lat="45.47391" lon="0.53121">
        <ele>155.62013314567</ele>
        <time>2015-08-08T16:20:36Z</time>
      </trkpt>
      <trkpt lat="45.47393" lon="0.53119">
        <ele>155.62013314567</ele>
        <time>2015-08-08T16:20:41Z</time>
      </trkpt>
      <trkpt lat="45.47393" lon="0.53119">
        <ele>155.62013314567</ele>
        <time>2015-08-08T16:20:46Z</time>
      </trkpt>
      <trkpt lat="45.47393" lon="0.53117">
        <ele>155.62013314567</ele>
        <time>2015-08-08T16:20:51Z</time>
      </trkpt>
      <trkpt lat="45.47394" lon="0.53117">
        <ele>155.62013314567</ele>
        <time>2015-08-08T16:20:56Z</time>
      </trkpt>
      <trkpt lat="45.47397" lon="0.53113">
        <ele>155.62013314567</ele>
        <time>2015-08-08T16:21:01Z</time>
      </trkpt>
      <trkpt lat="45.474" lon="0.53108">
        <ele>153.99579824607</ele>
        <time>2015-08-08T16:21:06Z</time>
      </trkpt>
      <trkpt lat="45.47407" lon="0.53106">
        <ele>153.99579824607</ele>
        <time>2015-08-08T16:21:11Z</time>
      </trkpt>
      <trkpt lat="45.47409" lon="0.53108">
        <ele>152.38446345629</ele>
        <time>2015-08-08T16:21:16Z</time>
      </trkpt>
      <trkpt lat="45.47408" lon="0.53112">
        <ele>152.38446345629</ele>
        <time>2015-08-08T16:21:21Z</time>
      </trkpt>
      <trkpt lat="45.47411" lon="0.53121">
        <ele>150.34426056878</ele>
        <time>2015-08-08T16:21:26Z</time>
      </trkpt>
      <trkpt lat="45.47415" lon="0.53127">
        <ele>150.34426056878</ele>
        <time>2015-08-08T16:21:31Z</time>
      </trkpt>
      <trkpt lat="45.47419" lon="0.5313">
        <ele>147.9280355632</ele>
        <time>2015-08-08T16:21:36Z</time>
      </trkpt>
      <trkpt lat="45.47422" lon="0.53129">
        <ele>147.9280355632</ele>
        <time>2015-08-08T16:21:41Z</time>
      </trkpt>
      <trkpt lat="45.47425" lon="0.53129">
        <ele>147.9280355632</ele>
        <time>2015-08-08T16:21:46Z</time>
      </trkpt>
      <trkpt lat="45.4743" lon="0.53127">
        <ele>145.99271380133</ele>
        <time>2015-08-08T16:21:51Z</time>
      </trkpt>
      <trkpt lat="45.47435" lon="0.53126">
        <ele>145.99271380133</ele>
        <time>2015-08-08T16:21:56Z</time>
      </trkpt>
      <trkpt lat="45.47437" lon="0.53125">
        <ele>145.99271380133</ele>
        <time>2015-08-08T16:22:01Z</time>
      </trkpt>
      <trkpt lat="45.47443" lon="0.53125">
        <ele>144.13467217298</ele>
        <time>2015-08-08T16:22:06Z</time>
      </trkpt>
      <trkpt lat="45.47443" lon="0.53127">
        <ele>144.13467217298</ele>
        <time>2015-08-08T16:22:11Z</time>
      </trkpt>
      <trkpt lat="45.47445" lon="0.53129">
        <ele>144.13467217298</ele>
        <time>2015-08-08T16:22:16Z</time>
      </trkpt>
      <trkpt lat="45.47447" lon="0.53131">
        <ele>144.13467217298</ele>
        <time>2015-08-08T16:22:21Z</time>
      </trkpt>
      <trkpt lat="45.47448" lon="0.53131">
        <ele>144.13467217298</ele>
        <time>2015-08-08T16:22:26Z</time>
      </trkpt>
      <trkpt lat="45.4745" lon="0.53131">
        <ele>141.54724795397</ele>
        <time>2015-08-08T16:22:31Z</time>
      </trkpt>
      <trkpt lat="45.47454" lon="0.53133">
        <ele>141.54724795397</ele>
        <time>2015-08-08T16:22:36Z</time>
      </trkpt>
      <trkpt lat="45.47461" lon="0.53138">
        <ele>139.35837733334</ele>
        <time>2015-08-08T16:22:41Z</time>
      </trkpt>
      <trkpt lat="45.47465" lon="0.53142">
        <ele>139.35837733334</ele>
        <time>2015-08-08T16:22:46Z</time>
      </trkpt>
      <trkpt lat="45.47467" lon="0.53146">
        <ele>139.35837733334</ele>
        <time>2015-08-08T16:22:51Z</time>
      </trkpt>
      <trkpt lat="45.47469" lon="0.53148">
        <ele>136.99781714048</ele>
        <time>2015-08-08T16:22:56Z</time>
      </trkpt>
      <trkpt lat="45.47471" lon="0.5315">
        <ele>136.99781714048</ele>
        <time>2015-08-08T16:23:01Z</time>
      </trkpt>
      <trkpt lat="45.47471" lon="0.5315">
        <ele>136.99781714048</ele>
        <time>2015-08-08T16:23:06Z</time>
      </trkpt>
      <trkpt lat="45.47471" lon="0.5315">
        <ele>136.99781714048</ele>
        <time>2015-08-08T16:23:11Z</time>
      </trkpt>
      <trkpt lat="45.47471" lon="0.5315">
        <ele>136.99781714048</ele>
        <time>2015-08-08T16:23:16Z</time>
      </trkpt>
      <trkpt lat="45.47471" lon="0.5315">
        <ele>136.99781714048</ele>
        <time>2015-08-08T16:23:21Z</time>
      </trkpt>
      <trkpt lat="45.47471" lon="0.53148">
        <ele>136.99781714048</ele>
        <time>2015-08-08T16:23:26Z</time>
      </trkpt>
      <trkpt lat="45.47475" lon="0.53142">
        <ele>135.65245259769</ele>
        <time>2015-08-08T16:23:31Z</time>
      </trkpt>
      <trkpt lat="45.47479" lon="0.53137">
        <ele>135.65245259769</ele>
        <time>2015-08-08T16:23:36Z</time>
      </trkpt>
      <trkpt lat="45.47484" lon="0.53138">
        <ele>134.77609548211</ele>
        <time>2015-08-08T16:23:41Z</time>
      </trkpt>
      <trkpt lat="45.47489" lon="0.53133">
        <ele>134.77609548211</ele>
        <time>2015-08-08T16:23:46Z</time>
      </trkpt>
      <trkpt lat="45.47492" lon="0.53126">
        <ele>134.35117224775</ele>
        <time>2015-08-08T16:23:51Z</time>
      </trkpt>
      <trkpt lat="45.47496" lon="0.5312">
        <ele>134.35117224775</ele>
        <time>2015-08-08T16:23:56Z</time>
      </trkpt>
      <trkpt lat="45.475" lon="0.53113">
        <ele>133.95645637333</ele>
        <time>2015-08-08T16:24:01Z</time>
      </trkpt>
      <trkpt lat="45.47501" lon="0.53108">
        <ele>133.95645637333</ele>
        <time>2015-08-08T16:24:06Z</time>
      </trkpt>
      <trkpt lat="45.47496" lon="0.53104">
        <ele>133.54728766349</ele>
        <time>2015-08-08T16:24:11Z</time>
      </trkpt>
      <trkpt lat="45.47495" lon="0.53105">
        <ele>133.54728766349</ele>
        <time>2015-08-08T16:24:16Z</time>
      </trkpt>
      <trkpt lat="45.47495" lon="0.53106">
        <ele>133.54728766349</ele>
        <time>2015-08-08T16:24:21Z</time>
      </trkpt>
      <trkpt lat="45.47495" lon="0.53107">
        <ele>133.54728766349</ele>
        <time>2015-08-08T16:24:26Z</time>
      </trkpt>
      <trkpt lat="45.47493" lon="0.53121">
        <ele>137.93049348463</ele>
        <time>2015-08-08T16:24:56Z</time>
      </trkpt>
      <trkpt lat="45.47489" lon="0.5313">
        <ele>137.93049348463</ele>
        <time>2015-08-08T16:25:01Z</time>
      </trkpt>
      <trkpt lat="45.4748" lon="0.53137">
        <ele>138.8690935709</ele>
        <time>2015-08-08T16:25:11Z</time>
      </trkpt>
      <trkpt lat="45.47476" lon="0.53143">
        <ele>138.8690935709</ele>
        <time>2015-08-08T16:25:16Z</time>
      </trkpt>
      <trkpt lat="45.47471" lon="0.53156">
        <ele>137.50316218487</ele>
        <time>2015-08-08T16:25:26Z</time>
      </trkpt>
      <trkpt lat="45.47467" lon="0.53159">
        <ele>137.50316218487</ele>
        <time>2015-08-08T16:25:31Z</time>
      </trkpt>
      <trkpt lat="45.4746" lon="0.53176">
        <ele>137.98839165744</ele>
        <time>2015-08-08T16:25:41Z</time>
      </trkpt>
      <trkpt lat="45.4745" lon="0.53175">
        <ele>139.22274415001</ele>
        <time>2015-08-08T16:25:46Z</time>
      </trkpt>
      <trkpt lat="45.47439" lon="0.53177">
        <ele>140.74214915338</ele>
        <time>2015-08-08T16:25:56Z</time>
      </trkpt>
      <trkpt lat="45.47435" lon="0.53176">
        <ele>140.74214915338</ele>
        <time>2015-08-08T16:26:01Z</time>
      </trkpt>
      <trkpt lat="45.47432" lon="0.53169">
        <ele>142.19444702816</ele>
        <time>2015-08-08T16:26:06Z</time>
      </trkpt>
      <trkpt lat="45.47427" lon="0.53165">
        <ele>142.19444702816</ele>
        <time>2015-08-08T16:26:11Z</time>
      </trkpt>
      <trkpt lat="45.47425" lon="0.53164">
        <ele>142.19444702816</ele>
        <time>2015-08-08T16:26:16Z</time>
      </trkpt>
      <trkpt lat="45.47422" lon="0.53164">
        <ele>143.97488276804</ele>
        <time>2015-08-08T16:26:21Z</time>
      </trkpt>
      <trkpt lat="45.47418" lon="0.53163">
        <ele>143.97488276804</ele>
        <time>2015-08-08T16:26:26Z</time>
      </trkpt>
      <trkpt lat="45.47417" lon="0.53171">
        <ele>145.18239618794</ele>
        <time>2015-08-08T16:26:31Z</time>
      </trkpt>
      <trkpt lat="45.47415" lon="0.53176">
        <ele>145.18239618794</ele>
        <time>2015-08-08T16:26:36Z</time>
      </trkpt>
      <trkpt lat="45.47414" lon="0.53187">
        <ele>146.94974545168</ele>
        <time>2015-08-08T16:26:41Z</time>
      </trkpt>
      <trkpt lat="45.47413" lon="0.53194">
        <ele>146.94974545168</ele>
        <time>2015-08-08T16:26:46Z</time>
      </trkpt>
      <trkpt lat="45.4741" lon="0.53204">
        <ele>147.19247123877</ele>
        <time>2015-08-08T16:26:51Z</time>
      </trkpt>
      <trkpt lat="45.47407" lon="0.53214">
        <ele>147.19247123877</ele>
        <time>2015-08-08T16:26:56Z</time>
      </trkpt>
      <trkpt lat="45.47404" lon="0.53222">
        <ele>147.3579939737</ele>
        <time>2015-08-08T16:27:01Z</time>
      </trkpt>
      <trkpt lat="45.47401" lon="0.53229">
        <ele>147.3579939737</ele>
        <time>2015-08-08T16:27:06Z</time>
      </trkpt>
      <trkpt lat="45.47401" lon="0.53241">
        <ele>148.17900050906</ele>
        <time>2015-08-08T16:27:11Z</time>
      </trkpt>
      <trkpt lat="45.47397" lon="0.53246">
        <ele>148.17900050906</ele>
        <time>2015-08-08T16:27:16Z</time>
      </trkpt>
      <trkpt lat="45.47398" lon="0.53257">
        <ele>149.12175143807</ele>
        <time>2015-08-08T16:27:21Z</time>
      </trkpt>
      <trkpt lat="45.47395" lon="0.53263">
        <ele>149.12175143807</ele>
        <time>2015-08-08T16:27:26Z</time>
      </trkpt>
      <trkpt lat="45.47394" lon="0.5327">
        <ele>149.19845802184</ele>
        <time>2015-08-08T16:27:31Z</time>
      </trkpt>
      <trkpt lat="45.47394" lon="0.53279">
        <ele>149.19845802184</ele>
        <time>2015-08-08T16:27:36Z</time>
      </trkpt>
      <trkpt lat="45.47392" lon="0.53288">
        <ele>148.98091953656</ele>
        <time>2015-08-08T16:27:41Z</time>
      </trkpt>
      <trkpt lat="45.47391" lon="0.53295">
        <ele>148.98091953656</ele>
        <time>2015-08-08T16:27:46Z</time>
      </trkpt>
      <trkpt lat="45.4739" lon="0.53303">
        <ele>147.67857070001</ele>
        <time>2015-08-08T16:27:51Z</time>
      </trkpt>
      <trkpt lat="45.4739" lon="0.53312">
        <ele>147.67857070001</ele>
        <time>2015-08-08T16:27:56Z</time>
      </trkpt>
      <trkpt lat="45.4739" lon="0.53322">
        <ele>146.57184964966</ele>
        <time>2015-08-08T16:28:01Z</time>
      </trkpt>
      <trkpt lat="45.47391" lon="0.53334">
        <ele>146.57184964966</ele>
        <time>2015-08-08T16:28:06Z</time>
      </trkpt>
      <trkpt lat="45.47394" lon="0.53341">
        <ele>145.42985211179</ele>
        <time>2015-08-08T16:28:11Z</time>
      </trkpt>
      <trkpt lat="45.47394" lon="0.53348">
        <ele>145.42985211179</ele>
        <time>2015-08-08T16:28:16Z</time>
      </trkpt>
      <trkpt lat="45.47392" lon="0.53351">
        <ele>145.42985211179</ele>
        <time>2015-08-08T16:28:21Z</time>
      </trkpt>
      <trkpt lat="45.47391" lon="0.53353">
        <ele>145.42985211179</ele>
        <time>2015-08-08T16:28:26Z</time>
      </trkpt>
      <trkpt lat="45.47391" lon="0.53356">
        <ele>144.80062925553</ele>
        <time>2015-08-08T16:28:31Z</time>
      </trkpt>
      <trkpt lat="45.47391" lon="0.53358">
        <ele>144.80062925553</ele>
        <time>2015-08-08T16:28:36Z</time>
      </trkpt>
      <trkpt lat="45.4739" lon="0.5336">
        <ele>144.80062925553</ele>
        <time>2015-08-08T16:28:41Z</time>
      </trkpt>
      <trkpt lat="45.47389" lon="0.53363">
        <ele>144.80062925553</ele>
        <time>2015-08-08T16:28:46Z</time>
      </trkpt>
      <trkpt lat="45.47388" lon="0.53366">
        <ele>144.80062925553</ele>
        <time>2015-08-08T16:28:51Z</time>
      </trkpt>
      <trkpt lat="45.47387" lon="0.53367">
        <ele>145.00180660156</ele>
        <time>2015-08-08T16:28:56Z</time>
      </trkpt>
      <trkpt lat="45.47387" lon="0.53371">
        <ele>145.00180660156</ele>
        <time>2015-08-08T16:29:01Z</time>
      </trkpt>
      <trkpt lat="45.47386" lon="0.5337">
        <ele>145.00180660156</ele>
        <time>2015-08-08T16:29:06Z</time>
      </trkpt>
      <trkpt lat="45.47386" lon="0.53369">
        <ele>145.00180660156</ele>
        <time>2015-08-08T16:29:11Z</time>
      </trkpt>
      <trkpt lat="45.47386" lon="0.5337">
        <ele>145.00180660156</ele>
        <time>2015-08-08T16:29:16Z</time>
      </trkpt>
      <trkpt lat="45.47386" lon="0.5337">
        <ele>145.00180660156</ele>
        <time>2015-08-08T16:29:21Z</time>
      </trkpt>
      <trkpt lat="45.47382" lon="0.53373">
        <ele>145.71094102653</ele>
        <time>2015-08-08T16:29:26Z</time>
      </trkpt>
      <trkpt lat="45.47381" lon="0.53382">
        <ele>145.71094102653</ele>
        <time>2015-08-08T16:29:31Z</time>
      </trkpt>
      <trkpt lat="45.4738" lon="0.53387">
        <ele>146.70465322209</ele>
        <time>2015-08-08T16:29:36Z</time>
      </trkpt>
      <trkpt lat="45.47379" lon="0.53391">
        <ele>146.70465322209</ele>
        <time>2015-08-08T16:29:41Z</time>
      </trkpt>
      <trkpt lat="45.47378" lon="0.53395">
        <ele>146.70465322209</ele>
        <time>2015-08-08T16:29:46Z</time>
      </trkpt>
      <trkpt lat="45.47376" lon="0.534">
        <ele>147.62500730623</ele>
        <time>2015-08-08T16:29:51Z</time>
      </trkpt>
      <trkpt lat="45.47376" lon="0.53401">
        <ele>147.62500730623</ele>
        <time>2015-08-08T16:29:56Z</time>
      </trkpt>
      <trkpt lat="45.47376" lon="0.53402">
        <ele>147.62500730623</ele>
        <time>2015-08-08T16:30:01Z</time>
      </trkpt>
      <trkpt lat="45.47376" lon="0.53405">
        <ele>147.62500730623</ele>
        <time>2015-08-08T16:30:06Z</time>
      </trkpt>
      <trkpt lat="45.47374" lon="0.53409">
        <ele>147.62500730623</ele>
        <time>2015-08-08T16:30:11Z</time>
      </trkpt>
      <trkpt lat="45.47374" lon="0.53409">
        <ele>147.62500730623</ele>
        <time>2015-08-08T16:30:16Z</time>
      </trkpt>
      <trkpt lat="45.47373" lon="0.53409">
        <ele>147.62500730623</ele>
        <time>2015-08-08T16:30:21Z</time>
      </trkpt>
      <trkpt lat="45.47373" lon="0.53409">
        <ele>147.62500730623</ele>
        <time>2015-08-08T16:30:26Z</time>
      </trkpt>
      <trkpt lat="45.47373" lon="0.53409">
        <ele>147.62500730623</ele>
        <time>2015-08-08T16:30:31Z</time>
      </trkpt>
      <trkpt lat="45.47373" lon="0.53409">
        <ele>147.62500730623</ele>
        <time>2015-08-08T16:30:36Z</time>
      </trkpt>
      <trkpt lat="45.47372" lon="0.5341">
        <ele>147.88172402392</ele>
        <time>2015-08-08T16:30:46Z</time>
      </trkpt>
      <trkpt lat="45.47371" lon="0.5341">
        <ele>147.88172402392</ele>
        <time>2015-08-08T16:30:51Z</time>
      </trkpt>
      <trkpt lat="45.47377" lon="0.53409">
        <ele>147.88172402392</ele>
        <time>2015-08-08T16:31:06Z</time>
      </trkpt>
      <trkpt lat="45.47381" lon="0.53409">
        <ele>147.3574803769</ele>
        <time>2015-08-08T16:31:11Z</time>
      </trkpt>
      <trkpt lat="45.4739" lon="0.53411">
        <ele>146.21694018273</ele>
        <time>2015-08-08T16:31:21Z</time>
      </trkpt>
      <trkpt lat="45.47397" lon="0.53412">
        <ele>146.21694018273</ele>
        <time>2015-08-08T16:31:26Z</time>
      </trkpt>
      <trkpt lat="45.47402" lon="0.53413">
        <ele>144.78785997581</ele>
        <time>2015-08-08T16:31:31Z</time>
      </trkpt>
      <trkpt lat="45.47408" lon="0.53415">
        <ele>144.78785997581</ele>
        <time>2015-08-08T16:31:36Z</time>
      </trkpt>
      <trkpt lat="45.47414" lon="0.53417">
        <ele>143.01235193155</ele>
        <time>2015-08-08T16:31:41Z</time>
      </trkpt>
      <trkpt lat="45.47419" lon="0.53419">
        <ele>143.01235193155</ele>
        <time>2015-08-08T16:31:46Z</time>
      </trkpt>
      <trkpt lat="45.47425" lon="0.53422">
        <ele>140.89231440171</ele>
        <time>2015-08-08T16:31:51Z</time>
      </trkpt>
      <trkpt lat="45.47432" lon="0.53424">
        <ele>140.89231440171</ele>
        <time>2015-08-08T16:31:56Z</time>
      </trkpt>
      <trkpt lat="45.47438" lon="0.53429">
        <ele>138.73385943722</ele>
        <time>2015-08-08T16:32:01Z</time>
      </trkpt>
      <trkpt lat="45.47442" lon="0.53434">
        <ele>138.73385943722</ele>
        <time>2015-08-08T16:32:06Z</time>
      </trkpt>
      <trkpt lat="45.47449" lon="0.53439">
        <ele>136.41555072523</ele>
        <time>2015-08-08T16:32:11Z</time>
      </trkpt>
      <trkpt lat="45.47453" lon="0.53443">
        <ele>136.41555072523</ele>
        <time>2015-08-08T16:32:16Z</time>
      </trkpt>
      <trkpt lat="45.4746" lon="0.53447">
        <ele>133.99204650779</ele>
        <time>2015-08-08T16:32:21Z</time>
      </trkpt>
      <trkpt lat="45.47466" lon="0.53451">
        <ele>133.99204650779</ele>
        <time>2015-08-08T16:32:26Z</time>
      </trkpt>
      <trkpt lat="45.47471" lon="0.53456">
        <ele>131.54257371708</ele>
        <time>2015-08-08T16:32:31Z</time>
      </trkpt>
      <trkpt lat="45.47481" lon="0.53462">
        <ele>129.7700691558</ele>
        <time>2015-08-08T16:32:36Z</time>
      </trkpt>
      <trkpt lat="45.47487" lon="0.53465">
        <ele>129.7700691558</ele>
        <time>2015-08-08T16:32:41Z</time>
      </trkpt>
      <trkpt lat="45.47493" lon="0.5347">
        <ele>128.35601910654</ele>
        <time>2015-08-08T16:32:46Z</time>
      </trkpt>
      <trkpt lat="45.47493" lon="0.5347">
        <ele>128.35601910654</ele>
        <time>2015-08-08T16:32:51Z</time>
      </trkpt>
      <trkpt lat="45.47493" lon="0.5347">
        <ele>128.35601910654</ele>
        <time>2015-08-08T16:32:56Z</time>
      </trkpt>
      <trkpt lat="45.47493" lon="0.53469">
        <ele>128.35601910654</ele>
        <time>2015-08-08T16:33:01Z</time>
      </trkpt>
      <trkpt lat="45.47493" lon="0.53467">
        <ele>128.35601910654</ele>
        <time>2015-08-08T16:33:06Z</time>
      </trkpt>
      <trkpt lat="45.47494" lon="0.53468">
        <ele>128.35601910654</ele>
        <time>2015-08-08T16:33:11Z</time>
      </trkpt>
      <trkpt lat="45.47496" lon="0.53472">
        <ele>128.35601910654</ele>
        <time>2015-08-08T16:33:16Z</time>
      </trkpt>
      <trkpt lat="45.47498" lon="0.53472">
        <ele>127.43786105794</ele>
        <time>2015-08-08T16:33:21Z</time>
      </trkpt>
      <trkpt lat="45.47498" lon="0.53471">
        <ele>127.43786105794</ele>
        <time>2015-08-08T16:33:26Z</time>
      </trkpt>
      <trkpt lat="45.47504" lon="0.53469">
        <ele>127.43786105794</ele>
        <time>2015-08-08T16:33:36Z</time>
      </trkpt>
      <trkpt lat="45.47509" lon="0.53471">
        <ele>126.39431842782</ele>
        <time>2015-08-08T16:33:41Z</time>
      </trkpt>
      <trkpt lat="45.47518" lon="0.53465">
        <ele>125.62116356479</ele>
        <time>2015-08-08T16:33:51Z</time>
      </trkpt>
      <trkpt lat="45.47523" lon="0.53462">
        <ele>125.62116356479</ele>
        <time>2015-08-08T16:33:57Z</time>
      </trkpt>
      <trkpt lat="45.47537" lon="0.53467">
        <ele>124.76058810985</ele>
        <time>2015-08-08T16:34:06Z</time>
      </trkpt>
      <trkpt lat="45.4754" lon="0.53471">
        <ele>124.76058810985</ele>
        <time>2015-08-08T16:34:11Z</time>
      </trkpt>
      <trkpt lat="45.47545" lon="0.53477">
        <ele>123.67524181699</ele>
        <time>2015-08-08T16:34:16Z</time>
      </trkpt>
      <trkpt lat="45.4755" lon="0.53481">
        <ele>123.67524181699</ele>
        <time>2015-08-08T16:34:21Z</time>
      </trkpt>
      <trkpt lat="45.47555" lon="0.53485">
        <ele>121.90027129883</ele>
        <time>2015-08-08T16:34:26Z</time>
      </trkpt>
      <trkpt lat="45.4756" lon="0.53488">
        <ele>121.90027129883</ele>
        <time>2015-08-08T16:34:31Z</time>
      </trkpt>
      <trkpt lat="45.47567" lon="0.53492">
        <ele>120.94798430855</ele>
        <time>2015-08-08T16:34:36Z</time>
      </trkpt>
      <trkpt lat="45.47572" lon="0.53495">
        <ele>120.94798430855</ele>
        <time>2015-08-08T16:34:41Z</time>
      </trkpt>
      <trkpt lat="45.47579" lon="0.53497">
        <ele>120.04900555528</ele>
        <time>2015-08-08T16:34:46Z</time>
      </trkpt>
      <trkpt lat="45.47583" lon="0.53499">
        <ele>120.04900555528</ele>
        <time>2015-08-08T16:34:51Z</time>
      </trkpt>
      <trkpt lat="45.47588" lon="0.53501">
        <ele>119.46875032054</ele>
        <time>2015-08-08T16:34:56Z</time>
      </trkpt>
      <trkpt lat="45.47596" lon="0.53505">
        <ele>119.46875032054</ele>
        <time>2015-08-08T16:35:01Z</time>
      </trkpt>
      <trkpt lat="45.47601" lon="0.53508">
        <ele>119.36598461441</ele>
        <time>2015-08-08T16:35:06Z</time>
      </trkpt>
    </trkseg>
  </trk>
</gpx>